<?xml version="1.0" encoding="UTF-8" standalone="no" ?>
<gpx xmlns="http://www.topografix.com/GPX/1/1" xmlns:xsi="http://www.w3.org/2001/XMLSchema-instance" xsi:schemaLocation="http://www.topografix.com/GPX/1/1 http://www.topografix.com/GPX/1/1/gpx.xsd" version="1.1" creator="VisuGPX - https://www.visugpx.com">
  <metadata>
    <name>charade 1 le 6 6 2021.gpx</name>
  </metadata>
  <trk>
    <name><![CDATA[charade 1 le 6 6 2021.gpx]]></name>
    <trkseg>
      <trkpt lat="45.75143" lon="3.02794">
        <ele>844.5921</ele>
        <time>2021-06-06T07:02:52Z</time>
      </trkpt>
      <trkpt lat="45.75143" lon="3.02794">
        <ele>844.5921</ele>
        <time>2021-06-06T07:02:52Z</time>
      </trkpt>
      <trkpt lat="45.75143" lon="3.02794">
        <ele>844.63904</ele>
        <time>2021-06-06T07:02:53Z</time>
      </trkpt>
      <trkpt lat="45.75143" lon="3.02794">
        <ele>844.5296</ele>
        <time>2021-06-06T07:02:55Z</time>
      </trkpt>
      <trkpt lat="45.75143" lon="3.02794">
        <ele>844.5452</ele>
        <time>2021-06-06T07:02:56Z</time>
      </trkpt>
      <trkpt lat="45.75143" lon="3.02794">
        <ele>844.5452</ele>
        <time>2021-06-06T07:02:56Z</time>
      </trkpt>
      <trkpt lat="45.75143" lon="3.02794">
        <ele>844.6911</ele>
        <time>2021-06-06T07:02:58Z</time>
      </trkpt>
      <trkpt lat="45.75143" lon="3.02794">
        <ele>844.6911</ele>
        <time>2021-06-06T07:02:58Z</time>
      </trkpt>
      <trkpt lat="45.75143" lon="3.02794">
        <ele>844.5765</ele>
        <time>2021-06-06T07:02:59Z</time>
      </trkpt>
      <trkpt lat="45.75143" lon="3.02794">
        <ele>844.7328</ele>
        <time>2021-06-06T07:03:00Z</time>
      </trkpt>
      <trkpt lat="45.75143" lon="3.02794">
        <ele>844.95166</ele>
        <time>2021-06-06T07:03:02Z</time>
      </trkpt>
      <trkpt lat="45.75143" lon="3.02794">
        <ele>844.95166</ele>
        <time>2021-06-06T07:03:02Z</time>
      </trkpt>
      <trkpt lat="45.75143" lon="3.02794">
        <ele>845.009</ele>
        <time>2021-06-06T07:03:04Z</time>
      </trkpt>
      <trkpt lat="45.75143" lon="3.02794">
        <ele>845.53015</ele>
        <time>2021-06-06T07:03:05Z</time>
      </trkpt>
      <trkpt lat="45.75143" lon="3.02794">
        <ele>845.20184</ele>
        <time>2021-06-06T07:03:06Z</time>
      </trkpt>
      <trkpt lat="45.75143" lon="3.02794">
        <ele>845.14966</ele>
        <time>2021-06-06T07:03:07Z</time>
      </trkpt>
      <trkpt lat="45.75143" lon="3.02794">
        <ele>844.9048</ele>
        <time>2021-06-06T07:03:08Z</time>
      </trkpt>
      <trkpt lat="45.75143" lon="3.02794">
        <ele>845.10803</ele>
        <time>2021-06-06T07:03:09Z</time>
      </trkpt>
      <trkpt lat="45.75143" lon="3.02794">
        <ele>845.10803</ele>
        <time>2021-06-06T07:03:09Z</time>
      </trkpt>
      <trkpt lat="45.75144" lon="3.02794">
        <ele>844.49835</ele>
        <time>2021-06-06T07:03:49Z</time>
      </trkpt>
      <trkpt lat="45.75143" lon="3.02793">
        <ele>844.7797</ele>
        <time>2021-06-06T07:03:51Z</time>
      </trkpt>
      <trkpt lat="45.75143" lon="3.02793">
        <ele>844.9621</ele>
        <time>2021-06-06T07:03:53Z</time>
      </trkpt>
      <trkpt lat="45.75143" lon="3.02793">
        <ele>845.2279</ele>
        <time>2021-06-06T07:03:54Z</time>
      </trkpt>
      <trkpt lat="45.75143" lon="3.02793">
        <ele>845.26434</ele>
        <time>2021-06-06T07:03:55Z</time>
      </trkpt>
      <trkpt lat="45.75143" lon="3.02793">
        <ele>845.4468</ele>
        <time>2021-06-06T07:03:56Z</time>
      </trkpt>
      <trkpt lat="45.75143" lon="3.02793">
        <ele>845.0194</ele>
        <time>2021-06-06T07:03:57Z</time>
      </trkpt>
      <trkpt lat="45.75143" lon="3.02793">
        <ele>845.39465</ele>
        <time>2021-06-06T07:03:58Z</time>
      </trkpt>
      <trkpt lat="45.75143" lon="3.02793">
        <ele>845.0559</ele>
        <time>2021-06-06T07:03:59Z</time>
      </trkpt>
      <trkpt lat="45.75142" lon="3.02794">
        <ele>845.47284</ele>
        <time>2021-06-06T07:04:01Z</time>
      </trkpt>
      <trkpt lat="45.75142" lon="3.02794">
        <ele>845.74384</ele>
        <time>2021-06-06T07:04:03Z</time>
      </trkpt>
      <trkpt lat="45.75142" lon="3.02794">
        <ele>845.74384</ele>
        <time>2021-06-06T07:04:03Z</time>
      </trkpt>
      <trkpt lat="45.75142" lon="3.02794">
        <ele>845.74384</ele>
        <time>2021-06-06T07:04:03Z</time>
      </trkpt>
      <trkpt lat="45.75147" lon="3.02795">
        <ele>845.20703</ele>
        <time>2021-06-06T07:04:54Z</time>
      </trkpt>
      <trkpt lat="45.75147" lon="3.02795">
        <ele>845.2487</ele>
        <time>2021-06-06T07:04:55Z</time>
      </trkpt>
      <trkpt lat="45.75147" lon="3.02795">
        <ele>845.39984</ele>
        <time>2021-06-06T07:04:56Z</time>
      </trkpt>
      <trkpt lat="45.75147" lon="3.02795">
        <ele>845.39984</ele>
        <time>2021-06-06T07:04:56Z</time>
      </trkpt>
      <trkpt lat="45.75147" lon="3.02795">
        <ele>845.39984</ele>
        <time>2021-06-06T07:04:56Z</time>
      </trkpt>
      <trkpt lat="45.75137" lon="3.0279">
        <ele>845.3842</ele>
        <time>2021-06-06T07:06:34Z</time>
      </trkpt>
      <trkpt lat="45.75137" lon="3.0279">
        <ele>845.39984</ele>
        <time>2021-06-06T07:06:35Z</time>
      </trkpt>
      <trkpt lat="45.75136" lon="3.0279">
        <ele>845.478</ele>
        <time>2021-06-06T07:06:36Z</time>
      </trkpt>
      <trkpt lat="45.75136" lon="3.02791">
        <ele>845.749</ele>
        <time>2021-06-06T07:06:37Z</time>
      </trkpt>
      <trkpt lat="45.75136" lon="3.02791">
        <ele>845.749</ele>
        <time>2021-06-06T07:06:37Z</time>
      </trkpt>
      <trkpt lat="45.75136" lon="3.02791">
        <ele>845.749</ele>
        <time>2021-06-06T07:06:37Z</time>
      </trkpt>
      <trkpt lat="45.75146" lon="3.028">
        <ele>845.35815</ele>
        <time>2021-06-06T07:06:58Z</time>
      </trkpt>
      <trkpt lat="45.75145" lon="3.02801">
        <ele>845.5041</ele>
        <time>2021-06-06T07:06:59Z</time>
      </trkpt>
      <trkpt lat="45.75143" lon="3.02802">
        <ele>845.27997</ele>
        <time>2021-06-06T07:07:02Z</time>
      </trkpt>
      <trkpt lat="45.7514" lon="3.02804">
        <ele>845.4363</ele>
        <time>2021-06-06T07:07:03Z</time>
      </trkpt>
      <trkpt lat="45.7514" lon="3.02806">
        <ele>845.26953</ele>
        <time>2021-06-06T07:07:04Z</time>
      </trkpt>
      <trkpt lat="45.75139" lon="3.02806">
        <ele>845.3425</ele>
        <time>2021-06-06T07:07:05Z</time>
      </trkpt>
      <trkpt lat="45.75139" lon="3.02806">
        <ele>845.3425</ele>
        <time>2021-06-06T07:07:05Z</time>
      </trkpt>
      <trkpt lat="45.75139" lon="3.02806">
        <ele>845.3425</ele>
        <time>2021-06-06T07:07:05Z</time>
      </trkpt>
      <trkpt lat="45.75133" lon="3.02803">
        <ele>845.2904</ele>
        <time>2021-06-06T07:07:12Z</time>
      </trkpt>
      <trkpt lat="45.75132" lon="3.02803">
        <ele>845.4572</ele>
        <time>2021-06-06T07:07:14Z</time>
      </trkpt>
      <trkpt lat="45.75132" lon="3.02805">
        <ele>845.39984</ele>
        <time>2021-06-06T07:07:16Z</time>
      </trkpt>
      <trkpt lat="45.75132" lon="3.02805">
        <ele>845.49365</ele>
        <time>2021-06-06T07:07:17Z</time>
      </trkpt>
      <trkpt lat="45.75132" lon="3.02805">
        <ele>845.49365</ele>
        <time>2021-06-06T07:07:17Z</time>
      </trkpt>
      <trkpt lat="45.75129" lon="3.02807">
        <ele>845.4363</ele>
        <time>2021-06-06T07:07:19Z</time>
      </trkpt>
      <trkpt lat="45.75128" lon="3.02808">
        <ele>845.4103</ele>
        <time>2021-06-06T07:07:20Z</time>
      </trkpt>
      <trkpt lat="45.75126" lon="3.02808">
        <ele>845.3269</ele>
        <time>2021-06-06T07:07:22Z</time>
      </trkpt>
      <trkpt lat="45.75126" lon="3.02806">
        <ele>845.4468</ele>
        <time>2021-06-06T07:07:24Z</time>
      </trkpt>
      <trkpt lat="45.75126" lon="3.02806">
        <ele>845.4468</ele>
        <time>2021-06-06T07:07:24Z</time>
      </trkpt>
      <trkpt lat="45.75124" lon="3.02802">
        <ele>844.9204</ele>
        <time>2021-06-06T07:07:26Z</time>
      </trkpt>
      <trkpt lat="45.75121" lon="3.02798">
        <ele>844.8839</ele>
        <time>2021-06-06T07:07:29Z</time>
      </trkpt>
      <trkpt lat="45.75119" lon="3.02798">
        <ele>844.9777</ele>
        <time>2021-06-06T07:07:30Z</time>
      </trkpt>
      <trkpt lat="45.75115" lon="3.02801">
        <ele>844.95166</ele>
        <time>2021-06-06T07:07:33Z</time>
      </trkpt>
      <trkpt lat="45.75112" lon="3.02803">
        <ele>845.04553</ele>
        <time>2021-06-06T07:07:35Z</time>
      </trkpt>
      <trkpt lat="45.75111" lon="3.02804">
        <ele>844.99854</ele>
        <time>2021-06-06T07:07:36Z</time>
      </trkpt>
      <trkpt lat="45.7511" lon="3.02805">
        <ele>844.7589</ele>
        <time>2021-06-06T07:07:37Z</time>
      </trkpt>
      <trkpt lat="45.75109" lon="3.02807">
        <ele>844.9569</ele>
        <time>2021-06-06T07:07:38Z</time>
      </trkpt>
      <trkpt lat="45.75108" lon="3.02808">
        <ele>845.0924</ele>
        <time>2021-06-06T07:07:39Z</time>
      </trkpt>
      <trkpt lat="45.75106" lon="3.02809">
        <ele>845.0559</ele>
        <time>2021-06-06T07:07:40Z</time>
      </trkpt>
      <trkpt lat="45.75106" lon="3.02811">
        <ele>844.8266</ele>
        <time>2021-06-06T07:07:41Z</time>
      </trkpt>
      <trkpt lat="45.75105" lon="3.02812">
        <ele>844.9152</ele>
        <time>2021-06-06T07:07:42Z</time>
      </trkpt>
      <trkpt lat="45.75103" lon="3.02813">
        <ele>845.1184</ele>
        <time>2021-06-06T07:07:43Z</time>
      </trkpt>
      <trkpt lat="45.75102" lon="3.02815">
        <ele>845.21747</ele>
        <time>2021-06-06T07:07:44Z</time>
      </trkpt>
      <trkpt lat="45.75101" lon="3.02816">
        <ele>845.21747</ele>
        <time>2021-06-06T07:07:45Z</time>
      </trkpt>
      <trkpt lat="45.751" lon="3.02818">
        <ele>845.3269</ele>
        <time>2021-06-06T07:07:46Z</time>
      </trkpt>
      <trkpt lat="45.75098" lon="3.02819">
        <ele>845.4259</ele>
        <time>2021-06-06T07:07:47Z</time>
      </trkpt>
      <trkpt lat="45.75097" lon="3.0282">
        <ele>845.4363</ele>
        <time>2021-06-06T07:07:48Z</time>
      </trkpt>
      <trkpt lat="45.75096" lon="3.02821">
        <ele>845.58746</ele>
        <time>2021-06-06T07:07:49Z</time>
      </trkpt>
      <trkpt lat="45.75095" lon="3.02822">
        <ele>845.25916</ele>
        <time>2021-06-06T07:07:50Z</time>
      </trkpt>
      <trkpt lat="45.75094" lon="3.02823">
        <ele>845.2487</ele>
        <time>2021-06-06T07:07:51Z</time>
      </trkpt>
      <trkpt lat="45.75093" lon="3.02824">
        <ele>845.3061</ele>
        <time>2021-06-06T07:07:52Z</time>
      </trkpt>
      <trkpt lat="45.75092" lon="3.02825">
        <ele>845.46765</ele>
        <time>2021-06-06T07:07:53Z</time>
      </trkpt>
      <trkpt lat="45.7509" lon="3.02827">
        <ele>845.5979</ele>
        <time>2021-06-06T07:07:54Z</time>
      </trkpt>
      <trkpt lat="45.7509" lon="3.02828">
        <ele>845.33215</ele>
        <time>2021-06-06T07:07:55Z</time>
      </trkpt>
      <trkpt lat="45.75089" lon="3.0283">
        <ele>845.6135</ele>
        <time>2021-06-06T07:07:56Z</time>
      </trkpt>
      <trkpt lat="45.75087" lon="3.02831">
        <ele>845.7021</ele>
        <time>2021-06-06T07:07:57Z</time>
      </trkpt>
      <trkpt lat="45.75085" lon="3.02832">
        <ele>845.82715</ele>
        <time>2021-06-06T07:07:58Z</time>
      </trkpt>
      <trkpt lat="45.75084" lon="3.02833">
        <ele>845.6448</ele>
        <time>2021-06-06T07:07:59Z</time>
      </trkpt>
      <trkpt lat="45.75083" lon="3.02834">
        <ele>845.6344</ele>
        <time>2021-06-06T07:08:00Z</time>
      </trkpt>
      <trkpt lat="45.75082" lon="3.02835">
        <ele>845.6813</ele>
        <time>2021-06-06T07:08:01Z</time>
      </trkpt>
      <trkpt lat="45.75081" lon="3.02836">
        <ele>845.8167</ele>
        <time>2021-06-06T07:08:02Z</time>
      </trkpt>
      <trkpt lat="45.7508" lon="3.02837">
        <ele>845.9939</ele>
        <time>2021-06-06T07:08:03Z</time>
      </trkpt>
      <trkpt lat="45.75079" lon="3.02838">
        <ele>846.01483</ele>
        <time>2021-06-06T07:08:04Z</time>
      </trkpt>
      <trkpt lat="45.75077" lon="3.02843">
        <ele>846.0617</ele>
        <time>2021-06-06T07:08:06Z</time>
      </trkpt>
      <trkpt lat="45.75077" lon="3.02845">
        <ele>846.2753</ele>
        <time>2021-06-06T07:08:07Z</time>
      </trkpt>
      <trkpt lat="45.75077" lon="3.02848">
        <ele>846.5307</ele>
        <time>2021-06-06T07:08:08Z</time>
      </trkpt>
      <trkpt lat="45.75078" lon="3.0285">
        <ele>846.6453</ele>
        <time>2021-06-06T07:08:09Z</time>
      </trkpt>
      <trkpt lat="45.75079" lon="3.02852">
        <ele>847.08826</ele>
        <time>2021-06-06T07:08:10Z</time>
      </trkpt>
      <trkpt lat="45.75079" lon="3.02854">
        <ele>847.0518</ele>
        <time>2021-06-06T07:08:11Z</time>
      </trkpt>
      <trkpt lat="45.7508" lon="3.02856">
        <ele>847.1509</ele>
        <time>2021-06-06T07:08:12Z</time>
      </trkpt>
      <trkpt lat="45.75081" lon="3.02858">
        <ele>847.8908</ele>
        <time>2021-06-06T07:08:13Z</time>
      </trkpt>
      <trkpt lat="45.75082" lon="3.0286">
        <ele>847.9586</ele>
        <time>2021-06-06T07:08:14Z</time>
      </trkpt>
      <trkpt lat="45.75082" lon="3.02862">
        <ele>848.10455</ele>
        <time>2021-06-06T07:08:15Z</time>
      </trkpt>
      <trkpt lat="45.75083" lon="3.02864">
        <ele>848.5631</ele>
        <time>2021-06-06T07:08:16Z</time>
      </trkpt>
      <trkpt lat="45.75084" lon="3.02866">
        <ele>848.6621</ele>
        <time>2021-06-06T07:08:17Z</time>
      </trkpt>
      <trkpt lat="45.75084" lon="3.02867">
        <ele>848.3546</ele>
        <time>2021-06-06T07:08:18Z</time>
      </trkpt>
      <trkpt lat="45.75085" lon="3.02869">
        <ele>848.2713</ele>
        <time>2021-06-06T07:08:19Z</time>
      </trkpt>
      <trkpt lat="45.75085" lon="3.02871">
        <ele>848.339</ele>
        <time>2021-06-06T07:08:20Z</time>
      </trkpt>
      <trkpt lat="45.75087" lon="3.02873">
        <ele>848.67773</ele>
        <time>2021-06-06T07:08:21Z</time>
      </trkpt>
      <trkpt lat="45.75087" lon="3.02874">
        <ele>848.5527</ele>
        <time>2021-06-06T07:08:22Z</time>
      </trkpt>
      <trkpt lat="45.75088" lon="3.02876">
        <ele>848.5631</ele>
        <time>2021-06-06T07:08:23Z</time>
      </trkpt>
      <trkpt lat="45.75089" lon="3.02878">
        <ele>848.72986</ele>
        <time>2021-06-06T07:08:24Z</time>
      </trkpt>
      <trkpt lat="45.7509" lon="3.02879">
        <ele>849.0425</ele>
        <time>2021-06-06T07:08:25Z</time>
      </trkpt>
      <trkpt lat="45.75092" lon="3.02881">
        <ele>848.98</ele>
        <time>2021-06-06T07:08:26Z</time>
      </trkpt>
      <trkpt lat="45.75092" lon="3.02882">
        <ele>848.96436</ele>
        <time>2021-06-06T07:08:27Z</time>
      </trkpt>
      <trkpt lat="45.75094" lon="3.02884">
        <ele>849.02167</ele>
        <time>2021-06-06T07:08:28Z</time>
      </trkpt>
      <trkpt lat="45.75094" lon="3.02886">
        <ele>849.1884</ele>
        <time>2021-06-06T07:08:29Z</time>
      </trkpt>
      <trkpt lat="45.75095" lon="3.02887">
        <ele>849.1832</ele>
        <time>2021-06-06T07:08:30Z</time>
      </trkpt>
      <trkpt lat="45.75097" lon="3.02889">
        <ele>849.1207</ele>
        <time>2021-06-06T07:08:31Z</time>
      </trkpt>
      <trkpt lat="45.75097" lon="3.0289">
        <ele>849.0425</ele>
        <time>2021-06-06T07:08:32Z</time>
      </trkpt>
      <trkpt lat="45.75098" lon="3.02891">
        <ele>849.00604</ele>
        <time>2021-06-06T07:08:33Z</time>
      </trkpt>
      <trkpt lat="45.751" lon="3.02892">
        <ele>849.2614</ele>
        <time>2021-06-06T07:08:34Z</time>
      </trkpt>
      <trkpt lat="45.75101" lon="3.02893">
        <ele>848.9175</ele>
        <time>2021-06-06T07:08:35Z</time>
      </trkpt>
      <trkpt lat="45.75102" lon="3.02894">
        <ele>849.20935</ele>
        <time>2021-06-06T07:08:36Z</time>
      </trkpt>
      <trkpt lat="45.75103" lon="3.02895">
        <ele>849.16235</ele>
        <time>2021-06-06T07:08:37Z</time>
      </trkpt>
      <trkpt lat="45.75105" lon="3.02896">
        <ele>849.152</ele>
        <time>2021-06-06T07:08:38Z</time>
      </trkpt>
      <trkpt lat="45.75106" lon="3.02898">
        <ele>848.8966</ele>
        <time>2021-06-06T07:08:39Z</time>
      </trkpt>
      <trkpt lat="45.75107" lon="3.02899">
        <ele>849.1207</ele>
        <time>2021-06-06T07:08:40Z</time>
      </trkpt>
      <trkpt lat="45.75108" lon="3.02899">
        <ele>849.0895</ele>
        <time>2021-06-06T07:08:41Z</time>
      </trkpt>
      <trkpt lat="45.7511" lon="3.029">
        <ele>849.0477</ele>
        <time>2021-06-06T07:08:42Z</time>
      </trkpt>
      <trkpt lat="45.75111" lon="3.029">
        <ele>849.225</ele>
        <time>2021-06-06T07:08:43Z</time>
      </trkpt>
      <trkpt lat="45.75113" lon="3.02901">
        <ele>849.23016</ele>
        <time>2021-06-06T07:08:44Z</time>
      </trkpt>
      <trkpt lat="45.75114" lon="3.02902">
        <ele>849.0842</ele>
        <time>2021-06-06T07:08:45Z</time>
      </trkpt>
      <trkpt lat="45.75116" lon="3.02903">
        <ele>849.21454</ele>
        <time>2021-06-06T07:08:46Z</time>
      </trkpt>
      <trkpt lat="45.75118" lon="3.02904">
        <ele>849.152</ele>
        <time>2021-06-06T07:08:47Z</time>
      </trkpt>
      <trkpt lat="45.75119" lon="3.02905">
        <ele>849.1467</ele>
        <time>2021-06-06T07:08:48Z</time>
      </trkpt>
      <trkpt lat="45.75121" lon="3.02905">
        <ele>849.13635</ele>
        <time>2021-06-06T07:08:49Z</time>
      </trkpt>
      <trkpt lat="45.75122" lon="3.02906">
        <ele>849.0686</ele>
        <time>2021-06-06T07:08:50Z</time>
      </trkpt>
      <trkpt lat="45.75123" lon="3.02907">
        <ele>849.0895</ele>
        <time>2021-06-06T07:08:51Z</time>
      </trkpt>
      <trkpt lat="45.75125" lon="3.02908">
        <ele>849.1936</ele>
        <time>2021-06-06T07:08:52Z</time>
      </trkpt>
      <trkpt lat="45.75126" lon="3.02908">
        <ele>849.3239</ele>
        <time>2021-06-06T07:08:53Z</time>
      </trkpt>
      <trkpt lat="45.75128" lon="3.02908">
        <ele>849.35004</ele>
        <time>2021-06-06T07:08:54Z</time>
      </trkpt>
      <trkpt lat="45.75129" lon="3.02909">
        <ele>849.1676</ele>
        <time>2021-06-06T07:08:55Z</time>
      </trkpt>
      <trkpt lat="45.75131" lon="3.0291">
        <ele>849.23535</ele>
        <time>2021-06-06T07:08:56Z</time>
      </trkpt>
      <trkpt lat="45.75132" lon="3.02911">
        <ele>849.34485</ele>
        <time>2021-06-06T07:08:57Z</time>
      </trkpt>
      <trkpt lat="45.75133" lon="3.02912">
        <ele>849.4594</ele>
        <time>2021-06-06T07:08:58Z</time>
      </trkpt>
      <trkpt lat="45.75135" lon="3.02913">
        <ele>849.3552</ele>
        <time>2021-06-06T07:08:59Z</time>
      </trkpt>
      <trkpt lat="45.75137" lon="3.02913">
        <ele>849.09985</ele>
        <time>2021-06-06T07:09:00Z</time>
      </trkpt>
      <trkpt lat="45.75138" lon="3.02914">
        <ele>848.9487</ele>
        <time>2021-06-06T07:09:01Z</time>
      </trkpt>
      <trkpt lat="45.75139" lon="3.02915">
        <ele>848.5006</ele>
        <time>2021-06-06T07:09:02Z</time>
      </trkpt>
      <trkpt lat="45.75141" lon="3.02915">
        <ele>848.65173</ele>
        <time>2021-06-06T07:09:03Z</time>
      </trkpt>
      <trkpt lat="45.75142" lon="3.02915">
        <ele>848.44324</ele>
        <time>2021-06-06T07:09:04Z</time>
      </trkpt>
      <trkpt lat="45.75144" lon="3.02916">
        <ele>848.5267</ele>
        <time>2021-06-06T07:09:05Z</time>
      </trkpt>
      <trkpt lat="45.75145" lon="3.02916">
        <ele>848.37555</ele>
        <time>2021-06-06T07:09:06Z</time>
      </trkpt>
      <trkpt lat="45.75147" lon="3.02917">
        <ele>848.16705</ele>
        <time>2021-06-06T07:09:07Z</time>
      </trkpt>
      <trkpt lat="45.75149" lon="3.02917">
        <ele>848.32855</ele>
        <time>2021-06-06T07:09:08Z</time>
      </trkpt>
      <trkpt lat="45.75154" lon="3.02918">
        <ele>847.9586</ele>
        <time>2021-06-06T07:09:10Z</time>
      </trkpt>
      <trkpt lat="45.75157" lon="3.02919">
        <ele>847.5104</ele>
        <time>2021-06-06T07:09:12Z</time>
      </trkpt>
      <trkpt lat="45.75159" lon="3.02919">
        <ele>847.6407</ele>
        <time>2021-06-06T07:09:13Z</time>
      </trkpt>
      <trkpt lat="45.75161" lon="3.0292">
        <ele>847.1456</ele>
        <time>2021-06-06T07:09:14Z</time>
      </trkpt>
      <trkpt lat="45.75166" lon="3.02921">
        <ele>846.8277</ele>
        <time>2021-06-06T07:09:16Z</time>
      </trkpt>
      <trkpt lat="45.7517" lon="3.02922">
        <ele>846.5359</ele>
        <time>2021-06-06T07:09:18Z</time>
      </trkpt>
      <trkpt lat="45.75175" lon="3.02923">
        <ele>846.1294</ele>
        <time>2021-06-06T07:09:20Z</time>
      </trkpt>
      <trkpt lat="45.75179" lon="3.02925">
        <ele>845.7907</ele>
        <time>2021-06-06T07:09:22Z</time>
      </trkpt>
      <trkpt lat="45.75183" lon="3.02926">
        <ele>845.4572</ele>
        <time>2021-06-06T07:09:24Z</time>
      </trkpt>
      <trkpt lat="45.75185" lon="3.02926">
        <ele>845.5927</ele>
        <time>2021-06-06T07:09:25Z</time>
      </trkpt>
      <trkpt lat="45.75187" lon="3.02927">
        <ele>845.577</ele>
        <time>2021-06-06T07:09:26Z</time>
      </trkpt>
      <trkpt lat="45.75188" lon="3.02927">
        <ele>845.452</ele>
        <time>2021-06-06T07:09:27Z</time>
      </trkpt>
      <trkpt lat="45.7519" lon="3.02927">
        <ele>845.4103</ele>
        <time>2021-06-06T07:09:28Z</time>
      </trkpt>
      <trkpt lat="45.75191" lon="3.02927">
        <ele>845.379</ele>
        <time>2021-06-06T07:09:29Z</time>
      </trkpt>
      <trkpt lat="45.75192" lon="3.02927">
        <ele>845.2383</ele>
        <time>2021-06-06T07:09:30Z</time>
      </trkpt>
      <trkpt lat="45.75194" lon="3.02927">
        <ele>845.4363</ele>
        <time>2021-06-06T07:09:31Z</time>
      </trkpt>
      <trkpt lat="45.75195" lon="3.02927">
        <ele>845.5093</ele>
        <time>2021-06-06T07:09:32Z</time>
      </trkpt>
      <trkpt lat="45.75197" lon="3.02928">
        <ele>845.5927</ele>
        <time>2021-06-06T07:09:33Z</time>
      </trkpt>
      <trkpt lat="45.75198" lon="3.02928">
        <ele>845.478</ele>
        <time>2021-06-06T07:09:34Z</time>
      </trkpt>
      <trkpt lat="45.752" lon="3.02928">
        <ele>845.39984</ele>
        <time>2021-06-06T07:09:35Z</time>
      </trkpt>
      <trkpt lat="45.75201" lon="3.02929">
        <ele>845.55096</ele>
        <time>2021-06-06T07:09:36Z</time>
      </trkpt>
      <trkpt lat="45.75202" lon="3.02929">
        <ele>845.48846</ele>
        <time>2021-06-06T07:09:37Z</time>
      </trkpt>
      <trkpt lat="45.75204" lon="3.02928">
        <ele>845.53534</ele>
        <time>2021-06-06T07:09:38Z</time>
      </trkpt>
      <trkpt lat="45.75205" lon="3.02928">
        <ele>845.4833</ele>
        <time>2021-06-06T07:09:39Z</time>
      </trkpt>
      <trkpt lat="45.75206" lon="3.02928">
        <ele>845.379</ele>
        <time>2021-06-06T07:09:40Z</time>
      </trkpt>
      <trkpt lat="45.75207" lon="3.02928">
        <ele>845.6031</ele>
        <time>2021-06-06T07:09:41Z</time>
      </trkpt>
      <trkpt lat="45.75209" lon="3.02929">
        <ele>845.577</ele>
        <time>2021-06-06T07:09:42Z</time>
      </trkpt>
      <trkpt lat="45.7521" lon="3.02929">
        <ele>845.35297</ele>
        <time>2021-06-06T07:09:43Z</time>
      </trkpt>
      <trkpt lat="45.75211" lon="3.0293">
        <ele>845.55096</ele>
        <time>2021-06-06T07:09:44Z</time>
      </trkpt>
      <trkpt lat="45.75213" lon="3.0293">
        <ele>845.27997</ele>
        <time>2021-06-06T07:09:45Z</time>
      </trkpt>
      <trkpt lat="45.75214" lon="3.0293">
        <ele>845.4363</ele>
        <time>2021-06-06T07:09:46Z</time>
      </trkpt>
      <trkpt lat="45.75215" lon="3.0293">
        <ele>845.3217</ele>
        <time>2021-06-06T07:09:47Z</time>
      </trkpt>
      <trkpt lat="45.75216" lon="3.0293">
        <ele>845.1862</ele>
        <time>2021-06-06T07:09:48Z</time>
      </trkpt>
      <trkpt lat="45.75217" lon="3.0293">
        <ele>845.01416</ele>
        <time>2021-06-06T07:09:49Z</time>
      </trkpt>
      <trkpt lat="45.75219" lon="3.0293">
        <ele>845.12885</ele>
        <time>2021-06-06T07:09:50Z</time>
      </trkpt>
      <trkpt lat="45.75221" lon="3.02931">
        <ele>845.27997</ele>
        <time>2021-06-06T07:09:51Z</time>
      </trkpt>
      <trkpt lat="45.75222" lon="3.02932">
        <ele>845.3269</ele>
        <time>2021-06-06T07:09:52Z</time>
      </trkpt>
      <trkpt lat="45.75223" lon="3.02932">
        <ele>845.2383</ele>
        <time>2021-06-06T07:09:53Z</time>
      </trkpt>
      <trkpt lat="45.75224" lon="3.02932">
        <ele>845.3686</ele>
        <time>2021-06-06T07:09:54Z</time>
      </trkpt>
      <trkpt lat="45.75225" lon="3.02932">
        <ele>845.5093</ele>
        <time>2021-06-06T07:09:55Z</time>
      </trkpt>
      <trkpt lat="45.75227" lon="3.02932">
        <ele>845.46765</ele>
        <time>2021-06-06T07:09:56Z</time>
      </trkpt>
      <trkpt lat="45.75228" lon="3.02932">
        <ele>845.35297</ele>
        <time>2021-06-06T07:09:57Z</time>
      </trkpt>
      <trkpt lat="45.75229" lon="3.02932">
        <ele>845.2123</ele>
        <time>2021-06-06T07:09:58Z</time>
      </trkpt>
      <trkpt lat="45.7523" lon="3.02932">
        <ele>845.1914</ele>
        <time>2021-06-06T07:09:59Z</time>
      </trkpt>
      <trkpt lat="45.75231" lon="3.02932">
        <ele>845.12366</ele>
        <time>2021-06-06T07:10:00Z</time>
      </trkpt>
      <trkpt lat="45.75232" lon="3.02933">
        <ele>845.20703</ele>
        <time>2021-06-06T07:10:01Z</time>
      </trkpt>
      <trkpt lat="45.75233" lon="3.02932">
        <ele>845.3061</ele>
        <time>2021-06-06T07:10:02Z</time>
      </trkpt>
      <trkpt lat="45.75235" lon="3.02932">
        <ele>845.39465</ele>
        <time>2021-06-06T07:10:03Z</time>
      </trkpt>
      <trkpt lat="45.75236" lon="3.02932">
        <ele>845.1654</ele>
        <time>2021-06-06T07:10:04Z</time>
      </trkpt>
      <trkpt lat="45.75237" lon="3.02932">
        <ele>845.08716</ele>
        <time>2021-06-06T07:10:05Z</time>
      </trkpt>
      <trkpt lat="45.75239" lon="3.02932">
        <ele>844.91003</ele>
        <time>2021-06-06T07:10:06Z</time>
      </trkpt>
      <trkpt lat="45.7524" lon="3.02933">
        <ele>844.9621</ele>
        <time>2021-06-06T07:10:07Z</time>
      </trkpt>
      <trkpt lat="45.75242" lon="3.02933">
        <ele>844.7693</ele>
        <time>2021-06-06T07:10:08Z</time>
      </trkpt>
      <trkpt lat="45.75243" lon="3.02933">
        <ele>844.7432</ele>
        <time>2021-06-06T07:10:09Z</time>
      </trkpt>
      <trkpt lat="45.75245" lon="3.02933">
        <ele>845.0768</ele>
        <time>2021-06-06T07:10:10Z</time>
      </trkpt>
      <trkpt lat="45.75246" lon="3.02933">
        <ele>845.2279</ele>
        <time>2021-06-06T07:10:11Z</time>
      </trkpt>
      <trkpt lat="45.75248" lon="3.02933">
        <ele>845.0403</ele>
        <time>2021-06-06T07:10:12Z</time>
      </trkpt>
      <trkpt lat="45.75249" lon="3.02933">
        <ele>844.9829</ele>
        <time>2021-06-06T07:10:13Z</time>
      </trkpt>
      <trkpt lat="45.7525" lon="3.02933">
        <ele>844.88916</ele>
        <time>2021-06-06T07:10:14Z</time>
      </trkpt>
      <trkpt lat="45.75251" lon="3.02933">
        <ele>844.7067</ele>
        <time>2021-06-06T07:10:15Z</time>
      </trkpt>
      <trkpt lat="45.75252" lon="3.02933">
        <ele>845.1601</ele>
        <time>2021-06-06T07:10:16Z</time>
      </trkpt>
      <trkpt lat="45.75254" lon="3.02933">
        <ele>844.99335</ele>
        <time>2021-06-06T07:10:17Z</time>
      </trkpt>
      <trkpt lat="45.75255" lon="3.02932">
        <ele>844.7276</ele>
        <time>2021-06-06T07:10:18Z</time>
      </trkpt>
      <trkpt lat="45.75256" lon="3.02932">
        <ele>844.79016</ele>
        <time>2021-06-06T07:10:19Z</time>
      </trkpt>
      <trkpt lat="45.75258" lon="3.02933">
        <ele>844.6911</ele>
        <time>2021-06-06T07:10:20Z</time>
      </trkpt>
      <trkpt lat="45.75259" lon="3.02933">
        <ele>844.69635</ele>
        <time>2021-06-06T07:10:21Z</time>
      </trkpt>
      <trkpt lat="45.75261" lon="3.02934">
        <ele>844.9465</ele>
        <time>2021-06-06T07:10:22Z</time>
      </trkpt>
      <trkpt lat="45.75263" lon="3.02935">
        <ele>844.81616</ele>
        <time>2021-06-06T07:10:23Z</time>
      </trkpt>
      <trkpt lat="45.75264" lon="3.02936">
        <ele>844.9673</ele>
        <time>2021-06-06T07:10:24Z</time>
      </trkpt>
      <trkpt lat="45.75269" lon="3.02937">
        <ele>844.95166</ele>
        <time>2021-06-06T07:10:26Z</time>
      </trkpt>
      <trkpt lat="45.7527" lon="3.02937">
        <ele>844.6703</ele>
        <time>2021-06-06T07:10:27Z</time>
      </trkpt>
      <trkpt lat="45.75272" lon="3.02937">
        <ele>844.65466</ele>
        <time>2021-06-06T07:10:28Z</time>
      </trkpt>
      <trkpt lat="45.75273" lon="3.02937">
        <ele>844.5765</ele>
        <time>2021-06-06T07:10:29Z</time>
      </trkpt>
      <trkpt lat="45.75275" lon="3.02936">
        <ele>844.6077</ele>
        <time>2021-06-06T07:10:30Z</time>
      </trkpt>
      <trkpt lat="45.75277" lon="3.02936">
        <ele>844.6703</ele>
        <time>2021-06-06T07:10:31Z</time>
      </trkpt>
      <trkpt lat="45.75278" lon="3.02937">
        <ele>844.7589</ele>
        <time>2021-06-06T07:10:32Z</time>
      </trkpt>
      <trkpt lat="45.7528" lon="3.02937">
        <ele>844.8787</ele>
        <time>2021-06-06T07:10:33Z</time>
      </trkpt>
      <trkpt lat="45.75281" lon="3.02937">
        <ele>844.93085</ele>
        <time>2021-06-06T07:10:34Z</time>
      </trkpt>
      <trkpt lat="45.75282" lon="3.02938">
        <ele>844.7693</ele>
        <time>2021-06-06T07:10:35Z</time>
      </trkpt>
      <trkpt lat="45.75283" lon="3.0294">
        <ele>844.75366</ele>
        <time>2021-06-06T07:10:36Z</time>
      </trkpt>
      <trkpt lat="45.75285" lon="3.02941">
        <ele>844.7276</ele>
        <time>2021-06-06T07:10:37Z</time>
      </trkpt>
      <trkpt lat="45.75287" lon="3.02941">
        <ele>844.6338</ele>
        <time>2021-06-06T07:10:38Z</time>
      </trkpt>
      <trkpt lat="45.75289" lon="3.02942">
        <ele>844.8474</ele>
        <time>2021-06-06T07:10:39Z</time>
      </trkpt>
      <trkpt lat="45.7529" lon="3.02942">
        <ele>844.70154</ele>
        <time>2021-06-06T07:10:40Z</time>
      </trkpt>
      <trkpt lat="45.75292" lon="3.02942">
        <ele>844.6755</ele>
        <time>2021-06-06T07:10:41Z</time>
      </trkpt>
      <trkpt lat="45.75293" lon="3.02943">
        <ele>844.7797</ele>
        <time>2021-06-06T07:10:42Z</time>
      </trkpt>
      <trkpt lat="45.75295" lon="3.02942">
        <ele>844.5973</ele>
        <time>2021-06-06T07:10:43Z</time>
      </trkpt>
      <trkpt lat="45.75296" lon="3.02943">
        <ele>844.79016</ele>
        <time>2021-06-06T07:10:44Z</time>
      </trkpt>
      <trkpt lat="45.75298" lon="3.02943">
        <ele>844.6807</ele>
        <time>2021-06-06T07:10:45Z</time>
      </trkpt>
      <trkpt lat="45.753" lon="3.02943">
        <ele>844.5921</ele>
        <time>2021-06-06T07:10:46Z</time>
      </trkpt>
      <trkpt lat="45.75301" lon="3.02943">
        <ele>844.77454</ele>
        <time>2021-06-06T07:10:47Z</time>
      </trkpt>
      <trkpt lat="45.75303" lon="3.02944">
        <ele>845.06635</ele>
        <time>2021-06-06T07:10:48Z</time>
      </trkpt>
      <trkpt lat="45.75304" lon="3.02944">
        <ele>845.22266</ele>
        <time>2021-06-06T07:10:49Z</time>
      </trkpt>
      <trkpt lat="45.75306" lon="3.02944">
        <ele>845.4259</ele>
        <time>2021-06-06T07:10:50Z</time>
      </trkpt>
      <trkpt lat="45.75307" lon="3.02945">
        <ele>845.4415</ele>
        <time>2021-06-06T07:10:51Z</time>
      </trkpt>
      <trkpt lat="45.75309" lon="3.02946">
        <ele>845.405</ele>
        <time>2021-06-06T07:10:52Z</time>
      </trkpt>
      <trkpt lat="45.75311" lon="3.02947">
        <ele>845.33734</ele>
        <time>2021-06-06T07:10:53Z</time>
      </trkpt>
      <trkpt lat="45.75312" lon="3.02947">
        <ele>845.33215</ele>
        <time>2021-06-06T07:10:54Z</time>
      </trkpt>
      <trkpt lat="45.75312" lon="3.02948">
        <ele>845.48846</ele>
        <time>2021-06-06T07:10:55Z</time>
      </trkpt>
      <trkpt lat="45.75313" lon="3.02949">
        <ele>845.5718</ele>
        <time>2021-06-06T07:10:56Z</time>
      </trkpt>
      <trkpt lat="45.75315" lon="3.0295">
        <ele>845.4415</ele>
        <time>2021-06-06T07:10:57Z</time>
      </trkpt>
      <trkpt lat="45.75317" lon="3.02951">
        <ele>845.4468</ele>
        <time>2021-06-06T07:10:58Z</time>
      </trkpt>
      <trkpt lat="45.75319" lon="3.02952">
        <ele>845.577</ele>
        <time>2021-06-06T07:10:59Z</time>
      </trkpt>
      <trkpt lat="45.7532" lon="3.02953">
        <ele>845.42065</ele>
        <time>2021-06-06T07:11:00Z</time>
      </trkpt>
      <trkpt lat="45.75321" lon="3.02954">
        <ele>845.5718</ele>
        <time>2021-06-06T07:11:01Z</time>
      </trkpt>
      <trkpt lat="45.75322" lon="3.02955">
        <ele>845.67084</ele>
        <time>2021-06-06T07:11:02Z</time>
      </trkpt>
      <trkpt lat="45.75324" lon="3.02956">
        <ele>845.69165</ele>
        <time>2021-06-06T07:11:03Z</time>
      </trkpt>
      <trkpt lat="45.75325" lon="3.02955">
        <ele>845.3842</ele>
        <time>2021-06-06T07:11:04Z</time>
      </trkpt>
      <trkpt lat="45.75327" lon="3.02956">
        <ele>845.5458</ele>
        <time>2021-06-06T07:11:05Z</time>
      </trkpt>
      <trkpt lat="45.75328" lon="3.02956">
        <ele>845.6604</ele>
        <time>2021-06-06T07:11:06Z</time>
      </trkpt>
      <trkpt lat="45.7533" lon="3.02958">
        <ele>845.76984</ele>
        <time>2021-06-06T07:11:07Z</time>
      </trkpt>
      <trkpt lat="45.75331" lon="3.02959">
        <ele>845.5458</ele>
        <time>2021-06-06T07:11:08Z</time>
      </trkpt>
      <trkpt lat="45.75332" lon="3.0296">
        <ele>845.3894</ele>
        <time>2021-06-06T07:11:09Z</time>
      </trkpt>
      <trkpt lat="45.75334" lon="3.0296">
        <ele>845.20184</ele>
        <time>2021-06-06T07:11:10Z</time>
      </trkpt>
      <trkpt lat="45.75336" lon="3.02961">
        <ele>845.3113</ele>
        <time>2021-06-06T07:11:11Z</time>
      </trkpt>
      <trkpt lat="45.75338" lon="3.02961">
        <ele>845.0507</ele>
        <time>2021-06-06T07:11:12Z</time>
      </trkpt>
      <trkpt lat="45.75339" lon="3.02962">
        <ele>845.2279</ele>
        <time>2021-06-06T07:11:13Z</time>
      </trkpt>
      <trkpt lat="45.75341" lon="3.02963">
        <ele>845.1028</ele>
        <time>2021-06-06T07:11:14Z</time>
      </trkpt>
      <trkpt lat="45.75342" lon="3.02964">
        <ele>845.0299</ele>
        <time>2021-06-06T07:11:15Z</time>
      </trkpt>
      <trkpt lat="45.75344" lon="3.02965">
        <ele>844.7432</ele>
        <time>2021-06-06T07:11:16Z</time>
      </trkpt>
      <trkpt lat="45.75345" lon="3.02966">
        <ele>844.5556</ele>
        <time>2021-06-06T07:11:17Z</time>
      </trkpt>
      <trkpt lat="45.75346" lon="3.02966">
        <ele>844.51917</ele>
        <time>2021-06-06T07:11:18Z</time>
      </trkpt>
      <trkpt lat="45.75348" lon="3.02967">
        <ele>844.7328</ele>
        <time>2021-06-06T07:11:19Z</time>
      </trkpt>
      <trkpt lat="45.75349" lon="3.02968">
        <ele>844.70154</ele>
        <time>2021-06-06T07:11:20Z</time>
      </trkpt>
      <trkpt lat="45.75351" lon="3.02968">
        <ele>844.6703</ele>
        <time>2021-06-06T07:11:21Z</time>
      </trkpt>
      <trkpt lat="45.75352" lon="3.02969">
        <ele>844.58685</ele>
        <time>2021-06-06T07:11:22Z</time>
      </trkpt>
      <trkpt lat="45.75354" lon="3.0297">
        <ele>844.51917</ele>
        <time>2021-06-06T07:11:23Z</time>
      </trkpt>
      <trkpt lat="45.75355" lon="3.02971">
        <ele>844.75366</ele>
        <time>2021-06-06T07:11:24Z</time>
      </trkpt>
      <trkpt lat="45.75356" lon="3.02971">
        <ele>844.49835</ele>
        <time>2021-06-06T07:11:25Z</time>
      </trkpt>
      <trkpt lat="45.75358" lon="3.02972">
        <ele>844.2221</ele>
        <time>2021-06-06T07:11:26Z</time>
      </trkpt>
      <trkpt lat="45.75359" lon="3.02973">
        <ele>844.36285</ele>
        <time>2021-06-06T07:11:27Z</time>
      </trkpt>
      <trkpt lat="45.75361" lon="3.02973">
        <ele>844.3941</ele>
        <time>2021-06-06T07:11:28Z</time>
      </trkpt>
      <trkpt lat="45.75362" lon="3.02974">
        <ele>844.3941</ele>
        <time>2021-06-06T07:11:29Z</time>
      </trkpt>
      <trkpt lat="45.75363" lon="3.02975">
        <ele>844.13873</ele>
        <time>2021-06-06T07:11:30Z</time>
      </trkpt>
      <trkpt lat="45.75365" lon="3.02976">
        <ele>843.998</ele>
        <time>2021-06-06T07:11:31Z</time>
      </trkpt>
      <trkpt lat="45.75366" lon="3.02976">
        <ele>843.82605</ele>
        <time>2021-06-06T07:11:32Z</time>
      </trkpt>
      <trkpt lat="45.75368" lon="3.02977">
        <ele>843.7583</ele>
        <time>2021-06-06T07:11:33Z</time>
      </trkpt>
      <trkpt lat="45.75369" lon="3.02979">
        <ele>843.78436</ele>
        <time>2021-06-06T07:11:34Z</time>
      </trkpt>
      <trkpt lat="45.75371" lon="3.0298">
        <ele>843.80524</ele>
        <time>2021-06-06T07:11:35Z</time>
      </trkpt>
      <trkpt lat="45.75372" lon="3.0298">
        <ele>843.72705</ele>
        <time>2021-06-06T07:11:36Z</time>
      </trkpt>
      <trkpt lat="45.75374" lon="3.02981">
        <ele>843.6749</ele>
        <time>2021-06-06T07:11:37Z</time>
      </trkpt>
      <trkpt lat="45.75375" lon="3.02982">
        <ele>843.6228</ele>
        <time>2021-06-06T07:11:38Z</time>
      </trkpt>
      <trkpt lat="45.75377" lon="3.02983">
        <ele>843.39355</ele>
        <time>2021-06-06T07:11:39Z</time>
      </trkpt>
      <trkpt lat="45.75378" lon="3.02984">
        <ele>843.08606</ele>
        <time>2021-06-06T07:11:40Z</time>
      </trkpt>
      <trkpt lat="45.75379" lon="3.02983">
        <ele>843.3362</ele>
        <time>2021-06-06T07:11:41Z</time>
      </trkpt>
      <trkpt lat="45.7538" lon="3.02984">
        <ele>843.2945</ele>
        <time>2021-06-06T07:11:42Z</time>
      </trkpt>
      <trkpt lat="45.75382" lon="3.02984">
        <ele>843.2893</ele>
        <time>2021-06-06T07:11:43Z</time>
      </trkpt>
      <trkpt lat="45.75384" lon="3.02985">
        <ele>842.98706</ele>
        <time>2021-06-06T07:11:44Z</time>
      </trkpt>
      <trkpt lat="45.75385" lon="3.02985">
        <ele>842.5337</ele>
        <time>2021-06-06T07:11:45Z</time>
      </trkpt>
      <trkpt lat="45.75387" lon="3.02985">
        <ele>842.346</ele>
        <time>2021-06-06T07:11:46Z</time>
      </trkpt>
      <trkpt lat="45.75388" lon="3.02986">
        <ele>842.0594</ele>
        <time>2021-06-06T07:11:47Z</time>
      </trkpt>
      <trkpt lat="45.7539" lon="3.02987">
        <ele>841.851</ele>
        <time>2021-06-06T07:11:48Z</time>
      </trkpt>
      <trkpt lat="45.75392" lon="3.02987">
        <ele>841.30383</ele>
        <time>2021-06-06T07:11:49Z</time>
      </trkpt>
      <trkpt lat="45.75394" lon="3.02987">
        <ele>840.84515</ele>
        <time>2021-06-06T07:11:50Z</time>
      </trkpt>
      <trkpt lat="45.75396" lon="3.02987">
        <ele>840.6576</ele>
        <time>2021-06-06T07:11:51Z</time>
      </trkpt>
      <trkpt lat="45.75398" lon="3.02988">
        <ele>840.4544</ele>
        <time>2021-06-06T07:11:52Z</time>
      </trkpt>
      <trkpt lat="45.754" lon="3.02989">
        <ele>840.06354</ele>
        <time>2021-06-06T07:11:53Z</time>
      </trkpt>
      <trkpt lat="45.75403" lon="3.0299">
        <ele>839.9228</ele>
        <time>2021-06-06T07:11:54Z</time>
      </trkpt>
      <trkpt lat="45.75405" lon="3.02993">
        <ele>839.5111</ele>
        <time>2021-06-06T07:11:55Z</time>
      </trkpt>
      <trkpt lat="45.75407" lon="3.02993">
        <ele>839.32874</ele>
        <time>2021-06-06T07:11:56Z</time>
      </trkpt>
      <trkpt lat="45.75411" lon="3.02994">
        <ele>838.8128</ele>
        <time>2021-06-06T07:11:58Z</time>
      </trkpt>
      <trkpt lat="45.75412" lon="3.02995">
        <ele>838.8076</ele>
        <time>2021-06-06T07:11:59Z</time>
      </trkpt>
      <trkpt lat="45.75415" lon="3.02996">
        <ele>838.4272</ele>
        <time>2021-06-06T07:12:00Z</time>
      </trkpt>
      <trkpt lat="45.75417" lon="3.02997">
        <ele>838.22394</ele>
        <time>2021-06-06T07:12:01Z</time>
      </trkpt>
      <trkpt lat="45.75419" lon="3.02997">
        <ele>837.83307</ele>
        <time>2021-06-06T07:12:02Z</time>
      </trkpt>
      <trkpt lat="45.7542" lon="3.02998">
        <ele>837.58813</ele>
        <time>2021-06-06T07:12:03Z</time>
      </trkpt>
      <trkpt lat="45.75421" lon="3.02998">
        <ele>837.24426</ele>
        <time>2021-06-06T07:12:04Z</time>
      </trkpt>
      <trkpt lat="45.75423" lon="3.02998">
        <ele>837.11914</ele>
        <time>2021-06-06T07:12:05Z</time>
      </trkpt>
      <trkpt lat="45.75424" lon="3.02998">
        <ele>837.1608</ele>
        <time>2021-06-06T07:12:06Z</time>
      </trkpt>
      <trkpt lat="45.75425" lon="3.02998">
        <ele>837.1296</ele>
        <time>2021-06-06T07:12:07Z</time>
      </trkpt>
      <trkpt lat="45.75427" lon="3.02999">
        <ele>837.11914</ele>
        <time>2021-06-06T07:12:08Z</time>
      </trkpt>
      <trkpt lat="45.75428" lon="3.03">
        <ele>836.8064</ele>
        <time>2021-06-06T07:12:09Z</time>
      </trkpt>
      <trkpt lat="45.7543" lon="3.03001">
        <ele>836.65533</ele>
        <time>2021-06-06T07:12:10Z</time>
      </trkpt>
      <trkpt lat="45.75431" lon="3.03002">
        <ele>836.65533</ele>
        <time>2021-06-06T07:12:11Z</time>
      </trkpt>
      <trkpt lat="45.75433" lon="3.03002">
        <ele>836.65533</ele>
        <time>2021-06-06T07:12:12Z</time>
      </trkpt>
      <trkpt lat="45.75434" lon="3.03003">
        <ele>836.4261</ele>
        <time>2021-06-06T07:12:13Z</time>
      </trkpt>
      <trkpt lat="45.75435" lon="3.03003">
        <ele>836.2436</ele>
        <time>2021-06-06T07:12:14Z</time>
      </trkpt>
      <trkpt lat="45.75436" lon="3.03005">
        <ele>836.1342</ele>
        <time>2021-06-06T07:12:15Z</time>
      </trkpt>
      <trkpt lat="45.75438" lon="3.03005">
        <ele>835.9518</ele>
        <time>2021-06-06T07:12:16Z</time>
      </trkpt>
      <trkpt lat="45.75439" lon="3.03006">
        <ele>836.09247</ele>
        <time>2021-06-06T07:12:17Z</time>
      </trkpt>
      <trkpt lat="45.75441" lon="3.03007">
        <ele>835.93616</ele>
        <time>2021-06-06T07:12:18Z</time>
      </trkpt>
      <trkpt lat="45.75442" lon="3.03008">
        <ele>835.7902</ele>
        <time>2021-06-06T07:12:19Z</time>
      </trkpt>
      <trkpt lat="45.75443" lon="3.03008">
        <ele>835.57135</ele>
        <time>2021-06-06T07:12:20Z</time>
      </trkpt>
      <trkpt lat="45.75445" lon="3.03009">
        <ele>835.6287</ele>
        <time>2021-06-06T07:12:21Z</time>
      </trkpt>
      <trkpt lat="45.75446" lon="3.0301">
        <ele>835.46716</ele>
        <time>2021-06-06T07:12:22Z</time>
      </trkpt>
      <trkpt lat="45.75447" lon="3.0301">
        <ele>835.5349</ele>
        <time>2021-06-06T07:12:23Z</time>
      </trkpt>
      <trkpt lat="45.75448" lon="3.03011">
        <ele>835.44116</ele>
        <time>2021-06-06T07:12:24Z</time>
      </trkpt>
      <trkpt lat="45.75449" lon="3.03011">
        <ele>835.5609</ele>
        <time>2021-06-06T07:12:25Z</time>
      </trkpt>
      <trkpt lat="45.75449" lon="3.03011">
        <ele>835.70685</ele>
        <time>2021-06-06T07:12:26Z</time>
      </trkpt>
      <trkpt lat="45.75448" lon="3.03012">
        <ele>835.7902</ele>
        <time>2021-06-06T07:12:27Z</time>
      </trkpt>
      <trkpt lat="45.75448" lon="3.03014">
        <ele>835.60266</ele>
        <time>2021-06-06T07:12:28Z</time>
      </trkpt>
      <trkpt lat="45.75448" lon="3.03014">
        <ele>835.60266</ele>
        <time>2021-06-06T07:12:28Z</time>
      </trkpt>
      <trkpt lat="45.75448" lon="3.03014">
        <ele>835.60266</ele>
        <time>2021-06-06T07:12:28Z</time>
      </trkpt>
      <trkpt lat="45.75462" lon="3.0301">
        <ele>835.4776</ele>
        <time>2021-06-06T07:13:49Z</time>
      </trkpt>
      <trkpt lat="45.75463" lon="3.03011">
        <ele>835.3838</ele>
        <time>2021-06-06T07:13:51Z</time>
      </trkpt>
      <trkpt lat="45.75464" lon="3.03012">
        <ele>835.37335</ele>
        <time>2021-06-06T07:13:52Z</time>
      </trkpt>
      <trkpt lat="45.75466" lon="3.03013">
        <ele>835.50885</ele>
        <time>2021-06-06T07:13:53Z</time>
      </trkpt>
      <trkpt lat="45.75467" lon="3.03013">
        <ele>835.24304</ele>
        <time>2021-06-06T07:13:54Z</time>
      </trkpt>
      <trkpt lat="45.75468" lon="3.03014">
        <ele>835.23785</ele>
        <time>2021-06-06T07:13:55Z</time>
      </trkpt>
      <trkpt lat="45.7547" lon="3.03014">
        <ele>835.36816</ele>
        <time>2021-06-06T07:13:56Z</time>
      </trkpt>
      <trkpt lat="45.7547" lon="3.03014">
        <ele>835.36816</ele>
        <time>2021-06-06T07:13:56Z</time>
      </trkpt>
      <trkpt lat="45.75473" lon="3.03015">
        <ele>835.18054</ele>
        <time>2021-06-06T07:13:58Z</time>
      </trkpt>
      <trkpt lat="45.75473" lon="3.03015">
        <ele>835.18054</ele>
        <time>2021-06-06T07:13:58Z</time>
      </trkpt>
      <trkpt lat="45.75475" lon="3.03016">
        <ele>834.8678</ele>
        <time>2021-06-06T07:14:00Z</time>
      </trkpt>
      <trkpt lat="45.75476" lon="3.03017">
        <ele>835.1284</ele>
        <time>2021-06-06T07:14:01Z</time>
      </trkpt>
      <trkpt lat="45.75479" lon="3.03019">
        <ele>835.08154</ele>
        <time>2021-06-06T07:14:02Z</time>
      </trkpt>
      <trkpt lat="45.75479" lon="3.03019">
        <ele>835.08154</ele>
        <time>2021-06-06T07:14:02Z</time>
      </trkpt>
      <trkpt lat="45.7548" lon="3.0302">
        <ele>835.2639</ele>
        <time>2021-06-06T07:14:04Z</time>
      </trkpt>
      <trkpt lat="45.75482" lon="3.0302">
        <ele>835.0919</ele>
        <time>2021-06-06T07:14:05Z</time>
      </trkpt>
      <trkpt lat="45.75484" lon="3.0302">
        <ele>835.118</ele>
        <time>2021-06-06T07:14:06Z</time>
      </trkpt>
      <trkpt lat="45.75485" lon="3.0302">
        <ele>835.08154</ele>
        <time>2021-06-06T07:14:07Z</time>
      </trkpt>
      <trkpt lat="45.75486" lon="3.0302">
        <ele>834.9252</ele>
        <time>2021-06-06T07:14:08Z</time>
      </trkpt>
      <trkpt lat="45.75488" lon="3.03021">
        <ele>834.9877</ele>
        <time>2021-06-06T07:14:09Z</time>
      </trkpt>
      <trkpt lat="45.75489" lon="3.03022">
        <ele>834.7115</ele>
        <time>2021-06-06T07:14:10Z</time>
      </trkpt>
      <trkpt lat="45.7549" lon="3.03023">
        <ele>834.8626</ele>
        <time>2021-06-06T07:14:11Z</time>
      </trkpt>
      <trkpt lat="45.75491" lon="3.03024">
        <ele>834.8262</ele>
        <time>2021-06-06T07:14:12Z</time>
      </trkpt>
      <trkpt lat="45.75493" lon="3.03025">
        <ele>834.53436</ele>
        <time>2021-06-06T07:14:13Z</time>
      </trkpt>
      <trkpt lat="45.75496" lon="3.03026">
        <ele>834.8626</ele>
        <time>2021-06-06T07:14:14Z</time>
      </trkpt>
      <trkpt lat="45.75496" lon="3.03026">
        <ele>834.8626</ele>
        <time>2021-06-06T07:14:14Z</time>
      </trkpt>
      <trkpt lat="45.75497" lon="3.03027">
        <ele>834.8001</ele>
        <time>2021-06-06T07:14:16Z</time>
      </trkpt>
      <trkpt lat="45.75499" lon="3.03027">
        <ele>834.97205</ele>
        <time>2021-06-06T07:14:17Z</time>
      </trkpt>
      <trkpt lat="45.755" lon="3.03027">
        <ele>834.88873</ele>
        <time>2021-06-06T07:14:18Z</time>
      </trkpt>
      <trkpt lat="45.75502" lon="3.03028">
        <ele>835.18054</ele>
        <time>2021-06-06T07:14:19Z</time>
      </trkpt>
      <trkpt lat="45.75503" lon="3.03028">
        <ele>835.3577</ele>
        <time>2021-06-06T07:14:20Z</time>
      </trkpt>
      <trkpt lat="45.75505" lon="3.03029">
        <ele>835.04504</ele>
        <time>2021-06-06T07:14:21Z</time>
      </trkpt>
      <trkpt lat="45.75505" lon="3.03028">
        <ele>835.44116</ele>
        <time>2021-06-06T07:14:22Z</time>
      </trkpt>
      <trkpt lat="45.75506" lon="3.03029">
        <ele>835.8997</ele>
        <time>2021-06-06T07:14:23Z</time>
      </trkpt>
      <trkpt lat="45.75507" lon="3.03029">
        <ele>835.8319</ele>
        <time>2021-06-06T07:14:24Z</time>
      </trkpt>
      <trkpt lat="45.7551" lon="3.03032">
        <ele>835.7538</ele>
        <time>2021-06-06T07:14:25Z</time>
      </trkpt>
      <trkpt lat="45.7551" lon="3.03032">
        <ele>835.7538</ele>
        <time>2021-06-06T07:14:25Z</time>
      </trkpt>
      <trkpt lat="45.75512" lon="3.03034">
        <ele>835.9466</ele>
        <time>2021-06-06T07:14:27Z</time>
      </trkpt>
      <trkpt lat="45.75512" lon="3.03034">
        <ele>835.9466</ele>
        <time>2021-06-06T07:14:27Z</time>
      </trkpt>
      <trkpt lat="45.75514" lon="3.03035">
        <ele>835.80585</ele>
        <time>2021-06-06T07:14:29Z</time>
      </trkpt>
      <trkpt lat="45.75515" lon="3.03036">
        <ele>835.6912</ele>
        <time>2021-06-06T07:14:30Z</time>
      </trkpt>
      <trkpt lat="45.75515" lon="3.03036">
        <ele>835.6912</ele>
        <time>2021-06-06T07:14:30Z</time>
      </trkpt>
      <trkpt lat="45.75516" lon="3.03036">
        <ele>836.3947</ele>
        <time>2021-06-06T07:14:32Z</time>
      </trkpt>
      <trkpt lat="45.75518" lon="3.03036">
        <ele>836.1342</ele>
        <time>2021-06-06T07:14:33Z</time>
      </trkpt>
      <trkpt lat="45.7552" lon="3.03036">
        <ele>836.13947</ele>
        <time>2021-06-06T07:14:34Z</time>
      </trkpt>
      <trkpt lat="45.75522" lon="3.03036">
        <ele>836.1029</ele>
        <time>2021-06-06T07:14:35Z</time>
      </trkpt>
      <trkpt lat="45.75522" lon="3.03036">
        <ele>836.1029</ele>
        <time>2021-06-06T07:14:35Z</time>
      </trkpt>
      <trkpt lat="45.75523" lon="3.03037">
        <ele>836.00916</ele>
        <time>2021-06-06T07:14:37Z</time>
      </trkpt>
      <trkpt lat="45.75524" lon="3.03038">
        <ele>836.06647</ele>
        <time>2021-06-06T07:14:38Z</time>
      </trkpt>
      <trkpt lat="45.75526" lon="3.03039">
        <ele>835.70685</ele>
        <time>2021-06-06T07:14:39Z</time>
      </trkpt>
      <trkpt lat="45.75527" lon="3.03038">
        <ele>835.5766</ele>
        <time>2021-06-06T07:14:40Z</time>
      </trkpt>
      <trkpt lat="45.75528" lon="3.03038">
        <ele>836.2906</ele>
        <time>2021-06-06T07:14:41Z</time>
      </trkpt>
      <trkpt lat="45.75529" lon="3.03038">
        <ele>835.92053</ele>
        <time>2021-06-06T07:14:42Z</time>
      </trkpt>
      <trkpt lat="45.75529" lon="3.03038">
        <ele>835.92053</ele>
        <time>2021-06-06T07:14:42Z</time>
      </trkpt>
      <trkpt lat="45.75531" lon="3.0304">
        <ele>835.3577</ele>
        <time>2021-06-06T07:14:44Z</time>
      </trkpt>
      <trkpt lat="45.75532" lon="3.0304">
        <ele>835.8632</ele>
        <time>2021-06-06T07:14:45Z</time>
      </trkpt>
      <trkpt lat="45.75532" lon="3.0304">
        <ele>835.8632</ele>
        <time>2021-06-06T07:14:45Z</time>
      </trkpt>
      <trkpt lat="45.75534" lon="3.0304">
        <ele>835.36816</ele>
        <time>2021-06-06T07:14:47Z</time>
      </trkpt>
      <trkpt lat="45.75536" lon="3.03041">
        <ele>835.97784</ele>
        <time>2021-06-06T07:14:48Z</time>
      </trkpt>
      <trkpt lat="45.75538" lon="3.03041">
        <ele>835.71735</ele>
        <time>2021-06-06T07:14:49Z</time>
      </trkpt>
      <trkpt lat="45.75539" lon="3.03041">
        <ele>835.8111</ele>
        <time>2021-06-06T07:14:50Z</time>
      </trkpt>
      <trkpt lat="45.7554" lon="3.0304">
        <ele>835.93097</ele>
        <time>2021-06-06T07:14:51Z</time>
      </trkpt>
      <trkpt lat="45.75541" lon="3.0304">
        <ele>835.9935</ele>
        <time>2021-06-06T07:14:52Z</time>
      </trkpt>
      <trkpt lat="45.75542" lon="3.0304">
        <ele>835.733</ele>
        <time>2021-06-06T07:14:53Z</time>
      </trkpt>
      <trkpt lat="45.75542" lon="3.0304">
        <ele>835.733</ele>
        <time>2021-06-06T07:14:53Z</time>
      </trkpt>
      <trkpt lat="45.75544" lon="3.03039">
        <ele>835.5401</ele>
        <time>2021-06-06T07:14:55Z</time>
      </trkpt>
      <trkpt lat="45.75545" lon="3.03038">
        <ele>835.2483</ele>
        <time>2021-06-06T07:14:56Z</time>
      </trkpt>
      <trkpt lat="45.75546" lon="3.03037">
        <ele>835.08154</ele>
        <time>2021-06-06T07:14:57Z</time>
      </trkpt>
      <trkpt lat="45.75547" lon="3.03035">
        <ele>834.90955</ele>
        <time>2021-06-06T07:14:58Z</time>
      </trkpt>
      <trkpt lat="45.75548" lon="3.03034">
        <ele>834.81573</ele>
        <time>2021-06-06T07:14:59Z</time>
      </trkpt>
      <trkpt lat="45.75549" lon="3.03034">
        <ele>834.6854</ele>
        <time>2021-06-06T07:15:00Z</time>
      </trkpt>
      <trkpt lat="45.75551" lon="3.03034">
        <ele>834.42487</ele>
        <time>2021-06-06T07:15:01Z</time>
      </trkpt>
      <trkpt lat="45.75552" lon="3.03034">
        <ele>834.46136</ele>
        <time>2021-06-06T07:15:02Z</time>
      </trkpt>
      <trkpt lat="45.75553" lon="3.03034">
        <ele>834.5031</ele>
        <time>2021-06-06T07:15:03Z</time>
      </trkpt>
      <trkpt lat="45.75554" lon="3.03033">
        <ele>834.38324</ele>
        <time>2021-06-06T07:15:04Z</time>
      </trkpt>
      <trkpt lat="45.75555" lon="3.03033">
        <ele>834.04974</ele>
        <time>2021-06-06T07:15:05Z</time>
      </trkpt>
      <trkpt lat="45.75555" lon="3.03031">
        <ele>833.8516</ele>
        <time>2021-06-06T07:15:06Z</time>
      </trkpt>
      <trkpt lat="45.75557" lon="3.0303">
        <ele>833.7214</ele>
        <time>2021-06-06T07:15:07Z</time>
      </trkpt>
      <trkpt lat="45.75558" lon="3.03029">
        <ele>833.73175</ele>
        <time>2021-06-06T07:15:08Z</time>
      </trkpt>
      <trkpt lat="45.75559" lon="3.03028">
        <ele>833.70575</ele>
        <time>2021-06-06T07:15:09Z</time>
      </trkpt>
      <trkpt lat="45.7556" lon="3.03028">
        <ele>833.5181</ele>
        <time>2021-06-06T07:15:10Z</time>
      </trkpt>
      <trkpt lat="45.75561" lon="3.03027">
        <ele>833.34094</ele>
        <time>2021-06-06T07:15:11Z</time>
      </trkpt>
      <trkpt lat="45.75562" lon="3.03026">
        <ele>833.24194</ele>
        <time>2021-06-06T07:15:12Z</time>
      </trkpt>
      <trkpt lat="45.75565" lon="3.03025">
        <ele>832.5175</ele>
        <time>2021-06-06T07:15:14Z</time>
      </trkpt>
      <trkpt lat="45.75567" lon="3.03025">
        <ele>832.455</ele>
        <time>2021-06-06T07:15:15Z</time>
      </trkpt>
      <trkpt lat="45.75568" lon="3.03024">
        <ele>832.79376</ele>
        <time>2021-06-06T07:15:16Z</time>
      </trkpt>
      <trkpt lat="45.7557" lon="3.03024">
        <ele>832.7468</ele>
        <time>2021-06-06T07:15:17Z</time>
      </trkpt>
      <trkpt lat="45.75571" lon="3.03023">
        <ele>833.15857</ele>
        <time>2021-06-06T07:15:18Z</time>
      </trkpt>
      <trkpt lat="45.75572" lon="3.03023">
        <ele>833.29926</ele>
        <time>2021-06-06T07:15:19Z</time>
      </trkpt>
      <trkpt lat="45.75574" lon="3.03022">
        <ele>833.66925</ele>
        <time>2021-06-06T07:15:20Z</time>
      </trkpt>
      <trkpt lat="45.75576" lon="3.03022">
        <ele>833.23676</ele>
        <time>2021-06-06T07:15:21Z</time>
      </trkpt>
      <trkpt lat="45.75577" lon="3.03022">
        <ele>833.2263</ele>
        <time>2021-06-06T07:15:22Z</time>
      </trkpt>
      <trkpt lat="45.75579" lon="3.03022">
        <ele>833.1273</ele>
        <time>2021-06-06T07:15:23Z</time>
      </trkpt>
      <trkpt lat="45.7558" lon="3.03022">
        <ele>833.2211</ele>
        <time>2021-06-06T07:15:24Z</time>
      </trkpt>
      <trkpt lat="45.75582" lon="3.03022">
        <ele>833.25757</ele>
        <time>2021-06-06T07:15:25Z</time>
      </trkpt>
      <trkpt lat="45.75583" lon="3.03021">
        <ele>833.3879</ele>
        <time>2021-06-06T07:15:26Z</time>
      </trkpt>
      <trkpt lat="45.75585" lon="3.0302">
        <ele>833.2524</ele>
        <time>2021-06-06T07:15:27Z</time>
      </trkpt>
      <trkpt lat="45.75586" lon="3.03019">
        <ele>833.37744</ele>
        <time>2021-06-06T07:15:28Z</time>
      </trkpt>
      <trkpt lat="45.75588" lon="3.03018">
        <ele>833.2888</ele>
        <time>2021-06-06T07:15:29Z</time>
      </trkpt>
      <trkpt lat="45.75588" lon="3.03017">
        <ele>833.3461</ele>
        <time>2021-06-06T07:15:30Z</time>
      </trkpt>
      <trkpt lat="45.75589" lon="3.03016">
        <ele>833.2472</ele>
        <time>2021-06-06T07:15:31Z</time>
      </trkpt>
      <trkpt lat="45.75591" lon="3.03014">
        <ele>833.37225</ele>
        <time>2021-06-06T07:15:32Z</time>
      </trkpt>
      <trkpt lat="45.75592" lon="3.03013">
        <ele>833.0231</ele>
        <time>2021-06-06T07:15:33Z</time>
      </trkpt>
      <trkpt lat="45.75593" lon="3.03012">
        <ele>832.9084</ele>
        <time>2021-06-06T07:15:34Z</time>
      </trkpt>
      <trkpt lat="45.75594" lon="3.03011">
        <ele>833.0491</ele>
        <time>2021-06-06T07:15:35Z</time>
      </trkpt>
      <trkpt lat="45.75595" lon="3.0301">
        <ele>832.9762</ele>
        <time>2021-06-06T07:15:36Z</time>
      </trkpt>
      <trkpt lat="45.75597" lon="3.03009">
        <ele>832.6896</ele>
        <time>2021-06-06T07:15:37Z</time>
      </trkpt>
      <trkpt lat="45.75598" lon="3.03009">
        <ele>832.4186</ele>
        <time>2021-06-06T07:15:38Z</time>
      </trkpt>
      <trkpt lat="45.75599" lon="3.03008">
        <ele>832.4134</ele>
        <time>2021-06-06T07:15:39Z</time>
      </trkpt>
      <trkpt lat="45.756" lon="3.03007">
        <ele>832.528</ele>
        <time>2021-06-06T07:15:40Z</time>
      </trkpt>
      <trkpt lat="45.75602" lon="3.03007">
        <ele>832.42377</ele>
        <time>2021-06-06T07:15:41Z</time>
      </trkpt>
      <trkpt lat="45.75603" lon="3.03006">
        <ele>832.32996</ele>
        <time>2021-06-06T07:15:42Z</time>
      </trkpt>
      <trkpt lat="45.75603" lon="3.03006">
        <ele>832.32996</ele>
        <time>2021-06-06T07:15:42Z</time>
      </trkpt>
      <trkpt lat="45.75606" lon="3.03004">
        <ele>832.26746</ele>
        <time>2021-06-06T07:15:44Z</time>
      </trkpt>
      <trkpt lat="45.75607" lon="3.03003">
        <ele>831.8505</ele>
        <time>2021-06-06T07:15:45Z</time>
      </trkpt>
      <trkpt lat="45.75609" lon="3.03002">
        <ele>831.7359</ele>
        <time>2021-06-06T07:15:46Z</time>
      </trkpt>
      <trkpt lat="45.75611" lon="3.03001">
        <ele>831.689</ele>
        <time>2021-06-06T07:15:47Z</time>
      </trkpt>
      <trkpt lat="45.75613" lon="3.03001">
        <ele>831.4805</ele>
        <time>2021-06-06T07:15:48Z</time>
      </trkpt>
      <trkpt lat="45.75615" lon="3.03001">
        <ele>831.3815</ele>
        <time>2021-06-06T07:15:49Z</time>
      </trkpt>
      <trkpt lat="45.75616" lon="3.03">
        <ele>831.2616</ele>
        <time>2021-06-06T07:15:50Z</time>
      </trkpt>
      <trkpt lat="45.75618" lon="3.02999">
        <ele>830.9802</ele>
        <time>2021-06-06T07:15:51Z</time>
      </trkpt>
      <trkpt lat="45.75619" lon="3.02999">
        <ele>830.8552</ele>
        <time>2021-06-06T07:15:52Z</time>
      </trkpt>
      <trkpt lat="45.75621" lon="3.02998">
        <ele>830.46436</ele>
        <time>2021-06-06T07:15:53Z</time>
      </trkpt>
      <trkpt lat="45.75623" lon="3.02997">
        <ele>830.39136</ele>
        <time>2021-06-06T07:15:54Z</time>
      </trkpt>
      <trkpt lat="45.75624" lon="3.02997">
        <ele>830.209</ele>
        <time>2021-06-06T07:15:55Z</time>
      </trkpt>
      <trkpt lat="45.75626" lon="3.02997">
        <ele>829.69305</ele>
        <time>2021-06-06T07:15:56Z</time>
      </trkpt>
      <trkpt lat="45.75628" lon="3.02996">
        <ele>829.2814</ele>
        <time>2021-06-06T07:15:57Z</time>
      </trkpt>
      <trkpt lat="45.75629" lon="3.02996">
        <ele>829.0312</ele>
        <time>2021-06-06T07:15:58Z</time>
      </trkpt>
      <trkpt lat="45.75631" lon="3.02995">
        <ele>829.3074</ele>
        <time>2021-06-06T07:15:59Z</time>
      </trkpt>
      <trkpt lat="45.75632" lon="3.02994">
        <ele>829.026</ele>
        <time>2021-06-06T07:16:00Z</time>
      </trkpt>
      <trkpt lat="45.75634" lon="3.02993">
        <ele>828.4684</ele>
        <time>2021-06-06T07:16:01Z</time>
      </trkpt>
      <trkpt lat="45.75635" lon="3.02993">
        <ele>828.3538</ele>
        <time>2021-06-06T07:16:02Z</time>
      </trkpt>
      <trkpt lat="45.75636" lon="3.02992">
        <ele>828.1453</ele>
        <time>2021-06-06T07:16:03Z</time>
      </trkpt>
      <trkpt lat="45.75637" lon="3.02992">
        <ele>827.83264</ele>
        <time>2021-06-06T07:16:04Z</time>
      </trkpt>
      <trkpt lat="45.75639" lon="3.02992">
        <ele>827.69714</ele>
        <time>2021-06-06T07:16:05Z</time>
      </trkpt>
      <trkpt lat="45.75641" lon="3.02991">
        <ele>827.6659</ele>
        <time>2021-06-06T07:16:06Z</time>
      </trkpt>
      <trkpt lat="45.75642" lon="3.0299">
        <ele>827.12915</ele>
        <time>2021-06-06T07:16:07Z</time>
      </trkpt>
      <trkpt lat="45.75644" lon="3.02989">
        <ele>827.004</ele>
        <time>2021-06-06T07:16:08Z</time>
      </trkpt>
      <trkpt lat="45.75645" lon="3.02988">
        <ele>826.99365</ele>
        <time>2021-06-06T07:16:09Z</time>
      </trkpt>
      <trkpt lat="45.75646" lon="3.02988">
        <ele>826.8269</ele>
        <time>2021-06-06T07:16:10Z</time>
      </trkpt>
      <trkpt lat="45.75647" lon="3.02987">
        <ele>826.8269</ele>
        <time>2021-06-06T07:16:11Z</time>
      </trkpt>
      <trkpt lat="45.75649" lon="3.02987">
        <ele>826.72784</ele>
        <time>2021-06-06T07:16:12Z</time>
      </trkpt>
      <trkpt lat="45.75651" lon="3.02986">
        <ele>825.96173</ele>
        <time>2021-06-06T07:16:13Z</time>
      </trkpt>
      <trkpt lat="45.75654" lon="3.02986">
        <ele>825.6908</ele>
        <time>2021-06-06T07:16:14Z</time>
      </trkpt>
      <trkpt lat="45.75655" lon="3.02985">
        <ele>825.5605</ele>
        <time>2021-06-06T07:16:15Z</time>
      </trkpt>
      <trkpt lat="45.75657" lon="3.02985">
        <ele>825.2948</ele>
        <time>2021-06-06T07:16:16Z</time>
      </trkpt>
      <trkpt lat="45.75659" lon="3.02984">
        <ele>824.98724</ele>
        <time>2021-06-06T07:16:17Z</time>
      </trkpt>
      <trkpt lat="45.75661" lon="3.02984">
        <ele>825.1279</ele>
        <time>2021-06-06T07:16:18Z</time>
      </trkpt>
      <trkpt lat="45.75663" lon="3.02984">
        <ele>824.9977</ele>
        <time>2021-06-06T07:16:19Z</time>
      </trkpt>
      <trkpt lat="45.75665" lon="3.02985">
        <ele>824.7788</ele>
        <time>2021-06-06T07:16:20Z</time>
      </trkpt>
      <trkpt lat="45.75667" lon="3.02985">
        <ele>824.487</ele>
        <time>2021-06-06T07:16:21Z</time>
      </trkpt>
      <trkpt lat="45.75669" lon="3.02984">
        <ele>824.388</ele>
        <time>2021-06-06T07:16:22Z</time>
      </trkpt>
      <trkpt lat="45.75671" lon="3.02984">
        <ele>824.2733</ele>
        <time>2021-06-06T07:16:23Z</time>
      </trkpt>
      <trkpt lat="45.75673" lon="3.02984">
        <ele>824.3359</ele>
        <time>2021-06-06T07:16:24Z</time>
      </trkpt>
      <trkpt lat="45.75675" lon="3.02984">
        <ele>824.143</ele>
        <time>2021-06-06T07:16:25Z</time>
      </trkpt>
      <trkpt lat="45.75676" lon="3.02985">
        <ele>824.01794</ele>
        <time>2021-06-06T07:16:26Z</time>
      </trkpt>
      <trkpt lat="45.75678" lon="3.02985">
        <ele>823.60626</ele>
        <time>2021-06-06T07:16:27Z</time>
      </trkpt>
      <trkpt lat="45.7568" lon="3.02986">
        <ele>823.1321</ele>
        <time>2021-06-06T07:16:28Z</time>
      </trkpt>
      <trkpt lat="45.75681" lon="3.02987">
        <ele>822.8871</ele>
        <time>2021-06-06T07:16:29Z</time>
      </trkpt>
      <trkpt lat="45.75683" lon="3.02988">
        <ele>822.6109</ele>
        <time>2021-06-06T07:16:30Z</time>
      </trkpt>
      <trkpt lat="45.75685" lon="3.0299">
        <ele>822.48584</ele>
        <time>2021-06-06T07:16:31Z</time>
      </trkpt>
      <trkpt lat="45.75686" lon="3.02991">
        <ele>822.0898</ele>
        <time>2021-06-06T07:16:32Z</time>
      </trkpt>
      <trkpt lat="45.75687" lon="3.02993">
        <ele>821.8553</ele>
        <time>2021-06-06T07:16:33Z</time>
      </trkpt>
      <trkpt lat="45.75689" lon="3.02994">
        <ele>821.5947</ele>
        <time>2021-06-06T07:16:34Z</time>
      </trkpt>
      <trkpt lat="45.7569" lon="3.02996">
        <ele>820.9277</ele>
        <time>2021-06-06T07:16:35Z</time>
      </trkpt>
      <trkpt lat="45.75692" lon="3.02998">
        <ele>820.68274</ele>
        <time>2021-06-06T07:16:36Z</time>
      </trkpt>
      <trkpt lat="45.75694" lon="3.03">
        <ele>820.4222</ele>
        <time>2021-06-06T07:16:37Z</time>
      </trkpt>
      <trkpt lat="45.75696" lon="3.03001">
        <ele>820.047</ele>
        <time>2021-06-06T07:16:38Z</time>
      </trkpt>
      <trkpt lat="45.75698" lon="3.03003">
        <ele>819.72906</ele>
        <time>2021-06-06T07:16:39Z</time>
      </trkpt>
      <trkpt lat="45.757" lon="3.03005">
        <ele>819.59357</ele>
        <time>2021-06-06T07:16:40Z</time>
      </trkpt>
      <trkpt lat="45.75702" lon="3.03006">
        <ele>819.208</ele>
        <time>2021-06-06T07:16:41Z</time>
      </trkpt>
      <trkpt lat="45.75703" lon="3.03007">
        <ele>818.9214</ele>
        <time>2021-06-06T07:16:42Z</time>
      </trkpt>
      <trkpt lat="45.75705" lon="3.03009">
        <ele>818.8119</ele>
        <time>2021-06-06T07:16:43Z</time>
      </trkpt>
      <trkpt lat="45.75707" lon="3.03011">
        <ele>818.692</ele>
        <time>2021-06-06T07:16:44Z</time>
      </trkpt>
      <trkpt lat="45.75709" lon="3.03011">
        <ele>818.6764</ele>
        <time>2021-06-06T07:16:45Z</time>
      </trkpt>
      <trkpt lat="45.7571" lon="3.03012">
        <ele>818.2647</ele>
        <time>2021-06-06T07:16:46Z</time>
      </trkpt>
      <trkpt lat="45.75711" lon="3.03013">
        <ele>818.0406</ele>
        <time>2021-06-06T07:16:47Z</time>
      </trkpt>
      <trkpt lat="45.75713" lon="3.03014">
        <ele>817.59247</ele>
        <time>2021-06-06T07:16:48Z</time>
      </trkpt>
      <trkpt lat="45.75716" lon="3.03015">
        <ele>817.2224</ele>
        <time>2021-06-06T07:16:50Z</time>
      </trkpt>
      <trkpt lat="45.75717" lon="3.03016">
        <ele>816.97235</ele>
        <time>2021-06-06T07:16:51Z</time>
      </trkpt>
      <trkpt lat="45.75718" lon="3.03016">
        <ele>816.915</ele>
        <time>2021-06-06T07:16:52Z</time>
      </trkpt>
      <trkpt lat="45.7572" lon="3.03017">
        <ele>816.66486</ele>
        <time>2021-06-06T07:16:53Z</time>
      </trkpt>
      <trkpt lat="45.75722" lon="3.03018">
        <ele>816.7482</ele>
        <time>2021-06-06T07:16:54Z</time>
      </trkpt>
      <trkpt lat="45.75723" lon="3.03018">
        <ele>816.4043</ele>
        <time>2021-06-06T07:16:55Z</time>
      </trkpt>
      <trkpt lat="45.75724" lon="3.03019">
        <ele>816.27405</ele>
        <time>2021-06-06T07:16:56Z</time>
      </trkpt>
      <trkpt lat="45.75725" lon="3.0302">
        <ele>815.9874</ele>
        <time>2021-06-06T07:16:57Z</time>
      </trkpt>
      <trkpt lat="45.75727" lon="3.03021">
        <ele>815.8206</ele>
        <time>2021-06-06T07:16:58Z</time>
      </trkpt>
      <trkpt lat="45.75728" lon="3.03021">
        <ele>815.46106</ele>
        <time>2021-06-06T07:16:59Z</time>
      </trkpt>
      <trkpt lat="45.7573" lon="3.03021">
        <ele>815.4506</ele>
        <time>2021-06-06T07:17:00Z</time>
      </trkpt>
      <trkpt lat="45.75732" lon="3.03022">
        <ele>815.27344</ele>
        <time>2021-06-06T07:17:01Z</time>
      </trkpt>
      <trkpt lat="45.75733" lon="3.03023">
        <ele>815.10144</ele>
        <time>2021-06-06T07:17:02Z</time>
      </trkpt>
      <trkpt lat="45.75735" lon="3.03023">
        <ele>815.03375</ele>
        <time>2021-06-06T07:17:03Z</time>
      </trkpt>
      <trkpt lat="45.75736" lon="3.03024">
        <ele>814.8409</ele>
        <time>2021-06-06T07:17:04Z</time>
      </trkpt>
      <trkpt lat="45.75737" lon="3.03024">
        <ele>814.6846</ele>
        <time>2021-06-06T07:17:05Z</time>
      </trkpt>
      <trkpt lat="45.75739" lon="3.03025">
        <ele>814.6168</ele>
        <time>2021-06-06T07:17:06Z</time>
      </trkpt>
      <trkpt lat="45.75739" lon="3.03025">
        <ele>814.4448</ele>
        <time>2021-06-06T07:17:07Z</time>
      </trkpt>
      <trkpt lat="45.7574" lon="3.03025">
        <ele>814.55426</ele>
        <time>2021-06-06T07:17:08Z</time>
      </trkpt>
      <trkpt lat="45.75742" lon="3.03026">
        <ele>814.4553</ele>
        <time>2021-06-06T07:17:09Z</time>
      </trkpt>
      <trkpt lat="45.75744" lon="3.03027">
        <ele>814.0279</ele>
        <time>2021-06-06T07:17:10Z</time>
      </trkpt>
      <trkpt lat="45.75745" lon="3.03027">
        <ele>814.0019</ele>
        <time>2021-06-06T07:17:11Z</time>
      </trkpt>
      <trkpt lat="45.75747" lon="3.03028">
        <ele>813.9394</ele>
        <time>2021-06-06T07:17:12Z</time>
      </trkpt>
      <trkpt lat="45.75749" lon="3.03029">
        <ele>813.8716</ele>
        <time>2021-06-06T07:17:13Z</time>
      </trkpt>
      <trkpt lat="45.7575" lon="3.0303">
        <ele>813.5381</ele>
        <time>2021-06-06T07:17:14Z</time>
      </trkpt>
      <trkpt lat="45.75752" lon="3.03031">
        <ele>813.3296</ele>
        <time>2021-06-06T07:17:15Z</time>
      </trkpt>
      <trkpt lat="45.75753" lon="3.03032">
        <ele>813.44946</ele>
        <time>2021-06-06T07:17:16Z</time>
      </trkpt>
      <trkpt lat="45.75754" lon="3.03034">
        <ele>813.31396</ele>
        <time>2021-06-06T07:17:17Z</time>
      </trkpt>
      <trkpt lat="45.75756" lon="3.03037">
        <ele>813.15247</ele>
        <time>2021-06-06T07:17:19Z</time>
      </trkpt>
      <trkpt lat="45.75758" lon="3.03038">
        <ele>812.9909</ele>
        <time>2021-06-06T07:17:20Z</time>
      </trkpt>
      <trkpt lat="45.75759" lon="3.03039">
        <ele>813.09515</ele>
        <time>2021-06-06T07:17:21Z</time>
      </trkpt>
      <trkpt lat="45.7576" lon="3.0304">
        <ele>813.1889</ele>
        <time>2021-06-06T07:17:22Z</time>
      </trkpt>
      <trkpt lat="45.75761" lon="3.03041">
        <ele>812.9231</ele>
        <time>2021-06-06T07:17:23Z</time>
      </trkpt>
      <trkpt lat="45.75763" lon="3.03042">
        <ele>812.9179</ele>
        <time>2021-06-06T07:17:24Z</time>
      </trkpt>
      <trkpt lat="45.75764" lon="3.03043">
        <ele>813.16284</ele>
        <time>2021-06-06T07:17:25Z</time>
      </trkpt>
      <trkpt lat="45.75765" lon="3.03044">
        <ele>813.11597</ele>
        <time>2021-06-06T07:17:26Z</time>
      </trkpt>
      <trkpt lat="45.75767" lon="3.03045">
        <ele>812.8502</ele>
        <time>2021-06-06T07:17:27Z</time>
      </trkpt>
      <trkpt lat="45.75768" lon="3.03046">
        <ele>812.6991</ele>
        <time>2021-06-06T07:17:28Z</time>
      </trkpt>
      <trkpt lat="45.75769" lon="3.03048">
        <ele>812.3499</ele>
        <time>2021-06-06T07:17:29Z</time>
      </trkpt>
      <trkpt lat="45.75771" lon="3.03049">
        <ele>812.04767</ele>
        <time>2021-06-06T07:17:30Z</time>
      </trkpt>
      <trkpt lat="45.75772" lon="3.0305">
        <ele>811.97473</ele>
        <time>2021-06-06T07:17:31Z</time>
      </trkpt>
      <trkpt lat="45.75774" lon="3.03051">
        <ele>812.3082</ele>
        <time>2021-06-06T07:17:32Z</time>
      </trkpt>
      <trkpt lat="45.75774" lon="3.03051">
        <ele>812.36554</ele>
        <time>2021-06-06T07:17:33Z</time>
      </trkpt>
      <trkpt lat="45.75775" lon="3.03052">
        <ele>812.3864</ele>
        <time>2021-06-06T07:17:34Z</time>
      </trkpt>
      <trkpt lat="45.75776" lon="3.03052">
        <ele>812.41766</ele>
        <time>2021-06-06T07:17:35Z</time>
      </trkpt>
      <trkpt lat="45.75777" lon="3.03053">
        <ele>812.36554</ele>
        <time>2021-06-06T07:17:36Z</time>
      </trkpt>
      <trkpt lat="45.75778" lon="3.03055">
        <ele>812.8346</ele>
        <time>2021-06-06T07:17:37Z</time>
      </trkpt>
      <trkpt lat="45.75779" lon="3.03057">
        <ele>812.2144</ele>
        <time>2021-06-06T07:17:38Z</time>
      </trkpt>
      <trkpt lat="45.7578" lon="3.0306">
        <ele>812.3916</ele>
        <time>2021-06-06T07:17:39Z</time>
      </trkpt>
      <trkpt lat="45.75781" lon="3.03062">
        <ele>812.16754</ele>
        <time>2021-06-06T07:17:40Z</time>
      </trkpt>
      <trkpt lat="45.75782" lon="3.03063">
        <ele>812.006</ele>
        <time>2021-06-06T07:17:41Z</time>
      </trkpt>
      <trkpt lat="45.75782" lon="3.03064">
        <ele>812.1779</ele>
        <time>2021-06-06T07:17:42Z</time>
      </trkpt>
      <trkpt lat="45.75784" lon="3.03065">
        <ele>811.85486</ele>
        <time>2021-06-06T07:17:43Z</time>
      </trkpt>
      <trkpt lat="45.75785" lon="3.03067">
        <ele>811.7454</ele>
        <time>2021-06-06T07:17:44Z</time>
      </trkpt>
      <trkpt lat="45.75787" lon="3.03068">
        <ele>811.5943</ele>
        <time>2021-06-06T07:17:45Z</time>
      </trkpt>
      <trkpt lat="45.75788" lon="3.03069">
        <ele>811.6047</ele>
        <time>2021-06-06T07:17:46Z</time>
      </trkpt>
      <trkpt lat="45.75789" lon="3.0307">
        <ele>811.6724</ele>
        <time>2021-06-06T07:17:47Z</time>
      </trkpt>
      <trkpt lat="45.7579" lon="3.03072">
        <ele>811.8861</ele>
        <time>2021-06-06T07:17:48Z</time>
      </trkpt>
      <trkpt lat="45.75791" lon="3.03073">
        <ele>811.99554</ele>
        <time>2021-06-06T07:17:49Z</time>
      </trkpt>
      <trkpt lat="45.75792" lon="3.03074">
        <ele>811.5057</ele>
        <time>2021-06-06T07:17:50Z</time>
      </trkpt>
      <trkpt lat="45.75794" lon="3.03076">
        <ele>810.995</ele>
        <time>2021-06-06T07:17:52Z</time>
      </trkpt>
      <trkpt lat="45.75795" lon="3.03077">
        <ele>811.21387</ele>
        <time>2021-06-06T07:17:53Z</time>
      </trkpt>
      <trkpt lat="45.75796" lon="3.03079">
        <ele>811.31287</ele>
        <time>2021-06-06T07:17:54Z</time>
      </trkpt>
      <trkpt lat="45.75797" lon="3.03081">
        <ele>811.4067</ele>
        <time>2021-06-06T07:17:55Z</time>
      </trkpt>
      <trkpt lat="45.75798" lon="3.03082">
        <ele>811.48486</ele>
        <time>2021-06-06T07:17:56Z</time>
      </trkpt>
      <trkpt lat="45.758" lon="3.03082">
        <ele>811.5422</ele>
        <time>2021-06-06T07:17:57Z</time>
      </trkpt>
      <trkpt lat="45.75801" lon="3.03084">
        <ele>811.537</ele>
        <time>2021-06-06T07:17:58Z</time>
      </trkpt>
      <trkpt lat="45.75802" lon="3.03084">
        <ele>811.5526</ele>
        <time>2021-06-06T07:17:59Z</time>
      </trkpt>
      <trkpt lat="45.75803" lon="3.03086">
        <ele>811.4067</ele>
        <time>2021-06-06T07:18:00Z</time>
      </trkpt>
      <trkpt lat="45.75805" lon="3.03088">
        <ele>811.3963</ele>
        <time>2021-06-06T07:18:01Z</time>
      </trkpt>
      <trkpt lat="45.75806" lon="3.03089">
        <ele>811.464</ele>
        <time>2021-06-06T07:18:02Z</time>
      </trkpt>
      <trkpt lat="45.75807" lon="3.0309">
        <ele>811.4588</ele>
        <time>2021-06-06T07:18:03Z</time>
      </trkpt>
      <trkpt lat="45.75808" lon="3.03092">
        <ele>811.43274</ele>
        <time>2021-06-06T07:18:04Z</time>
      </trkpt>
      <trkpt lat="45.75809" lon="3.03094">
        <ele>811.21387</ele>
        <time>2021-06-06T07:18:05Z</time>
      </trkpt>
      <trkpt lat="45.7581" lon="3.03095">
        <ele>811.266</ele>
        <time>2021-06-06T07:18:06Z</time>
      </trkpt>
      <trkpt lat="45.75811" lon="3.03097">
        <ele>811.2764</ele>
        <time>2021-06-06T07:18:07Z</time>
      </trkpt>
      <trkpt lat="45.75813" lon="3.03099">
        <ele>811.2503</ele>
        <time>2021-06-06T07:18:08Z</time>
      </trkpt>
      <trkpt lat="45.75813" lon="3.031">
        <ele>810.9898</ele>
        <time>2021-06-06T07:18:09Z</time>
      </trkpt>
      <trkpt lat="45.75814" lon="3.03101">
        <ele>811.1253</ele>
        <time>2021-06-06T07:18:10Z</time>
      </trkpt>
      <trkpt lat="45.75816" lon="3.03103">
        <ele>811.29205</ele>
        <time>2021-06-06T07:18:11Z</time>
      </trkpt>
      <trkpt lat="45.75816" lon="3.03104">
        <ele>811.29724</ele>
        <time>2021-06-06T07:18:12Z</time>
      </trkpt>
      <trkpt lat="45.75818" lon="3.03105">
        <ele>811.2295</ele>
        <time>2021-06-06T07:18:13Z</time>
      </trkpt>
      <trkpt lat="45.75818" lon="3.03107">
        <ele>811.2503</ele>
        <time>2021-06-06T07:18:14Z</time>
      </trkpt>
      <trkpt lat="45.7582" lon="3.03107">
        <ele>811.23987</ele>
        <time>2021-06-06T07:18:15Z</time>
      </trkpt>
      <trkpt lat="45.75821" lon="3.03109">
        <ele>811.19824</ele>
        <time>2021-06-06T07:18:16Z</time>
      </trkpt>
      <trkpt lat="45.75822" lon="3.03111">
        <ele>810.8491</ele>
        <time>2021-06-06T07:18:17Z</time>
      </trkpt>
      <trkpt lat="45.75823" lon="3.03112">
        <ele>811.2608</ele>
        <time>2021-06-06T07:18:18Z</time>
      </trkpt>
      <trkpt lat="45.75824" lon="3.03114">
        <ele>811.4796</ele>
        <time>2021-06-06T07:18:19Z</time>
      </trkpt>
      <trkpt lat="45.75826" lon="3.03115">
        <ele>811.1253</ele>
        <time>2021-06-06T07:18:20Z</time>
      </trkpt>
      <trkpt lat="45.75827" lon="3.03116">
        <ele>811.21387</ele>
        <time>2021-06-06T07:18:21Z</time>
      </trkpt>
      <trkpt lat="45.75827" lon="3.03117">
        <ele>811.1305</ele>
        <time>2021-06-06T07:18:22Z</time>
      </trkpt>
      <trkpt lat="45.75828" lon="3.03119">
        <ele>811.2086</ele>
        <time>2021-06-06T07:18:23Z</time>
      </trkpt>
      <trkpt lat="45.75829" lon="3.03121">
        <ele>811.28687</ele>
        <time>2021-06-06T07:18:24Z</time>
      </trkpt>
      <trkpt lat="45.75829" lon="3.03121">
        <ele>811.0523</ele>
        <time>2021-06-06T07:18:25Z</time>
      </trkpt>
      <trkpt lat="45.7583" lon="3.03123">
        <ele>811.35974</ele>
        <time>2021-06-06T07:18:26Z</time>
      </trkpt>
      <trkpt lat="45.7583" lon="3.03127">
        <ele>810.7605</ele>
        <time>2021-06-06T07:18:28Z</time>
      </trkpt>
      <trkpt lat="45.7583" lon="3.03129">
        <ele>810.75525</ele>
        <time>2021-06-06T07:18:29Z</time>
      </trkpt>
      <trkpt lat="45.7583" lon="3.03131">
        <ele>810.5312</ele>
        <time>2021-06-06T07:18:30Z</time>
      </trkpt>
      <trkpt lat="45.7583" lon="3.03133">
        <ele>810.27057</ele>
        <time>2021-06-06T07:18:31Z</time>
      </trkpt>
      <trkpt lat="45.75831" lon="3.03135">
        <ele>810.2237</ele>
        <time>2021-06-06T07:18:32Z</time>
      </trkpt>
      <trkpt lat="45.75831" lon="3.03137">
        <ele>810.32275</ele>
        <time>2021-06-06T07:18:33Z</time>
      </trkpt>
      <trkpt lat="45.75832" lon="3.03139">
        <ele>810.2185</ele>
        <time>2021-06-06T07:18:34Z</time>
      </trkpt>
      <trkpt lat="45.75832" lon="3.03141">
        <ele>810.3488</ele>
        <time>2021-06-06T07:18:35Z</time>
      </trkpt>
      <trkpt lat="45.75833" lon="3.03143">
        <ele>810.36444</ele>
        <time>2021-06-06T07:18:36Z</time>
      </trkpt>
      <trkpt lat="45.75833" lon="3.03145">
        <ele>810.11945</ele>
        <time>2021-06-06T07:18:37Z</time>
      </trkpt>
      <trkpt lat="45.75833" lon="3.03148">
        <ele>809.91626</ele>
        <time>2021-06-06T07:18:38Z</time>
      </trkpt>
      <trkpt lat="45.75834" lon="3.03149">
        <ele>809.8641</ele>
        <time>2021-06-06T07:18:39Z</time>
      </trkpt>
      <trkpt lat="45.75833" lon="3.03151">
        <ele>809.7234</ele>
        <time>2021-06-06T07:18:40Z</time>
      </trkpt>
      <trkpt lat="45.75834" lon="3.03152">
        <ele>809.4837</ele>
        <time>2021-06-06T07:18:41Z</time>
      </trkpt>
      <trkpt lat="45.75834" lon="3.03154">
        <ele>809.5254</ele>
        <time>2021-06-06T07:18:42Z</time>
      </trkpt>
      <trkpt lat="45.75835" lon="3.03157">
        <ele>809.3639</ele>
        <time>2021-06-06T07:18:43Z</time>
      </trkpt>
      <trkpt lat="45.75835" lon="3.03159">
        <ele>809.3378</ele>
        <time>2021-06-06T07:18:44Z</time>
      </trkpt>
      <trkpt lat="45.75836" lon="3.03161">
        <ele>809.20233</ele>
        <time>2021-06-06T07:18:45Z</time>
      </trkpt>
      <trkpt lat="45.75836" lon="3.03164">
        <ele>808.9782</ele>
        <time>2021-06-06T07:18:46Z</time>
      </trkpt>
      <trkpt lat="45.75837" lon="3.03166">
        <ele>808.79065</ele>
        <time>2021-06-06T07:18:47Z</time>
      </trkpt>
      <trkpt lat="45.75837" lon="3.03168">
        <ele>808.8844</ele>
        <time>2021-06-06T07:18:48Z</time>
      </trkpt>
      <trkpt lat="45.75838" lon="3.03171">
        <ele>808.7072</ele>
        <time>2021-06-06T07:18:49Z</time>
      </trkpt>
      <trkpt lat="45.75838" lon="3.03173">
        <ele>808.68115</ele>
        <time>2021-06-06T07:18:50Z</time>
      </trkpt>
      <trkpt lat="45.75839" lon="3.03175">
        <ele>808.4362</ele>
        <time>2021-06-06T07:18:51Z</time>
      </trkpt>
      <trkpt lat="45.75838" lon="3.03177">
        <ele>808.34766</ele>
        <time>2021-06-06T07:18:52Z</time>
      </trkpt>
      <trkpt lat="45.75838" lon="3.03179">
        <ele>808.0611</ele>
        <time>2021-06-06T07:18:53Z</time>
      </trkpt>
      <trkpt lat="45.75839" lon="3.03181">
        <ele>808.2122</ele>
        <time>2021-06-06T07:18:54Z</time>
      </trkpt>
      <trkpt lat="45.75839" lon="3.03183">
        <ele>808.23303</ele>
        <time>2021-06-06T07:18:55Z</time>
      </trkpt>
      <trkpt lat="45.7584" lon="3.03185">
        <ele>807.9256</ele>
        <time>2021-06-06T07:18:56Z</time>
      </trkpt>
      <trkpt lat="45.7584" lon="3.03187">
        <ele>807.75354</ele>
        <time>2021-06-06T07:18:57Z</time>
      </trkpt>
      <trkpt lat="45.75841" lon="3.03189">
        <ele>807.7015</ele>
        <time>2021-06-06T07:18:58Z</time>
      </trkpt>
      <trkpt lat="45.75841" lon="3.03191">
        <ele>807.3836</ele>
        <time>2021-06-06T07:18:59Z</time>
      </trkpt>
      <trkpt lat="45.75841" lon="3.03193">
        <ele>807.1751</ele>
        <time>2021-06-06T07:19:00Z</time>
      </trkpt>
      <trkpt lat="45.75842" lon="3.03195">
        <ele>806.7686</ele>
        <time>2021-06-06T07:19:01Z</time>
      </trkpt>
      <trkpt lat="45.75842" lon="3.03197">
        <ele>806.8677</ele>
        <time>2021-06-06T07:19:02Z</time>
      </trkpt>
      <trkpt lat="45.75843" lon="3.03199">
        <ele>806.6383</ele>
        <time>2021-06-06T07:19:03Z</time>
      </trkpt>
      <trkpt lat="45.75843" lon="3.03201">
        <ele>806.45074</ele>
        <time>2021-06-06T07:19:04Z</time>
      </trkpt>
      <trkpt lat="45.75843" lon="3.03203">
        <ele>806.383</ele>
        <time>2021-06-06T07:19:05Z</time>
      </trkpt>
      <trkpt lat="45.75845" lon="3.03205">
        <ele>805.987</ele>
        <time>2021-06-06T07:19:06Z</time>
      </trkpt>
      <trkpt lat="45.75845" lon="3.03207">
        <ele>805.6065</ele>
        <time>2021-06-06T07:19:07Z</time>
      </trkpt>
      <trkpt lat="45.75847" lon="3.03208">
        <ele>805.55963</ele>
        <time>2021-06-06T07:19:08Z</time>
      </trkpt>
      <trkpt lat="45.75847" lon="3.0321">
        <ele>805.4294</ele>
        <time>2021-06-06T07:19:09Z</time>
      </trkpt>
      <trkpt lat="45.75847" lon="3.03212">
        <ele>805.4502</ele>
        <time>2021-06-06T07:19:10Z</time>
      </trkpt>
      <trkpt lat="45.75848" lon="3.03214">
        <ele>805.00726</ele>
        <time>2021-06-06T07:19:11Z</time>
      </trkpt>
      <trkpt lat="45.75849" lon="3.03215">
        <ele>805.0802</ele>
        <time>2021-06-06T07:19:12Z</time>
      </trkpt>
      <trkpt lat="45.7585" lon="3.03216">
        <ele>804.7311</ele>
        <time>2021-06-06T07:19:13Z</time>
      </trkpt>
      <trkpt lat="45.75851" lon="3.03217">
        <ele>804.4861</ele>
        <time>2021-06-06T07:19:14Z</time>
      </trkpt>
      <trkpt lat="45.75852" lon="3.03218">
        <ele>804.0223</ele>
        <time>2021-06-06T07:19:15Z</time>
      </trkpt>
      <trkpt lat="45.75852" lon="3.0322">
        <ele>804.0692</ele>
        <time>2021-06-06T07:19:16Z</time>
      </trkpt>
      <trkpt lat="45.75853" lon="3.03222">
        <ele>803.81384</ele>
        <time>2021-06-06T07:19:17Z</time>
      </trkpt>
      <trkpt lat="45.75854" lon="3.03225">
        <ele>803.61584</ele>
        <time>2021-06-06T07:19:18Z</time>
      </trkpt>
      <trkpt lat="45.75855" lon="3.03227">
        <ele>803.53766</ele>
        <time>2021-06-06T07:19:19Z</time>
      </trkpt>
      <trkpt lat="45.75856" lon="3.0323">
        <ele>803.2302</ele>
        <time>2021-06-06T07:19:20Z</time>
      </trkpt>
      <trkpt lat="45.75856" lon="3.03234">
        <ele>803.0999</ele>
        <time>2021-06-06T07:19:21Z</time>
      </trkpt>
      <trkpt lat="45.75857" lon="3.03237">
        <ele>802.8706</ele>
        <time>2021-06-06T07:19:22Z</time>
      </trkpt>
      <trkpt lat="45.75859" lon="3.0324">
        <ele>802.6256</ele>
        <time>2021-06-06T07:19:23Z</time>
      </trkpt>
      <trkpt lat="45.7586" lon="3.03243">
        <ele>802.56836</ele>
        <time>2021-06-06T07:19:24Z</time>
      </trkpt>
      <trkpt lat="45.75861" lon="3.03246">
        <ele>802.0368</ele>
        <time>2021-06-06T07:19:25Z</time>
      </trkpt>
      <trkpt lat="45.75861" lon="3.03249">
        <ele>801.7293</ele>
        <time>2021-06-06T07:19:26Z</time>
      </trkpt>
      <trkpt lat="45.75861" lon="3.03251">
        <ele>801.4167</ele>
        <time>2021-06-06T07:19:27Z</time>
      </trkpt>
      <trkpt lat="45.75861" lon="3.03254">
        <ele>801.3437</ele>
        <time>2021-06-06T07:19:28Z</time>
      </trkpt>
      <trkpt lat="45.75862" lon="3.03255">
        <ele>801.1821</ele>
        <time>2021-06-06T07:19:29Z</time>
      </trkpt>
      <trkpt lat="45.75863" lon="3.03258">
        <ele>801.13525</ele>
        <time>2021-06-06T07:19:30Z</time>
      </trkpt>
      <trkpt lat="45.75864" lon="3.03259">
        <ele>801.0154</ele>
        <time>2021-06-06T07:19:31Z</time>
      </trkpt>
      <trkpt lat="45.75864" lon="3.03261">
        <ele>801.05707</ele>
        <time>2021-06-06T07:19:32Z</time>
      </trkpt>
      <trkpt lat="45.75865" lon="3.03262">
        <ele>800.88513</ele>
        <time>2021-06-06T07:19:33Z</time>
      </trkpt>
      <trkpt lat="45.75866" lon="3.03263">
        <ele>800.7965</ele>
        <time>2021-06-06T07:19:34Z</time>
      </trkpt>
      <trkpt lat="45.75866" lon="3.03265">
        <ele>800.6454</ele>
        <time>2021-06-06T07:19:35Z</time>
      </trkpt>
      <trkpt lat="45.75867" lon="3.03267">
        <ele>800.3536</ele>
        <time>2021-06-06T07:19:36Z</time>
      </trkpt>
      <trkpt lat="45.75868" lon="3.03269">
        <ele>800.291</ele>
        <time>2021-06-06T07:19:37Z</time>
      </trkpt>
      <trkpt lat="45.75869" lon="3.0327">
        <ele>800.0201</ele>
        <time>2021-06-06T07:19:38Z</time>
      </trkpt>
      <trkpt lat="45.75869" lon="3.03272">
        <ele>799.9002</ele>
        <time>2021-06-06T07:19:39Z</time>
      </trkpt>
      <trkpt lat="45.75869" lon="3.03273">
        <ele>800.0409</ele>
        <time>2021-06-06T07:19:40Z</time>
      </trkpt>
      <trkpt lat="45.7587" lon="3.03275">
        <ele>799.94183</ele>
        <time>2021-06-06T07:19:41Z</time>
      </trkpt>
      <trkpt lat="45.7587" lon="3.03276">
        <ele>799.3999</ele>
        <time>2021-06-06T07:19:42Z</time>
      </trkpt>
      <trkpt lat="45.75869" lon="3.03278">
        <ele>799.11847</ele>
        <time>2021-06-06T07:19:43Z</time>
      </trkpt>
      <trkpt lat="45.7587" lon="3.03279">
        <ele>799.2279</ele>
        <time>2021-06-06T07:19:44Z</time>
      </trkpt>
      <trkpt lat="45.7587" lon="3.03282">
        <ele>798.8058</ele>
        <time>2021-06-06T07:19:45Z</time>
      </trkpt>
      <trkpt lat="45.75871" lon="3.03284">
        <ele>798.4566</ele>
        <time>2021-06-06T07:19:46Z</time>
      </trkpt>
      <trkpt lat="45.75871" lon="3.03286">
        <ele>798.26385</ele>
        <time>2021-06-06T07:19:47Z</time>
      </trkpt>
      <trkpt lat="45.75869" lon="3.03287">
        <ele>798.36804</ele>
        <time>2021-06-06T07:19:48Z</time>
      </trkpt>
      <trkpt lat="45.75869" lon="3.03287">
        <ele>798.1856</ele>
        <time>2021-06-06T07:19:49Z</time>
      </trkpt>
      <trkpt lat="45.75868" lon="3.03288">
        <ele>798.3472</ele>
        <time>2021-06-06T07:19:50Z</time>
      </trkpt>
      <trkpt lat="45.75868" lon="3.03289">
        <ele>798.3159</ele>
        <time>2021-06-06T07:19:51Z</time>
      </trkpt>
      <trkpt lat="45.75868" lon="3.03291">
        <ele>798.26904</ele>
        <time>2021-06-06T07:19:52Z</time>
      </trkpt>
      <trkpt lat="45.75868" lon="3.03292">
        <ele>797.94073</ele>
        <time>2021-06-06T07:19:53Z</time>
      </trkpt>
      <trkpt lat="45.75868" lon="3.03292">
        <ele>797.90424</ele>
        <time>2021-06-06T07:19:54Z</time>
      </trkpt>
      <trkpt lat="45.75869" lon="3.03293">
        <ele>798.0241</ele>
        <time>2021-06-06T07:19:55Z</time>
      </trkpt>
      <trkpt lat="45.75869" lon="3.03293">
        <ele>797.8886</ele>
        <time>2021-06-06T07:19:56Z</time>
      </trkpt>
      <trkpt lat="45.75869" lon="3.03293">
        <ele>797.72705</ele>
        <time>2021-06-06T07:19:57Z</time>
      </trkpt>
      <trkpt lat="45.75869" lon="3.03293">
        <ele>797.8313</ele>
        <time>2021-06-06T07:19:58Z</time>
      </trkpt>
      <trkpt lat="45.75869" lon="3.03293">
        <ele>797.8313</ele>
        <time>2021-06-06T07:19:58Z</time>
      </trkpt>
      <trkpt lat="45.75869" lon="3.03293">
        <ele>797.8313</ele>
        <time>2021-06-06T07:19:58Z</time>
      </trkpt>
      <trkpt lat="45.75868" lon="3.03301">
        <ele>796.83594</ele>
        <time>2021-06-06T07:20:04Z</time>
      </trkpt>
      <trkpt lat="45.75868" lon="3.03303">
        <ele>796.80994</ele>
        <time>2021-06-06T07:20:05Z</time>
      </trkpt>
      <trkpt lat="45.75868" lon="3.03305">
        <ele>796.83594</ele>
        <time>2021-06-06T07:20:06Z</time>
      </trkpt>
      <trkpt lat="45.75869" lon="3.03307">
        <ele>796.49194</ele>
        <time>2021-06-06T07:20:07Z</time>
      </trkpt>
      <trkpt lat="45.75869" lon="3.03308">
        <ele>796.0282</ele>
        <time>2021-06-06T07:20:08Z</time>
      </trkpt>
      <trkpt lat="45.75869" lon="3.0331">
        <ele>796.0438</ele>
        <time>2021-06-06T07:20:09Z</time>
      </trkpt>
      <trkpt lat="45.75868" lon="3.03312">
        <ele>795.6217</ele>
        <time>2021-06-06T07:20:10Z</time>
      </trkpt>
      <trkpt lat="45.75868" lon="3.03314">
        <ele>795.09015</ele>
        <time>2021-06-06T07:20:11Z</time>
      </trkpt>
      <trkpt lat="45.75868" lon="3.03315">
        <ele>795.09534</ele>
        <time>2021-06-06T07:20:12Z</time>
      </trkpt>
      <trkpt lat="45.75867" lon="3.03317">
        <ele>795.08496</ele>
        <time>2021-06-06T07:20:13Z</time>
      </trkpt>
      <trkpt lat="45.75866" lon="3.03319">
        <ele>794.5013</ele>
        <time>2021-06-06T07:20:14Z</time>
      </trkpt>
      <trkpt lat="45.75865" lon="3.0332">
        <ele>794.46484</ele>
        <time>2021-06-06T07:20:15Z</time>
      </trkpt>
      <trkpt lat="45.75865" lon="3.03323">
        <ele>794.5117</ele>
        <time>2021-06-06T07:20:16Z</time>
      </trkpt>
      <trkpt lat="45.75864" lon="3.03325">
        <ele>794.3189</ele>
        <time>2021-06-06T07:20:17Z</time>
      </trkpt>
      <trkpt lat="45.75864" lon="3.03327">
        <ele>793.8968</ele>
        <time>2021-06-06T07:20:18Z</time>
      </trkpt>
      <trkpt lat="45.75863" lon="3.03328">
        <ele>793.803</ele>
        <time>2021-06-06T07:20:19Z</time>
      </trkpt>
      <trkpt lat="45.75863" lon="3.0333">
        <ele>793.7769</ele>
        <time>2021-06-06T07:20:20Z</time>
      </trkpt>
      <trkpt lat="45.75862" lon="3.03332">
        <ele>793.3131</ele>
        <time>2021-06-06T07:20:21Z</time>
      </trkpt>
      <trkpt lat="45.75861" lon="3.03334">
        <ele>792.68256</ele>
        <time>2021-06-06T07:20:22Z</time>
      </trkpt>
      <trkpt lat="45.75861" lon="3.03335">
        <ele>792.64087</ele>
        <time>2021-06-06T07:20:23Z</time>
      </trkpt>
      <trkpt lat="45.7586" lon="3.03337">
        <ele>792.2813</ele>
        <time>2021-06-06T07:20:24Z</time>
      </trkpt>
      <trkpt lat="45.75859" lon="3.03338">
        <ele>792.1666</ele>
        <time>2021-06-06T07:20:25Z</time>
      </trkpt>
      <trkpt lat="45.75858" lon="3.0334">
        <ele>791.61945</ele>
        <time>2021-06-06T07:20:26Z</time>
      </trkpt>
      <trkpt lat="45.75857" lon="3.03341">
        <ele>791.23376</ele>
        <time>2021-06-06T07:20:27Z</time>
      </trkpt>
      <trkpt lat="45.75856" lon="3.03343">
        <ele>790.87946</ele>
        <time>2021-06-06T07:20:28Z</time>
      </trkpt>
      <trkpt lat="45.75855" lon="3.03346">
        <ele>790.6241</ele>
        <time>2021-06-06T07:20:29Z</time>
      </trkpt>
      <trkpt lat="45.75855" lon="3.03347">
        <ele>790.60846</ele>
        <time>2021-06-06T07:20:30Z</time>
      </trkpt>
      <trkpt lat="45.75853" lon="3.03349">
        <ele>789.9831</ele>
        <time>2021-06-06T07:20:31Z</time>
      </trkpt>
      <trkpt lat="45.75853" lon="3.0335">
        <ele>789.7226</ele>
        <time>2021-06-06T07:20:32Z</time>
      </trkpt>
      <trkpt lat="45.75852" lon="3.03352">
        <ele>789.2587</ele>
        <time>2021-06-06T07:20:33Z</time>
      </trkpt>
      <trkpt lat="45.75852" lon="3.03353">
        <ele>788.8002</ele>
        <time>2021-06-06T07:20:34Z</time>
      </trkpt>
      <trkpt lat="45.75852" lon="3.03355">
        <ele>788.59686</ele>
        <time>2021-06-06T07:20:35Z</time>
      </trkpt>
      <trkpt lat="45.75852" lon="3.03356">
        <ele>787.9403</ele>
        <time>2021-06-06T07:20:36Z</time>
      </trkpt>
      <trkpt lat="45.75852" lon="3.03358">
        <ele>787.6641</ele>
        <time>2021-06-06T07:20:37Z</time>
      </trkpt>
      <trkpt lat="45.75852" lon="3.0336">
        <ele>787.268</ele>
        <time>2021-06-06T07:20:38Z</time>
      </trkpt>
      <trkpt lat="45.75851" lon="3.03362">
        <ele>787.1065</ele>
        <time>2021-06-06T07:20:39Z</time>
      </trkpt>
      <trkpt lat="45.75851" lon="3.03363">
        <ele>786.8355</ele>
        <time>2021-06-06T07:20:40Z</time>
      </trkpt>
      <trkpt lat="45.75851" lon="3.03365">
        <ele>786.1893</ele>
        <time>2021-06-06T07:20:41Z</time>
      </trkpt>
      <trkpt lat="45.75851" lon="3.03368">
        <ele>785.37634</ele>
        <time>2021-06-06T07:20:43Z</time>
      </trkpt>
      <trkpt lat="45.75851" lon="3.0337">
        <ele>785.18353</ele>
        <time>2021-06-06T07:20:44Z</time>
      </trkpt>
      <trkpt lat="45.75851" lon="3.03372">
        <ele>784.9438</ele>
        <time>2021-06-06T07:20:45Z</time>
      </trkpt>
      <trkpt lat="45.75851" lon="3.03374">
        <ele>784.8552</ele>
        <time>2021-06-06T07:20:46Z</time>
      </trkpt>
      <trkpt lat="45.75851" lon="3.03376">
        <ele>784.2559</ele>
        <time>2021-06-06T07:20:47Z</time>
      </trkpt>
      <trkpt lat="45.75851" lon="3.03378">
        <ele>783.9537</ele>
        <time>2021-06-06T07:20:48Z</time>
      </trkpt>
      <trkpt lat="45.7585" lon="3.0338">
        <ele>783.89636</ele>
        <time>2021-06-06T07:20:49Z</time>
      </trkpt>
      <trkpt lat="45.7585" lon="3.03382">
        <ele>783.3231</ele>
        <time>2021-06-06T07:20:50Z</time>
      </trkpt>
      <trkpt lat="45.7585" lon="3.03384">
        <ele>783.1146</ele>
        <time>2021-06-06T07:20:51Z</time>
      </trkpt>
      <trkpt lat="45.7585" lon="3.03386">
        <ele>782.56226</ele>
        <time>2021-06-06T07:20:52Z</time>
      </trkpt>
      <trkpt lat="45.7585" lon="3.03388">
        <ele>782.36945</ele>
        <time>2021-06-06T07:20:53Z</time>
      </trkpt>
      <trkpt lat="45.75849" lon="3.0339">
        <ele>782.2078</ele>
        <time>2021-06-06T07:20:54Z</time>
      </trkpt>
      <trkpt lat="45.75848" lon="3.03392">
        <ele>781.8535</ele>
        <time>2021-06-06T07:20:55Z</time>
      </trkpt>
      <trkpt lat="45.75847" lon="3.03395">
        <ele>781.67633</ele>
        <time>2021-06-06T07:20:56Z</time>
      </trkpt>
      <trkpt lat="45.75846" lon="3.03397">
        <ele>781.5095</ele>
        <time>2021-06-06T07:20:57Z</time>
      </trkpt>
      <trkpt lat="45.75846" lon="3.034">
        <ele>781.05615</ele>
        <time>2021-06-06T07:20:58Z</time>
      </trkpt>
      <trkpt lat="45.75845" lon="3.03402">
        <ele>780.7279</ele>
        <time>2021-06-06T07:20:59Z</time>
      </trkpt>
      <trkpt lat="45.75846" lon="3.03404">
        <ele>780.5194</ele>
        <time>2021-06-06T07:21:00Z</time>
      </trkpt>
      <trkpt lat="45.75846" lon="3.03406">
        <ele>780.2276</ele>
        <time>2021-06-06T07:21:01Z</time>
      </trkpt>
      <trkpt lat="45.75847" lon="3.03407">
        <ele>779.75336</ele>
        <time>2021-06-06T07:21:02Z</time>
      </trkpt>
      <trkpt lat="45.75847" lon="3.03409">
        <ele>779.72736</ele>
        <time>2021-06-06T07:21:03Z</time>
      </trkpt>
      <trkpt lat="45.75847" lon="3.03412">
        <ele>779.70123</ele>
        <time>2021-06-06T07:21:04Z</time>
      </trkpt>
      <trkpt lat="45.75847" lon="3.03414">
        <ele>779.6075</ele>
        <time>2021-06-06T07:21:05Z</time>
      </trkpt>
      <trkpt lat="45.75847" lon="3.03417">
        <ele>779.66473</ele>
        <time>2021-06-06T07:21:06Z</time>
      </trkpt>
      <trkpt lat="45.75847" lon="3.03418">
        <ele>779.52405</ele>
        <time>2021-06-06T07:21:07Z</time>
      </trkpt>
      <trkpt lat="45.75847" lon="3.0342">
        <ele>779.2635</ele>
        <time>2021-06-06T07:21:08Z</time>
      </trkpt>
      <trkpt lat="45.75847" lon="3.03422">
        <ele>778.9404</ele>
        <time>2021-06-06T07:21:09Z</time>
      </trkpt>
      <trkpt lat="45.75848" lon="3.03424">
        <ele>778.91437</ele>
        <time>2021-06-06T07:21:10Z</time>
      </trkpt>
      <trkpt lat="45.75848" lon="3.03427">
        <ele>778.7007</ele>
        <time>2021-06-06T07:21:11Z</time>
      </trkpt>
      <trkpt lat="45.75848" lon="3.03429">
        <ele>778.4818</ele>
        <time>2021-06-06T07:21:12Z</time>
      </trkpt>
      <trkpt lat="45.75848" lon="3.03431">
        <ele>778.3828</ele>
        <time>2021-06-06T07:21:13Z</time>
      </trkpt>
      <trkpt lat="45.75847" lon="3.03433">
        <ele>778.1691</ele>
        <time>2021-06-06T07:21:14Z</time>
      </trkpt>
      <trkpt lat="45.75847" lon="3.03435">
        <ele>778.28375</ele>
        <time>2021-06-06T07:21:15Z</time>
      </trkpt>
      <trkpt lat="45.75847" lon="3.03436">
        <ele>778.2369</ele>
        <time>2021-06-06T07:21:16Z</time>
      </trkpt>
      <trkpt lat="45.75846" lon="3.03438">
        <ele>778.315</ele>
        <time>2021-06-06T07:21:17Z</time>
      </trkpt>
      <trkpt lat="45.75846" lon="3.0344">
        <ele>778.3411</ele>
        <time>2021-06-06T07:21:18Z</time>
      </trkpt>
      <trkpt lat="45.75845" lon="3.03443">
        <ele>778.3098</ele>
        <time>2021-06-06T07:21:19Z</time>
      </trkpt>
      <trkpt lat="45.75845" lon="3.03445">
        <ele>778.315</ele>
        <time>2021-06-06T07:21:20Z</time>
      </trkpt>
      <trkpt lat="45.75844" lon="3.03448">
        <ele>778.2994</ele>
        <time>2021-06-06T07:21:21Z</time>
      </trkpt>
      <trkpt lat="45.75845" lon="3.0345">
        <ele>778.1639</ele>
        <time>2021-06-06T07:21:22Z</time>
      </trkpt>
      <trkpt lat="45.75845" lon="3.03453">
        <ele>778.0232</ele>
        <time>2021-06-06T07:21:23Z</time>
      </trkpt>
      <trkpt lat="45.75845" lon="3.03455">
        <ele>778.1014</ele>
        <time>2021-06-06T07:21:24Z</time>
      </trkpt>
      <trkpt lat="45.75846" lon="3.03458">
        <ele>778.2108</ele>
        <time>2021-06-06T07:21:25Z</time>
      </trkpt>
      <trkpt lat="45.75846" lon="3.0346">
        <ele>778.2317</ele>
        <time>2021-06-06T07:21:26Z</time>
      </trkpt>
      <trkpt lat="45.75846" lon="3.03463">
        <ele>778.0493</ele>
        <time>2021-06-06T07:21:27Z</time>
      </trkpt>
      <trkpt lat="45.75846" lon="3.03465">
        <ele>778.1743</ele>
        <time>2021-06-06T07:21:28Z</time>
      </trkpt>
      <trkpt lat="45.75846" lon="3.03468">
        <ele>778.1952</ele>
        <time>2021-06-06T07:21:29Z</time>
      </trkpt>
      <trkpt lat="45.75846" lon="3.0347">
        <ele>778.24207</ele>
        <time>2021-06-06T07:21:30Z</time>
      </trkpt>
      <trkpt lat="45.75846" lon="3.03473">
        <ele>778.2056</ele>
        <time>2021-06-06T07:21:31Z</time>
      </trkpt>
      <trkpt lat="45.75847" lon="3.03474">
        <ele>778.0701</ele>
        <time>2021-06-06T07:21:32Z</time>
      </trkpt>
      <trkpt lat="45.75847" lon="3.03477">
        <ele>777.98676</ele>
        <time>2021-06-06T07:21:33Z</time>
      </trkpt>
      <trkpt lat="45.75847" lon="3.03478">
        <ele>778.1118</ele>
        <time>2021-06-06T07:21:34Z</time>
      </trkpt>
      <trkpt lat="45.75847" lon="3.0348">
        <ele>778.1118</ele>
        <time>2021-06-06T07:21:35Z</time>
      </trkpt>
      <trkpt lat="45.75848" lon="3.03481">
        <ele>778.06494</ele>
        <time>2021-06-06T07:21:36Z</time>
      </trkpt>
      <trkpt lat="45.75848" lon="3.03483">
        <ele>778.33594</ele>
        <time>2021-06-06T07:21:37Z</time>
      </trkpt>
      <trkpt lat="45.75848" lon="3.03485">
        <ele>778.1743</ele>
        <time>2021-06-06T07:21:38Z</time>
      </trkpt>
      <trkpt lat="45.75848" lon="3.03487">
        <ele>778.24207</ele>
        <time>2021-06-06T07:21:39Z</time>
      </trkpt>
      <trkpt lat="45.75849" lon="3.03489">
        <ele>778.2994</ele>
        <time>2021-06-06T07:21:40Z</time>
      </trkpt>
      <trkpt lat="45.75849" lon="3.03491">
        <ele>778.41406</ele>
        <time>2021-06-06T07:21:41Z</time>
      </trkpt>
      <trkpt lat="45.75848" lon="3.03494">
        <ele>778.71106</ele>
        <time>2021-06-06T07:21:42Z</time>
      </trkpt>
      <trkpt lat="45.75848" lon="3.03496">
        <ele>778.5808</ele>
        <time>2021-06-06T07:21:43Z</time>
      </trkpt>
      <trkpt lat="45.75848" lon="3.03498">
        <ele>778.42444</ele>
        <time>2021-06-06T07:21:44Z</time>
      </trkpt>
      <trkpt lat="45.75849" lon="3.035">
        <ele>778.4088</ele>
        <time>2021-06-06T07:21:45Z</time>
      </trkpt>
      <trkpt lat="45.7585" lon="3.03503">
        <ele>778.47144</ele>
        <time>2021-06-06T07:21:46Z</time>
      </trkpt>
      <trkpt lat="45.7585" lon="3.03506">
        <ele>778.35156</ele>
        <time>2021-06-06T07:21:47Z</time>
      </trkpt>
      <trkpt lat="45.7585" lon="3.03508">
        <ele>778.24207</ele>
        <time>2021-06-06T07:21:48Z</time>
      </trkpt>
      <trkpt lat="45.7585" lon="3.0351">
        <ele>778.12744</ele>
        <time>2021-06-06T07:21:49Z</time>
      </trkpt>
      <trkpt lat="45.75851" lon="3.03511">
        <ele>778.1014</ele>
        <time>2021-06-06T07:21:50Z</time>
      </trkpt>
      <trkpt lat="45.75851" lon="3.03514">
        <ele>777.92944</ele>
        <time>2021-06-06T07:21:51Z</time>
      </trkpt>
      <trkpt lat="45.75851" lon="3.03515">
        <ele>777.7053</ele>
        <time>2021-06-06T07:21:52Z</time>
      </trkpt>
      <trkpt lat="45.75853" lon="3.03517">
        <ele>777.63763</ele>
        <time>2021-06-06T07:21:53Z</time>
      </trkpt>
      <trkpt lat="45.75854" lon="3.03519">
        <ele>777.45514</ele>
        <time>2021-06-06T07:21:54Z</time>
      </trkpt>
      <trkpt lat="45.75855" lon="3.03521">
        <ele>777.1946</ele>
        <time>2021-06-06T07:21:55Z</time>
      </trkpt>
      <trkpt lat="45.75855" lon="3.03522">
        <ele>777.2624</ele>
        <time>2021-06-06T07:21:56Z</time>
      </trkpt>
      <trkpt lat="45.75856" lon="3.03525">
        <ele>777.3718</ele>
        <time>2021-06-06T07:21:57Z</time>
      </trkpt>
      <trkpt lat="45.75856" lon="3.03527">
        <ele>777.1946</ele>
        <time>2021-06-06T07:21:58Z</time>
      </trkpt>
      <trkpt lat="45.75856" lon="3.03528">
        <ele>777.1061</ele>
        <time>2021-06-06T07:21:59Z</time>
      </trkpt>
      <trkpt lat="45.75857" lon="3.0353">
        <ele>777.1061</ele>
        <time>2021-06-06T07:22:00Z</time>
      </trkpt>
      <trkpt lat="45.75857" lon="3.03533">
        <ele>777.2415</ele>
        <time>2021-06-06T07:22:01Z</time>
      </trkpt>
      <trkpt lat="45.75857" lon="3.03535">
        <ele>777.23114</ele>
        <time>2021-06-06T07:22:02Z</time>
      </trkpt>
      <trkpt lat="45.75857" lon="3.03538">
        <ele>777.5386</ele>
        <time>2021-06-06T07:22:03Z</time>
      </trkpt>
      <trkpt lat="45.75857" lon="3.03539">
        <ele>777.38226</ele>
        <time>2021-06-06T07:22:04Z</time>
      </trkpt>
      <trkpt lat="45.75858" lon="3.0354">
        <ele>777.3353</ele>
        <time>2021-06-06T07:22:05Z</time>
      </trkpt>
      <trkpt lat="45.75858" lon="3.03542">
        <ele>777.1946</ele>
        <time>2021-06-06T07:22:06Z</time>
      </trkpt>
      <trkpt lat="45.75859" lon="3.03544">
        <ele>777.2259</ele>
        <time>2021-06-06T07:22:07Z</time>
      </trkpt>
      <trkpt lat="45.7586" lon="3.03545">
        <ele>777.3614</ele>
        <time>2021-06-06T07:22:08Z</time>
      </trkpt>
      <trkpt lat="45.7586" lon="3.03547">
        <ele>777.3301</ele>
        <time>2021-06-06T07:22:09Z</time>
      </trkpt>
      <trkpt lat="45.7586" lon="3.03548">
        <ele>777.44476</ele>
        <time>2021-06-06T07:22:10Z</time>
      </trkpt>
      <trkpt lat="45.75861" lon="3.0355">
        <ele>777.56464</ele>
        <time>2021-06-06T07:22:11Z</time>
      </trkpt>
      <trkpt lat="45.75861" lon="3.03551">
        <ele>777.4656</ele>
        <time>2021-06-06T07:22:12Z</time>
      </trkpt>
      <trkpt lat="45.75861" lon="3.03553">
        <ele>777.58545</ele>
        <time>2021-06-06T07:22:13Z</time>
      </trkpt>
      <trkpt lat="45.7586" lon="3.03555">
        <ele>777.51776</ele>
        <time>2021-06-06T07:22:14Z</time>
      </trkpt>
      <trkpt lat="45.7586" lon="3.03557">
        <ele>777.5542</ele>
        <time>2021-06-06T07:22:15Z</time>
      </trkpt>
      <trkpt lat="45.7586" lon="3.03559">
        <ele>777.78876</ele>
        <time>2021-06-06T07:22:16Z</time>
      </trkpt>
      <trkpt lat="45.75859" lon="3.03561">
        <ele>778.117</ele>
        <time>2021-06-06T07:22:17Z</time>
      </trkpt>
      <trkpt lat="45.75858" lon="3.03562">
        <ele>778.1691</ele>
        <time>2021-06-06T07:22:18Z</time>
      </trkpt>
      <trkpt lat="45.75857" lon="3.03564">
        <ele>778.1326</ele>
        <time>2021-06-06T07:22:19Z</time>
      </trkpt>
      <trkpt lat="45.75856" lon="3.03565">
        <ele>778.22125</ele>
        <time>2021-06-06T07:22:20Z</time>
      </trkpt>
      <trkpt lat="45.75856" lon="3.03566">
        <ele>778.60693</ele>
        <time>2021-06-06T07:22:21Z</time>
      </trkpt>
      <trkpt lat="45.75855" lon="3.03567">
        <ele>778.96124</ele>
        <time>2021-06-06T07:22:22Z</time>
      </trkpt>
      <trkpt lat="45.75853" lon="3.03568">
        <ele>778.98206</ele>
        <time>2021-06-06T07:22:23Z</time>
      </trkpt>
      <trkpt lat="45.75852" lon="3.03569">
        <ele>779.2791</ele>
        <time>2021-06-06T07:22:24Z</time>
      </trkpt>
      <trkpt lat="45.75851" lon="3.03569">
        <ele>779.52924</ele>
        <time>2021-06-06T07:22:25Z</time>
      </trkpt>
      <trkpt lat="45.7585" lon="3.0357">
        <ele>779.38336</ele>
        <time>2021-06-06T07:22:26Z</time>
      </trkpt>
      <trkpt lat="45.75849" lon="3.0357">
        <ele>779.9879</ele>
        <time>2021-06-06T07:22:27Z</time>
      </trkpt>
      <trkpt lat="45.75848" lon="3.0357">
        <ele>780.15466</ele>
        <time>2021-06-06T07:22:28Z</time>
      </trkpt>
      <trkpt lat="45.75847" lon="3.03569">
        <ele>780.0973</ele>
        <time>2021-06-06T07:22:29Z</time>
      </trkpt>
      <trkpt lat="45.75846" lon="3.03569">
        <ele>780.6132</ele>
        <time>2021-06-06T07:22:30Z</time>
      </trkpt>
      <trkpt lat="45.75845" lon="3.03569">
        <ele>780.47253</ele>
        <time>2021-06-06T07:22:31Z</time>
      </trkpt>
      <trkpt lat="45.75843" lon="3.03568">
        <ele>780.83215</ele>
        <time>2021-06-06T07:22:32Z</time>
      </trkpt>
      <trkpt lat="45.75843" lon="3.03568">
        <ele>781.22815</ele>
        <time>2021-06-06T07:22:33Z</time>
      </trkpt>
      <trkpt lat="45.75842" lon="3.03567">
        <ele>781.1344</ele>
        <time>2021-06-06T07:22:34Z</time>
      </trkpt>
      <trkpt lat="45.75841" lon="3.03567">
        <ele>781.53046</ele>
        <time>2021-06-06T07:22:35Z</time>
      </trkpt>
      <trkpt lat="45.75839" lon="3.03567">
        <ele>781.6607</ele>
        <time>2021-06-06T07:22:36Z</time>
      </trkpt>
      <trkpt lat="45.75838" lon="3.03566">
        <ele>781.9004</ele>
        <time>2021-06-06T07:22:37Z</time>
      </trkpt>
      <trkpt lat="45.75837" lon="3.03567">
        <ele>782.2496</ele>
        <time>2021-06-06T07:22:38Z</time>
      </trkpt>
      <trkpt lat="45.75836" lon="3.03567">
        <ele>782.4788</ele>
        <time>2021-06-06T07:22:39Z</time>
      </trkpt>
      <trkpt lat="45.75835" lon="3.03569">
        <ele>782.4684</ele>
        <time>2021-06-06T07:22:40Z</time>
      </trkpt>
      <trkpt lat="45.75834" lon="3.0357">
        <ele>782.6717</ele>
        <time>2021-06-06T07:22:41Z</time>
      </trkpt>
      <trkpt lat="45.75833" lon="3.03571">
        <ele>782.7864</ele>
        <time>2021-06-06T07:22:42Z</time>
      </trkpt>
      <trkpt lat="45.75832" lon="3.03572">
        <ele>783.2137</ele>
        <time>2021-06-06T07:22:43Z</time>
      </trkpt>
      <trkpt lat="45.75832" lon="3.03572">
        <ele>783.48987</ele>
        <time>2021-06-06T07:22:44Z</time>
      </trkpt>
      <trkpt lat="45.7583" lon="3.03572">
        <ele>783.7765</ele>
        <time>2021-06-06T07:22:45Z</time>
      </trkpt>
      <trkpt lat="45.75829" lon="3.03572">
        <ele>784.0683</ele>
        <time>2021-06-06T07:22:46Z</time>
      </trkpt>
      <trkpt lat="45.75828" lon="3.03572">
        <ele>784.6103</ele>
        <time>2021-06-06T07:22:47Z</time>
      </trkpt>
      <trkpt lat="45.75827" lon="3.03572">
        <ele>784.8969</ele>
        <time>2021-06-06T07:22:48Z</time>
      </trkpt>
      <trkpt lat="45.75826" lon="3.03572">
        <ele>785.1679</ele>
        <time>2021-06-06T07:22:49Z</time>
      </trkpt>
      <trkpt lat="45.75825" lon="3.03573">
        <ele>785.49097</ele>
        <time>2021-06-06T07:22:50Z</time>
      </trkpt>
      <trkpt lat="45.75824" lon="3.03573">
        <ele>785.53265</ele>
        <time>2021-06-06T07:22:51Z</time>
      </trkpt>
      <trkpt lat="45.75822" lon="3.03574">
        <ele>785.517</ele>
        <time>2021-06-06T07:22:52Z</time>
      </trkpt>
      <trkpt lat="45.75821" lon="3.03574">
        <ele>785.7359</ele>
        <time>2021-06-06T07:22:53Z</time>
      </trkpt>
      <trkpt lat="45.75821" lon="3.03574">
        <ele>785.7515</ele>
        <time>2021-06-06T07:22:54Z</time>
      </trkpt>
      <trkpt lat="45.7582" lon="3.03574">
        <ele>786.23615</ele>
        <time>2021-06-06T07:22:55Z</time>
      </trkpt>
      <trkpt lat="45.75819" lon="3.03574">
        <ele>786.32477</ele>
        <time>2021-06-06T07:22:56Z</time>
      </trkpt>
      <trkpt lat="45.75818" lon="3.03574">
        <ele>786.84595</ele>
        <time>2021-06-06T07:22:57Z</time>
      </trkpt>
      <trkpt lat="45.75818" lon="3.03574">
        <ele>786.8876</ele>
        <time>2021-06-06T07:22:58Z</time>
      </trkpt>
      <trkpt lat="45.75815" lon="3.03574">
        <ele>787.0387</ele>
        <time>2021-06-06T07:23:00Z</time>
      </trkpt>
      <trkpt lat="45.75814" lon="3.03574">
        <ele>787.23676</ele>
        <time>2021-06-06T07:23:01Z</time>
      </trkpt>
      <trkpt lat="45.75813" lon="3.03575">
        <ele>787.50775</ele>
        <time>2021-06-06T07:23:02Z</time>
      </trkpt>
      <trkpt lat="45.75812" lon="3.03575">
        <ele>787.9455</ele>
        <time>2021-06-06T07:23:03Z</time>
      </trkpt>
      <trkpt lat="45.75811" lon="3.03574">
        <ele>787.97156</ele>
        <time>2021-06-06T07:23:04Z</time>
      </trkpt>
      <trkpt lat="45.75811" lon="3.03574">
        <ele>788.28424</ele>
        <time>2021-06-06T07:23:05Z</time>
      </trkpt>
      <trkpt lat="45.7581" lon="3.03575">
        <ele>788.2113</ele>
        <time>2021-06-06T07:23:06Z</time>
      </trkpt>
      <trkpt lat="45.75809" lon="3.03575">
        <ele>788.59686</ele>
        <time>2021-06-06T07:23:07Z</time>
      </trkpt>
      <trkpt lat="45.75808" lon="3.03575">
        <ele>788.87305</ele>
        <time>2021-06-06T07:23:08Z</time>
      </trkpt>
      <trkpt lat="45.75806" lon="3.03575">
        <ele>789.11804</ele>
        <time>2021-06-06T07:23:09Z</time>
      </trkpt>
      <trkpt lat="45.75806" lon="3.03576">
        <ele>788.98773</ele>
        <time>2021-06-06T07:23:10Z</time>
      </trkpt>
      <trkpt lat="45.75805" lon="3.03577">
        <ele>789.1493</ele>
        <time>2021-06-06T07:23:11Z</time>
      </trkpt>
      <trkpt lat="45.75804" lon="3.03578">
        <ele>789.68085</ele>
        <time>2021-06-06T07:23:12Z</time>
      </trkpt>
      <trkpt lat="45.75803" lon="3.0358">
        <ele>789.8789</ele>
        <time>2021-06-06T07:23:13Z</time>
      </trkpt>
      <trkpt lat="45.75803" lon="3.03581">
        <ele>790.45734</ele>
        <time>2021-06-06T07:23:14Z</time>
      </trkpt>
      <trkpt lat="45.75802" lon="3.03582">
        <ele>790.33746</ele>
        <time>2021-06-06T07:23:15Z</time>
      </trkpt>
      <trkpt lat="45.75801" lon="3.03583">
        <ele>790.37915</ele>
        <time>2021-06-06T07:23:16Z</time>
      </trkpt>
      <trkpt lat="45.75801" lon="3.03584">
        <ele>790.31665</ele>
        <time>2021-06-06T07:23:17Z</time>
      </trkpt>
      <trkpt lat="45.758" lon="3.03586">
        <ele>790.4417</ele>
        <time>2021-06-06T07:23:18Z</time>
      </trkpt>
      <trkpt lat="45.758" lon="3.03587">
        <ele>790.4417</ele>
        <time>2021-06-06T07:23:19Z</time>
      </trkpt>
      <trkpt lat="45.75799" lon="3.03589">
        <ele>790.58765</ele>
        <time>2021-06-06T07:23:20Z</time>
      </trkpt>
      <trkpt lat="45.75798" lon="3.03589">
        <ele>790.74915</ele>
        <time>2021-06-06T07:23:21Z</time>
      </trkpt>
      <trkpt lat="45.75797" lon="3.0359">
        <ele>790.8169</ele>
        <time>2021-06-06T07:23:22Z</time>
      </trkpt>
      <trkpt lat="45.75797" lon="3.03591">
        <ele>790.86383</ele>
        <time>2021-06-06T07:23:23Z</time>
      </trkpt>
      <trkpt lat="45.75796" lon="3.03592">
        <ele>790.77</ele>
        <time>2021-06-06T07:23:24Z</time>
      </trkpt>
      <trkpt lat="45.75795" lon="3.03593">
        <ele>790.7804</ele>
        <time>2021-06-06T07:23:25Z</time>
      </trkpt>
      <trkpt lat="45.75795" lon="3.03594">
        <ele>790.7544</ele>
        <time>2021-06-06T07:23:26Z</time>
      </trkpt>
      <trkpt lat="45.75794" lon="3.03594">
        <ele>790.9524</ele>
        <time>2021-06-06T07:23:27Z</time>
      </trkpt>
      <trkpt lat="45.75793" lon="3.03594">
        <ele>790.8482</ele>
        <time>2021-06-06T07:23:28Z</time>
      </trkpt>
      <trkpt lat="45.75792" lon="3.03594">
        <ele>790.796</ele>
        <time>2021-06-06T07:23:29Z</time>
      </trkpt>
      <trkpt lat="45.75791" lon="3.03595">
        <ele>790.3948</ele>
        <time>2021-06-06T07:23:30Z</time>
      </trkpt>
      <trkpt lat="45.75789" lon="3.03596">
        <ele>790.38434</ele>
        <time>2021-06-06T07:23:32Z</time>
      </trkpt>
      <trkpt lat="45.75788" lon="3.03595">
        <ele>790.38434</ele>
        <time>2021-06-06T07:23:33Z</time>
      </trkpt>
      <trkpt lat="45.75787" lon="3.03595">
        <ele>790.5824</ele>
        <time>2021-06-06T07:23:34Z</time>
      </trkpt>
      <trkpt lat="45.75786" lon="3.03594">
        <ele>790.4834</ele>
        <time>2021-06-06T07:23:35Z</time>
      </trkpt>
      <trkpt lat="45.75785" lon="3.03594">
        <ele>790.2541</ele>
        <time>2021-06-06T07:23:36Z</time>
      </trkpt>
      <trkpt lat="45.75785" lon="3.03594">
        <ele>790.10815</ele>
        <time>2021-06-06T07:23:37Z</time>
      </trkpt>
      <trkpt lat="45.75784" lon="3.03595">
        <ele>790.13947</ele>
        <time>2021-06-06T07:23:38Z</time>
      </trkpt>
      <trkpt lat="45.75783" lon="3.03596">
        <ele>790.08734</ele>
        <time>2021-06-06T07:23:39Z</time>
      </trkpt>
      <trkpt lat="45.75783" lon="3.03598">
        <ele>790.27496</ele>
        <time>2021-06-06T07:23:40Z</time>
      </trkpt>
      <trkpt lat="45.75783" lon="3.03599">
        <ele>789.97784</ele>
        <time>2021-06-06T07:23:41Z</time>
      </trkpt>
      <trkpt lat="45.75782" lon="3.036">
        <ele>789.9206</ele>
        <time>2021-06-06T07:23:42Z</time>
      </trkpt>
      <trkpt lat="45.75782" lon="3.03601">
        <ele>790.26447</ele>
        <time>2021-06-06T07:23:43Z</time>
      </trkpt>
      <trkpt lat="45.75782" lon="3.03603">
        <ele>790.0717</ele>
        <time>2021-06-06T07:23:44Z</time>
      </trkpt>
      <trkpt lat="45.75782" lon="3.03604">
        <ele>789.95703</ele>
        <time>2021-06-06T07:23:45Z</time>
      </trkpt>
      <trkpt lat="45.75782" lon="3.03605">
        <ele>790.0196</ele>
        <time>2021-06-06T07:23:46Z</time>
      </trkpt>
      <trkpt lat="45.75783" lon="3.03606">
        <ele>790.02484</ele>
        <time>2021-06-06T07:23:47Z</time>
      </trkpt>
      <trkpt lat="45.75784" lon="3.03607">
        <ele>789.77985</ele>
        <time>2021-06-06T07:23:48Z</time>
      </trkpt>
      <trkpt lat="45.75784" lon="3.03606">
        <ele>789.77466</ele>
        <time>2021-06-06T07:23:49Z</time>
      </trkpt>
      <trkpt lat="45.75784" lon="3.03606">
        <ele>789.8007</ele>
        <time>2021-06-06T07:23:50Z</time>
      </trkpt>
      <trkpt lat="45.75784" lon="3.03606">
        <ele>789.7695</ele>
        <time>2021-06-06T07:23:51Z</time>
      </trkpt>
      <trkpt lat="45.75784" lon="3.03606">
        <ele>789.8111</ele>
        <time>2021-06-06T07:23:52Z</time>
      </trkpt>
      <trkpt lat="45.75784" lon="3.03606">
        <ele>789.7278</ele>
        <time>2021-06-06T07:23:53Z</time>
      </trkpt>
      <trkpt lat="45.75784" lon="3.03606">
        <ele>789.8267</ele>
        <time>2021-06-06T07:23:54Z</time>
      </trkpt>
      <trkpt lat="45.75784" lon="3.03606">
        <ele>789.8267</ele>
        <time>2021-06-06T07:23:54Z</time>
      </trkpt>
      <trkpt lat="45.75784" lon="3.03606">
        <ele>789.8267</ele>
        <time>2021-06-06T07:23:54Z</time>
      </trkpt>
      <trkpt lat="45.7579" lon="3.03605">
        <ele>789.5297</ele>
        <time>2021-06-06T07:24:01Z</time>
      </trkpt>
      <trkpt lat="45.75792" lon="3.03604">
        <ele>789.4985</ele>
        <time>2021-06-06T07:24:02Z</time>
      </trkpt>
      <trkpt lat="45.75792" lon="3.03603">
        <ele>789.5349</ele>
        <time>2021-06-06T07:24:03Z</time>
      </trkpt>
      <trkpt lat="45.75793" lon="3.03601">
        <ele>789.86847</ele>
        <time>2021-06-06T07:24:04Z</time>
      </trkpt>
      <trkpt lat="45.75794" lon="3.03599">
        <ele>790.06647</ele>
        <time>2021-06-06T07:24:05Z</time>
      </trkpt>
      <trkpt lat="45.75794" lon="3.03598">
        <ele>790.5772</ele>
        <time>2021-06-06T07:24:06Z</time>
      </trkpt>
      <trkpt lat="45.75795" lon="3.03597">
        <ele>790.6605</ele>
        <time>2021-06-06T07:24:07Z</time>
      </trkpt>
      <trkpt lat="45.75795" lon="3.03596">
        <ele>790.72314</ele>
        <time>2021-06-06T07:24:08Z</time>
      </trkpt>
      <trkpt lat="45.75796" lon="3.03595">
        <ele>790.796</ele>
        <time>2021-06-06T07:24:09Z</time>
      </trkpt>
      <trkpt lat="45.75797" lon="3.03594">
        <ele>790.99414</ele>
        <time>2021-06-06T07:24:10Z</time>
      </trkpt>
      <trkpt lat="45.75798" lon="3.03593">
        <ele>790.85864</ele>
        <time>2021-06-06T07:24:11Z</time>
      </trkpt>
      <trkpt lat="45.75798" lon="3.03592">
        <ele>790.4678</ele>
        <time>2021-06-06T07:24:12Z</time>
      </trkpt>
      <trkpt lat="45.758" lon="3.03591">
        <ele>790.6919</ele>
        <time>2021-06-06T07:24:13Z</time>
      </trkpt>
      <trkpt lat="45.758" lon="3.03589">
        <ele>790.6866</ele>
        <time>2021-06-06T07:24:14Z</time>
      </trkpt>
      <trkpt lat="45.75801" lon="3.03588">
        <ele>790.4938</ele>
        <time>2021-06-06T07:24:15Z</time>
      </trkpt>
      <trkpt lat="45.75802" lon="3.03586">
        <ele>790.525</ele>
        <time>2021-06-06T07:24:16Z</time>
      </trkpt>
      <trkpt lat="45.75803" lon="3.03584">
        <ele>790.47815</ele>
        <time>2021-06-06T07:24:17Z</time>
      </trkpt>
      <trkpt lat="45.75803" lon="3.03583">
        <ele>790.5668</ele>
        <time>2021-06-06T07:24:18Z</time>
      </trkpt>
      <trkpt lat="45.75804" lon="3.03581">
        <ele>790.499</ele>
        <time>2021-06-06T07:24:19Z</time>
      </trkpt>
      <trkpt lat="45.75804" lon="3.0358">
        <ele>790.4678</ele>
        <time>2021-06-06T07:24:20Z</time>
      </trkpt>
      <trkpt lat="45.75805" lon="3.03578">
        <ele>790.3531</ele>
        <time>2021-06-06T07:24:21Z</time>
      </trkpt>
      <trkpt lat="45.75805" lon="3.03577">
        <ele>789.75385</ele>
        <time>2021-06-06T07:24:22Z</time>
      </trkpt>
      <trkpt lat="45.75806" lon="3.03576">
        <ele>789.36816</ele>
        <time>2021-06-06T07:24:23Z</time>
      </trkpt>
      <trkpt lat="45.75806" lon="3.03576">
        <ele>789.5871</ele>
        <time>2021-06-06T07:24:24Z</time>
      </trkpt>
      <trkpt lat="45.75807" lon="3.03575">
        <ele>789.4932</ele>
        <time>2021-06-06T07:24:25Z</time>
      </trkpt>
      <trkpt lat="45.75808" lon="3.03575">
        <ele>788.94086</ele>
        <time>2021-06-06T07:24:26Z</time>
      </trkpt>
      <trkpt lat="45.75808" lon="3.03575">
        <ele>788.92523</ele>
        <time>2021-06-06T07:24:27Z</time>
      </trkpt>
      <trkpt lat="45.75809" lon="3.03576">
        <ele>788.33636</ele>
        <time>2021-06-06T07:24:28Z</time>
      </trkpt>
      <trkpt lat="45.7581" lon="3.03576">
        <ele>788.16437</ele>
        <time>2021-06-06T07:24:29Z</time>
      </trkpt>
      <trkpt lat="45.75811" lon="3.03576">
        <ele>788.1591</ele>
        <time>2021-06-06T07:24:30Z</time>
      </trkpt>
      <trkpt lat="45.75812" lon="3.03576">
        <ele>788.055</ele>
        <time>2021-06-06T07:24:31Z</time>
      </trkpt>
      <trkpt lat="45.75813" lon="3.03577">
        <ele>787.77356</ele>
        <time>2021-06-06T07:24:32Z</time>
      </trkpt>
      <trkpt lat="45.75815" lon="3.03577">
        <ele>787.31494</ele>
        <time>2021-06-06T07:24:33Z</time>
      </trkpt>
      <trkpt lat="45.75816" lon="3.03576">
        <ele>787.11694</ele>
        <time>2021-06-06T07:24:34Z</time>
      </trkpt>
      <trkpt lat="45.75817" lon="3.03576">
        <ele>786.7417</ele>
        <time>2021-06-06T07:24:35Z</time>
      </trkpt>
      <trkpt lat="45.75818" lon="3.03576">
        <ele>786.5906</ele>
        <time>2021-06-06T07:24:36Z</time>
      </trkpt>
      <trkpt lat="45.75818" lon="3.03576">
        <ele>786.6844</ele>
        <time>2021-06-06T07:24:37Z</time>
      </trkpt>
      <trkpt lat="45.75819" lon="3.03577">
        <ele>785.97046</ele>
        <time>2021-06-06T07:24:38Z</time>
      </trkpt>
      <trkpt lat="45.75821" lon="3.03578">
        <ele>785.7776</ele>
        <time>2021-06-06T07:24:39Z</time>
      </trkpt>
      <trkpt lat="45.75822" lon="3.03578">
        <ele>785.56396</ele>
        <time>2021-06-06T07:24:40Z</time>
      </trkpt>
      <trkpt lat="45.75823" lon="3.03578">
        <ele>785.0793</ele>
        <time>2021-06-06T07:24:41Z</time>
      </trkpt>
      <trkpt lat="45.75825" lon="3.03579">
        <ele>785.12616</ele>
        <time>2021-06-06T07:24:42Z</time>
      </trkpt>
      <trkpt lat="45.75825" lon="3.03578">
        <ele>785.14703</ele>
        <time>2021-06-06T07:24:43Z</time>
      </trkpt>
      <trkpt lat="45.75826" lon="3.03578">
        <ele>785.11053</ele>
        <time>2021-06-06T07:24:44Z</time>
      </trkpt>
      <trkpt lat="45.75826" lon="3.03579">
        <ele>785.1157</ele>
        <time>2021-06-06T07:24:45Z</time>
      </trkpt>
      <trkpt lat="45.75826" lon="3.03579">
        <ele>784.9386</ele>
        <time>2021-06-06T07:24:46Z</time>
      </trkpt>
      <trkpt lat="45.75826" lon="3.03579">
        <ele>784.454</ele>
        <time>2021-06-06T07:24:47Z</time>
      </trkpt>
      <trkpt lat="45.75827" lon="3.03579">
        <ele>784.4174</ele>
        <time>2021-06-06T07:24:48Z</time>
      </trkpt>
      <trkpt lat="45.75828" lon="3.03579">
        <ele>783.9797</ele>
        <time>2021-06-06T07:24:49Z</time>
      </trkpt>
      <trkpt lat="45.75829" lon="3.03579">
        <ele>783.5732</ele>
        <time>2021-06-06T07:24:50Z</time>
      </trkpt>
      <trkpt lat="45.7583" lon="3.03578">
        <ele>783.38043</ele>
        <time>2021-06-06T07:24:51Z</time>
      </trkpt>
      <trkpt lat="45.75831" lon="3.03577">
        <ele>782.63525</ele>
        <time>2021-06-06T07:24:52Z</time>
      </trkpt>
      <trkpt lat="45.75832" lon="3.03576">
        <ele>782.1037</ele>
        <time>2021-06-06T07:24:53Z</time>
      </trkpt>
      <trkpt lat="45.75833" lon="3.03575">
        <ele>781.88995</ele>
        <time>2021-06-06T07:24:54Z</time>
      </trkpt>
      <trkpt lat="45.75834" lon="3.03574">
        <ele>781.7232</ele>
        <time>2021-06-06T07:24:55Z</time>
      </trkpt>
      <trkpt lat="45.75835" lon="3.03574">
        <ele>781.33234</ele>
        <time>2021-06-06T07:24:56Z</time>
      </trkpt>
      <trkpt lat="45.75836" lon="3.03574">
        <ele>780.978</ele>
        <time>2021-06-06T07:24:57Z</time>
      </trkpt>
      <trkpt lat="45.75838" lon="3.03574">
        <ele>780.95715</ele>
        <time>2021-06-06T07:24:58Z</time>
      </trkpt>
      <trkpt lat="45.75839" lon="3.03574">
        <ele>780.49854</ele>
        <time>2021-06-06T07:24:59Z</time>
      </trkpt>
      <trkpt lat="45.75841" lon="3.03575">
        <ele>780.0712</ele>
        <time>2021-06-06T07:25:00Z</time>
      </trkpt>
      <trkpt lat="45.75842" lon="3.03575">
        <ele>779.8263</ele>
        <time>2021-06-06T07:25:01Z</time>
      </trkpt>
      <trkpt lat="45.75843" lon="3.03576">
        <ele>779.46674</ele>
        <time>2021-06-06T07:25:02Z</time>
      </trkpt>
      <trkpt lat="45.75845" lon="3.03576">
        <ele>779.09155</ele>
        <time>2021-06-06T07:25:03Z</time>
      </trkpt>
      <trkpt lat="45.75847" lon="3.03576">
        <ele>778.7007</ele>
        <time>2021-06-06T07:25:04Z</time>
      </trkpt>
      <trkpt lat="45.75848" lon="3.03575">
        <ele>778.5652</ele>
        <time>2021-06-06T07:25:05Z</time>
      </trkpt>
      <trkpt lat="45.75849" lon="3.03574">
        <ele>778.2473</ele>
        <time>2021-06-06T07:25:06Z</time>
      </trkpt>
      <trkpt lat="45.7585" lon="3.03572">
        <ele>778.3411</ele>
        <time>2021-06-06T07:25:07Z</time>
      </trkpt>
      <trkpt lat="45.75851" lon="3.0357">
        <ele>778.2942</ele>
        <time>2021-06-06T07:25:08Z</time>
      </trkpt>
      <trkpt lat="45.75853" lon="3.03568">
        <ele>778.2369</ele>
        <time>2021-06-06T07:25:09Z</time>
      </trkpt>
      <trkpt lat="45.75853" lon="3.03567">
        <ele>778.117</ele>
        <time>2021-06-06T07:25:10Z</time>
      </trkpt>
      <trkpt lat="45.75855" lon="3.03565">
        <ele>778.01276</ele>
        <time>2021-06-06T07:25:11Z</time>
      </trkpt>
      <trkpt lat="45.75855" lon="3.03564">
        <ele>777.9138</ele>
        <time>2021-06-06T07:25:12Z</time>
      </trkpt>
      <trkpt lat="45.75856" lon="3.03562">
        <ele>777.42914</ele>
        <time>2021-06-06T07:25:13Z</time>
      </trkpt>
      <trkpt lat="45.75857" lon="3.0356">
        <ele>777.7522</ele>
        <time>2021-06-06T07:25:14Z</time>
      </trkpt>
      <trkpt lat="45.75858" lon="3.03559">
        <ele>777.4604</ele>
        <time>2021-06-06T07:25:15Z</time>
      </trkpt>
      <trkpt lat="45.7586" lon="3.03557">
        <ele>777.21027</ele>
        <time>2021-06-06T07:25:16Z</time>
      </trkpt>
      <trkpt lat="45.7586" lon="3.03556">
        <ele>777.4031</ele>
        <time>2021-06-06T07:25:17Z</time>
      </trkpt>
      <trkpt lat="45.75861" lon="3.03554">
        <ele>777.3718</ele>
        <time>2021-06-06T07:25:18Z</time>
      </trkpt>
      <trkpt lat="45.75862" lon="3.03552">
        <ele>776.9706</ele>
        <time>2021-06-06T07:25:19Z</time>
      </trkpt>
      <trkpt lat="45.75863" lon="3.03551">
        <ele>776.77246</ele>
        <time>2021-06-06T07:25:20Z</time>
      </trkpt>
      <trkpt lat="45.75863" lon="3.0355">
        <ele>776.2931</ele>
        <time>2021-06-06T07:25:21Z</time>
      </trkpt>
      <trkpt lat="45.75864" lon="3.03549">
        <ele>776.1732</ele>
        <time>2021-06-06T07:25:22Z</time>
      </trkpt>
      <trkpt lat="45.75865" lon="3.03548">
        <ele>775.9543</ele>
        <time>2021-06-06T07:25:23Z</time>
      </trkpt>
      <trkpt lat="45.75866" lon="3.03546">
        <ele>775.7511</ele>
        <time>2021-06-06T07:25:24Z</time>
      </trkpt>
      <trkpt lat="45.75867" lon="3.03544">
        <ele>775.30817</ele>
        <time>2021-06-06T07:25:25Z</time>
      </trkpt>
      <trkpt lat="45.75868" lon="3.03543">
        <ele>775.058</ele>
        <time>2021-06-06T07:25:26Z</time>
      </trkpt>
      <trkpt lat="45.75869" lon="3.03542">
        <ele>774.9798</ele>
        <time>2021-06-06T07:25:27Z</time>
      </trkpt>
      <trkpt lat="45.7587" lon="3.03541">
        <ele>774.75574</ele>
        <time>2021-06-06T07:25:28Z</time>
      </trkpt>
      <trkpt lat="45.7587" lon="3.0354">
        <ele>774.38574</ele>
        <time>2021-06-06T07:25:29Z</time>
      </trkpt>
      <trkpt lat="45.75871" lon="3.03538">
        <ele>774.1669</ele>
        <time>2021-06-06T07:25:30Z</time>
      </trkpt>
      <trkpt lat="45.75871" lon="3.03536">
        <ele>773.6197</ele>
        <time>2021-06-06T07:25:31Z</time>
      </trkpt>
      <trkpt lat="45.75872" lon="3.03535">
        <ele>773.65094</ele>
        <time>2021-06-06T07:25:32Z</time>
      </trkpt>
      <trkpt lat="45.75874" lon="3.03533">
        <ele>773.37476</ele>
        <time>2021-06-06T07:25:33Z</time>
      </trkpt>
      <trkpt lat="45.75875" lon="3.03531">
        <ele>773.0517</ele>
        <time>2021-06-06T07:25:34Z</time>
      </trkpt>
      <trkpt lat="45.75876" lon="3.03531">
        <ele>772.5722</ele>
        <time>2021-06-06T07:25:35Z</time>
      </trkpt>
      <trkpt lat="45.75878" lon="3.03531">
        <ele>772.4315</ele>
        <time>2021-06-06T07:25:36Z</time>
      </trkpt>
      <trkpt lat="45.75879" lon="3.0353">
        <ele>772.3794</ele>
        <time>2021-06-06T07:25:37Z</time>
      </trkpt>
      <trkpt lat="45.75881" lon="3.0353">
        <ele>772.03546</ele>
        <time>2021-06-06T07:25:38Z</time>
      </trkpt>
      <trkpt lat="45.75882" lon="3.0353">
        <ele>771.8062</ele>
        <time>2021-06-06T07:25:39Z</time>
      </trkpt>
      <trkpt lat="45.75882" lon="3.03529">
        <ele>771.2173</ele>
        <time>2021-06-06T07:25:40Z</time>
      </trkpt>
      <trkpt lat="45.75884" lon="3.0353">
        <ele>770.9202</ele>
        <time>2021-06-06T07:25:41Z</time>
      </trkpt>
      <trkpt lat="45.75885" lon="3.0353">
        <ele>770.53455</ele>
        <time>2021-06-06T07:25:42Z</time>
      </trkpt>
      <trkpt lat="45.75886" lon="3.0353">
        <ele>770.3209</ele>
        <time>2021-06-06T07:25:43Z</time>
      </trkpt>
      <trkpt lat="45.75887" lon="3.0353">
        <ele>769.805</ele>
        <time>2021-06-06T07:25:44Z</time>
      </trkpt>
      <trkpt lat="45.75888" lon="3.03529">
        <ele>769.6487</ele>
        <time>2021-06-06T07:25:45Z</time>
      </trkpt>
      <trkpt lat="45.75888" lon="3.03527">
        <ele>769.7425</ele>
        <time>2021-06-06T07:25:46Z</time>
      </trkpt>
      <trkpt lat="45.75889" lon="3.03526">
        <ele>769.4611</ele>
        <time>2021-06-06T07:25:47Z</time>
      </trkpt>
      <trkpt lat="45.7589" lon="3.03526">
        <ele>769.31</ele>
        <time>2021-06-06T07:25:48Z</time>
      </trkpt>
      <trkpt lat="45.75892" lon="3.03525">
        <ele>769.13794</ele>
        <time>2021-06-06T07:25:49Z</time>
      </trkpt>
      <trkpt lat="45.75893" lon="3.03525">
        <ele>768.70544</ele>
        <time>2021-06-06T07:25:50Z</time>
      </trkpt>
      <trkpt lat="45.75894" lon="3.03524">
        <ele>768.0019</ele>
        <time>2021-06-06T07:25:51Z</time>
      </trkpt>
      <trkpt lat="45.75895" lon="3.03523">
        <ele>767.97064</ele>
        <time>2021-06-06T07:25:52Z</time>
      </trkpt>
      <trkpt lat="45.75896" lon="3.03521">
        <ele>767.8195</ele>
        <time>2021-06-06T07:25:53Z</time>
      </trkpt>
      <trkpt lat="45.75897" lon="3.0352">
        <ele>767.40265</ele>
        <time>2021-06-06T07:25:54Z</time>
      </trkpt>
      <trkpt lat="45.75898" lon="3.0352">
        <ele>766.9805</ele>
        <time>2021-06-06T07:25:55Z</time>
      </trkpt>
      <trkpt lat="45.75898" lon="3.03519">
        <ele>766.6939</ele>
        <time>2021-06-06T07:25:56Z</time>
      </trkpt>
      <trkpt lat="45.75899" lon="3.03517">
        <ele>766.50104</ele>
        <time>2021-06-06T07:25:57Z</time>
      </trkpt>
      <trkpt lat="45.759" lon="3.03515">
        <ele>766.56885</ele>
        <time>2021-06-06T07:25:58Z</time>
      </trkpt>
      <trkpt lat="45.759" lon="3.03511">
        <ele>766.63654</ele>
        <time>2021-06-06T07:25:59Z</time>
      </trkpt>
      <trkpt lat="45.759" lon="3.03509">
        <ele>766.5376</ele>
        <time>2021-06-06T07:26:00Z</time>
      </trkpt>
      <trkpt lat="45.759" lon="3.03507">
        <ele>766.8919</ele>
        <time>2021-06-06T07:26:01Z</time>
      </trkpt>
      <trkpt lat="45.759" lon="3.03505">
        <ele>766.99097</ele>
        <time>2021-06-06T07:26:02Z</time>
      </trkpt>
      <trkpt lat="45.75901" lon="3.03503">
        <ele>766.7616</ele>
        <time>2021-06-06T07:26:03Z</time>
      </trkpt>
      <trkpt lat="45.75901" lon="3.03501">
        <ele>767.17334</ele>
        <time>2021-06-06T07:26:04Z</time>
      </trkpt>
      <trkpt lat="45.75901" lon="3.03499">
        <ele>767.3714</ele>
        <time>2021-06-06T07:26:05Z</time>
      </trkpt>
      <trkpt lat="45.759" lon="3.03497">
        <ele>767.5746</ele>
        <time>2021-06-06T07:26:06Z</time>
      </trkpt>
      <trkpt lat="45.759" lon="3.03494">
        <ele>767.82477</ele>
        <time>2021-06-06T07:26:07Z</time>
      </trkpt>
      <trkpt lat="45.759" lon="3.03493">
        <ele>767.9967</ele>
        <time>2021-06-06T07:26:08Z</time>
      </trkpt>
      <trkpt lat="45.75901" lon="3.0349">
        <ele>768.12177</ele>
        <time>2021-06-06T07:26:09Z</time>
      </trkpt>
      <trkpt lat="45.75901" lon="3.03488">
        <ele>768.2781</ele>
        <time>2021-06-06T07:26:10Z</time>
      </trkpt>
      <trkpt lat="45.75902" lon="3.03486">
        <ele>768.3823</ele>
        <time>2021-06-06T07:26:11Z</time>
      </trkpt>
      <trkpt lat="45.75903" lon="3.03484">
        <ele>768.47095</ele>
        <time>2021-06-06T07:26:12Z</time>
      </trkpt>
      <trkpt lat="45.75904" lon="3.03482">
        <ele>768.57513</ele>
        <time>2021-06-06T07:26:13Z</time>
      </trkpt>
      <trkpt lat="45.75905" lon="3.03481">
        <ele>768.9452</ele>
        <time>2021-06-06T07:26:14Z</time>
      </trkpt>
      <trkpt lat="45.75905" lon="3.03479">
        <ele>769.2839</ele>
        <time>2021-06-06T07:26:15Z</time>
      </trkpt>
      <trkpt lat="45.75906" lon="3.03477">
        <ele>769.4141</ele>
        <time>2021-06-06T07:26:16Z</time>
      </trkpt>
      <trkpt lat="45.75906" lon="3.03475">
        <ele>769.81024</ele>
        <time>2021-06-06T07:26:17Z</time>
      </trkpt>
      <trkpt lat="45.75906" lon="3.03473">
        <ele>770.21674</ele>
        <time>2021-06-06T07:26:18Z</time>
      </trkpt>
      <trkpt lat="45.75906" lon="3.03471">
        <ele>770.248</ele>
        <time>2021-06-06T07:26:19Z</time>
      </trkpt>
      <trkpt lat="45.75906" lon="3.03469">
        <ele>770.3887</ele>
        <time>2021-06-06T07:26:20Z</time>
      </trkpt>
      <trkpt lat="45.75907" lon="3.03466">
        <ele>770.56067</ele>
        <time>2021-06-06T07:26:21Z</time>
      </trkpt>
      <trkpt lat="45.75908" lon="3.03464">
        <ele>770.9098</ele>
        <time>2021-06-06T07:26:22Z</time>
      </trkpt>
      <trkpt lat="45.75908" lon="3.03462">
        <ele>770.9776</ele>
        <time>2021-06-06T07:26:23Z</time>
      </trkpt>
      <trkpt lat="45.75909" lon="3.0346">
        <ele>771.1391</ele>
        <time>2021-06-06T07:26:24Z</time>
      </trkpt>
      <trkpt lat="45.75909" lon="3.03458">
        <ele>771.4101</ele>
        <time>2021-06-06T07:26:25Z</time>
      </trkpt>
      <trkpt lat="45.75909" lon="3.03456">
        <ele>771.6915</ele>
        <time>2021-06-06T07:26:26Z</time>
      </trkpt>
      <trkpt lat="45.75908" lon="3.03454">
        <ele>771.9625</ele>
        <time>2021-06-06T07:26:27Z</time>
      </trkpt>
      <trkpt lat="45.75908" lon="3.03451">
        <ele>772.27515</ele>
        <time>2021-06-06T07:26:28Z</time>
      </trkpt>
      <trkpt lat="45.75908" lon="3.0345">
        <ele>772.1657</ele>
        <time>2021-06-06T07:26:29Z</time>
      </trkpt>
      <trkpt lat="45.75909" lon="3.03448">
        <ele>772.5045</ele>
        <time>2021-06-06T07:26:30Z</time>
      </trkpt>
      <trkpt lat="45.75909" lon="3.03446">
        <ele>772.6869</ele>
        <time>2021-06-06T07:26:31Z</time>
      </trkpt>
      <trkpt lat="45.75909" lon="3.03444">
        <ele>773.08295</ele>
        <time>2021-06-06T07:26:32Z</time>
      </trkpt>
      <trkpt lat="45.75909" lon="3.03441">
        <ele>773.3643</ele>
        <time>2021-06-06T07:26:33Z</time>
      </trkpt>
      <trkpt lat="45.75909" lon="3.03439">
        <ele>773.4998</ele>
        <time>2021-06-06T07:26:34Z</time>
      </trkpt>
      <trkpt lat="45.75909" lon="3.03437">
        <ele>773.59357</ele>
        <time>2021-06-06T07:26:35Z</time>
      </trkpt>
      <trkpt lat="45.75908" lon="3.03435">
        <ele>773.78644</ele>
        <time>2021-06-06T07:26:36Z</time>
      </trkpt>
      <trkpt lat="45.75908" lon="3.03433">
        <ele>774.04706</ele>
        <time>2021-06-06T07:26:37Z</time>
      </trkpt>
      <trkpt lat="45.75906" lon="3.03431">
        <ele>774.2867</ele>
        <time>2021-06-06T07:26:38Z</time>
      </trkpt>
      <trkpt lat="45.75906" lon="3.03429">
        <ele>774.3284</ele>
        <time>2021-06-06T07:26:39Z</time>
      </trkpt>
      <trkpt lat="45.75904" lon="3.03427">
        <ele>774.40137</ele>
        <time>2021-06-06T07:26:40Z</time>
      </trkpt>
      <trkpt lat="45.75904" lon="3.03426">
        <ele>774.74536</ele>
        <time>2021-06-06T07:26:41Z</time>
      </trkpt>
      <trkpt lat="45.75904" lon="3.03425">
        <ele>775.0997</ele>
        <time>2021-06-06T07:26:42Z</time>
      </trkpt>
      <trkpt lat="45.75904" lon="3.03423">
        <ele>775.54266</ele>
        <time>2021-06-06T07:26:43Z</time>
      </trkpt>
      <trkpt lat="45.75904" lon="3.03422">
        <ele>775.6781</ele>
        <time>2021-06-06T07:26:44Z</time>
      </trkpt>
      <trkpt lat="45.75904" lon="3.03419">
        <ele>775.64685</ele>
        <time>2021-06-06T07:26:45Z</time>
      </trkpt>
      <trkpt lat="45.75904" lon="3.03418">
        <ele>775.99603</ele>
        <time>2021-06-06T07:26:46Z</time>
      </trkpt>
      <trkpt lat="45.75904" lon="3.03417">
        <ele>776.4442</ele>
        <time>2021-06-06T07:26:47Z</time>
      </trkpt>
      <trkpt lat="45.75904" lon="3.03415">
        <ele>776.6735</ele>
        <time>2021-06-06T07:26:48Z</time>
      </trkpt>
      <trkpt lat="45.75905" lon="3.03413">
        <ele>776.61615</ele>
        <time>2021-06-06T07:26:49Z</time>
      </trkpt>
      <trkpt lat="45.75905" lon="3.03412">
        <ele>776.77246</ele>
        <time>2021-06-06T07:26:50Z</time>
      </trkpt>
      <trkpt lat="45.75904" lon="3.0341">
        <ele>777.06433</ele>
        <time>2021-06-06T07:26:51Z</time>
      </trkpt>
      <trkpt lat="45.75904" lon="3.03408">
        <ele>777.24677</ele>
        <time>2021-06-06T07:26:52Z</time>
      </trkpt>
      <trkpt lat="45.75903" lon="3.03407">
        <ele>777.4604</ele>
        <time>2021-06-06T07:26:53Z</time>
      </trkpt>
      <trkpt lat="45.75903" lon="3.03405">
        <ele>777.4865</ele>
        <time>2021-06-06T07:26:54Z</time>
      </trkpt>
      <trkpt lat="45.75903" lon="3.03404">
        <ele>777.83563</ele>
        <time>2021-06-06T07:26:55Z</time>
      </trkpt>
      <trkpt lat="45.75903" lon="3.03403">
        <ele>778.1587</ele>
        <time>2021-06-06T07:26:56Z</time>
      </trkpt>
      <trkpt lat="45.75902" lon="3.03401">
        <ele>778.4662</ele>
        <time>2021-06-06T07:26:57Z</time>
      </trkpt>
      <trkpt lat="45.75902" lon="3.03399">
        <ele>778.7163</ele>
        <time>2021-06-06T07:26:58Z</time>
      </trkpt>
      <trkpt lat="45.75902" lon="3.03397">
        <ele>778.7893</ele>
        <time>2021-06-06T07:26:59Z</time>
      </trkpt>
      <trkpt lat="45.75901" lon="3.03395">
        <ele>778.91956</ele>
        <time>2021-06-06T07:27:01Z</time>
      </trkpt>
      <trkpt lat="45.75901" lon="3.03394">
        <ele>779.4772</ele>
        <time>2021-06-06T07:27:02Z</time>
      </trkpt>
      <trkpt lat="45.75901" lon="3.03393">
        <ele>779.70123</ele>
        <time>2021-06-06T07:27:03Z</time>
      </trkpt>
      <trkpt lat="45.75901" lon="3.0339">
        <ele>779.88885</ele>
        <time>2021-06-06T07:27:04Z</time>
      </trkpt>
      <trkpt lat="45.759" lon="3.03389">
        <ele>780.19635</ele>
        <time>2021-06-06T07:27:05Z</time>
      </trkpt>
      <trkpt lat="45.759" lon="3.03388">
        <ele>780.29535</ele>
        <time>2021-06-06T07:27:06Z</time>
      </trkpt>
      <trkpt lat="45.759" lon="3.03386">
        <ele>780.6132</ele>
        <time>2021-06-06T07:27:07Z</time>
      </trkpt>
      <trkpt lat="45.759" lon="3.03384">
        <ele>781.05096</ele>
        <time>2021-06-06T07:27:08Z</time>
      </trkpt>
      <trkpt lat="45.759" lon="3.03383">
        <ele>781.36884</ele>
        <time>2021-06-06T07:27:09Z</time>
      </trkpt>
      <trkpt lat="45.75899" lon="3.03382">
        <ele>781.5461</ele>
        <time>2021-06-06T07:27:10Z</time>
      </trkpt>
      <trkpt lat="45.75898" lon="3.03381">
        <ele>781.67633</ele>
        <time>2021-06-06T07:27:11Z</time>
      </trkpt>
      <trkpt lat="45.75898" lon="3.03379">
        <ele>781.7962</ele>
        <time>2021-06-06T07:27:12Z</time>
      </trkpt>
      <trkpt lat="45.75898" lon="3.03378">
        <ele>782.1453</ele>
        <time>2021-06-06T07:27:13Z</time>
      </trkpt>
      <trkpt lat="45.75897" lon="3.03377">
        <ele>782.58307</ele>
        <time>2021-06-06T07:27:14Z</time>
      </trkpt>
      <trkpt lat="45.75896" lon="3.03375">
        <ele>782.64044</ele>
        <time>2021-06-06T07:27:15Z</time>
      </trkpt>
      <trkpt lat="45.75895" lon="3.03374">
        <ele>782.83325</ele>
        <time>2021-06-06T07:27:16Z</time>
      </trkpt>
      <trkpt lat="45.75894" lon="3.03373">
        <ele>783.24493</ele>
        <time>2021-06-06T07:27:17Z</time>
      </trkpt>
      <trkpt lat="45.75893" lon="3.03372">
        <ele>783.1615</ele>
        <time>2021-06-06T07:27:18Z</time>
      </trkpt>
      <trkpt lat="45.75892" lon="3.03371">
        <ele>783.69305</ele>
        <time>2021-06-06T07:27:19Z</time>
      </trkpt>
      <trkpt lat="45.75892" lon="3.0337">
        <ele>783.86505</ele>
        <time>2021-06-06T07:27:20Z</time>
      </trkpt>
      <trkpt lat="45.75891" lon="3.03368">
        <ele>783.74524</ele>
        <time>2021-06-06T07:27:21Z</time>
      </trkpt>
      <trkpt lat="45.75891" lon="3.03366">
        <ele>784.0475</ele>
        <time>2021-06-06T07:27:22Z</time>
      </trkpt>
      <trkpt lat="45.7589" lon="3.03365">
        <ele>784.4904</ele>
        <time>2021-06-06T07:27:23Z</time>
      </trkpt>
      <trkpt lat="45.75889" lon="3.03363">
        <ele>784.93335</ele>
        <time>2021-06-06T07:27:24Z</time>
      </trkpt>
      <trkpt lat="45.75889" lon="3.03363">
        <ele>785.1731</ele>
        <time>2021-06-06T07:27:25Z</time>
      </trkpt>
      <trkpt lat="45.7589" lon="3.03362">
        <ele>785.4233</ele>
        <time>2021-06-06T07:27:26Z</time>
      </trkpt>
      <trkpt lat="45.7589" lon="3.03361">
        <ele>785.6943</ele>
        <time>2021-06-06T07:27:27Z</time>
      </trkpt>
      <trkpt lat="45.7589" lon="3.03359">
        <ele>785.7151</ele>
        <time>2021-06-06T07:27:28Z</time>
      </trkpt>
      <trkpt lat="45.7589" lon="3.03358">
        <ele>785.9131</ele>
        <time>2021-06-06T07:27:29Z</time>
      </trkpt>
      <trkpt lat="45.7589" lon="3.03356">
        <ele>786.15283</ele>
        <time>2021-06-06T07:27:30Z</time>
      </trkpt>
      <trkpt lat="45.75888" lon="3.03354">
        <ele>786.25183</ele>
        <time>2021-06-06T07:27:31Z</time>
      </trkpt>
      <trkpt lat="45.75888" lon="3.03353">
        <ele>786.2831</ele>
        <time>2021-06-06T07:27:32Z</time>
      </trkpt>
      <trkpt lat="45.75887" lon="3.03352">
        <ele>786.6062</ele>
        <time>2021-06-06T07:27:33Z</time>
      </trkpt>
      <trkpt lat="45.75887" lon="3.03351">
        <ele>786.79376</ele>
        <time>2021-06-06T07:27:34Z</time>
      </trkpt>
      <trkpt lat="45.75886" lon="3.0335">
        <ele>786.9554</ele>
        <time>2021-06-06T07:27:35Z</time>
      </trkpt>
      <trkpt lat="45.75885" lon="3.03349">
        <ele>787.1638</ele>
        <time>2021-06-06T07:27:36Z</time>
      </trkpt>
      <trkpt lat="45.75885" lon="3.03347">
        <ele>787.4556</ele>
        <time>2021-06-06T07:27:37Z</time>
      </trkpt>
      <trkpt lat="45.75885" lon="3.03347">
        <ele>787.60675</ele>
        <time>2021-06-06T07:27:38Z</time>
      </trkpt>
      <trkpt lat="45.75884" lon="3.03346">
        <ele>788.09143</ele>
        <time>2021-06-06T07:27:39Z</time>
      </trkpt>
      <trkpt lat="45.75884" lon="3.03345">
        <ele>788.2738</ele>
        <time>2021-06-06T07:27:40Z</time>
      </trkpt>
      <trkpt lat="45.75884" lon="3.03343">
        <ele>788.2946</ele>
        <time>2021-06-06T07:27:41Z</time>
      </trkpt>
      <trkpt lat="45.75883" lon="3.03341">
        <ele>788.4979</ele>
        <time>2021-06-06T07:27:42Z</time>
      </trkpt>
      <trkpt lat="45.75882" lon="3.03339">
        <ele>788.9304</ele>
        <time>2021-06-06T07:27:43Z</time>
      </trkpt>
      <trkpt lat="45.75882" lon="3.03338">
        <ele>789.3161</ele>
        <time>2021-06-06T07:27:44Z</time>
      </trkpt>
      <trkpt lat="45.75882" lon="3.03337">
        <ele>789.40466</ele>
        <time>2021-06-06T07:27:45Z</time>
      </trkpt>
      <trkpt lat="45.75881" lon="3.03335">
        <ele>789.389</ele>
        <time>2021-06-06T07:27:46Z</time>
      </trkpt>
      <trkpt lat="45.75881" lon="3.03333">
        <ele>789.62354</ele>
        <time>2021-06-06T07:27:47Z</time>
      </trkpt>
      <trkpt lat="45.7588" lon="3.03332">
        <ele>790.11334</ele>
        <time>2021-06-06T07:27:48Z</time>
      </trkpt>
      <trkpt lat="45.75879" lon="3.03331">
        <ele>790.24365</ele>
        <time>2021-06-06T07:27:49Z</time>
      </trkpt>
      <trkpt lat="45.7588" lon="3.0333">
        <ele>790.4313</ele>
        <time>2021-06-06T07:27:50Z</time>
      </trkpt>
      <trkpt lat="45.7588" lon="3.03329">
        <ele>790.6919</ele>
        <time>2021-06-06T07:27:51Z</time>
      </trkpt>
      <trkpt lat="45.7588" lon="3.03327">
        <ele>790.8169</ele>
        <time>2021-06-06T07:27:52Z</time>
      </trkpt>
      <trkpt lat="45.7588" lon="3.03326">
        <ele>790.9837</ele>
        <time>2021-06-06T07:27:53Z</time>
      </trkpt>
      <trkpt lat="45.7588" lon="3.03325">
        <ele>791.2234</ele>
        <time>2021-06-06T07:27:54Z</time>
      </trkpt>
      <trkpt lat="45.75879" lon="3.03323">
        <ele>791.55695</ele>
        <time>2021-06-06T07:27:55Z</time>
      </trkpt>
      <trkpt lat="45.75879" lon="3.03322">
        <ele>791.8019</ele>
        <time>2021-06-06T07:27:56Z</time>
      </trkpt>
      <trkpt lat="45.75879" lon="3.03321">
        <ele>791.97906</ele>
        <time>2021-06-06T07:27:57Z</time>
      </trkpt>
      <trkpt lat="45.75879" lon="3.0332">
        <ele>792.4272</ele>
        <time>2021-06-06T07:27:58Z</time>
      </trkpt>
      <trkpt lat="45.75878" lon="3.03319">
        <ele>792.6565</ele>
        <time>2021-06-06T07:27:59Z</time>
      </trkpt>
      <trkpt lat="45.75878" lon="3.03318">
        <ele>792.6461</ele>
        <time>2021-06-06T07:28:00Z</time>
      </trkpt>
      <trkpt lat="45.75878" lon="3.03317">
        <ele>792.8545</ele>
        <time>2021-06-06T07:28:01Z</time>
      </trkpt>
      <trkpt lat="45.75878" lon="3.03315">
        <ele>793.29224</ele>
        <time>2021-06-06T07:28:02Z</time>
      </trkpt>
      <trkpt lat="45.75877" lon="3.03314">
        <ele>793.459</ele>
        <time>2021-06-06T07:28:03Z</time>
      </trkpt>
      <trkpt lat="45.75876" lon="3.03313">
        <ele>793.6623</ele>
        <time>2021-06-06T07:28:04Z</time>
      </trkpt>
      <trkpt lat="45.75876" lon="3.03312">
        <ele>793.98535</ele>
        <time>2021-06-06T07:28:05Z</time>
      </trkpt>
      <trkpt lat="45.75875" lon="3.03311">
        <ele>794.4387</ele>
        <time>2021-06-06T07:28:06Z</time>
      </trkpt>
      <trkpt lat="45.75875" lon="3.0331">
        <ele>794.7202</ele>
        <time>2021-06-06T07:28:07Z</time>
      </trkpt>
      <trkpt lat="45.75874" lon="3.03309">
        <ele>794.8504</ele>
        <time>2021-06-06T07:28:08Z</time>
      </trkpt>
      <trkpt lat="45.75874" lon="3.03308">
        <ele>794.9651</ele>
        <time>2021-06-06T07:28:09Z</time>
      </trkpt>
      <trkpt lat="45.75874" lon="3.03307">
        <ele>794.9703</ele>
        <time>2021-06-06T07:28:10Z</time>
      </trkpt>
      <trkpt lat="45.75874" lon="3.03305">
        <ele>795.283</ele>
        <time>2021-06-06T07:28:11Z</time>
      </trkpt>
      <trkpt lat="45.75874" lon="3.03304">
        <ele>795.72076</ele>
        <time>2021-06-06T07:28:12Z</time>
      </trkpt>
      <trkpt lat="45.75873" lon="3.03302">
        <ele>795.7416</ele>
        <time>2021-06-06T07:28:13Z</time>
      </trkpt>
      <trkpt lat="45.75873" lon="3.03301">
        <ele>795.90314</ele>
        <time>2021-06-06T07:28:14Z</time>
      </trkpt>
      <trkpt lat="45.75873" lon="3.03299">
        <ele>795.9083</ele>
        <time>2021-06-06T07:28:15Z</time>
      </trkpt>
      <trkpt lat="45.75873" lon="3.03297">
        <ele>796.1481</ele>
        <time>2021-06-06T07:28:16Z</time>
      </trkpt>
      <trkpt lat="45.75872" lon="3.03296">
        <ele>796.6066</ele>
        <time>2021-06-06T07:28:17Z</time>
      </trkpt>
      <trkpt lat="45.75872" lon="3.03295">
        <ele>796.8047</ele>
        <time>2021-06-06T07:28:18Z</time>
      </trkpt>
      <trkpt lat="45.75872" lon="3.03293">
        <ele>797.1799</ele>
        <time>2021-06-06T07:28:19Z</time>
      </trkpt>
      <trkpt lat="45.75873" lon="3.03291">
        <ele>797.37274</ele>
        <time>2021-06-06T07:28:20Z</time>
      </trkpt>
      <trkpt lat="45.75873" lon="3.0329">
        <ele>797.4248</ele>
        <time>2021-06-06T07:28:21Z</time>
      </trkpt>
      <trkpt lat="45.75873" lon="3.03289">
        <ele>797.7583</ele>
        <time>2021-06-06T07:28:22Z</time>
      </trkpt>
      <trkpt lat="45.75872" lon="3.03288">
        <ele>797.82086</ele>
        <time>2021-06-06T07:28:23Z</time>
      </trkpt>
      <trkpt lat="45.75873" lon="3.03288">
        <ele>797.8313</ele>
        <time>2021-06-06T07:28:24Z</time>
      </trkpt>
      <trkpt lat="45.75873" lon="3.03288">
        <ele>797.8469</ele>
        <time>2021-06-06T07:28:25Z</time>
      </trkpt>
      <trkpt lat="45.75873" lon="3.03288">
        <ele>798.00323</ele>
        <time>2021-06-06T07:28:26Z</time>
      </trkpt>
      <trkpt lat="45.75873" lon="3.03288">
        <ele>798.00323</ele>
        <time>2021-06-06T07:28:26Z</time>
      </trkpt>
      <trkpt lat="45.75873" lon="3.03301">
        <ele>796.4086</ele>
        <time>2021-06-06T07:29:38Z</time>
      </trkpt>
      <trkpt lat="45.75874" lon="3.03303">
        <ele>796.03864</ele>
        <time>2021-06-06T07:29:39Z</time>
      </trkpt>
      <trkpt lat="45.75874" lon="3.03305">
        <ele>795.6373</ele>
        <time>2021-06-06T07:29:40Z</time>
      </trkpt>
      <trkpt lat="45.75874" lon="3.03307">
        <ele>795.3143</ele>
        <time>2021-06-06T07:29:41Z</time>
      </trkpt>
      <trkpt lat="45.75875" lon="3.0331">
        <ele>795.012</ele>
        <time>2021-06-06T07:29:42Z</time>
      </trkpt>
      <trkpt lat="45.75876" lon="3.03311">
        <ele>794.73584</ele>
        <time>2021-06-06T07:29:43Z</time>
      </trkpt>
      <trkpt lat="45.75876" lon="3.03313">
        <ele>794.17303</ele>
        <time>2021-06-06T07:29:44Z</time>
      </trkpt>
      <trkpt lat="45.75877" lon="3.03314">
        <ele>794.0688</ele>
        <time>2021-06-06T07:29:45Z</time>
      </trkpt>
      <trkpt lat="45.75877" lon="3.03316">
        <ele>793.8186</ele>
        <time>2021-06-06T07:29:46Z</time>
      </trkpt>
      <trkpt lat="45.75877" lon="3.03318">
        <ele>793.5476</ele>
        <time>2021-06-06T07:29:47Z</time>
      </trkpt>
      <trkpt lat="45.75878" lon="3.0332">
        <ele>793.10986</ele>
        <time>2021-06-06T07:29:48Z</time>
      </trkpt>
      <trkpt lat="45.75879" lon="3.03322">
        <ele>792.5731</ele>
        <time>2021-06-06T07:29:49Z</time>
      </trkpt>
      <trkpt lat="45.75879" lon="3.03324">
        <ele>792.17706</ele>
        <time>2021-06-06T07:29:50Z</time>
      </trkpt>
      <trkpt lat="45.75879" lon="3.03327">
        <ele>791.5673</ele>
        <time>2021-06-06T07:29:51Z</time>
      </trkpt>
      <trkpt lat="45.75879" lon="3.03329">
        <ele>791.2755</ele>
        <time>2021-06-06T07:29:52Z</time>
      </trkpt>
      <trkpt lat="45.7588" lon="3.03331">
        <ele>791.0618</ele>
        <time>2021-06-06T07:29:53Z</time>
      </trkpt>
      <trkpt lat="45.7588" lon="3.03332">
        <ele>790.6658</ele>
        <time>2021-06-06T07:29:54Z</time>
      </trkpt>
      <trkpt lat="45.7588" lon="3.03334">
        <ele>790.38434</ele>
        <time>2021-06-06T07:29:55Z</time>
      </trkpt>
      <trkpt lat="45.7588" lon="3.03336">
        <ele>790.45215</ele>
        <time>2021-06-06T07:29:56Z</time>
      </trkpt>
      <trkpt lat="45.7588" lon="3.03339">
        <ele>790.0821</ele>
        <time>2021-06-06T07:29:57Z</time>
      </trkpt>
      <trkpt lat="45.7588" lon="3.03342">
        <ele>789.8007</ele>
        <time>2021-06-06T07:29:58Z</time>
      </trkpt>
      <trkpt lat="45.75881" lon="3.03345">
        <ele>789.3161</ele>
        <time>2021-06-06T07:29:59Z</time>
      </trkpt>
      <trkpt lat="45.75882" lon="3.03347">
        <ele>788.8418</ele>
        <time>2021-06-06T07:30:00Z</time>
      </trkpt>
      <trkpt lat="45.75883" lon="3.03349">
        <ele>787.9195</ele>
        <time>2021-06-06T07:30:01Z</time>
      </trkpt>
      <trkpt lat="45.75884" lon="3.03352">
        <ele>787.7579</ele>
        <time>2021-06-06T07:30:02Z</time>
      </trkpt>
      <trkpt lat="45.75885" lon="3.03354">
        <ele>787.466</ele>
        <time>2021-06-06T07:30:03Z</time>
      </trkpt>
      <trkpt lat="45.75885" lon="3.03356">
        <ele>787.23157</ele>
        <time>2021-06-06T07:30:04Z</time>
      </trkpt>
      <trkpt lat="45.75886" lon="3.03357">
        <ele>786.8303</ele>
        <time>2021-06-06T07:30:05Z</time>
      </trkpt>
      <trkpt lat="45.75886" lon="3.03359">
        <ele>786.3508</ele>
        <time>2021-06-06T07:30:06Z</time>
      </trkpt>
      <trkpt lat="45.75887" lon="3.0336">
        <ele>786.2779</ele>
        <time>2021-06-06T07:30:07Z</time>
      </trkpt>
      <trkpt lat="45.75888" lon="3.03361">
        <ele>786.059</ele>
        <time>2021-06-06T07:30:08Z</time>
      </trkpt>
      <trkpt lat="45.75888" lon="3.03362">
        <ele>785.7724</ele>
        <time>2021-06-06T07:30:09Z</time>
      </trkpt>
      <trkpt lat="45.75888" lon="3.03365">
        <ele>785.6213</ele>
        <time>2021-06-06T07:30:10Z</time>
      </trkpt>
      <trkpt lat="45.75889" lon="3.03366">
        <ele>785.3086</ele>
        <time>2021-06-06T07:30:11Z</time>
      </trkpt>
      <trkpt lat="45.7589" lon="3.03368">
        <ele>785.14185</ele>
        <time>2021-06-06T07:30:12Z</time>
      </trkpt>
      <trkpt lat="45.7589" lon="3.03369">
        <ele>784.96985</ele>
        <time>2021-06-06T07:30:13Z</time>
      </trkpt>
      <trkpt lat="45.7589" lon="3.0337">
        <ele>784.751</ele>
        <time>2021-06-06T07:30:14Z</time>
      </trkpt>
      <trkpt lat="45.7589" lon="3.03372">
        <ele>784.37054</ele>
        <time>2021-06-06T07:30:15Z</time>
      </trkpt>
      <trkpt lat="45.7589" lon="3.03373">
        <ele>784.0475</ele>
        <time>2021-06-06T07:30:16Z</time>
      </trkpt>
      <trkpt lat="45.75891" lon="3.03375">
        <ele>783.8754</ele>
        <time>2021-06-06T07:30:17Z</time>
      </trkpt>
      <trkpt lat="45.75892" lon="3.03376">
        <ele>783.7087</ele>
        <time>2021-06-06T07:30:18Z</time>
      </trkpt>
      <trkpt lat="45.75892" lon="3.03377">
        <ele>783.3908</ele>
        <time>2021-06-06T07:30:19Z</time>
      </trkpt>
      <trkpt lat="45.75893" lon="3.03378">
        <ele>783.1511</ele>
        <time>2021-06-06T07:30:20Z</time>
      </trkpt>
      <trkpt lat="45.75893" lon="3.03378">
        <ele>783.13025</ele>
        <time>2021-06-06T07:30:21Z</time>
      </trkpt>
      <trkpt lat="45.75892" lon="3.03378">
        <ele>783.30225</ele>
        <time>2021-06-06T07:30:22Z</time>
      </trkpt>
      <trkpt lat="45.75892" lon="3.03378">
        <ele>783.2397</ele>
        <time>2021-06-06T07:30:23Z</time>
      </trkpt>
      <trkpt lat="45.75892" lon="3.03378">
        <ele>783.2397</ele>
        <time>2021-06-06T07:30:23Z</time>
      </trkpt>
      <trkpt lat="45.75892" lon="3.03378">
        <ele>783.2397</ele>
        <time>2021-06-06T07:30:23Z</time>
      </trkpt>
      <trkpt lat="45.75894" lon="3.03383">
        <ele>782.4059</ele>
        <time>2021-06-06T07:30:31Z</time>
      </trkpt>
      <trkpt lat="45.75894" lon="3.03385">
        <ele>781.88995</ele>
        <time>2021-06-06T07:30:32Z</time>
      </trkpt>
      <trkpt lat="45.75895" lon="3.03387">
        <ele>781.44183</ele>
        <time>2021-06-06T07:30:33Z</time>
      </trkpt>
      <trkpt lat="45.75895" lon="3.03389">
        <ele>781.19165</ele>
        <time>2021-06-06T07:30:34Z</time>
      </trkpt>
      <trkpt lat="45.75895" lon="3.0339">
        <ele>780.6809</ele>
        <time>2021-06-06T07:30:35Z</time>
      </trkpt>
      <trkpt lat="45.75895" lon="3.03392">
        <ele>780.1442</ele>
        <time>2021-06-06T07:30:36Z</time>
      </trkpt>
      <trkpt lat="45.75896" lon="3.03394">
        <ele>779.79504</ele>
        <time>2021-06-06T07:30:37Z</time>
      </trkpt>
      <trkpt lat="45.75897" lon="3.03396">
        <ele>779.7586</ele>
        <time>2021-06-06T07:30:38Z</time>
      </trkpt>
      <trkpt lat="45.75897" lon="3.03399">
        <ele>779.46155</ele>
        <time>2021-06-06T07:30:39Z</time>
      </trkpt>
      <trkpt lat="45.75898" lon="3.03401">
        <ele>778.98206</ele>
        <time>2021-06-06T07:30:40Z</time>
      </trkpt>
      <trkpt lat="45.75898" lon="3.03403">
        <ele>778.4453</ele>
        <time>2021-06-06T07:30:41Z</time>
      </trkpt>
      <trkpt lat="45.75899" lon="3.03404">
        <ele>778.0545</ele>
        <time>2021-06-06T07:30:42Z</time>
      </trkpt>
      <trkpt lat="45.75899" lon="3.03406">
        <ele>777.81476</ele>
        <time>2021-06-06T07:30:43Z</time>
      </trkpt>
      <trkpt lat="45.759" lon="3.03408">
        <ele>777.1894</ele>
        <time>2021-06-06T07:30:44Z</time>
      </trkpt>
      <trkpt lat="45.759" lon="3.03411">
        <ele>776.96014</ele>
        <time>2021-06-06T07:30:45Z</time>
      </trkpt>
      <trkpt lat="45.75901" lon="3.03413">
        <ele>776.34515</ele>
        <time>2021-06-06T07:30:46Z</time>
      </trkpt>
      <trkpt lat="45.75903" lon="3.03416">
        <ele>775.97003</ele>
        <time>2021-06-06T07:30:47Z</time>
      </trkpt>
      <trkpt lat="45.75904" lon="3.03418">
        <ele>775.7928</ele>
        <time>2021-06-06T07:30:48Z</time>
      </trkpt>
      <trkpt lat="45.75905" lon="3.0342">
        <ele>775.17786</ele>
        <time>2021-06-06T07:30:49Z</time>
      </trkpt>
      <trkpt lat="45.75906" lon="3.03423">
        <ele>774.6046</ele>
        <time>2021-06-06T07:30:50Z</time>
      </trkpt>
      <trkpt lat="45.75907" lon="3.03425">
        <ele>774.36487</ele>
        <time>2021-06-06T07:30:51Z</time>
      </trkpt>
      <trkpt lat="45.75908" lon="3.03427">
        <ele>774.021</ele>
        <time>2021-06-06T07:30:52Z</time>
      </trkpt>
      <trkpt lat="45.75908" lon="3.03428">
        <ele>773.36957</ele>
        <time>2021-06-06T07:30:53Z</time>
      </trkpt>
      <trkpt lat="45.75908" lon="3.0343">
        <ele>773.04645</ele>
        <time>2021-06-06T07:30:54Z</time>
      </trkpt>
      <trkpt lat="45.75908" lon="3.03433">
        <ele>772.59827</ele>
        <time>2021-06-06T07:30:55Z</time>
      </trkpt>
      <trkpt lat="45.75908" lon="3.03433">
        <ele>772.47314</ele>
        <time>2021-06-06T07:30:56Z</time>
      </trkpt>
      <trkpt lat="45.75909" lon="3.03435">
        <ele>772.56177</ele>
        <time>2021-06-06T07:30:57Z</time>
      </trkpt>
      <trkpt lat="45.75909" lon="3.03435">
        <ele>772.8015</ele>
        <time>2021-06-06T07:30:58Z</time>
      </trkpt>
      <trkpt lat="45.75909" lon="3.03436">
        <ele>772.68164</ele>
        <time>2021-06-06T07:30:59Z</time>
      </trkpt>
      <trkpt lat="45.75909" lon="3.03438">
        <ele>772.666</ele>
        <time>2021-06-06T07:31:00Z</time>
      </trkpt>
      <trkpt lat="45.75909" lon="3.03439">
        <ele>772.1293</ele>
        <time>2021-06-06T07:31:01Z</time>
      </trkpt>
      <trkpt lat="45.75909" lon="3.03441">
        <ele>771.9521</ele>
        <time>2021-06-06T07:31:02Z</time>
      </trkpt>
      <trkpt lat="45.7591" lon="3.03442">
        <ele>772.1397</ele>
        <time>2021-06-06T07:31:03Z</time>
      </trkpt>
      <trkpt lat="45.7591" lon="3.03443">
        <ele>772.0876</ele>
        <time>2021-06-06T07:31:04Z</time>
      </trkpt>
      <trkpt lat="45.7591" lon="3.03444">
        <ele>772.3534</ele>
        <time>2021-06-06T07:31:05Z</time>
      </trkpt>
      <trkpt lat="45.7591" lon="3.03444">
        <ele>772.3534</ele>
        <time>2021-06-06T07:31:05Z</time>
      </trkpt>
      <trkpt lat="45.7591" lon="3.03444">
        <ele>772.3534</ele>
        <time>2021-06-06T07:31:05Z</time>
      </trkpt>
      <trkpt lat="45.7591" lon="3.03452">
        <ele>771.4466</ele>
        <time>2021-06-06T07:31:13Z</time>
      </trkpt>
      <trkpt lat="45.7591" lon="3.03453">
        <ele>771.10785</ele>
        <time>2021-06-06T07:31:14Z</time>
      </trkpt>
      <trkpt lat="45.75909" lon="3.03455">
        <ele>770.77954</ele>
        <time>2021-06-06T07:31:15Z</time>
      </trkpt>
      <trkpt lat="45.75909" lon="3.03456">
        <ele>770.3418</ele>
        <time>2021-06-06T07:31:16Z</time>
      </trkpt>
      <trkpt lat="45.75909" lon="3.03456">
        <ele>770.3001</ele>
        <time>2021-06-06T07:31:18Z</time>
      </trkpt>
      <trkpt lat="45.75909" lon="3.03459">
        <ele>769.852</ele>
        <time>2021-06-06T07:31:19Z</time>
      </trkpt>
      <trkpt lat="45.75908" lon="3.0346">
        <ele>769.852</ele>
        <time>2021-06-06T07:31:20Z</time>
      </trkpt>
      <trkpt lat="45.75908" lon="3.03461">
        <ele>769.67474</ele>
        <time>2021-06-06T07:31:21Z</time>
      </trkpt>
      <trkpt lat="45.75907" lon="3.03462">
        <ele>769.53925</ele>
        <time>2021-06-06T07:31:22Z</time>
      </trkpt>
      <trkpt lat="45.75907" lon="3.03463">
        <ele>769.72687</ele>
        <time>2021-06-06T07:31:23Z</time>
      </trkpt>
      <trkpt lat="45.75907" lon="3.03463">
        <ele>769.49756</ele>
        <time>2021-06-06T07:31:24Z</time>
      </trkpt>
      <trkpt lat="45.75907" lon="3.03463">
        <ele>769.4194</ele>
        <time>2021-06-06T07:31:25Z</time>
      </trkpt>
      <trkpt lat="45.75907" lon="3.03463">
        <ele>769.5288</ele>
        <time>2021-06-06T07:31:26Z</time>
      </trkpt>
      <trkpt lat="45.75907" lon="3.03463">
        <ele>769.581</ele>
        <time>2021-06-06T07:31:27Z</time>
      </trkpt>
      <trkpt lat="45.75907" lon="3.03463">
        <ele>769.581</ele>
        <time>2021-06-06T07:31:27Z</time>
      </trkpt>
      <trkpt lat="45.75907" lon="3.03463">
        <ele>769.581</ele>
        <time>2021-06-06T07:31:27Z</time>
      </trkpt>
      <trkpt lat="45.75909" lon="3.03468">
        <ele>768.95557</ele>
        <time>2021-06-06T07:31:53Z</time>
      </trkpt>
      <trkpt lat="45.7591" lon="3.03468">
        <ele>768.9712</ele>
        <time>2021-06-06T07:31:54Z</time>
      </trkpt>
      <trkpt lat="45.75911" lon="3.03467">
        <ele>768.92957</ele>
        <time>2021-06-06T07:31:55Z</time>
      </trkpt>
      <trkpt lat="45.75912" lon="3.03467">
        <ele>768.93994</ele>
        <time>2021-06-06T07:31:56Z</time>
      </trkpt>
      <trkpt lat="45.75913" lon="3.03466">
        <ele>768.79926</ele>
        <time>2021-06-06T07:31:57Z</time>
      </trkpt>
      <trkpt lat="45.75913" lon="3.03466">
        <ele>768.5439</ele>
        <time>2021-06-06T07:31:58Z</time>
      </trkpt>
      <trkpt lat="45.75914" lon="3.03464">
        <ele>768.85657</ele>
        <time>2021-06-06T07:31:59Z</time>
      </trkpt>
      <trkpt lat="45.75914" lon="3.03463">
        <ele>768.9712</ele>
        <time>2021-06-06T07:32:00Z</time>
      </trkpt>
      <trkpt lat="45.75915" lon="3.03462">
        <ele>768.9712</ele>
        <time>2021-06-06T07:32:01Z</time>
      </trkpt>
      <trkpt lat="45.75916" lon="3.03461">
        <ele>768.8879</ele>
        <time>2021-06-06T07:32:02Z</time>
      </trkpt>
      <trkpt lat="45.75917" lon="3.0346">
        <ele>769.1745</ele>
        <time>2021-06-06T07:32:03Z</time>
      </trkpt>
      <trkpt lat="45.75918" lon="3.03458">
        <ele>769.1015</ele>
        <time>2021-06-06T07:32:04Z</time>
      </trkpt>
      <trkpt lat="45.75919" lon="3.03457">
        <ele>769.29956</ele>
        <time>2021-06-06T07:32:05Z</time>
      </trkpt>
      <trkpt lat="45.7592" lon="3.03456">
        <ele>769.21094</ele>
        <time>2021-06-06T07:32:06Z</time>
      </trkpt>
      <trkpt lat="45.75921" lon="3.03454">
        <ele>769.02856</ele>
        <time>2021-06-06T07:32:07Z</time>
      </trkpt>
      <trkpt lat="45.75922" lon="3.03453">
        <ele>768.93475</ele>
        <time>2021-06-06T07:32:08Z</time>
      </trkpt>
      <trkpt lat="45.75922" lon="3.03451">
        <ele>769.31</ele>
        <time>2021-06-06T07:32:09Z</time>
      </trkpt>
      <trkpt lat="45.75924" lon="3.0345">
        <ele>769.49756</ele>
        <time>2021-06-06T07:32:10Z</time>
      </trkpt>
      <trkpt lat="45.75925" lon="3.03449">
        <ele>769.63306</ele>
        <time>2021-06-06T07:32:11Z</time>
      </trkpt>
      <trkpt lat="45.75925" lon="3.03449">
        <ele>769.4715</ele>
        <time>2021-06-06T07:32:12Z</time>
      </trkpt>
      <trkpt lat="45.75926" lon="3.03449">
        <ele>769.70074</ele>
        <time>2021-06-06T07:32:13Z</time>
      </trkpt>
      <trkpt lat="45.75927" lon="3.03448">
        <ele>769.63306</ele>
        <time>2021-06-06T07:32:14Z</time>
      </trkpt>
      <trkpt lat="45.75928" lon="3.03447">
        <ele>769.4141</ele>
        <time>2021-06-06T07:32:15Z</time>
      </trkpt>
      <trkpt lat="45.75929" lon="3.03446">
        <ele>769.4663</ele>
        <time>2021-06-06T07:32:16Z</time>
      </trkpt>
      <trkpt lat="45.7593" lon="3.03444">
        <ele>769.6018</ele>
        <time>2021-06-06T07:32:17Z</time>
      </trkpt>
      <trkpt lat="45.75932" lon="3.03443">
        <ele>769.5862</ele>
        <time>2021-06-06T07:32:18Z</time>
      </trkpt>
      <trkpt lat="45.75934" lon="3.03442">
        <ele>769.6591</ele>
        <time>2021-06-06T07:32:19Z</time>
      </trkpt>
      <trkpt lat="45.75934" lon="3.03441">
        <ele>769.7321</ele>
        <time>2021-06-06T07:32:20Z</time>
      </trkpt>
      <trkpt lat="45.75935" lon="3.0344">
        <ele>769.607</ele>
        <time>2021-06-06T07:32:21Z</time>
      </trkpt>
      <trkpt lat="45.75937" lon="3.03439">
        <ele>769.5288</ele>
        <time>2021-06-06T07:32:22Z</time>
      </trkpt>
      <trkpt lat="45.75938" lon="3.03438">
        <ele>769.852</ele>
        <time>2021-06-06T07:32:23Z</time>
      </trkpt>
      <trkpt lat="45.75938" lon="3.03436">
        <ele>769.9197</ele>
        <time>2021-06-06T07:32:24Z</time>
      </trkpt>
      <trkpt lat="45.75939" lon="3.03435">
        <ele>769.9509</ele>
        <time>2021-06-06T07:32:25Z</time>
      </trkpt>
      <trkpt lat="45.7594" lon="3.03434">
        <ele>769.99786</ele>
        <time>2021-06-06T07:32:26Z</time>
      </trkpt>
      <trkpt lat="45.7594" lon="3.03432">
        <ele>770.2271</ele>
        <time>2021-06-06T07:32:27Z</time>
      </trkpt>
      <trkpt lat="45.75941" lon="3.03431">
        <ele>770.5033</ele>
        <time>2021-06-06T07:32:28Z</time>
      </trkpt>
      <trkpt lat="45.75942" lon="3.0343">
        <ele>770.5189</ele>
        <time>2021-06-06T07:32:29Z</time>
      </trkpt>
      <trkpt lat="45.75941" lon="3.03429">
        <ele>770.46686</ele>
        <time>2021-06-06T07:32:30Z</time>
      </trkpt>
      <trkpt lat="45.75942" lon="3.03428">
        <ele>770.6544</ele>
        <time>2021-06-06T07:32:31Z</time>
      </trkpt>
      <trkpt lat="45.75943" lon="3.03428">
        <ele>770.73267</ele>
        <time>2021-06-06T07:32:32Z</time>
      </trkpt>
      <trkpt lat="45.75943" lon="3.03427">
        <ele>770.71704</ele>
        <time>2021-06-06T07:32:33Z</time>
      </trkpt>
      <trkpt lat="45.75944" lon="3.03425">
        <ele>770.93585</ele>
        <time>2021-06-06T07:32:34Z</time>
      </trkpt>
      <trkpt lat="45.75944" lon="3.03423">
        <ele>771.1287</ele>
        <time>2021-06-06T07:32:35Z</time>
      </trkpt>
      <trkpt lat="45.75943" lon="3.03422">
        <ele>771.5612</ele>
        <time>2021-06-06T07:32:36Z</time>
      </trkpt>
      <trkpt lat="45.75943" lon="3.03421">
        <ele>771.5196</ele>
        <time>2021-06-06T07:32:37Z</time>
      </trkpt>
      <trkpt lat="45.75943" lon="3.0342">
        <ele>771.4049</ele>
        <time>2021-06-06T07:32:38Z</time>
      </trkpt>
      <trkpt lat="45.75944" lon="3.03418">
        <ele>771.5248</ele>
        <time>2021-06-06T07:32:39Z</time>
      </trkpt>
      <trkpt lat="45.75946" lon="3.03414">
        <ele>771.52997</ele>
        <time>2021-06-06T07:32:41Z</time>
      </trkpt>
      <trkpt lat="45.75946" lon="3.03413">
        <ele>771.5248</ele>
        <time>2021-06-06T07:32:42Z</time>
      </trkpt>
      <trkpt lat="45.75947" lon="3.03411">
        <ele>771.4674</ele>
        <time>2021-06-06T07:32:43Z</time>
      </trkpt>
      <trkpt lat="45.75948" lon="3.03409">
        <ele>771.66547</ele>
        <time>2021-06-06T07:32:44Z</time>
      </trkpt>
      <trkpt lat="45.75948" lon="3.03408">
        <ele>771.5873</ele>
        <time>2021-06-06T07:32:45Z</time>
      </trkpt>
      <trkpt lat="45.75948" lon="3.03406">
        <ele>771.6185</ele>
        <time>2021-06-06T07:32:46Z</time>
      </trkpt>
      <trkpt lat="45.75949" lon="3.03404">
        <ele>771.70197</ele>
        <time>2021-06-06T07:32:47Z</time>
      </trkpt>
      <trkpt lat="45.75949" lon="3.03403">
        <ele>772.0094</ele>
        <time>2021-06-06T07:32:48Z</time>
      </trkpt>
      <trkpt lat="45.7595" lon="3.03401">
        <ele>772.1449</ele>
        <time>2021-06-06T07:32:49Z</time>
      </trkpt>
      <trkpt lat="45.7595" lon="3.034">
        <ele>772.2856</ele>
        <time>2021-06-06T07:32:50Z</time>
      </trkpt>
      <trkpt lat="45.7595" lon="3.03398">
        <ele>772.3273</ele>
        <time>2021-06-06T07:32:51Z</time>
      </trkpt>
      <trkpt lat="45.75951" lon="3.03396">
        <ele>772.3638</ele>
        <time>2021-06-06T07:32:52Z</time>
      </trkpt>
      <trkpt lat="45.75951" lon="3.03394">
        <ele>772.67645</ele>
        <time>2021-06-06T07:32:53Z</time>
      </trkpt>
      <trkpt lat="45.75952" lon="3.03393">
        <ele>772.45233</ele>
        <time>2021-06-06T07:32:54Z</time>
      </trkpt>
      <trkpt lat="45.75953" lon="3.03391">
        <ele>772.68164</ele>
        <time>2021-06-06T07:32:55Z</time>
      </trkpt>
      <trkpt lat="45.75953" lon="3.03389">
        <ele>772.8849</ele>
        <time>2021-06-06T07:32:56Z</time>
      </trkpt>
      <trkpt lat="45.75953" lon="3.03387">
        <ele>773.35394</ele>
        <time>2021-06-06T07:32:57Z</time>
      </trkpt>
      <trkpt lat="45.75953" lon="3.03386">
        <ele>773.43726</ele>
        <time>2021-06-06T07:32:58Z</time>
      </trkpt>
      <trkpt lat="45.75954" lon="3.03384">
        <ele>773.4998</ele>
        <time>2021-06-06T07:32:59Z</time>
      </trkpt>
      <trkpt lat="45.75954" lon="3.03382">
        <ele>773.6718</ele>
        <time>2021-06-06T07:33:00Z</time>
      </trkpt>
      <trkpt lat="45.75954" lon="3.0338">
        <ele>773.60406</ele>
        <time>2021-06-06T07:33:01Z</time>
      </trkpt>
      <trkpt lat="45.75953" lon="3.03379">
        <ele>773.6978</ele>
        <time>2021-06-06T07:33:02Z</time>
      </trkpt>
      <trkpt lat="45.75953" lon="3.03377">
        <ele>773.5571</ele>
        <time>2021-06-06T07:33:03Z</time>
      </trkpt>
      <trkpt lat="45.75953" lon="3.03374">
        <ele>773.8073</ele>
        <time>2021-06-06T07:33:04Z</time>
      </trkpt>
      <trkpt lat="45.75952" lon="3.03372">
        <ele>773.7917</ele>
        <time>2021-06-06T07:33:05Z</time>
      </trkpt>
      <trkpt lat="45.75951" lon="3.03371">
        <ele>773.97925</ele>
        <time>2021-06-06T07:33:06Z</time>
      </trkpt>
      <trkpt lat="45.7595" lon="3.0337">
        <ele>774.0679</ele>
        <time>2021-06-06T07:33:07Z</time>
      </trkpt>
      <trkpt lat="45.7595" lon="3.03369">
        <ele>774.03143</ele>
        <time>2021-06-06T07:33:08Z</time>
      </trkpt>
      <trkpt lat="45.75949" lon="3.03367">
        <ele>774.2242</ele>
        <time>2021-06-06T07:33:09Z</time>
      </trkpt>
      <trkpt lat="45.75948" lon="3.03366">
        <ele>774.2867</ele>
        <time>2021-06-06T07:33:10Z</time>
      </trkpt>
      <trkpt lat="45.75948" lon="3.03364">
        <ele>774.1408</ele>
        <time>2021-06-06T07:33:11Z</time>
      </trkpt>
      <trkpt lat="45.75947" lon="3.03363">
        <ele>774.70886</ele>
        <time>2021-06-06T07:33:12Z</time>
      </trkpt>
      <trkpt lat="45.75947" lon="3.03362">
        <ele>774.5786</ele>
        <time>2021-06-06T07:33:13Z</time>
      </trkpt>
      <trkpt lat="45.75946" lon="3.0336">
        <ele>774.8391</ele>
        <time>2021-06-06T07:33:14Z</time>
      </trkpt>
      <trkpt lat="45.75946" lon="3.03359">
        <ele>775.0945</ele>
        <time>2021-06-06T07:33:15Z</time>
      </trkpt>
      <trkpt lat="45.75945" lon="3.03357">
        <ele>775.2769</ele>
        <time>2021-06-06T07:33:16Z</time>
      </trkpt>
      <trkpt lat="45.75945" lon="3.03356">
        <ele>775.5009</ele>
        <time>2021-06-06T07:33:17Z</time>
      </trkpt>
      <trkpt lat="45.75945" lon="3.03355">
        <ele>775.64166</ele>
        <time>2021-06-06T07:33:18Z</time>
      </trkpt>
      <trkpt lat="45.75945" lon="3.03353">
        <ele>775.8136</ele>
        <time>2021-06-06T07:33:19Z</time>
      </trkpt>
      <trkpt lat="45.75946" lon="3.03352">
        <ele>776.0898</ele>
        <time>2021-06-06T07:33:20Z</time>
      </trkpt>
      <trkpt lat="45.75946" lon="3.03351">
        <ele>776.2566</ele>
        <time>2021-06-06T07:33:21Z</time>
      </trkpt>
      <trkpt lat="45.75945" lon="3.0335">
        <ele>776.47546</ele>
        <time>2021-06-06T07:33:22Z</time>
      </trkpt>
      <trkpt lat="45.75945" lon="3.03349">
        <ele>776.2514</ele>
        <time>2021-06-06T07:33:23Z</time>
      </trkpt>
      <trkpt lat="45.75945" lon="3.03347">
        <ele>776.41296</ele>
        <time>2021-06-06T07:33:24Z</time>
      </trkpt>
      <trkpt lat="45.75945" lon="3.03345">
        <ele>776.61615</ele>
        <time>2021-06-06T07:33:25Z</time>
      </trkpt>
      <trkpt lat="45.75945" lon="3.03343">
        <ele>776.7204</ele>
        <time>2021-06-06T07:33:26Z</time>
      </trkpt>
      <trkpt lat="45.75944" lon="3.03342">
        <ele>776.61615</ele>
        <time>2021-06-06T07:33:27Z</time>
      </trkpt>
      <trkpt lat="45.75943" lon="3.0334">
        <ele>776.84546</ele>
        <time>2021-06-06T07:33:28Z</time>
      </trkpt>
      <trkpt lat="45.75943" lon="3.03338">
        <ele>777.304</ele>
        <time>2021-06-06T07:33:29Z</time>
      </trkpt>
      <trkpt lat="45.75942" lon="3.03337">
        <ele>777.4812</ele>
        <time>2021-06-06T07:33:30Z</time>
      </trkpt>
      <trkpt lat="45.75942" lon="3.03335">
        <ele>777.7783</ele>
        <time>2021-06-06T07:33:31Z</time>
      </trkpt>
      <trkpt lat="45.75942" lon="3.03332">
        <ele>777.8929</ele>
        <time>2021-06-06T07:33:32Z</time>
      </trkpt>
      <trkpt lat="45.75942" lon="3.03331">
        <ele>777.9607</ele>
        <time>2021-06-06T07:33:33Z</time>
      </trkpt>
      <trkpt lat="45.75942" lon="3.03329">
        <ele>778.01276</ele>
        <time>2021-06-06T07:33:34Z</time>
      </trkpt>
      <trkpt lat="45.75942" lon="3.03328">
        <ele>778.1691</ele>
        <time>2021-06-06T07:33:35Z</time>
      </trkpt>
      <trkpt lat="45.75942" lon="3.03327">
        <ele>778.35156</ele>
        <time>2021-06-06T07:33:36Z</time>
      </trkpt>
      <trkpt lat="45.75943" lon="3.03326">
        <ele>778.4453</ele>
        <time>2021-06-06T07:33:37Z</time>
      </trkpt>
      <trkpt lat="45.75944" lon="3.03325">
        <ele>778.857</ele>
        <time>2021-06-06T07:33:38Z</time>
      </trkpt>
      <trkpt lat="45.75945" lon="3.03324">
        <ele>778.7476</ele>
        <time>2021-06-06T07:33:39Z</time>
      </trkpt>
      <trkpt lat="45.75945" lon="3.03323">
        <ele>778.73193</ele>
        <time>2021-06-06T07:33:40Z</time>
      </trkpt>
      <trkpt lat="45.75946" lon="3.03322">
        <ele>779.1332</ele>
        <time>2021-06-06T07:33:41Z</time>
      </trkpt>
      <trkpt lat="45.75946" lon="3.03321">
        <ele>779.19055</ele>
        <time>2021-06-06T07:33:42Z</time>
      </trkpt>
      <trkpt lat="45.75946" lon="3.0332">
        <ele>779.30524</ele>
        <time>2021-06-06T07:33:43Z</time>
      </trkpt>
      <trkpt lat="45.75946" lon="3.03319">
        <ele>779.7221</ele>
        <time>2021-06-06T07:33:44Z</time>
      </trkpt>
      <trkpt lat="45.75946" lon="3.03317">
        <ele>779.72736</ele>
        <time>2021-06-06T07:33:45Z</time>
      </trkpt>
      <trkpt lat="45.75946" lon="3.03315">
        <ele>779.73254</ele>
        <time>2021-06-06T07:33:46Z</time>
      </trkpt>
      <trkpt lat="45.75946" lon="3.03313">
        <ele>779.73773</ele>
        <time>2021-06-06T07:33:47Z</time>
      </trkpt>
      <trkpt lat="45.75947" lon="3.03311">
        <ele>780.0556</ele>
        <time>2021-06-06T07:33:48Z</time>
      </trkpt>
      <trkpt lat="45.75947" lon="3.03309">
        <ele>780.29535</ele>
        <time>2021-06-06T07:33:49Z</time>
      </trkpt>
      <trkpt lat="45.75946" lon="3.03307">
        <ele>780.3735</ele>
        <time>2021-06-06T07:33:50Z</time>
      </trkpt>
      <trkpt lat="45.75946" lon="3.03305">
        <ele>780.5559</ele>
        <time>2021-06-06T07:33:51Z</time>
      </trkpt>
      <trkpt lat="45.75946" lon="3.03305">
        <ele>780.8478</ele>
        <time>2021-06-06T07:33:52Z</time>
      </trkpt>
      <trkpt lat="45.75946" lon="3.03304">
        <ele>780.6653</ele>
        <time>2021-06-06T07:33:53Z</time>
      </trkpt>
      <trkpt lat="45.75947" lon="3.03303">
        <ele>781.0197</ele>
        <time>2021-06-06T07:33:54Z</time>
      </trkpt>
      <trkpt lat="45.75948" lon="3.03302">
        <ele>781.2021</ele>
        <time>2021-06-06T07:33:55Z</time>
      </trkpt>
      <trkpt lat="45.75948" lon="3.03301">
        <ele>781.24384</ele>
        <time>2021-06-06T07:33:56Z</time>
      </trkpt>
      <trkpt lat="45.75948" lon="3.033">
        <ele>781.59814</ele>
        <time>2021-06-06T07:33:57Z</time>
      </trkpt>
      <trkpt lat="45.75948" lon="3.03299">
        <ele>781.88995</ele>
        <time>2021-06-06T07:33:58Z</time>
      </trkpt>
      <trkpt lat="45.75947" lon="3.03298">
        <ele>781.9056</ele>
        <time>2021-06-06T07:33:59Z</time>
      </trkpt>
      <trkpt lat="45.75948" lon="3.03297">
        <ele>782.0151</ele>
        <time>2021-06-06T07:34:00Z</time>
      </trkpt>
      <trkpt lat="45.75948" lon="3.03297">
        <ele>782.0359</ele>
        <time>2021-06-06T07:34:01Z</time>
      </trkpt>
      <trkpt lat="45.75948" lon="3.03296">
        <ele>782.0881</ele>
        <time>2021-06-06T07:34:02Z</time>
      </trkpt>
      <trkpt lat="45.75948" lon="3.03294">
        <ele>782.09326</ele>
        <time>2021-06-06T07:34:03Z</time>
      </trkpt>
      <trkpt lat="45.75947" lon="3.03293">
        <ele>782.3173</ele>
        <time>2021-06-06T07:34:04Z</time>
      </trkpt>
      <trkpt lat="45.75947" lon="3.03291">
        <ele>782.4632</ele>
        <time>2021-06-06T07:34:05Z</time>
      </trkpt>
      <trkpt lat="45.75948" lon="3.0329">
        <ele>782.7446</ele>
        <time>2021-06-06T07:34:06Z</time>
      </trkpt>
      <trkpt lat="45.75948" lon="3.03289">
        <ele>782.8801</ele>
        <time>2021-06-06T07:34:07Z</time>
      </trkpt>
      <trkpt lat="45.75948" lon="3.03287">
        <ele>782.7864</ele>
        <time>2021-06-06T07:34:08Z</time>
      </trkpt>
      <trkpt lat="45.75949" lon="3.03285">
        <ele>783.026</ele>
        <time>2021-06-06T07:34:09Z</time>
      </trkpt>
      <trkpt lat="45.75949" lon="3.03284">
        <ele>783.06775</ele>
        <time>2021-06-06T07:34:10Z</time>
      </trkpt>
      <trkpt lat="45.7595" lon="3.03282">
        <ele>783.3126</ele>
        <time>2021-06-06T07:34:11Z</time>
      </trkpt>
      <trkpt lat="45.7595" lon="3.03281">
        <ele>783.46906</ele>
        <time>2021-06-06T07:34:12Z</time>
      </trkpt>
      <trkpt lat="45.7595" lon="3.0328">
        <ele>783.6566</ele>
        <time>2021-06-06T07:34:13Z</time>
      </trkpt>
      <trkpt lat="45.75951" lon="3.03279">
        <ele>783.7139</ele>
        <time>2021-06-06T07:34:14Z</time>
      </trkpt>
      <trkpt lat="45.75951" lon="3.03278">
        <ele>783.6358</ele>
        <time>2021-06-06T07:34:15Z</time>
      </trkpt>
      <trkpt lat="45.75952" lon="3.03277">
        <ele>783.72955</ele>
        <time>2021-06-06T07:34:16Z</time>
      </trkpt>
      <trkpt lat="45.75953" lon="3.03276">
        <ele>784.0423</ele>
        <time>2021-06-06T07:34:17Z</time>
      </trkpt>
      <trkpt lat="45.75953" lon="3.03274">
        <ele>784.00574</ele>
        <time>2021-06-06T07:34:18Z</time>
      </trkpt>
      <trkpt lat="45.75954" lon="3.03273">
        <ele>784.27673</ele>
        <time>2021-06-06T07:34:19Z</time>
      </trkpt>
      <trkpt lat="45.75955" lon="3.03272">
        <ele>784.19336</ele>
        <time>2021-06-06T07:34:20Z</time>
      </trkpt>
      <trkpt lat="45.75956" lon="3.0327">
        <ele>784.64154</ele>
        <time>2021-06-06T07:34:21Z</time>
      </trkpt>
      <trkpt lat="45.75956" lon="3.03269">
        <ele>784.85</ele>
        <time>2021-06-06T07:34:22Z</time>
      </trkpt>
      <trkpt lat="45.75956" lon="3.03268">
        <ele>785.06366</ele>
        <time>2021-06-06T07:34:23Z</time>
      </trkpt>
      <trkpt lat="45.75957" lon="3.03267">
        <ele>785.22</ele>
        <time>2021-06-06T07:34:24Z</time>
      </trkpt>
      <trkpt lat="45.75958" lon="3.03267">
        <ele>785.0324</ele>
        <time>2021-06-06T07:34:25Z</time>
      </trkpt>
      <trkpt lat="45.75959" lon="3.03267">
        <ele>785.29816</ele>
        <time>2021-06-06T07:34:26Z</time>
      </trkpt>
      <trkpt lat="45.7596" lon="3.03266">
        <ele>785.28253</ele>
        <time>2021-06-06T07:34:27Z</time>
      </trkpt>
      <trkpt lat="45.75961" lon="3.03265">
        <ele>785.1627</ele>
        <time>2021-06-06T07:34:28Z</time>
      </trkpt>
      <trkpt lat="45.75962" lon="3.03263">
        <ele>785.4389</ele>
        <time>2021-06-06T07:34:29Z</time>
      </trkpt>
      <trkpt lat="45.75963" lon="3.03263">
        <ele>785.53784</ele>
        <time>2021-06-06T07:34:30Z</time>
      </trkpt>
      <trkpt lat="45.75964" lon="3.03262">
        <ele>785.7255</ele>
        <time>2021-06-06T07:34:31Z</time>
      </trkpt>
      <trkpt lat="45.75964" lon="3.03261">
        <ele>785.8193</ele>
        <time>2021-06-06T07:34:32Z</time>
      </trkpt>
      <trkpt lat="45.75964" lon="3.0326">
        <ele>785.7307</ele>
        <time>2021-06-06T07:34:33Z</time>
      </trkpt>
      <trkpt lat="45.75965" lon="3.03259">
        <ele>785.80365</ele>
        <time>2021-06-06T07:34:34Z</time>
      </trkpt>
      <trkpt lat="45.75966" lon="3.03258">
        <ele>785.8245</ele>
        <time>2021-06-06T07:34:35Z</time>
      </trkpt>
      <trkpt lat="45.75966" lon="3.03257">
        <ele>785.5535</ele>
        <time>2021-06-06T07:34:36Z</time>
      </trkpt>
      <trkpt lat="45.75967" lon="3.03256">
        <ele>785.67334</ele>
        <time>2021-06-06T07:34:37Z</time>
      </trkpt>
      <trkpt lat="45.75967" lon="3.03256">
        <ele>785.7568</ele>
        <time>2021-06-06T07:34:38Z</time>
      </trkpt>
      <trkpt lat="45.75968" lon="3.03256">
        <ele>786.0278</ele>
        <time>2021-06-06T07:34:39Z</time>
      </trkpt>
      <trkpt lat="45.75969" lon="3.03255">
        <ele>786.21533</ele>
        <time>2021-06-06T07:34:40Z</time>
      </trkpt>
      <trkpt lat="45.75969" lon="3.03255">
        <ele>786.50714</ele>
        <time>2021-06-06T07:34:41Z</time>
      </trkpt>
      <trkpt lat="45.75971" lon="3.03254">
        <ele>786.43945</ele>
        <time>2021-06-06T07:34:42Z</time>
      </trkpt>
      <trkpt lat="45.75971" lon="3.03253">
        <ele>786.3508</ele>
        <time>2021-06-06T07:34:43Z</time>
      </trkpt>
      <trkpt lat="45.75972" lon="3.03253">
        <ele>786.5645</ele>
        <time>2021-06-06T07:34:44Z</time>
      </trkpt>
      <trkpt lat="45.75973" lon="3.03252">
        <ele>786.7261</ele>
        <time>2021-06-06T07:34:45Z</time>
      </trkpt>
      <trkpt lat="45.75974" lon="3.0325">
        <ele>786.8407</ele>
        <time>2021-06-06T07:34:46Z</time>
      </trkpt>
      <trkpt lat="45.75974" lon="3.03249">
        <ele>786.6583</ele>
        <time>2021-06-06T07:34:47Z</time>
      </trkpt>
      <trkpt lat="45.75974" lon="3.03249">
        <ele>786.7052</ele>
        <time>2021-06-06T07:34:48Z</time>
      </trkpt>
      <trkpt lat="45.75975" lon="3.03249">
        <ele>786.8563</ele>
        <time>2021-06-06T07:34:49Z</time>
      </trkpt>
      <trkpt lat="45.75975" lon="3.03248">
        <ele>787.07526</ele>
        <time>2021-06-06T07:34:50Z</time>
      </trkpt>
      <trkpt lat="45.75976" lon="3.03248">
        <ele>787.1065</ele>
        <time>2021-06-06T07:34:51Z</time>
      </trkpt>
      <trkpt lat="45.75977" lon="3.03247">
        <ele>787.11694</ele>
        <time>2021-06-06T07:34:52Z</time>
      </trkpt>
      <trkpt lat="45.75977" lon="3.03247">
        <ele>787.0335</ele>
        <time>2021-06-06T07:34:53Z</time>
      </trkpt>
      <trkpt lat="45.75977" lon="3.03246">
        <ele>787.12213</ele>
        <time>2021-06-06T07:34:54Z</time>
      </trkpt>
      <trkpt lat="45.75978" lon="3.03245">
        <ele>787.0387</ele>
        <time>2021-06-06T07:34:55Z</time>
      </trkpt>
      <trkpt lat="45.75979" lon="3.03244">
        <ele>786.9502</ele>
        <time>2021-06-06T07:34:56Z</time>
      </trkpt>
      <trkpt lat="45.75979" lon="3.03244">
        <ele>787.00226</ele>
        <time>2021-06-06T07:34:57Z</time>
      </trkpt>
      <trkpt lat="45.7598" lon="3.03243">
        <ele>787.0179</ele>
        <time>2021-06-06T07:34:58Z</time>
      </trkpt>
      <trkpt lat="45.7598" lon="3.03242">
        <ele>787.0387</ele>
        <time>2021-06-06T07:34:59Z</time>
      </trkpt>
      <trkpt lat="45.7598" lon="3.03241">
        <ele>786.9241</ele>
        <time>2021-06-06T07:35:00Z</time>
      </trkpt>
      <trkpt lat="45.75981" lon="3.03241">
        <ele>786.87195</ele>
        <time>2021-06-06T07:35:01Z</time>
      </trkpt>
      <trkpt lat="45.75982" lon="3.0324">
        <ele>786.9032</ele>
        <time>2021-06-06T07:35:02Z</time>
      </trkpt>
      <trkpt lat="45.75982" lon="3.03239">
        <ele>786.898</ele>
        <time>2021-06-06T07:35:03Z</time>
      </trkpt>
      <trkpt lat="45.75983" lon="3.03238">
        <ele>787.2889</ele>
        <time>2021-06-06T07:35:04Z</time>
      </trkpt>
      <trkpt lat="45.75984" lon="3.03237">
        <ele>787.2993</ele>
        <time>2021-06-06T07:35:05Z</time>
      </trkpt>
      <trkpt lat="45.75985" lon="3.03236">
        <ele>787.0909</ele>
        <time>2021-06-06T07:35:06Z</time>
      </trkpt>
      <trkpt lat="45.75985" lon="3.03235">
        <ele>787.1482</ele>
        <time>2021-06-06T07:35:07Z</time>
      </trkpt>
      <trkpt lat="45.75987" lon="3.03234">
        <ele>787.17944</ele>
        <time>2021-06-06T07:35:08Z</time>
      </trkpt>
      <trkpt lat="45.75987" lon="3.03233">
        <ele>787.13776</ele>
        <time>2021-06-06T07:35:09Z</time>
      </trkpt>
      <trkpt lat="45.75988" lon="3.03231">
        <ele>787.6537</ele>
        <time>2021-06-06T07:35:10Z</time>
      </trkpt>
      <trkpt lat="45.75989" lon="3.03231">
        <ele>787.7996</ele>
        <time>2021-06-06T07:35:11Z</time>
      </trkpt>
      <trkpt lat="45.7599" lon="3.03229">
        <ele>787.76825</ele>
        <time>2021-06-06T07:35:12Z</time>
      </trkpt>
      <trkpt lat="45.75991" lon="3.03229">
        <ele>787.82043</ele>
        <time>2021-06-06T07:35:13Z</time>
      </trkpt>
      <trkpt lat="45.75992" lon="3.03227">
        <ele>787.9299</ele>
        <time>2021-06-06T07:35:14Z</time>
      </trkpt>
      <trkpt lat="45.75992" lon="3.03226">
        <ele>787.9351</ele>
        <time>2021-06-06T07:35:15Z</time>
      </trkpt>
      <trkpt lat="45.75993" lon="3.03225">
        <ele>787.9611</ele>
        <time>2021-06-06T07:35:16Z</time>
      </trkpt>
      <trkpt lat="45.75993" lon="3.03224">
        <ele>787.9872</ele>
        <time>2021-06-06T07:35:17Z</time>
      </trkpt>
      <trkpt lat="45.75994" lon="3.03223">
        <ele>788.2269</ele>
        <time>2021-06-06T07:35:18Z</time>
      </trkpt>
      <trkpt lat="45.75995" lon="3.03222">
        <ele>788.3884</ele>
        <time>2021-06-06T07:35:19Z</time>
      </trkpt>
      <trkpt lat="45.75996" lon="3.03221">
        <ele>788.1591</ele>
        <time>2021-06-06T07:35:20Z</time>
      </trkpt>
      <trkpt lat="45.75996" lon="3.0322">
        <ele>788.37805</ele>
        <time>2021-06-06T07:35:21Z</time>
      </trkpt>
      <trkpt lat="45.75997" lon="3.03219">
        <ele>789.08154</ele>
        <time>2021-06-06T07:35:22Z</time>
      </trkpt>
      <trkpt lat="45.75998" lon="3.03219">
        <ele>789.2379</ele>
        <time>2021-06-06T07:35:23Z</time>
      </trkpt>
      <trkpt lat="45.75999" lon="3.03218">
        <ele>788.93567</ele>
        <time>2021-06-06T07:35:24Z</time>
      </trkpt>
      <trkpt lat="45.76" lon="3.03218">
        <ele>788.7585</ele>
        <time>2021-06-06T07:35:25Z</time>
      </trkpt>
      <trkpt lat="45.76001" lon="3.03217">
        <ele>788.87305</ele>
        <time>2021-06-06T07:35:26Z</time>
      </trkpt>
      <trkpt lat="45.76001" lon="3.03217">
        <ele>788.51874</ele>
        <time>2021-06-06T07:35:27Z</time>
      </trkpt>
      <trkpt lat="45.76002" lon="3.03216">
        <ele>788.3155</ele>
        <time>2021-06-06T07:35:28Z</time>
      </trkpt>
      <trkpt lat="45.76003" lon="3.03215">
        <ele>788.2269</ele>
        <time>2021-06-06T07:35:29Z</time>
      </trkpt>
      <trkpt lat="45.76005" lon="3.03214">
        <ele>788.11224</ele>
        <time>2021-06-06T07:35:30Z</time>
      </trkpt>
      <trkpt lat="45.76006" lon="3.03214">
        <ele>787.9351</ele>
        <time>2021-06-06T07:35:31Z</time>
      </trkpt>
      <trkpt lat="45.76006" lon="3.03213">
        <ele>788.1175</ele>
        <time>2021-06-06T07:35:32Z</time>
      </trkpt>
      <trkpt lat="45.76008" lon="3.03212">
        <ele>788.04974</ele>
        <time>2021-06-06T07:35:33Z</time>
      </trkpt>
      <trkpt lat="45.76008" lon="3.03211">
        <ele>787.8621</ele>
        <time>2021-06-06T07:35:34Z</time>
      </trkpt>
      <trkpt lat="45.76008" lon="3.0321">
        <ele>787.68494</ele>
        <time>2021-06-06T07:35:35Z</time>
      </trkpt>
      <trkpt lat="45.76009" lon="3.0321">
        <ele>787.7526</ele>
        <time>2021-06-06T07:35:36Z</time>
      </trkpt>
      <trkpt lat="45.76009" lon="3.0321">
        <ele>787.711</ele>
        <time>2021-06-06T07:35:37Z</time>
      </trkpt>
      <trkpt lat="45.76009" lon="3.0321">
        <ele>787.60675</ele>
        <time>2021-06-06T07:35:38Z</time>
      </trkpt>
      <trkpt lat="45.7601" lon="3.0321">
        <ele>787.43475</ele>
        <time>2021-06-06T07:35:39Z</time>
      </trkpt>
      <trkpt lat="45.76011" lon="3.03209">
        <ele>787.34094</ele>
        <time>2021-06-06T07:35:40Z</time>
      </trkpt>
      <trkpt lat="45.76012" lon="3.03208">
        <ele>787.43475</ele>
        <time>2021-06-06T07:35:41Z</time>
      </trkpt>
      <trkpt lat="45.76013" lon="3.03208">
        <ele>787.31494</ele>
        <time>2021-06-06T07:35:42Z</time>
      </trkpt>
      <trkpt lat="45.76014" lon="3.03207">
        <ele>787.44</ele>
        <time>2021-06-06T07:35:43Z</time>
      </trkpt>
      <trkpt lat="45.76015" lon="3.03207">
        <ele>787.41394</ele>
        <time>2021-06-06T07:35:44Z</time>
      </trkpt>
      <trkpt lat="45.76016" lon="3.03207">
        <ele>787.19507</ele>
        <time>2021-06-06T07:35:45Z</time>
      </trkpt>
      <trkpt lat="45.76016" lon="3.03206">
        <ele>787.20544</ele>
        <time>2021-06-06T07:35:46Z</time>
      </trkpt>
      <trkpt lat="45.76017" lon="3.03205">
        <ele>787.21594</ele>
        <time>2021-06-06T07:35:47Z</time>
      </trkpt>
      <trkpt lat="45.76018" lon="3.03205">
        <ele>787.242</ele>
        <time>2021-06-06T07:35:48Z</time>
      </trkpt>
      <trkpt lat="45.76019" lon="3.03204">
        <ele>787.50256</ele>
        <time>2021-06-06T07:35:49Z</time>
      </trkpt>
      <trkpt lat="45.7602" lon="3.03203">
        <ele>787.74744</ele>
        <time>2021-06-06T07:35:50Z</time>
      </trkpt>
      <trkpt lat="45.76022" lon="3.03202">
        <ele>787.3462</ele>
        <time>2021-06-06T07:35:52Z</time>
      </trkpt>
      <trkpt lat="45.76023" lon="3.03201">
        <ele>787.3514</ele>
        <time>2021-06-06T07:35:53Z</time>
      </trkpt>
      <trkpt lat="45.76024" lon="3.032">
        <ele>787.60675</ele>
        <time>2021-06-06T07:35:54Z</time>
      </trkpt>
      <trkpt lat="45.76024" lon="3.03199">
        <ele>787.5286</ele>
        <time>2021-06-06T07:35:55Z</time>
      </trkpt>
      <trkpt lat="45.76025" lon="3.03199">
        <ele>787.62756</ele>
        <time>2021-06-06T07:35:56Z</time>
      </trkpt>
      <trkpt lat="45.76027" lon="3.03198">
        <ele>787.7266</ele>
        <time>2021-06-06T07:35:57Z</time>
      </trkpt>
      <trkpt lat="45.76028" lon="3.03197">
        <ele>787.6901</ele>
        <time>2021-06-06T07:35:58Z</time>
      </trkpt>
      <trkpt lat="45.76029" lon="3.03196">
        <ele>787.70575</ele>
        <time>2021-06-06T07:35:59Z</time>
      </trkpt>
      <trkpt lat="45.7603" lon="3.03195">
        <ele>787.7944</ele>
        <time>2021-06-06T07:36:00Z</time>
      </trkpt>
      <trkpt lat="45.7603" lon="3.03195">
        <ele>787.6537</ele>
        <time>2021-06-06T07:36:01Z</time>
      </trkpt>
      <trkpt lat="45.76031" lon="3.03194">
        <ele>787.40875</ele>
        <time>2021-06-06T07:36:02Z</time>
      </trkpt>
      <trkpt lat="45.76032" lon="3.03193">
        <ele>787.2524</ele>
        <time>2021-06-06T07:36:03Z</time>
      </trkpt>
      <trkpt lat="45.76033" lon="3.03192">
        <ele>787.2889</ele>
        <time>2021-06-06T07:36:04Z</time>
      </trkpt>
      <trkpt lat="45.76033" lon="3.0319">
        <ele>787.43475</ele>
        <time>2021-06-06T07:36:05Z</time>
      </trkpt>
      <trkpt lat="45.76034" lon="3.03189">
        <ele>787.3931</ele>
        <time>2021-06-06T07:36:06Z</time>
      </trkpt>
      <trkpt lat="45.76035" lon="3.03189">
        <ele>787.3879</ele>
        <time>2021-06-06T07:36:07Z</time>
      </trkpt>
      <trkpt lat="45.76035" lon="3.03187">
        <ele>787.5546</ele>
        <time>2021-06-06T07:36:08Z</time>
      </trkpt>
      <trkpt lat="45.76035" lon="3.03187">
        <ele>787.60675</ele>
        <time>2021-06-06T07:36:09Z</time>
      </trkpt>
      <trkpt lat="45.76036" lon="3.03186">
        <ele>787.4816</ele>
        <time>2021-06-06T07:36:10Z</time>
      </trkpt>
      <trkpt lat="45.76036" lon="3.03186">
        <ele>787.64325</ele>
        <time>2021-06-06T07:36:11Z</time>
      </trkpt>
      <trkpt lat="45.76036" lon="3.03186">
        <ele>787.74225</ele>
        <time>2021-06-06T07:36:12Z</time>
      </trkpt>
      <trkpt lat="45.76038" lon="3.03185">
        <ele>787.54425</ele>
        <time>2021-06-06T07:36:13Z</time>
      </trkpt>
      <trkpt lat="45.76038" lon="3.03184">
        <ele>787.7266</ele>
        <time>2021-06-06T07:36:14Z</time>
      </trkpt>
      <trkpt lat="45.76039" lon="3.03182">
        <ele>787.89856</ele>
        <time>2021-06-06T07:36:15Z</time>
      </trkpt>
      <trkpt lat="45.7604" lon="3.03181">
        <ele>788.16956</ele>
        <time>2021-06-06T07:36:16Z</time>
      </trkpt>
      <trkpt lat="45.76041" lon="3.0318">
        <ele>788.71155</ele>
        <time>2021-06-06T07:36:17Z</time>
      </trkpt>
      <trkpt lat="45.76043" lon="3.03178">
        <ele>788.47186</ele>
        <time>2021-06-06T07:36:18Z</time>
      </trkpt>
      <trkpt lat="45.76044" lon="3.03177">
        <ele>788.04974</ele>
        <time>2021-06-06T07:36:19Z</time>
      </trkpt>
      <trkpt lat="45.76045" lon="3.03175">
        <ele>788.352</ele>
        <time>2021-06-06T07:36:20Z</time>
      </trkpt>
      <trkpt lat="45.76045" lon="3.03173">
        <ele>788.5292</ele>
        <time>2021-06-06T07:36:21Z</time>
      </trkpt>
      <trkpt lat="45.76046" lon="3.03172">
        <ele>788.61255</ele>
        <time>2021-06-06T07:36:22Z</time>
      </trkpt>
      <trkpt lat="45.76047" lon="3.03169">
        <ele>788.5708</ele>
        <time>2021-06-06T07:36:24Z</time>
      </trkpt>
      <trkpt lat="45.76048" lon="3.03168">
        <ele>788.5083</ele>
        <time>2021-06-06T07:36:25Z</time>
      </trkpt>
      <trkpt lat="45.76048" lon="3.03166">
        <ele>788.5448</ele>
        <time>2021-06-06T07:36:26Z</time>
      </trkpt>
      <trkpt lat="45.76049" lon="3.03164">
        <ele>788.6438</ele>
        <time>2021-06-06T07:36:27Z</time>
      </trkpt>
      <trkpt lat="45.76049" lon="3.03163">
        <ele>788.81055</ele>
        <time>2021-06-06T07:36:28Z</time>
      </trkpt>
      <trkpt lat="45.76049" lon="3.03161">
        <ele>788.85223</ele>
        <time>2021-06-06T07:36:29Z</time>
      </trkpt>
      <trkpt lat="45.7605" lon="3.0316">
        <ele>788.7689</ele>
        <time>2021-06-06T07:36:30Z</time>
      </trkpt>
      <trkpt lat="45.7605" lon="3.03159">
        <ele>788.6803</ele>
        <time>2021-06-06T07:36:31Z</time>
      </trkpt>
      <trkpt lat="45.7605" lon="3.03158">
        <ele>788.80536</ele>
        <time>2021-06-06T07:36:32Z</time>
      </trkpt>
      <trkpt lat="45.76051" lon="3.03156">
        <ele>788.8314</ele>
        <time>2021-06-06T07:36:33Z</time>
      </trkpt>
      <trkpt lat="45.76052" lon="3.03155">
        <ele>788.9044</ele>
        <time>2021-06-06T07:36:34Z</time>
      </trkpt>
      <trkpt lat="45.76053" lon="3.03154">
        <ele>789.1597</ele>
        <time>2021-06-06T07:36:35Z</time>
      </trkpt>
      <trkpt lat="45.76054" lon="3.03152">
        <ele>789.25354</ele>
        <time>2021-06-06T07:36:37Z</time>
      </trkpt>
      <trkpt lat="45.76054" lon="3.03152">
        <ele>789.25354</ele>
        <time>2021-06-06T07:36:37Z</time>
      </trkpt>
      <trkpt lat="45.76054" lon="3.03151">
        <ele>789.20667</ele>
        <time>2021-06-06T07:36:38Z</time>
      </trkpt>
      <trkpt lat="45.76056" lon="3.03149">
        <ele>789.5349</ele>
        <time>2021-06-06T07:36:39Z</time>
      </trkpt>
      <trkpt lat="45.76056" lon="3.03148">
        <ele>789.4203</ele>
        <time>2021-06-06T07:36:40Z</time>
      </trkpt>
      <trkpt lat="45.76057" lon="3.03145">
        <ele>789.40985</ele>
        <time>2021-06-06T07:36:41Z</time>
      </trkpt>
      <trkpt lat="45.76057" lon="3.03143">
        <ele>789.6027</ele>
        <time>2021-06-06T07:36:43Z</time>
      </trkpt>
      <trkpt lat="45.76057" lon="3.03142">
        <ele>789.75385</ele>
        <time>2021-06-06T07:36:44Z</time>
      </trkpt>
      <trkpt lat="45.76058" lon="3.03142">
        <ele>789.7486</ele>
        <time>2021-06-06T07:36:45Z</time>
      </trkpt>
      <trkpt lat="45.76058" lon="3.0314">
        <ele>789.57135</ele>
        <time>2021-06-06T07:36:46Z</time>
      </trkpt>
      <trkpt lat="45.76057" lon="3.03138">
        <ele>789.4776</ele>
        <time>2021-06-06T07:36:47Z</time>
      </trkpt>
      <trkpt lat="45.76057" lon="3.03136">
        <ele>789.7121</ele>
        <time>2021-06-06T07:36:48Z</time>
      </trkpt>
      <trkpt lat="45.76057" lon="3.03134">
        <ele>789.7278</ele>
        <time>2021-06-06T07:36:49Z</time>
      </trkpt>
      <trkpt lat="45.76057" lon="3.03132">
        <ele>789.71735</ele>
        <time>2021-06-06T07:36:50Z</time>
      </trkpt>
      <trkpt lat="45.76058" lon="3.0313">
        <ele>789.95184</ele>
        <time>2021-06-06T07:36:51Z</time>
      </trkpt>
      <trkpt lat="45.76059" lon="3.03129">
        <ele>789.8789</ele>
        <time>2021-06-06T07:36:52Z</time>
      </trkpt>
      <trkpt lat="45.76059" lon="3.03128">
        <ele>789.7278</ele>
        <time>2021-06-06T07:36:53Z</time>
      </trkpt>
      <trkpt lat="45.76059" lon="3.03127">
        <ele>789.96747</ele>
        <time>2021-06-06T07:36:54Z</time>
      </trkpt>
      <trkpt lat="45.7606" lon="3.03126">
        <ele>789.8737</ele>
        <time>2021-06-06T07:36:55Z</time>
      </trkpt>
      <trkpt lat="45.7606" lon="3.03125">
        <ele>789.9362</ele>
        <time>2021-06-06T07:36:56Z</time>
      </trkpt>
      <trkpt lat="45.7606" lon="3.03123">
        <ele>790.18634</ele>
        <time>2021-06-06T07:36:57Z</time>
      </trkpt>
      <trkpt lat="45.7606" lon="3.03121">
        <ele>790.5564</ele>
        <time>2021-06-06T07:36:58Z</time>
      </trkpt>
      <trkpt lat="45.7606" lon="3.0312">
        <ele>790.37396</ele>
        <time>2021-06-06T07:36:59Z</time>
      </trkpt>
      <trkpt lat="45.76059" lon="3.03117">
        <ele>790.4886</ele>
        <time>2021-06-06T07:37:00Z</time>
      </trkpt>
      <trkpt lat="45.76059" lon="3.03116">
        <ele>790.5668</ele>
        <time>2021-06-06T07:37:01Z</time>
      </trkpt>
      <trkpt lat="45.76059" lon="3.03114">
        <ele>790.24365</ele>
        <time>2021-06-06T07:37:02Z</time>
      </trkpt>
      <trkpt lat="45.76058" lon="3.03112">
        <ele>790.37396</ele>
        <time>2021-06-06T07:37:03Z</time>
      </trkpt>
      <trkpt lat="45.76057" lon="3.0311">
        <ele>790.4938</ele>
        <time>2021-06-06T07:37:04Z</time>
      </trkpt>
      <trkpt lat="45.76056" lon="3.03109">
        <ele>790.3479</ele>
        <time>2021-06-06T07:37:05Z</time>
      </trkpt>
      <trkpt lat="45.76056" lon="3.03107">
        <ele>790.5042</ele>
        <time>2021-06-06T07:37:06Z</time>
      </trkpt>
      <trkpt lat="45.76055" lon="3.03105">
        <ele>790.8274</ele>
        <time>2021-06-06T07:37:07Z</time>
      </trkpt>
      <trkpt lat="45.76054" lon="3.03104">
        <ele>790.9055</ele>
        <time>2021-06-06T07:37:08Z</time>
      </trkpt>
      <trkpt lat="45.76053" lon="3.03103">
        <ele>791.0045</ele>
        <time>2021-06-06T07:37:09Z</time>
      </trkpt>
      <trkpt lat="45.76053" lon="3.03102">
        <ele>791.01495</ele>
        <time>2021-06-06T07:37:10Z</time>
      </trkpt>
      <trkpt lat="45.76052" lon="3.031">
        <ele>790.8326</ele>
        <time>2021-06-06T07:37:11Z</time>
      </trkpt>
      <trkpt lat="45.76052" lon="3.03098">
        <ele>790.9837</ele>
        <time>2021-06-06T07:37:12Z</time>
      </trkpt>
      <trkpt lat="45.76052" lon="3.03097">
        <ele>790.88464</ele>
        <time>2021-06-06T07:37:13Z</time>
      </trkpt>
      <trkpt lat="45.76052" lon="3.03095">
        <ele>791.1661</ele>
        <time>2021-06-06T07:37:14Z</time>
      </trkpt>
      <trkpt lat="45.76052" lon="3.03093">
        <ele>791.2234</ele>
        <time>2021-06-06T07:37:15Z</time>
      </trkpt>
      <trkpt lat="45.76051" lon="3.03091">
        <ele>791.38495</ele>
        <time>2021-06-06T07:37:16Z</time>
      </trkpt>
      <trkpt lat="45.76051" lon="3.03089">
        <ele>791.5465</ele>
        <time>2021-06-06T07:37:17Z</time>
      </trkpt>
      <trkpt lat="45.76051" lon="3.03088">
        <ele>791.8852</ele>
        <time>2021-06-06T07:37:18Z</time>
      </trkpt>
      <trkpt lat="45.76051" lon="3.03087">
        <ele>791.9373</ele>
        <time>2021-06-06T07:37:19Z</time>
      </trkpt>
      <trkpt lat="45.7605" lon="3.03085">
        <ele>791.88</ele>
        <time>2021-06-06T07:37:20Z</time>
      </trkpt>
      <trkpt lat="45.76049" lon="3.03084">
        <ele>791.6559</ele>
        <time>2021-06-06T07:37:21Z</time>
      </trkpt>
      <trkpt lat="45.76048" lon="3.03083">
        <ele>791.7445</ele>
        <time>2021-06-06T07:37:22Z</time>
      </trkpt>
      <trkpt lat="45.76048" lon="3.03083">
        <ele>791.64026</ele>
        <time>2021-06-06T07:37:23Z</time>
      </trkpt>
      <trkpt lat="45.76047" lon="3.03082">
        <ele>791.70807</ele>
        <time>2021-06-06T07:37:24Z</time>
      </trkpt>
      <trkpt lat="45.76047" lon="3.03081">
        <ele>791.682</ele>
        <time>2021-06-06T07:37:25Z</time>
      </trkpt>
      <trkpt lat="45.76047" lon="3.0308">
        <ele>791.7445</ele>
        <time>2021-06-06T07:37:26Z</time>
      </trkpt>
      <trkpt lat="45.76047" lon="3.03078">
        <ele>791.7341</ele>
        <time>2021-06-06T07:37:27Z</time>
      </trkpt>
      <trkpt lat="45.76046" lon="3.03077">
        <ele>792.04156</ele>
        <time>2021-06-06T07:37:28Z</time>
      </trkpt>
      <trkpt lat="45.76045" lon="3.03075">
        <ele>791.8383</ele>
        <time>2021-06-06T07:37:29Z</time>
      </trkpt>
      <trkpt lat="45.76045" lon="3.03076">
        <ele>792.11975</ele>
        <time>2021-06-06T07:37:31Z</time>
      </trkpt>
      <trkpt lat="45.76045" lon="3.03076">
        <ele>792.18744</ele>
        <time>2021-06-06T07:37:32Z</time>
      </trkpt>
      <trkpt lat="45.76045" lon="3.03076">
        <ele>792.18744</ele>
        <time>2021-06-06T07:37:32Z</time>
      </trkpt>
      <trkpt lat="45.76045" lon="3.03076">
        <ele>792.18744</ele>
        <time>2021-06-06T07:37:32Z</time>
      </trkpt>
      <trkpt lat="45.76042" lon="3.0307">
        <ele>792.3334</ele>
        <time>2021-06-06T07:37:42Z</time>
      </trkpt>
      <trkpt lat="45.76041" lon="3.03069">
        <ele>792.3438</ele>
        <time>2021-06-06T07:37:43Z</time>
      </trkpt>
      <trkpt lat="45.76041" lon="3.03068">
        <ele>792.3021</ele>
        <time>2021-06-06T07:37:44Z</time>
      </trkpt>
      <trkpt lat="45.7604" lon="3.03066">
        <ele>792.2083</ele>
        <time>2021-06-06T07:37:45Z</time>
      </trkpt>
      <trkpt lat="45.7604" lon="3.03065">
        <ele>792.4011</ele>
        <time>2021-06-06T07:37:46Z</time>
      </trkpt>
      <trkpt lat="45.76039" lon="3.03065">
        <ele>792.99524</ele>
        <time>2021-06-06T07:37:47Z</time>
      </trkpt>
      <trkpt lat="45.76038" lon="3.03063">
        <ele>792.70337</ele>
        <time>2021-06-06T07:37:48Z</time>
      </trkpt>
      <trkpt lat="45.76038" lon="3.03062">
        <ele>792.61475</ele>
        <time>2021-06-06T07:37:49Z</time>
      </trkpt>
      <trkpt lat="45.76038" lon="3.0306">
        <ele>792.7086</ele>
        <time>2021-06-06T07:37:50Z</time>
      </trkpt>
      <trkpt lat="45.76038" lon="3.03058">
        <ele>792.61475</ele>
        <time>2021-06-06T07:37:51Z</time>
      </trkpt>
      <trkpt lat="45.76038" lon="3.03057">
        <ele>792.99524</ele>
        <time>2021-06-06T07:37:52Z</time>
      </trkpt>
      <trkpt lat="45.76037" lon="3.03056">
        <ele>792.79724</ele>
        <time>2021-06-06T07:37:53Z</time>
      </trkpt>
      <trkpt lat="45.76037" lon="3.03055">
        <ele>792.88574</ele>
        <time>2021-06-06T07:37:54Z</time>
      </trkpt>
      <trkpt lat="45.76036" lon="3.03054">
        <ele>792.964</ele>
        <time>2021-06-06T07:37:55Z</time>
      </trkpt>
      <trkpt lat="45.76035" lon="3.03052">
        <ele>792.85974</ele>
        <time>2021-06-06T07:37:56Z</time>
      </trkpt>
      <trkpt lat="45.76035" lon="3.03051">
        <ele>793.03687</ele>
        <time>2021-06-06T07:37:57Z</time>
      </trkpt>
      <trkpt lat="45.76035" lon="3.03049">
        <ele>793.235</ele>
        <time>2021-06-06T07:37:58Z</time>
      </trkpt>
      <trkpt lat="45.76034" lon="3.03048">
        <ele>793.2506</ele>
        <time>2021-06-06T07:37:59Z</time>
      </trkpt>
      <trkpt lat="45.76034" lon="3.03047">
        <ele>793.22455</ele>
        <time>2021-06-06T07:38:00Z</time>
      </trkpt>
      <trkpt lat="45.76034" lon="3.03047">
        <ele>793.4173</ele>
        <time>2021-06-06T07:38:01Z</time>
      </trkpt>
      <trkpt lat="45.76033" lon="3.03045">
        <ele>793.38605</ele>
        <time>2021-06-06T07:38:02Z</time>
      </trkpt>
      <trkpt lat="45.76033" lon="3.03043">
        <ele>793.4747</ele>
        <time>2021-06-06T07:38:03Z</time>
      </trkpt>
      <trkpt lat="45.76032" lon="3.03042">
        <ele>793.6206</ele>
        <time>2021-06-06T07:38:04Z</time>
      </trkpt>
      <trkpt lat="45.76031" lon="3.03041">
        <ele>793.55804</ele>
        <time>2021-06-06T07:38:05Z</time>
      </trkpt>
      <trkpt lat="45.7603" lon="3.0304">
        <ele>793.73517</ele>
        <time>2021-06-06T07:38:06Z</time>
      </trkpt>
      <trkpt lat="45.7603" lon="3.03039">
        <ele>793.73517</ele>
        <time>2021-06-06T07:38:07Z</time>
      </trkpt>
      <trkpt lat="45.76028" lon="3.03038">
        <ele>793.65704</ele>
        <time>2021-06-06T07:38:08Z</time>
      </trkpt>
      <trkpt lat="45.76028" lon="3.03036">
        <ele>793.79254</ele>
        <time>2021-06-06T07:38:09Z</time>
      </trkpt>
      <trkpt lat="45.76028" lon="3.03035">
        <ele>793.64667</ele>
        <time>2021-06-06T07:38:10Z</time>
      </trkpt>
      <trkpt lat="45.76027" lon="3.03033">
        <ele>793.6779</ele>
        <time>2021-06-06T07:38:11Z</time>
      </trkpt>
      <trkpt lat="45.76027" lon="3.03032">
        <ele>794.0323</ele>
        <time>2021-06-06T07:38:12Z</time>
      </trkpt>
      <trkpt lat="45.76026" lon="3.03031">
        <ele>793.80817</ele>
        <time>2021-06-06T07:38:13Z</time>
      </trkpt>
      <trkpt lat="45.76025" lon="3.03031">
        <ele>793.73</ele>
        <time>2021-06-06T07:38:14Z</time>
      </trkpt>
      <trkpt lat="45.76024" lon="3.0303">
        <ele>793.92804</ele>
        <time>2021-06-06T07:38:15Z</time>
      </trkpt>
      <trkpt lat="45.76024" lon="3.03029">
        <ele>793.90204</ele>
        <time>2021-06-06T07:38:16Z</time>
      </trkpt>
      <trkpt lat="45.76024" lon="3.03027">
        <ele>793.9958</ele>
        <time>2021-06-06T07:38:17Z</time>
      </trkpt>
      <trkpt lat="45.76024" lon="3.03025">
        <ele>793.8759</ele>
        <time>2021-06-06T07:38:18Z</time>
      </trkpt>
      <trkpt lat="45.76023" lon="3.03024">
        <ele>793.8864</ele>
        <time>2021-06-06T07:38:19Z</time>
      </trkpt>
      <trkpt lat="45.76024" lon="3.03023">
        <ele>793.9385</ele>
        <time>2021-06-06T07:38:20Z</time>
      </trkpt>
      <trkpt lat="45.76023" lon="3.03021">
        <ele>794.07916</ele>
        <time>2021-06-06T07:38:21Z</time>
      </trkpt>
      <trkpt lat="45.76023" lon="3.0302">
        <ele>793.91766</ele>
        <time>2021-06-06T07:38:22Z</time>
      </trkpt>
      <trkpt lat="45.76023" lon="3.0302">
        <ele>794.05835</ele>
        <time>2021-06-06T07:38:23Z</time>
      </trkpt>
      <trkpt lat="45.76022" lon="3.03019">
        <ele>794.3085</ele>
        <time>2021-06-06T07:38:24Z</time>
      </trkpt>
      <trkpt lat="45.76021" lon="3.03018">
        <ele>794.2095</ele>
        <time>2021-06-06T07:38:25Z</time>
      </trkpt>
      <trkpt lat="45.76021" lon="3.03017">
        <ele>794.5169</ele>
        <time>2021-06-06T07:38:26Z</time>
      </trkpt>
      <trkpt lat="45.7602" lon="3.03016">
        <ele>794.6993</ele>
        <time>2021-06-06T07:38:27Z</time>
      </trkpt>
      <trkpt lat="45.76019" lon="3.03015">
        <ele>794.6368</ele>
        <time>2021-06-06T07:38:28Z</time>
      </trkpt>
      <trkpt lat="45.76019" lon="3.03014">
        <ele>794.5899</ele>
        <time>2021-06-06T07:38:29Z</time>
      </trkpt>
      <trkpt lat="45.76019" lon="3.03014">
        <ele>794.46484</ele>
        <time>2021-06-06T07:38:30Z</time>
      </trkpt>
      <trkpt lat="45.76019" lon="3.03014">
        <ele>794.5377</ele>
        <time>2021-06-06T07:38:31Z</time>
      </trkpt>
      <trkpt lat="45.76017" lon="3.03012">
        <ele>794.5951</ele>
        <time>2021-06-06T07:38:32Z</time>
      </trkpt>
      <trkpt lat="45.76016" lon="3.0301">
        <ele>794.6472</ele>
        <time>2021-06-06T07:38:33Z</time>
      </trkpt>
      <trkpt lat="45.76014" lon="3.03009">
        <ele>794.4231</ele>
        <time>2021-06-06T07:38:34Z</time>
      </trkpt>
      <trkpt lat="45.76014" lon="3.03008">
        <ele>794.38666</ele>
        <time>2021-06-06T07:38:35Z</time>
      </trkpt>
      <trkpt lat="45.76013" lon="3.03008">
        <ele>794.4387</ele>
        <time>2021-06-06T07:38:36Z</time>
      </trkpt>
      <trkpt lat="45.76013" lon="3.03006">
        <ele>794.5169</ele>
        <time>2021-06-06T07:38:37Z</time>
      </trkpt>
      <trkpt lat="45.76012" lon="3.03005">
        <ele>794.46484</ele>
        <time>2021-06-06T07:38:38Z</time>
      </trkpt>
      <trkpt lat="45.76012" lon="3.03004">
        <ele>794.60034</ele>
        <time>2021-06-06T07:38:39Z</time>
      </trkpt>
      <trkpt lat="45.76011" lon="3.03003">
        <ele>794.6732</ele>
        <time>2021-06-06T07:38:40Z</time>
      </trkpt>
      <trkpt lat="45.76011" lon="3.03002">
        <ele>794.6524</ele>
        <time>2021-06-06T07:38:41Z</time>
      </trkpt>
      <trkpt lat="45.7601" lon="3.03001">
        <ele>794.75146</ele>
        <time>2021-06-06T07:38:42Z</time>
      </trkpt>
      <trkpt lat="45.76009" lon="3.03001">
        <ele>794.54297</ele>
        <time>2021-06-06T07:38:43Z</time>
      </trkpt>
      <trkpt lat="45.76009" lon="3.03">
        <ele>794.5221</ele>
        <time>2021-06-06T07:38:44Z</time>
      </trkpt>
      <trkpt lat="45.76008" lon="3.02998">
        <ele>794.77747</ele>
        <time>2021-06-06T07:38:45Z</time>
      </trkpt>
      <trkpt lat="45.76006" lon="3.02996">
        <ele>794.7306</ele>
        <time>2021-06-06T07:38:46Z</time>
      </trkpt>
      <trkpt lat="45.76005" lon="3.02995">
        <ele>794.6368</ele>
        <time>2021-06-06T07:38:47Z</time>
      </trkpt>
      <trkpt lat="45.76004" lon="3.02994">
        <ele>794.7462</ele>
        <time>2021-06-06T07:38:48Z</time>
      </trkpt>
      <trkpt lat="45.76003" lon="3.02993">
        <ele>794.7202</ele>
        <time>2021-06-06T07:38:49Z</time>
      </trkpt>
      <trkpt lat="45.76003" lon="3.02993">
        <ele>794.4752</ele>
        <time>2021-06-06T07:38:50Z</time>
      </trkpt>
      <trkpt lat="45.76002" lon="3.02991">
        <ele>794.5065</ele>
        <time>2021-06-06T07:38:51Z</time>
      </trkpt>
      <trkpt lat="45.76002" lon="3.0299">
        <ele>794.64197</ele>
        <time>2021-06-06T07:38:52Z</time>
      </trkpt>
      <trkpt lat="45.76001" lon="3.02989">
        <ele>794.741</ele>
        <time>2021-06-06T07:38:53Z</time>
      </trkpt>
      <trkpt lat="45.76" lon="3.02988">
        <ele>794.79834</ele>
        <time>2021-06-06T07:38:54Z</time>
      </trkpt>
      <trkpt lat="45.76" lon="3.02988">
        <ele>795.0537</ele>
        <time>2021-06-06T07:38:55Z</time>
      </trkpt>
      <trkpt lat="45.75999" lon="3.02987">
        <ele>795.40283</ele>
        <time>2021-06-06T07:38:56Z</time>
      </trkpt>
      <trkpt lat="45.75999" lon="3.02985">
        <ele>795.3716</ele>
        <time>2021-06-06T07:38:57Z</time>
      </trkpt>
      <trkpt lat="45.75998" lon="3.02984">
        <ele>795.3976</ele>
        <time>2021-06-06T07:38:58Z</time>
      </trkpt>
      <trkpt lat="45.75997" lon="3.02983">
        <ele>795.63214</ele>
        <time>2021-06-06T07:38:59Z</time>
      </trkpt>
      <trkpt lat="45.75996" lon="3.02982">
        <ele>795.6842</ele>
        <time>2021-06-06T07:39:00Z</time>
      </trkpt>
      <trkpt lat="45.75995" lon="3.0298">
        <ele>795.5748</ele>
        <time>2021-06-06T07:39:01Z</time>
      </trkpt>
      <trkpt lat="45.75995" lon="3.02979">
        <ele>795.283</ele>
        <time>2021-06-06T07:39:02Z</time>
      </trkpt>
      <trkpt lat="45.75994" lon="3.02979">
        <ele>795.6373</ele>
        <time>2021-06-06T07:39:03Z</time>
      </trkpt>
      <trkpt lat="45.75993" lon="3.02978">
        <ele>795.9604</ele>
        <time>2021-06-06T07:39:04Z</time>
      </trkpt>
      <trkpt lat="45.75992" lon="3.02977">
        <ele>796.0438</ele>
        <time>2021-06-06T07:39:05Z</time>
      </trkpt>
      <trkpt lat="45.75992" lon="3.02977">
        <ele>796.1585</ele>
        <time>2021-06-06T07:39:06Z</time>
      </trkpt>
      <trkpt lat="45.75991" lon="3.02976">
        <ele>796.40344</ele>
        <time>2021-06-06T07:39:07Z</time>
      </trkpt>
      <trkpt lat="45.7599" lon="3.02974">
        <ele>796.4711</ele>
        <time>2021-06-06T07:39:08Z</time>
      </trkpt>
      <trkpt lat="45.75989" lon="3.02973">
        <ele>796.40344</ele>
        <time>2021-06-06T07:39:09Z</time>
      </trkpt>
      <trkpt lat="45.75989" lon="3.02972">
        <ele>796.50757</ele>
        <time>2021-06-06T07:39:10Z</time>
      </trkpt>
      <trkpt lat="45.75988" lon="3.02972">
        <ele>796.3773</ele>
        <time>2021-06-06T07:39:11Z</time>
      </trkpt>
      <trkpt lat="45.75988" lon="3.02971">
        <ele>796.30963</ele>
        <time>2021-06-06T07:39:12Z</time>
      </trkpt>
      <trkpt lat="45.75987" lon="3.02969">
        <ele>796.4763</ele>
        <time>2021-06-06T07:39:13Z</time>
      </trkpt>
      <trkpt lat="45.75987" lon="3.02969">
        <ele>796.53894</ele>
        <time>2021-06-06T07:39:14Z</time>
      </trkpt>
      <trkpt lat="45.75986" lon="3.02968">
        <ele>796.49194</ele>
        <time>2021-06-06T07:39:15Z</time>
      </trkpt>
      <trkpt lat="45.75985" lon="3.02967">
        <ele>796.48676</ele>
        <time>2021-06-06T07:39:16Z</time>
      </trkpt>
      <trkpt lat="45.75985" lon="3.02966">
        <ele>796.69006</ele>
        <time>2021-06-06T07:39:17Z</time>
      </trkpt>
      <trkpt lat="45.75984" lon="3.02965">
        <ele>796.61707</ele>
        <time>2021-06-06T07:39:18Z</time>
      </trkpt>
      <trkpt lat="45.75983" lon="3.02963">
        <ele>796.5754</ele>
        <time>2021-06-06T07:39:19Z</time>
      </trkpt>
      <trkpt lat="45.75983" lon="3.02962">
        <ele>796.3878</ele>
        <time>2021-06-06T07:39:20Z</time>
      </trkpt>
      <trkpt lat="45.75982" lon="3.02961">
        <ele>796.34607</ele>
        <time>2021-06-06T07:39:21Z</time>
      </trkpt>
      <trkpt lat="45.75982" lon="3.0296">
        <ele>796.3565</ele>
        <time>2021-06-06T07:39:22Z</time>
      </trkpt>
      <trkpt lat="45.7598" lon="3.0296">
        <ele>796.50757</ele>
        <time>2021-06-06T07:39:23Z</time>
      </trkpt>
      <trkpt lat="45.7598" lon="3.02959">
        <ele>796.7109</ele>
        <time>2021-06-06T07:39:24Z</time>
      </trkpt>
      <trkpt lat="45.75979" lon="3.02959">
        <ele>796.7109</ele>
        <time>2021-06-06T07:39:25Z</time>
      </trkpt>
      <trkpt lat="45.75978" lon="3.02958">
        <ele>796.75256</ele>
        <time>2021-06-06T07:39:26Z</time>
      </trkpt>
      <trkpt lat="45.75977" lon="3.02958">
        <ele>796.8047</ele>
        <time>2021-06-06T07:39:27Z</time>
      </trkpt>
      <trkpt lat="45.75975" lon="3.02957">
        <ele>796.76294</ele>
        <time>2021-06-06T07:39:28Z</time>
      </trkpt>
      <trkpt lat="45.75975" lon="3.02957">
        <ele>796.7317</ele>
        <time>2021-06-06T07:39:29Z</time>
      </trkpt>
      <trkpt lat="45.75974" lon="3.02957">
        <ele>797.0131</ele>
        <time>2021-06-06T07:39:30Z</time>
      </trkpt>
      <trkpt lat="45.75973" lon="3.02957">
        <ele>796.9923</ele>
        <time>2021-06-06T07:39:31Z</time>
      </trkpt>
      <trkpt lat="45.75972" lon="3.02956">
        <ele>796.88806</ele>
        <time>2021-06-06T07:39:32Z</time>
      </trkpt>
      <trkpt lat="45.75971" lon="3.02956">
        <ele>797.08093</ele>
        <time>2021-06-06T07:39:33Z</time>
      </trkpt>
      <trkpt lat="45.7597" lon="3.02956">
        <ele>797.02875</ele>
        <time>2021-06-06T07:39:34Z</time>
      </trkpt>
      <trkpt lat="45.75969" lon="3.02955">
        <ele>796.7734</ele>
        <time>2021-06-06T07:39:35Z</time>
      </trkpt>
      <trkpt lat="45.75968" lon="3.02955">
        <ele>797.08093</ele>
        <time>2021-06-06T07:39:36Z</time>
      </trkpt>
      <trkpt lat="45.75967" lon="3.02954">
        <ele>797.0548</ele>
        <time>2021-06-06T07:39:37Z</time>
      </trkpt>
      <trkpt lat="45.75966" lon="3.02954">
        <ele>797.0756</ele>
        <time>2021-06-06T07:39:38Z</time>
      </trkpt>
      <trkpt lat="45.75965" lon="3.02954">
        <ele>796.9819</ele>
        <time>2021-06-06T07:39:39Z</time>
      </trkpt>
      <trkpt lat="45.75963" lon="3.02953">
        <ele>797.16425</ele>
        <time>2021-06-06T07:39:40Z</time>
      </trkpt>
      <trkpt lat="45.75962" lon="3.02953">
        <ele>797.4248</ele>
        <time>2021-06-06T07:39:41Z</time>
      </trkpt>
      <trkpt lat="45.75961" lon="3.02952">
        <ele>797.5551</ele>
        <time>2021-06-06T07:39:42Z</time>
      </trkpt>
      <trkpt lat="45.7596" lon="3.02952">
        <ele>797.8261</ele>
        <time>2021-06-06T07:39:43Z</time>
      </trkpt>
      <trkpt lat="45.75959" lon="3.02951">
        <ele>797.602</ele>
        <time>2021-06-06T07:39:44Z</time>
      </trkpt>
      <trkpt lat="45.75958" lon="3.02951">
        <ele>797.6228</ele>
        <time>2021-06-06T07:39:45Z</time>
      </trkpt>
      <trkpt lat="45.75957" lon="3.02951">
        <ele>797.6228</ele>
        <time>2021-06-06T07:39:46Z</time>
      </trkpt>
      <trkpt lat="45.75956" lon="3.0295">
        <ele>797.5655</ele>
        <time>2021-06-06T07:39:47Z</time>
      </trkpt>
      <trkpt lat="45.75955" lon="3.02949">
        <ele>797.4717</ele>
        <time>2021-06-06T07:39:48Z</time>
      </trkpt>
      <trkpt lat="45.75954" lon="3.02947">
        <ele>797.61237</ele>
        <time>2021-06-06T07:39:49Z</time>
      </trkpt>
      <trkpt lat="45.75953" lon="3.02946">
        <ele>797.4873</ele>
        <time>2021-06-06T07:39:50Z</time>
      </trkpt>
      <trkpt lat="45.75952" lon="3.02946">
        <ele>797.675</ele>
        <time>2021-06-06T07:39:51Z</time>
      </trkpt>
      <trkpt lat="45.75951" lon="3.02945">
        <ele>797.946</ele>
        <time>2021-06-06T07:39:52Z</time>
      </trkpt>
      <trkpt lat="45.7595" lon="3.02945">
        <ele>797.701</ele>
        <time>2021-06-06T07:39:53Z</time>
      </trkpt>
      <trkpt lat="45.75949" lon="3.02944">
        <ele>797.7583</ele>
        <time>2021-06-06T07:39:54Z</time>
      </trkpt>
      <trkpt lat="45.75948" lon="3.02945">
        <ele>797.602</ele>
        <time>2021-06-06T07:39:55Z</time>
      </trkpt>
      <trkpt lat="45.75947" lon="3.02945">
        <ele>797.6176</ele>
        <time>2021-06-06T07:39:56Z</time>
      </trkpt>
      <trkpt lat="45.75946" lon="3.02945">
        <ele>797.873</ele>
        <time>2021-06-06T07:39:57Z</time>
      </trkpt>
      <trkpt lat="45.75946" lon="3.02945">
        <ele>798.1492</ele>
        <time>2021-06-06T07:39:58Z</time>
      </trkpt>
      <trkpt lat="45.75945" lon="3.02945">
        <ele>797.7896</ele>
        <time>2021-06-06T07:39:59Z</time>
      </trkpt>
      <trkpt lat="45.75944" lon="3.02945">
        <ele>797.9094</ele>
        <time>2021-06-06T07:40:00Z</time>
      </trkpt>
      <trkpt lat="45.75943" lon="3.02945">
        <ele>797.9824</ele>
        <time>2021-06-06T07:40:01Z</time>
      </trkpt>
      <trkpt lat="45.75942" lon="3.02945">
        <ele>797.74786</ele>
        <time>2021-06-06T07:40:02Z</time>
      </trkpt>
      <trkpt lat="45.7594" lon="3.02945">
        <ele>797.99805</ele>
        <time>2021-06-06T07:40:03Z</time>
      </trkpt>
      <trkpt lat="45.75939" lon="3.02945">
        <ele>798.09186</ele>
        <time>2021-06-06T07:40:04Z</time>
      </trkpt>
      <trkpt lat="45.75938" lon="3.02944">
        <ele>798.11273</ele>
        <time>2021-06-06T07:40:05Z</time>
      </trkpt>
      <trkpt lat="45.75937" lon="3.02944">
        <ele>798.07104</ele>
        <time>2021-06-06T07:40:06Z</time>
      </trkpt>
      <trkpt lat="45.75936" lon="3.02944">
        <ele>798.0867</ele>
        <time>2021-06-06T07:40:07Z</time>
      </trkpt>
      <trkpt lat="45.75935" lon="3.02943">
        <ele>798.0137</ele>
        <time>2021-06-06T07:40:08Z</time>
      </trkpt>
      <trkpt lat="45.75933" lon="3.02943">
        <ele>798.22217</ele>
        <time>2021-06-06T07:40:09Z</time>
      </trkpt>
      <trkpt lat="45.75932" lon="3.02942">
        <ele>798.4149</ele>
        <time>2021-06-06T07:40:10Z</time>
      </trkpt>
      <trkpt lat="45.75931" lon="3.02942">
        <ele>798.28986</ele>
        <time>2021-06-06T07:40:11Z</time>
      </trkpt>
      <trkpt lat="45.7593" lon="3.02942">
        <ele>798.217</ele>
        <time>2021-06-06T07:40:12Z</time>
      </trkpt>
      <trkpt lat="45.75929" lon="3.02942">
        <ele>798.3785</ele>
        <time>2021-06-06T07:40:13Z</time>
      </trkpt>
      <trkpt lat="45.75928" lon="3.02941">
        <ele>798.3316</ele>
        <time>2021-06-06T07:40:14Z</time>
      </trkpt>
      <trkpt lat="45.75926" lon="3.02941">
        <ele>798.3785</ele>
        <time>2021-06-06T07:40:15Z</time>
      </trkpt>
      <trkpt lat="45.75925" lon="3.0294">
        <ele>798.3316</ele>
        <time>2021-06-06T07:40:16Z</time>
      </trkpt>
      <trkpt lat="45.75924" lon="3.02939">
        <ele>798.32635</ele>
        <time>2021-06-06T07:40:17Z</time>
      </trkpt>
      <trkpt lat="45.75923" lon="3.02939">
        <ele>798.5348</ele>
        <time>2021-06-06T07:40:18Z</time>
      </trkpt>
      <trkpt lat="45.75922" lon="3.02939">
        <ele>798.55566</ele>
        <time>2021-06-06T07:40:19Z</time>
      </trkpt>
      <trkpt lat="45.75921" lon="3.02938">
        <ele>798.6807</ele>
        <time>2021-06-06T07:40:20Z</time>
      </trkpt>
      <trkpt lat="45.7592" lon="3.02938">
        <ele>798.6077</ele>
        <time>2021-06-06T07:40:21Z</time>
      </trkpt>
      <trkpt lat="45.75919" lon="3.02938">
        <ele>798.8631</ele>
        <time>2021-06-06T07:40:22Z</time>
      </trkpt>
      <trkpt lat="45.75917" lon="3.02938">
        <ele>798.9205</ele>
        <time>2021-06-06T07:40:23Z</time>
      </trkpt>
      <trkpt lat="45.75916" lon="3.02937">
        <ele>799.17065</ele>
        <time>2021-06-06T07:40:24Z</time>
      </trkpt>
      <trkpt lat="45.75915" lon="3.02937">
        <ele>799.28</ele>
        <time>2021-06-06T07:40:25Z</time>
      </trkpt>
      <trkpt lat="45.75914" lon="3.02937">
        <ele>799.32697</ele>
        <time>2021-06-06T07:40:26Z</time>
      </trkpt>
      <trkpt lat="45.75913" lon="3.02937">
        <ele>799.6396</ele>
        <time>2021-06-06T07:40:27Z</time>
      </trkpt>
      <trkpt lat="45.75912" lon="3.02936">
        <ele>799.43634</ele>
        <time>2021-06-06T07:40:28Z</time>
      </trkpt>
      <trkpt lat="45.75911" lon="3.02936">
        <ele>799.55096</ele>
        <time>2021-06-06T07:40:29Z</time>
      </trkpt>
      <trkpt lat="45.75911" lon="3.02935">
        <ele>799.57184</ele>
        <time>2021-06-06T07:40:30Z</time>
      </trkpt>
      <trkpt lat="45.75909" lon="3.02934">
        <ele>799.7647</ele>
        <time>2021-06-06T07:40:31Z</time>
      </trkpt>
      <trkpt lat="45.75909" lon="3.02934">
        <ele>799.9731</ele>
        <time>2021-06-06T07:40:32Z</time>
      </trkpt>
      <trkpt lat="45.75908" lon="3.02933">
        <ele>800.22845</ele>
        <time>2021-06-06T07:40:33Z</time>
      </trkpt>
      <trkpt lat="45.75907" lon="3.02933">
        <ele>800.3119</ele>
        <time>2021-06-06T07:40:34Z</time>
      </trkpt>
      <trkpt lat="45.75906" lon="3.02931">
        <ele>800.47864</ele>
        <time>2021-06-06T07:40:35Z</time>
      </trkpt>
      <trkpt lat="45.75905" lon="3.02931">
        <ele>800.41614</ele>
        <time>2021-06-06T07:40:36Z</time>
      </trkpt>
      <trkpt lat="45.75905" lon="3.0293">
        <ele>800.13464</ele>
        <time>2021-06-06T07:40:37Z</time>
      </trkpt>
      <trkpt lat="45.75904" lon="3.02929">
        <ele>800.40045</ele>
        <time>2021-06-06T07:40:38Z</time>
      </trkpt>
      <trkpt lat="45.75903" lon="3.02928">
        <ele>800.44214</ele>
        <time>2021-06-06T07:40:39Z</time>
      </trkpt>
      <trkpt lat="45.75903" lon="3.02928">
        <ele>800.76</ele>
        <time>2021-06-06T07:40:40Z</time>
      </trkpt>
      <trkpt lat="45.75902" lon="3.02927">
        <ele>801.04144</ele>
        <time>2021-06-06T07:40:41Z</time>
      </trkpt>
      <trkpt lat="45.75901" lon="3.02927">
        <ele>800.8799</ele>
        <time>2021-06-06T07:40:42Z</time>
      </trkpt>
      <trkpt lat="45.759" lon="3.02927">
        <ele>800.94763</ele>
        <time>2021-06-06T07:40:43Z</time>
      </trkpt>
      <trkpt lat="45.75899" lon="3.02926">
        <ele>801.0675</ele>
        <time>2021-06-06T07:40:44Z</time>
      </trkpt>
      <trkpt lat="45.75898" lon="3.02925">
        <ele>801.23944</ele>
        <time>2021-06-06T07:40:45Z</time>
      </trkpt>
      <trkpt lat="45.75897" lon="3.02924">
        <ele>801.3385</ele>
        <time>2021-06-06T07:40:46Z</time>
      </trkpt>
      <trkpt lat="45.75897" lon="3.02924">
        <ele>801.4948</ele>
        <time>2021-06-06T07:40:47Z</time>
      </trkpt>
      <trkpt lat="45.75896" lon="3.02923">
        <ele>801.5522</ele>
        <time>2021-06-06T07:40:48Z</time>
      </trkpt>
      <trkpt lat="45.75895" lon="3.02923">
        <ele>801.71893</ele>
        <time>2021-06-06T07:40:49Z</time>
      </trkpt>
      <trkpt lat="45.75894" lon="3.02922">
        <ele>801.76056</ele>
        <time>2021-06-06T07:40:50Z</time>
      </trkpt>
      <trkpt lat="45.75893" lon="3.02921">
        <ele>801.8596</ele>
        <time>2021-06-06T07:40:51Z</time>
      </trkpt>
      <trkpt lat="45.75892" lon="3.0292">
        <ele>802.0472</ele>
        <time>2021-06-06T07:40:52Z</time>
      </trkpt>
      <trkpt lat="45.75892" lon="3.0292">
        <ele>802.08374</ele>
        <time>2021-06-06T07:40:53Z</time>
      </trkpt>
      <trkpt lat="45.75891" lon="3.02919">
        <ele>802.0628</ele>
        <time>2021-06-06T07:40:54Z</time>
      </trkpt>
      <trkpt lat="45.7589" lon="3.02918">
        <ele>802.07324</ele>
        <time>2021-06-06T07:40:55Z</time>
      </trkpt>
      <trkpt lat="45.75889" lon="3.02917">
        <ele>802.01074</ele>
        <time>2021-06-06T07:40:56Z</time>
      </trkpt>
      <trkpt lat="45.75888" lon="3.02916">
        <ele>802.0524</ele>
        <time>2021-06-06T07:40:57Z</time>
      </trkpt>
      <trkpt lat="45.75888" lon="3.02915">
        <ele>802.0576</ele>
        <time>2021-06-06T07:40:58Z</time>
      </trkpt>
      <trkpt lat="45.75887" lon="3.02914">
        <ele>802.16705</ele>
        <time>2021-06-06T07:40:59Z</time>
      </trkpt>
      <trkpt lat="45.75885" lon="3.02913">
        <ele>802.0576</ele>
        <time>2021-06-06T07:41:00Z</time>
      </trkpt>
      <trkpt lat="45.75885" lon="3.02913">
        <ele>802.1567</ele>
        <time>2021-06-06T07:41:01Z</time>
      </trkpt>
      <trkpt lat="45.75884" lon="3.02912">
        <ele>802.0628</ele>
        <time>2021-06-06T07:41:02Z</time>
      </trkpt>
      <trkpt lat="45.75883" lon="3.02911">
        <ele>801.7866</ele>
        <time>2021-06-06T07:41:03Z</time>
      </trkpt>
      <trkpt lat="45.75882" lon="3.0291">
        <ele>801.8648</ele>
        <time>2021-06-06T07:41:04Z</time>
      </trkpt>
      <trkpt lat="45.75881" lon="3.02909">
        <ele>801.9951</ele>
        <time>2021-06-06T07:41:05Z</time>
      </trkpt>
      <trkpt lat="45.7588" lon="3.02909">
        <ele>801.8857</ele>
        <time>2021-06-06T07:41:06Z</time>
      </trkpt>
      <trkpt lat="45.75879" lon="3.02908">
        <ele>801.67206</ele>
        <time>2021-06-06T07:41:07Z</time>
      </trkpt>
      <trkpt lat="45.75878" lon="3.02907">
        <ele>801.69806</ele>
        <time>2021-06-06T07:41:08Z</time>
      </trkpt>
      <trkpt lat="45.75877" lon="3.02906">
        <ele>801.7866</ele>
        <time>2021-06-06T07:41:09Z</time>
      </trkpt>
      <trkpt lat="45.75876" lon="3.02905">
        <ele>801.6668</ele>
        <time>2021-06-06T07:41:10Z</time>
      </trkpt>
      <trkpt lat="45.75876" lon="3.02904">
        <ele>801.9221</ele>
        <time>2021-06-06T07:41:11Z</time>
      </trkpt>
      <trkpt lat="45.75875" lon="3.02902">
        <ele>802.0942</ele>
        <time>2021-06-06T07:41:12Z</time>
      </trkpt>
      <trkpt lat="45.75874" lon="3.02901">
        <ele>801.6668</ele>
        <time>2021-06-06T07:41:13Z</time>
      </trkpt>
      <trkpt lat="45.75873" lon="3.029">
        <ele>801.58344</ele>
        <time>2021-06-06T07:41:14Z</time>
      </trkpt>
      <trkpt lat="45.75872" lon="3.02899">
        <ele>801.88043</ele>
        <time>2021-06-06T07:41:15Z</time>
      </trkpt>
      <trkpt lat="45.75871" lon="3.02898">
        <ele>801.844</ele>
        <time>2021-06-06T07:41:16Z</time>
      </trkpt>
      <trkpt lat="45.75869" lon="3.02897">
        <ele>801.8492</ele>
        <time>2021-06-06T07:41:17Z</time>
      </trkpt>
      <trkpt lat="45.75869" lon="3.02897">
        <ele>801.60944</ele>
        <time>2021-06-06T07:41:18Z</time>
      </trkpt>
      <trkpt lat="45.75868" lon="3.02896">
        <ele>801.7502</ele>
        <time>2021-06-06T07:41:19Z</time>
      </trkpt>
      <trkpt lat="45.75866" lon="3.02896">
        <ele>801.53656</ele>
        <time>2021-06-06T07:41:20Z</time>
      </trkpt>
      <trkpt lat="45.75866" lon="3.02895">
        <ele>801.4167</ele>
        <time>2021-06-06T07:41:21Z</time>
      </trkpt>
      <trkpt lat="45.75865" lon="3.02895">
        <ele>801.41144</ele>
        <time>2021-06-06T07:41:22Z</time>
      </trkpt>
      <trkpt lat="45.75864" lon="3.02894">
        <ele>801.54694</ele>
        <time>2021-06-06T07:41:23Z</time>
      </trkpt>
      <trkpt lat="45.75863" lon="3.02894">
        <ele>801.36975</ele>
        <time>2021-06-06T07:41:24Z</time>
      </trkpt>
      <trkpt lat="45.75861" lon="3.02894">
        <ele>801.46875</ele>
        <time>2021-06-06T07:41:25Z</time>
      </trkpt>
      <trkpt lat="45.75861" lon="3.02894">
        <ele>801.4427</ele>
        <time>2021-06-06T07:41:26Z</time>
      </trkpt>
      <trkpt lat="45.7586" lon="3.02893">
        <ele>801.6407</ele>
        <time>2021-06-06T07:41:27Z</time>
      </trkpt>
      <trkpt lat="45.75859" lon="3.02892">
        <ele>801.80756</ele>
        <time>2021-06-06T07:41:28Z</time>
      </trkpt>
      <trkpt lat="45.75858" lon="3.02891">
        <ele>801.60425</ele>
        <time>2021-06-06T07:41:29Z</time>
      </trkpt>
      <trkpt lat="45.75858" lon="3.0289">
        <ele>801.56256</ele>
        <time>2021-06-06T07:41:30Z</time>
      </trkpt>
      <trkpt lat="45.75857" lon="3.02889">
        <ele>801.5</ele>
        <time>2021-06-06T07:41:31Z</time>
      </trkpt>
      <trkpt lat="45.75856" lon="3.02888">
        <ele>801.2551</ele>
        <time>2021-06-06T07:41:32Z</time>
      </trkpt>
      <trkpt lat="45.75855" lon="3.02887">
        <ele>801.3593</ele>
        <time>2021-06-06T07:41:33Z</time>
      </trkpt>
      <trkpt lat="45.75853" lon="3.02886">
        <ele>801.203</ele>
        <time>2021-06-06T07:41:34Z</time>
      </trkpt>
      <trkpt lat="45.75852" lon="3.02885">
        <ele>801.2082</ele>
        <time>2021-06-06T07:41:35Z</time>
      </trkpt>
      <trkpt lat="45.75851" lon="3.02883">
        <ele>801.2603</ele>
        <time>2021-06-06T07:41:36Z</time>
      </trkpt>
      <trkpt lat="45.7585" lon="3.02883">
        <ele>801.24994</ele>
        <time>2021-06-06T07:41:37Z</time>
      </trkpt>
      <trkpt lat="45.7585" lon="3.02882">
        <ele>801.30725</ele>
        <time>2021-06-06T07:41:38Z</time>
      </trkpt>
      <trkpt lat="45.75848" lon="3.02881">
        <ele>801.4167</ele>
        <time>2021-06-06T07:41:39Z</time>
      </trkpt>
      <trkpt lat="45.75848" lon="3.0288">
        <ele>801.2446</ele>
        <time>2021-06-06T07:41:40Z</time>
      </trkpt>
      <trkpt lat="45.75846" lon="3.02879">
        <ele>801.10394</ele>
        <time>2021-06-06T07:41:41Z</time>
      </trkpt>
      <trkpt lat="45.75845" lon="3.02878">
        <ele>801.27594</ele>
        <time>2021-06-06T07:41:42Z</time>
      </trkpt>
      <trkpt lat="45.75844" lon="3.02877">
        <ele>801.19775</ele>
        <time>2021-06-06T07:41:43Z</time>
      </trkpt>
      <trkpt lat="45.75843" lon="3.02876">
        <ele>801.17175</ele>
        <time>2021-06-06T07:41:44Z</time>
      </trkpt>
      <trkpt lat="45.75842" lon="3.02876">
        <ele>801.36975</ele>
        <time>2021-06-06T07:41:45Z</time>
      </trkpt>
      <trkpt lat="45.7584" lon="3.02876">
        <ele>801.3906</ele>
        <time>2021-06-06T07:41:46Z</time>
      </trkpt>
      <trkpt lat="45.7584" lon="3.02875">
        <ele>801.42706</ele>
        <time>2021-06-06T07:41:47Z</time>
      </trkpt>
      <trkpt lat="45.75839" lon="3.02875">
        <ele>801.4792</ele>
        <time>2021-06-06T07:41:48Z</time>
      </trkpt>
      <trkpt lat="45.75837" lon="3.02874">
        <ele>801.3593</ele>
        <time>2021-06-06T07:41:49Z</time>
      </trkpt>
      <trkpt lat="45.75836" lon="3.02873">
        <ele>801.4531</ele>
        <time>2021-06-06T07:41:50Z</time>
      </trkpt>
      <trkpt lat="45.75835" lon="3.02872">
        <ele>801.5</ele>
        <time>2021-06-06T07:41:51Z</time>
      </trkpt>
      <trkpt lat="45.75834" lon="3.02871">
        <ele>801.3906</ele>
        <time>2021-06-06T07:41:52Z</time>
      </trkpt>
      <trkpt lat="45.75833" lon="3.02871">
        <ele>801.302</ele>
        <time>2021-06-06T07:41:53Z</time>
      </trkpt>
      <trkpt lat="45.75832" lon="3.0287">
        <ele>801.4531</ele>
        <time>2021-06-06T07:41:54Z</time>
      </trkpt>
      <trkpt lat="45.75831" lon="3.0287">
        <ele>801.23425</ele>
        <time>2021-06-06T07:41:55Z</time>
      </trkpt>
      <trkpt lat="45.7583" lon="3.0287">
        <ele>801.0779</ele>
        <time>2021-06-06T07:41:56Z</time>
      </trkpt>
      <trkpt lat="45.75829" lon="3.0287">
        <ele>801.1561</ele>
        <time>2021-06-06T07:41:57Z</time>
      </trkpt>
      <trkpt lat="45.75827" lon="3.0287">
        <ele>801.2186</ele>
        <time>2021-06-06T07:41:58Z</time>
      </trkpt>
      <trkpt lat="45.75826" lon="3.0287">
        <ele>800.6975</ele>
        <time>2021-06-06T07:41:59Z</time>
      </trkpt>
      <trkpt lat="45.75826" lon="3.0287">
        <ele>801.10394</ele>
        <time>2021-06-06T07:42:00Z</time>
      </trkpt>
      <trkpt lat="45.75825" lon="3.02871">
        <ele>801.26556</ele>
        <time>2021-06-06T07:42:01Z</time>
      </trkpt>
      <trkpt lat="45.75824" lon="3.02871">
        <ele>801.0779</ele>
        <time>2021-06-06T07:42:02Z</time>
      </trkpt>
      <trkpt lat="45.75824" lon="3.0287">
        <ele>801.1249</ele>
        <time>2021-06-06T07:42:03Z</time>
      </trkpt>
      <trkpt lat="45.75824" lon="3.02869">
        <ele>800.8695</ele>
        <time>2021-06-06T07:42:04Z</time>
      </trkpt>
      <trkpt lat="45.75824" lon="3.02869">
        <ele>800.8695</ele>
        <time>2021-06-06T07:42:04Z</time>
      </trkpt>
      <trkpt lat="45.75824" lon="3.02869">
        <ele>800.8695</ele>
        <time>2021-06-06T07:42:04Z</time>
      </trkpt>
      <trkpt lat="45.7582" lon="3.02872">
        <ele>801.93256</ele>
        <time>2021-06-06T07:43:13Z</time>
      </trkpt>
      <trkpt lat="45.75819" lon="3.02873">
        <ele>802.03156</ele>
        <time>2021-06-06T07:43:14Z</time>
      </trkpt>
      <trkpt lat="45.75818" lon="3.02874">
        <ele>802.14624</ele>
        <time>2021-06-06T07:43:15Z</time>
      </trkpt>
      <trkpt lat="45.75818" lon="3.02875">
        <ele>802.1879</ele>
        <time>2021-06-06T07:43:16Z</time>
      </trkpt>
      <trkpt lat="45.75818" lon="3.02875">
        <ele>802.2505</ele>
        <time>2021-06-06T07:43:17Z</time>
      </trkpt>
      <trkpt lat="45.75818" lon="3.02875">
        <ele>802.3338</ele>
        <time>2021-06-06T07:43:18Z</time>
      </trkpt>
      <trkpt lat="45.75817" lon="3.02876">
        <ele>802.64136</ele>
        <time>2021-06-06T07:43:19Z</time>
      </trkpt>
      <trkpt lat="45.75816" lon="3.02876">
        <ele>802.47455</ele>
        <time>2021-06-06T07:43:20Z</time>
      </trkpt>
      <trkpt lat="45.75816" lon="3.02877">
        <ele>802.5892</ele>
        <time>2021-06-06T07:43:21Z</time>
      </trkpt>
      <trkpt lat="45.75816" lon="3.02877">
        <ele>802.8758</ele>
        <time>2021-06-06T07:43:22Z</time>
      </trkpt>
      <trkpt lat="45.75816" lon="3.02878">
        <ele>802.77673</ele>
        <time>2021-06-06T07:43:23Z</time>
      </trkpt>
      <trkpt lat="45.75815" lon="3.02879">
        <ele>803.0947</ele>
        <time>2021-06-06T07:43:24Z</time>
      </trkpt>
      <trkpt lat="45.75816" lon="3.02881">
        <ele>803.5324</ele>
        <time>2021-06-06T07:43:25Z</time>
      </trkpt>
      <trkpt lat="45.75815" lon="3.02882">
        <ele>803.33966</ele>
        <time>2021-06-06T07:43:26Z</time>
      </trkpt>
      <trkpt lat="45.75815" lon="3.02883">
        <ele>803.5949</ele>
        <time>2021-06-06T07:43:28Z</time>
      </trkpt>
      <trkpt lat="45.75815" lon="3.02884">
        <ele>803.6888</ele>
        <time>2021-06-06T07:43:29Z</time>
      </trkpt>
      <trkpt lat="45.75814" lon="3.02885">
        <ele>803.892</ele>
        <time>2021-06-06T07:43:30Z</time>
      </trkpt>
      <trkpt lat="45.75814" lon="3.02886">
        <ele>804.01184</ele>
        <time>2021-06-06T07:43:31Z</time>
      </trkpt>
      <trkpt lat="45.75813" lon="3.02887">
        <ele>804.0536</ele>
        <time>2021-06-06T07:43:32Z</time>
      </trkpt>
      <trkpt lat="45.75813" lon="3.02888">
        <ele>804.37146</ele>
        <time>2021-06-06T07:43:33Z</time>
      </trkpt>
      <trkpt lat="45.75813" lon="3.02889">
        <ele>804.53296</ele>
        <time>2021-06-06T07:43:34Z</time>
      </trkpt>
      <trkpt lat="45.75811" lon="3.0289">
        <ele>804.5278</ele>
        <time>2021-06-06T07:43:35Z</time>
      </trkpt>
      <trkpt lat="45.75811" lon="3.02891">
        <ele>804.7311</ele>
        <time>2021-06-06T07:43:36Z</time>
      </trkpt>
      <trkpt lat="45.7581" lon="3.02892">
        <ele>804.8822</ele>
        <time>2021-06-06T07:43:37Z</time>
      </trkpt>
      <trkpt lat="45.7581" lon="3.02893">
        <ele>805.21045</ele>
        <time>2021-06-06T07:43:38Z</time>
      </trkpt>
      <trkpt lat="45.75809" lon="3.02893">
        <ele>805.18445</ele>
        <time>2021-06-06T07:43:39Z</time>
      </trkpt>
      <trkpt lat="45.75809" lon="3.02894">
        <ele>805.42413</ele>
        <time>2021-06-06T07:43:40Z</time>
      </trkpt>
      <trkpt lat="45.75809" lon="3.02895">
        <ele>805.53876</ele>
        <time>2021-06-06T07:43:41Z</time>
      </trkpt>
      <trkpt lat="45.75809" lon="3.02895">
        <ele>805.61694</ele>
        <time>2021-06-06T07:43:42Z</time>
      </trkpt>
      <trkpt lat="45.75809" lon="3.02895">
        <ele>805.74725</ele>
        <time>2021-06-06T07:43:43Z</time>
      </trkpt>
      <trkpt lat="45.75807" lon="3.02896">
        <ele>805.5857</ele>
        <time>2021-06-06T07:43:44Z</time>
      </trkpt>
      <trkpt lat="45.75807" lon="3.02898">
        <ele>805.63257</ele>
        <time>2021-06-06T07:43:45Z</time>
      </trkpt>
      <trkpt lat="45.75806" lon="3.02899">
        <ele>805.53357</ele>
        <time>2021-06-06T07:43:46Z</time>
      </trkpt>
      <trkpt lat="45.75806" lon="3.029">
        <ele>806.10675</ele>
        <time>2021-06-06T07:43:47Z</time>
      </trkpt>
      <trkpt lat="45.75805" lon="3.02901">
        <ele>806.3987</ele>
        <time>2021-06-06T07:43:48Z</time>
      </trkpt>
      <trkpt lat="45.75805" lon="3.02902">
        <ele>806.4247</ele>
        <time>2021-06-06T07:43:49Z</time>
      </trkpt>
      <trkpt lat="45.75805" lon="3.02903">
        <ele>806.8364</ele>
        <time>2021-06-06T07:43:50Z</time>
      </trkpt>
      <trkpt lat="45.75805" lon="3.02905">
        <ele>806.93536</ele>
        <time>2021-06-06T07:43:51Z</time>
      </trkpt>
      <trkpt lat="45.75804" lon="3.02906">
        <ele>807.0813</ele>
        <time>2021-06-06T07:43:52Z</time>
      </trkpt>
      <trkpt lat="45.75804" lon="3.02907">
        <ele>807.2533</ele>
        <time>2021-06-06T07:43:53Z</time>
      </trkpt>
      <trkpt lat="45.75804" lon="3.02908">
        <ele>807.37317</ele>
        <time>2021-06-06T07:43:54Z</time>
      </trkpt>
      <trkpt lat="45.75805" lon="3.02909">
        <ele>807.6598</ele>
        <time>2021-06-06T07:43:55Z</time>
      </trkpt>
      <trkpt lat="45.75806" lon="3.0291">
        <ele>807.98285</ele>
        <time>2021-06-06T07:43:56Z</time>
      </trkpt>
      <trkpt lat="45.75805" lon="3.02911">
        <ele>808.035</ele>
        <time>2021-06-06T07:43:57Z</time>
      </trkpt>
      <trkpt lat="45.75805" lon="3.02911">
        <ele>808.0037</ele>
        <time>2021-06-06T07:43:58Z</time>
      </trkpt>
      <trkpt lat="45.75805" lon="3.02913">
        <ele>808.3633</ele>
        <time>2021-06-06T07:43:59Z</time>
      </trkpt>
      <trkpt lat="45.75805" lon="3.02914">
        <ele>808.3216</ele>
        <time>2021-06-06T07:44:00Z</time>
      </trkpt>
      <trkpt lat="45.75805" lon="3.02914">
        <ele>808.3789</ele>
        <time>2021-06-06T07:44:01Z</time>
      </trkpt>
      <trkpt lat="45.75803" lon="3.02915">
        <ele>808.52484</ele>
        <time>2021-06-06T07:44:02Z</time>
      </trkpt>
      <trkpt lat="45.75804" lon="3.02916">
        <ele>808.5978</ele>
        <time>2021-06-06T07:44:03Z</time>
      </trkpt>
      <trkpt lat="45.75803" lon="3.02919">
        <ele>808.9157</ele>
        <time>2021-06-06T07:44:04Z</time>
      </trkpt>
      <trkpt lat="45.75803" lon="3.0292">
        <ele>809.1085</ele>
        <time>2021-06-06T07:44:05Z</time>
      </trkpt>
      <trkpt lat="45.75802" lon="3.02921">
        <ele>809.27527</ele>
        <time>2021-06-06T07:44:06Z</time>
      </trkpt>
      <trkpt lat="45.75801" lon="3.02922">
        <ele>809.26483</ele>
        <time>2021-06-06T07:44:07Z</time>
      </trkpt>
      <trkpt lat="45.758" lon="3.02922">
        <ele>809.31177</ele>
        <time>2021-06-06T07:44:08Z</time>
      </trkpt>
      <trkpt lat="45.75799" lon="3.02922">
        <ele>809.48895</ele>
        <time>2021-06-06T07:44:09Z</time>
      </trkpt>
      <trkpt lat="45.75798" lon="3.02922">
        <ele>809.71295</ele>
        <time>2021-06-06T07:44:10Z</time>
      </trkpt>
      <trkpt lat="45.75799" lon="3.02923">
        <ele>809.5932</ele>
        <time>2021-06-06T07:44:11Z</time>
      </trkpt>
      <trkpt lat="45.75799" lon="3.02923">
        <ele>809.51495</ele>
        <time>2021-06-06T07:44:12Z</time>
      </trkpt>
      <trkpt lat="45.75799" lon="3.02924">
        <ele>809.6713</ele>
        <time>2021-06-06T07:44:13Z</time>
      </trkpt>
      <trkpt lat="45.75799" lon="3.02924">
        <ele>809.6713</ele>
        <time>2021-06-06T07:44:13Z</time>
      </trkpt>
      <trkpt lat="45.75799" lon="3.02924">
        <ele>809.6713</ele>
        <time>2021-06-06T07:44:13Z</time>
      </trkpt>
      <trkpt lat="45.75794" lon="3.02922">
        <ele>808.9001</ele>
        <time>2021-06-06T07:44:24Z</time>
      </trkpt>
      <trkpt lat="45.75794" lon="3.02922">
        <ele>808.8896</ele>
        <time>2021-06-06T07:44:25Z</time>
      </trkpt>
      <trkpt lat="45.75794" lon="3.02921">
        <ele>808.5925</ele>
        <time>2021-06-06T07:44:26Z</time>
      </trkpt>
      <trkpt lat="45.75793" lon="3.0292">
        <ele>808.29553</ele>
        <time>2021-06-06T07:44:27Z</time>
      </trkpt>
      <trkpt lat="45.75792" lon="3.02919">
        <ele>807.8526</ele>
        <time>2021-06-06T07:44:28Z</time>
      </trkpt>
      <trkpt lat="45.7579" lon="3.02918">
        <ele>807.6702</ele>
        <time>2021-06-06T07:44:29Z</time>
      </trkpt>
      <trkpt lat="45.75789" lon="3.02917">
        <ele>807.5451</ele>
        <time>2021-06-06T07:44:30Z</time>
      </trkpt>
      <trkpt lat="45.75789" lon="3.02917">
        <ele>807.27936</ele>
        <time>2021-06-06T07:44:31Z</time>
      </trkpt>
      <trkpt lat="45.75788" lon="3.02916">
        <ele>807.2533</ele>
        <time>2021-06-06T07:44:32Z</time>
      </trkpt>
      <trkpt lat="45.75787" lon="3.02916">
        <ele>807.0448</ele>
        <time>2021-06-06T07:44:33Z</time>
      </trkpt>
      <trkpt lat="45.75786" lon="3.02915">
        <ele>807.1595</ele>
        <time>2021-06-06T07:44:34Z</time>
      </trkpt>
      <trkpt lat="45.75785" lon="3.02914">
        <ele>807.097</ele>
        <time>2021-06-06T07:44:35Z</time>
      </trkpt>
      <trkpt lat="45.75784" lon="3.02913">
        <ele>806.8885</ele>
        <time>2021-06-06T07:44:36Z</time>
      </trkpt>
      <trkpt lat="45.75782" lon="3.02912">
        <ele>806.72174</ele>
        <time>2021-06-06T07:44:37Z</time>
      </trkpt>
      <trkpt lat="45.75781" lon="3.02912">
        <ele>807.0292</ele>
        <time>2021-06-06T07:44:38Z</time>
      </trkpt>
      <trkpt lat="45.75781" lon="3.02912">
        <ele>806.8468</ele>
        <time>2021-06-06T07:44:39Z</time>
      </trkpt>
      <trkpt lat="45.7578" lon="3.02911">
        <ele>807.0448</ele>
        <time>2021-06-06T07:44:40Z</time>
      </trkpt>
      <trkpt lat="45.75779" lon="3.0291">
        <ele>806.8624</ele>
        <time>2021-06-06T07:44:41Z</time>
      </trkpt>
      <trkpt lat="45.75778" lon="3.02909">
        <ele>806.35175</ele>
        <time>2021-06-06T07:44:42Z</time>
      </trkpt>
      <trkpt lat="45.75777" lon="3.02907">
        <ele>806.54456</ele>
        <time>2021-06-06T07:44:43Z</time>
      </trkpt>
      <trkpt lat="45.75776" lon="3.02906">
        <ele>806.23706</ele>
        <time>2021-06-06T07:44:44Z</time>
      </trkpt>
      <trkpt lat="45.75774" lon="3.02905">
        <ele>806.1902</ele>
        <time>2021-06-06T07:44:45Z</time>
      </trkpt>
      <trkpt lat="45.75773" lon="3.02904">
        <ele>806.383</ele>
        <time>2021-06-06T07:44:46Z</time>
      </trkpt>
      <trkpt lat="45.75771" lon="3.02903">
        <ele>806.1329</ele>
        <time>2021-06-06T07:44:47Z</time>
      </trkpt>
      <trkpt lat="45.7577" lon="3.02901">
        <ele>806.0286</ele>
        <time>2021-06-06T07:44:48Z</time>
      </trkpt>
      <trkpt lat="45.75769" lon="3.02899">
        <ele>805.8515</ele>
        <time>2021-06-06T07:44:49Z</time>
      </trkpt>
      <trkpt lat="45.75768" lon="3.02897">
        <ele>805.9609</ele>
        <time>2021-06-06T07:44:50Z</time>
      </trkpt>
      <trkpt lat="45.75767" lon="3.02896">
        <ele>806.11725</ele>
        <time>2021-06-06T07:44:51Z</time>
      </trkpt>
      <trkpt lat="45.75766" lon="3.02895">
        <ele>806.0547</ele>
        <time>2021-06-06T07:44:52Z</time>
      </trkpt>
      <trkpt lat="45.75765" lon="3.02894">
        <ele>806.0078</ele>
        <time>2021-06-06T07:44:53Z</time>
      </trkpt>
      <trkpt lat="45.75763" lon="3.02893">
        <ele>806.02344</ele>
        <time>2021-06-06T07:44:54Z</time>
      </trkpt>
      <trkpt lat="45.75761" lon="3.02892">
        <ele>805.80975</ele>
        <time>2021-06-06T07:44:55Z</time>
      </trkpt>
      <trkpt lat="45.7576" lon="3.02891">
        <ele>805.70557</ele>
        <time>2021-06-06T07:44:56Z</time>
      </trkpt>
      <trkpt lat="45.75759" lon="3.0289">
        <ele>805.55963</ele>
        <time>2021-06-06T07:44:57Z</time>
      </trkpt>
      <trkpt lat="45.75757" lon="3.02889">
        <ele>805.63776</ele>
        <time>2021-06-06T07:44:58Z</time>
      </trkpt>
      <trkpt lat="45.75756" lon="3.02889">
        <ele>805.5805</ele>
        <time>2021-06-06T07:44:59Z</time>
      </trkpt>
      <trkpt lat="45.75755" lon="3.02888">
        <ele>805.7629</ele>
        <time>2021-06-06T07:45:00Z</time>
      </trkpt>
      <trkpt lat="45.75754" lon="3.02887">
        <ele>805.8567</ele>
        <time>2021-06-06T07:45:01Z</time>
      </trkpt>
      <trkpt lat="45.75754" lon="3.02887">
        <ele>805.5283</ele>
        <time>2021-06-06T07:45:02Z</time>
      </trkpt>
      <trkpt lat="45.75754" lon="3.02886">
        <ele>805.31995</ele>
        <time>2021-06-06T07:45:03Z</time>
      </trkpt>
      <trkpt lat="45.75752" lon="3.02884">
        <ele>805.24695</ele>
        <time>2021-06-06T07:45:04Z</time>
      </trkpt>
      <trkpt lat="45.7575" lon="3.02882">
        <ele>805.3668</ele>
        <time>2021-06-06T07:45:05Z</time>
      </trkpt>
      <trkpt lat="45.75749" lon="3.02881">
        <ele>805.32513</ele>
        <time>2021-06-06T07:45:06Z</time>
      </trkpt>
      <trkpt lat="45.75748" lon="3.0288">
        <ele>805.25214</ele>
        <time>2021-06-06T07:45:07Z</time>
      </trkpt>
      <trkpt lat="45.75747" lon="3.02879">
        <ele>805.3095</ele>
        <time>2021-06-06T07:45:08Z</time>
      </trkpt>
      <trkpt lat="45.75746" lon="3.02878">
        <ele>805.3772</ele>
        <time>2021-06-06T07:45:09Z</time>
      </trkpt>
      <trkpt lat="45.75744" lon="3.02877">
        <ele>805.3616</ele>
        <time>2021-06-06T07:45:10Z</time>
      </trkpt>
      <trkpt lat="45.75743" lon="3.02876">
        <ele>805.47626</ele>
        <time>2021-06-06T07:45:11Z</time>
      </trkpt>
      <trkpt lat="45.75742" lon="3.02875">
        <ele>805.445</ele>
        <time>2021-06-06T07:45:12Z</time>
      </trkpt>
      <trkpt lat="45.75741" lon="3.02874">
        <ele>805.3772</ele>
        <time>2021-06-06T07:45:13Z</time>
      </trkpt>
      <trkpt lat="45.75739" lon="3.02873">
        <ele>805.63257</ele>
        <time>2021-06-06T07:45:14Z</time>
      </trkpt>
      <trkpt lat="45.75738" lon="3.02872">
        <ele>805.4294</ele>
        <time>2021-06-06T07:45:15Z</time>
      </trkpt>
      <trkpt lat="45.75737" lon="3.02871">
        <ele>805.40845</ele>
        <time>2021-06-06T07:45:16Z</time>
      </trkpt>
      <trkpt lat="45.75736" lon="3.0287">
        <ele>805.54395</ele>
        <time>2021-06-06T07:45:17Z</time>
      </trkpt>
      <trkpt lat="45.75734" lon="3.02868">
        <ele>805.4658</ele>
        <time>2021-06-06T07:45:18Z</time>
      </trkpt>
      <trkpt lat="45.75732" lon="3.02867">
        <ele>805.57526</ele>
        <time>2021-06-06T07:45:19Z</time>
      </trkpt>
      <trkpt lat="45.75731" lon="3.02866">
        <ele>805.5179</ele>
        <time>2021-06-06T07:45:20Z</time>
      </trkpt>
      <trkpt lat="45.7573" lon="3.02865">
        <ele>805.3616</ele>
        <time>2021-06-06T07:45:21Z</time>
      </trkpt>
      <trkpt lat="45.75729" lon="3.02864">
        <ele>805.6899</ele>
        <time>2021-06-06T07:45:22Z</time>
      </trkpt>
      <trkpt lat="45.75727" lon="3.02863">
        <ele>805.7941</ele>
        <time>2021-06-06T07:45:23Z</time>
      </trkpt>
      <trkpt lat="45.75726" lon="3.02862">
        <ele>805.8515</ele>
        <time>2021-06-06T07:45:24Z</time>
      </trkpt>
      <trkpt lat="45.75725" lon="3.02861">
        <ele>806.0964</ele>
        <time>2021-06-06T07:45:25Z</time>
      </trkpt>
      <trkpt lat="45.75723" lon="3.0286">
        <ele>805.987</ele>
        <time>2021-06-06T07:45:26Z</time>
      </trkpt>
      <trkpt lat="45.75723" lon="3.02858">
        <ele>806.10675</ele>
        <time>2021-06-06T07:45:27Z</time>
      </trkpt>
      <trkpt lat="45.75721" lon="3.02856">
        <ele>806.31006</ele>
        <time>2021-06-06T07:45:28Z</time>
      </trkpt>
      <trkpt lat="45.7572" lon="3.02855">
        <ele>806.37775</ele>
        <time>2021-06-06T07:45:29Z</time>
      </trkpt>
      <trkpt lat="45.75719" lon="3.02853">
        <ele>806.5967</ele>
        <time>2021-06-06T07:45:30Z</time>
      </trkpt>
      <trkpt lat="45.75718" lon="3.02852">
        <ele>806.8208</ele>
        <time>2021-06-06T07:45:31Z</time>
      </trkpt>
      <trkpt lat="45.75717" lon="3.02851">
        <ele>806.6331</ele>
        <time>2021-06-06T07:45:32Z</time>
      </trkpt>
      <trkpt lat="45.75716" lon="3.0285">
        <ele>806.6853</ele>
        <time>2021-06-06T07:45:33Z</time>
      </trkpt>
      <trkpt lat="45.75715" lon="3.02848">
        <ele>806.66437</ele>
        <time>2021-06-06T07:45:34Z</time>
      </trkpt>
      <trkpt lat="45.75713" lon="3.02847">
        <ele>806.8416</ele>
        <time>2021-06-06T07:45:35Z</time>
      </trkpt>
      <trkpt lat="45.75712" lon="3.02845">
        <ele>807.05005</ele>
        <time>2021-06-06T07:45:36Z</time>
      </trkpt>
      <trkpt lat="45.7571" lon="3.02844">
        <ele>806.99274</ele>
        <time>2021-06-06T07:45:37Z</time>
      </trkpt>
      <trkpt lat="45.7571" lon="3.02844">
        <ele>806.9823</ele>
        <time>2021-06-06T07:45:38Z</time>
      </trkpt>
      <trkpt lat="45.75709" lon="3.02844">
        <ele>807.2377</ele>
        <time>2021-06-06T07:45:39Z</time>
      </trkpt>
      <trkpt lat="45.75709" lon="3.02843">
        <ele>807.295</ele>
        <time>2021-06-06T07:45:40Z</time>
      </trkpt>
      <trkpt lat="45.75708" lon="3.02843">
        <ele>807.2168</ele>
        <time>2021-06-06T07:45:41Z</time>
      </trkpt>
      <trkpt lat="45.75708" lon="3.02843">
        <ele>807.1595</ele>
        <time>2021-06-06T07:45:42Z</time>
      </trkpt>
      <trkpt lat="45.75708" lon="3.02843">
        <ele>807.1751</ele>
        <time>2021-06-06T07:45:43Z</time>
      </trkpt>
      <trkpt lat="45.75707" lon="3.02842">
        <ele>807.1387</ele>
        <time>2021-06-06T07:45:44Z</time>
      </trkpt>
      <trkpt lat="45.75706" lon="3.02841">
        <ele>807.3106</ele>
        <time>2021-06-06T07:45:45Z</time>
      </trkpt>
      <trkpt lat="45.75704" lon="3.0284">
        <ele>807.12305</ele>
        <time>2021-06-06T07:45:46Z</time>
      </trkpt>
      <trkpt lat="45.75702" lon="3.02839">
        <ele>807.0396</ele>
        <time>2021-06-06T07:45:47Z</time>
      </trkpt>
      <trkpt lat="45.757" lon="3.02838">
        <ele>806.826</ele>
        <time>2021-06-06T07:45:48Z</time>
      </trkpt>
      <trkpt lat="45.75699" lon="3.02837">
        <ele>806.6853</ele>
        <time>2021-06-06T07:45:49Z</time>
      </trkpt>
      <trkpt lat="45.75697" lon="3.02837">
        <ele>806.9667</ele>
        <time>2021-06-06T07:45:50Z</time>
      </trkpt>
      <trkpt lat="45.75695" lon="3.02836">
        <ele>807.2012</ele>
        <time>2021-06-06T07:45:51Z</time>
      </trkpt>
      <trkpt lat="45.75694" lon="3.02834">
        <ele>807.097</ele>
        <time>2021-06-06T07:45:52Z</time>
      </trkpt>
      <trkpt lat="45.75692" lon="3.02833">
        <ele>807.21155</ele>
        <time>2021-06-06T07:45:53Z</time>
      </trkpt>
      <trkpt lat="45.75691" lon="3.02832">
        <ele>807.2689</ele>
        <time>2021-06-06T07:45:54Z</time>
      </trkpt>
      <trkpt lat="45.7569" lon="3.02832">
        <ele>807.25854</ele>
        <time>2021-06-06T07:45:55Z</time>
      </trkpt>
      <trkpt lat="45.75689" lon="3.02831">
        <ele>807.49817</ele>
        <time>2021-06-06T07:45:56Z</time>
      </trkpt>
      <trkpt lat="45.75688" lon="3.02829">
        <ele>807.55554</ele>
        <time>2021-06-06T07:45:57Z</time>
      </trkpt>
      <trkpt lat="45.75686" lon="3.02828">
        <ele>807.5035</ele>
        <time>2021-06-06T07:45:59Z</time>
      </trkpt>
      <trkpt lat="45.75686" lon="3.02826">
        <ele>807.5868</ele>
        <time>2021-06-06T07:46:00Z</time>
      </trkpt>
      <trkpt lat="45.75684" lon="3.02824">
        <ele>807.57117</ele>
        <time>2021-06-06T07:46:01Z</time>
      </trkpt>
      <trkpt lat="45.75683" lon="3.02822">
        <ele>807.6076</ele>
        <time>2021-06-06T07:46:02Z</time>
      </trkpt>
      <trkpt lat="45.75682" lon="3.02821">
        <ele>807.49817</ele>
        <time>2021-06-06T07:46:03Z</time>
      </trkpt>
      <trkpt lat="45.75681" lon="3.0282">
        <ele>807.48254</ele>
        <time>2021-06-06T07:46:04Z</time>
      </trkpt>
      <trkpt lat="45.7568" lon="3.02819">
        <ele>807.55035</ele>
        <time>2021-06-06T07:46:05Z</time>
      </trkpt>
      <trkpt lat="45.75679" lon="3.02818">
        <ele>807.64417</ele>
        <time>2021-06-06T07:46:06Z</time>
      </trkpt>
      <trkpt lat="45.75678" lon="3.02818">
        <ele>807.7223</ele>
        <time>2021-06-06T07:46:07Z</time>
      </trkpt>
      <trkpt lat="45.75677" lon="3.02817">
        <ele>807.96204</ele>
        <time>2021-06-06T07:46:08Z</time>
      </trkpt>
      <trkpt lat="45.75675" lon="3.02816">
        <ele>808.2799</ele>
        <time>2021-06-06T07:46:09Z</time>
      </trkpt>
      <trkpt lat="45.75673" lon="3.02815">
        <ele>808.29034</ele>
        <time>2021-06-06T07:46:10Z</time>
      </trkpt>
      <trkpt lat="45.75673" lon="3.02814">
        <ele>808.3373</ele>
        <time>2021-06-06T07:46:11Z</time>
      </trkpt>
      <trkpt lat="45.75673" lon="3.02813">
        <ele>808.51965</ele>
        <time>2021-06-06T07:46:12Z</time>
      </trkpt>
      <trkpt lat="45.75671" lon="3.02811">
        <ele>808.5769</ele>
        <time>2021-06-06T07:46:13Z</time>
      </trkpt>
      <trkpt lat="45.7567" lon="3.0281">
        <ele>808.74365</ele>
        <time>2021-06-06T07:46:14Z</time>
      </trkpt>
      <trkpt lat="45.75668" lon="3.02809">
        <ele>808.93134</ele>
        <time>2021-06-06T07:46:15Z</time>
      </trkpt>
      <trkpt lat="45.75667" lon="3.02808">
        <ele>808.775</ele>
        <time>2021-06-06T07:46:16Z</time>
      </trkpt>
      <trkpt lat="45.75666" lon="3.02807">
        <ele>808.85315</ele>
        <time>2021-06-06T07:46:17Z</time>
      </trkpt>
      <trkpt lat="45.75665" lon="3.02807">
        <ele>809.1398</ele>
        <time>2021-06-06T07:46:18Z</time>
      </trkpt>
      <trkpt lat="45.75663" lon="3.02807">
        <ele>809.14496</ele>
        <time>2021-06-06T07:46:19Z</time>
      </trkpt>
      <trkpt lat="45.75662" lon="3.02806">
        <ele>809.2336</ele>
        <time>2021-06-06T07:46:20Z</time>
      </trkpt>
      <trkpt lat="45.7566" lon="3.02805">
        <ele>809.3274</ele>
        <time>2021-06-06T07:46:21Z</time>
      </trkpt>
      <trkpt lat="45.75658" lon="3.02805">
        <ele>809.4785</ele>
        <time>2021-06-06T07:46:22Z</time>
      </trkpt>
      <trkpt lat="45.75657" lon="3.02804">
        <ele>809.4733</ele>
        <time>2021-06-06T07:46:23Z</time>
      </trkpt>
      <trkpt lat="45.75656" lon="3.02803">
        <ele>809.7182</ele>
        <time>2021-06-06T07:46:24Z</time>
      </trkpt>
      <trkpt lat="45.75655" lon="3.02802">
        <ele>809.8589</ele>
        <time>2021-06-06T07:46:25Z</time>
      </trkpt>
      <trkpt lat="45.75654" lon="3.02801">
        <ele>809.7547</ele>
        <time>2021-06-06T07:46:26Z</time>
      </trkpt>
      <trkpt lat="45.75653" lon="3.028">
        <ele>809.8381</ele>
        <time>2021-06-06T07:46:27Z</time>
      </trkpt>
      <trkpt lat="45.75652" lon="3.02799">
        <ele>809.9267</ele>
        <time>2021-06-06T07:46:28Z</time>
      </trkpt>
      <trkpt lat="45.75651" lon="3.02798">
        <ele>810.09344</ele>
        <time>2021-06-06T07:46:29Z</time>
      </trkpt>
      <trkpt lat="45.75649" lon="3.02797">
        <ele>810.32275</ele>
        <time>2021-06-06T07:46:30Z</time>
      </trkpt>
      <trkpt lat="45.75647" lon="3.02796">
        <ele>810.36444</ele>
        <time>2021-06-06T07:46:31Z</time>
      </trkpt>
      <trkpt lat="45.75646" lon="3.02796">
        <ele>810.3071</ele>
        <time>2021-06-06T07:46:32Z</time>
      </trkpt>
      <trkpt lat="45.75644" lon="3.02794">
        <ele>810.3748</ele>
        <time>2021-06-06T07:46:33Z</time>
      </trkpt>
      <trkpt lat="45.75643" lon="3.02793">
        <ele>810.28625</ele>
        <time>2021-06-06T07:46:34Z</time>
      </trkpt>
      <trkpt lat="45.75642" lon="3.02793">
        <ele>810.5833</ele>
        <time>2021-06-06T07:46:35Z</time>
      </trkpt>
      <trkpt lat="45.75641" lon="3.02792">
        <ele>810.3488</ele>
        <time>2021-06-06T07:46:36Z</time>
      </trkpt>
      <trkpt lat="45.7564" lon="3.0279">
        <ele>810.5833</ele>
        <time>2021-06-06T07:46:37Z</time>
      </trkpt>
      <trkpt lat="45.75638" lon="3.02788">
        <ele>810.7136</ele>
        <time>2021-06-06T07:46:38Z</time>
      </trkpt>
      <trkpt lat="45.75637" lon="3.02787">
        <ele>810.6354</ele>
        <time>2021-06-06T07:46:39Z</time>
      </trkpt>
      <trkpt lat="45.75636" lon="3.02787">
        <ele>810.6719</ele>
        <time>2021-06-06T07:46:40Z</time>
      </trkpt>
      <trkpt lat="45.75634" lon="3.02786">
        <ele>810.823</ele>
        <time>2021-06-06T07:46:41Z</time>
      </trkpt>
      <trkpt lat="45.75633" lon="3.02785">
        <ele>810.8543</ele>
        <time>2021-06-06T07:46:42Z</time>
      </trkpt>
      <trkpt lat="45.75631" lon="3.02785">
        <ele>811.06274</ele>
        <time>2021-06-06T07:46:43Z</time>
      </trkpt>
      <trkpt lat="45.7563" lon="3.02784">
        <ele>811.266</ele>
        <time>2021-06-06T07:46:44Z</time>
      </trkpt>
      <trkpt lat="45.7563" lon="3.02784">
        <ele>811.53174</ele>
        <time>2021-06-06T07:46:45Z</time>
      </trkpt>
      <trkpt lat="45.75628" lon="3.02783">
        <ele>811.464</ele>
        <time>2021-06-06T07:46:46Z</time>
      </trkpt>
      <trkpt lat="45.75628" lon="3.02782">
        <ele>811.7975</ele>
        <time>2021-06-06T07:46:47Z</time>
      </trkpt>
      <trkpt lat="45.75626" lon="3.02782">
        <ele>812.1154</ele>
        <time>2021-06-06T07:46:48Z</time>
      </trkpt>
      <trkpt lat="45.75626" lon="3.02782">
        <ele>812.39685</ele>
        <time>2021-06-06T07:46:49Z</time>
      </trkpt>
      <trkpt lat="45.75625" lon="3.02782">
        <ele>812.32385</ele>
        <time>2021-06-06T07:46:50Z</time>
      </trkpt>
      <trkpt lat="45.75625" lon="3.02781">
        <ele>812.5792</ele>
        <time>2021-06-06T07:46:51Z</time>
      </trkpt>
      <trkpt lat="45.75625" lon="3.02781">
        <ele>812.8502</ele>
        <time>2021-06-06T07:46:52Z</time>
      </trkpt>
      <trkpt lat="45.75625" lon="3.02781">
        <ele>813.1681</ele>
        <time>2021-06-06T07:46:53Z</time>
      </trkpt>
      <trkpt lat="45.75622" lon="3.0278">
        <ele>813.38696</ele>
        <time>2021-06-06T07:46:54Z</time>
      </trkpt>
      <trkpt lat="45.75621" lon="3.0278">
        <ele>813.4912</ele>
        <time>2021-06-06T07:46:55Z</time>
      </trkpt>
      <trkpt lat="45.7562" lon="3.0278">
        <ele>813.7309</ele>
        <time>2021-06-06T07:46:56Z</time>
      </trkpt>
      <trkpt lat="45.75618" lon="3.0278">
        <ele>814.0227</ele>
        <time>2021-06-06T07:46:57Z</time>
      </trkpt>
      <trkpt lat="45.75618" lon="3.0278">
        <ele>814.0957</ele>
        <time>2021-06-06T07:46:58Z</time>
      </trkpt>
      <trkpt lat="45.75617" lon="3.0278">
        <ele>814.1634</ele>
        <time>2021-06-06T07:46:59Z</time>
      </trkpt>
      <trkpt lat="45.75615" lon="3.02778">
        <ele>814.62726</ele>
        <time>2021-06-06T07:47:00Z</time>
      </trkpt>
      <trkpt lat="45.75612" lon="3.02776">
        <ele>814.76276</ele>
        <time>2021-06-06T07:47:02Z</time>
      </trkpt>
      <trkpt lat="45.75612" lon="3.02776">
        <ele>815.03894</ele>
        <time>2021-06-06T07:47:03Z</time>
      </trkpt>
      <trkpt lat="45.75611" lon="3.02777">
        <ele>815.1588</ele>
        <time>2021-06-06T07:47:04Z</time>
      </trkpt>
      <trkpt lat="45.7561" lon="3.02777">
        <ele>815.4819</ele>
        <time>2021-06-06T07:47:05Z</time>
      </trkpt>
      <trkpt lat="45.75609" lon="3.02778">
        <ele>815.7633</ele>
        <time>2021-06-06T07:47:06Z</time>
      </trkpt>
      <trkpt lat="45.75609" lon="3.02778">
        <ele>815.79974</ele>
        <time>2021-06-06T07:47:07Z</time>
      </trkpt>
      <trkpt lat="45.75609" lon="3.02778">
        <ele>816.0812</ele>
        <time>2021-06-06T07:47:08Z</time>
      </trkpt>
      <trkpt lat="45.75607" lon="3.0278">
        <ele>816.2323</ele>
        <time>2021-06-06T07:47:09Z</time>
      </trkpt>
      <trkpt lat="45.75606" lon="3.0278">
        <ele>816.2845</ele>
        <time>2021-06-06T07:47:10Z</time>
      </trkpt>
      <trkpt lat="45.75605" lon="3.02781">
        <ele>816.4877</ele>
        <time>2021-06-06T07:47:11Z</time>
      </trkpt>
      <trkpt lat="45.75604" lon="3.02782">
        <ele>816.67523</ele>
        <time>2021-06-06T07:47:12Z</time>
      </trkpt>
      <trkpt lat="45.75602" lon="3.02782">
        <ele>817.2172</ele>
        <time>2021-06-06T07:47:13Z</time>
      </trkpt>
      <trkpt lat="45.756" lon="3.02783">
        <ele>817.4674</ele>
        <time>2021-06-06T07:47:14Z</time>
      </trkpt>
      <trkpt lat="45.75599" lon="3.02783">
        <ele>817.46216</ele>
        <time>2021-06-06T07:47:15Z</time>
      </trkpt>
      <trkpt lat="45.75598" lon="3.02784">
        <ele>817.51953</ele>
        <time>2021-06-06T07:47:16Z</time>
      </trkpt>
      <trkpt lat="45.75597" lon="3.02785">
        <ele>817.6811</ele>
        <time>2021-06-06T07:47:17Z</time>
      </trkpt>
      <trkpt lat="45.75596" lon="3.02786">
        <ele>817.73834</ele>
        <time>2021-06-06T07:47:18Z</time>
      </trkpt>
      <trkpt lat="45.75595" lon="3.02787">
        <ele>817.7019</ele>
        <time>2021-06-06T07:47:19Z</time>
      </trkpt>
      <trkpt lat="45.75593" lon="3.02787">
        <ele>818.0562</ele>
        <time>2021-06-06T07:47:20Z</time>
      </trkpt>
      <trkpt lat="45.75592" lon="3.02787">
        <ele>818.2491</ele>
        <time>2021-06-06T07:47:21Z</time>
      </trkpt>
      <trkpt lat="45.75591" lon="3.02787">
        <ele>818.38983</ele>
        <time>2021-06-06T07:47:22Z</time>
      </trkpt>
      <trkpt lat="45.7559" lon="3.02788">
        <ele>818.5565</ele>
        <time>2021-06-06T07:47:23Z</time>
      </trkpt>
      <trkpt lat="45.75589" lon="3.02787">
        <ele>818.7545</ele>
        <time>2021-06-06T07:47:24Z</time>
      </trkpt>
      <trkpt lat="45.75588" lon="3.02787">
        <ele>818.8067</ele>
        <time>2021-06-06T07:47:25Z</time>
      </trkpt>
      <trkpt lat="45.75587" lon="3.02787">
        <ele>818.70764</ele>
        <time>2021-06-06T07:47:26Z</time>
      </trkpt>
      <trkpt lat="45.75586" lon="3.02787">
        <ele>818.7389</ele>
        <time>2021-06-06T07:47:27Z</time>
      </trkpt>
      <trkpt lat="45.75584" lon="3.02787">
        <ele>819.17145</ele>
        <time>2021-06-06T07:47:28Z</time>
      </trkpt>
      <trkpt lat="45.75584" lon="3.02787">
        <ele>819.2288</ele>
        <time>2021-06-06T07:47:29Z</time>
      </trkpt>
      <trkpt lat="45.75584" lon="3.02788">
        <ele>819.18195</ele>
        <time>2021-06-06T07:47:30Z</time>
      </trkpt>
      <trkpt lat="45.75582" lon="3.0279">
        <ele>819.3904</ele>
        <time>2021-06-06T07:47:31Z</time>
      </trkpt>
      <trkpt lat="45.75581" lon="3.0279">
        <ele>819.5675</ele>
        <time>2021-06-06T07:47:32Z</time>
      </trkpt>
      <trkpt lat="45.7558" lon="3.02791">
        <ele>819.5623</ele>
        <time>2021-06-06T07:47:33Z</time>
      </trkpt>
      <trkpt lat="45.75579" lon="3.02792">
        <ele>819.84894</ele>
        <time>2021-06-06T07:47:34Z</time>
      </trkpt>
      <trkpt lat="45.75578" lon="3.02792">
        <ele>820.0678</ele>
        <time>2021-06-06T07:47:35Z</time>
      </trkpt>
      <trkpt lat="45.75577" lon="3.02791">
        <ele>820.1773</ele>
        <time>2021-06-06T07:47:36Z</time>
      </trkpt>
      <trkpt lat="45.75575" lon="3.02792">
        <ele>820.25543</ele>
        <time>2021-06-06T07:47:37Z</time>
      </trkpt>
      <trkpt lat="45.75574" lon="3.02793">
        <ele>820.46387</ele>
        <time>2021-06-06T07:47:38Z</time>
      </trkpt>
      <trkpt lat="45.75573" lon="3.02794">
        <ele>820.5212</ele>
        <time>2021-06-06T07:47:39Z</time>
      </trkpt>
      <trkpt lat="45.75572" lon="3.02794">
        <ele>820.6254</ele>
        <time>2021-06-06T07:47:40Z</time>
      </trkpt>
      <trkpt lat="45.7557" lon="3.02794">
        <ele>820.7453</ele>
        <time>2021-06-06T07:47:41Z</time>
      </trkpt>
      <trkpt lat="45.75568" lon="3.02794">
        <ele>820.7505</ele>
        <time>2021-06-06T07:47:42Z</time>
      </trkpt>
      <trkpt lat="45.75567" lon="3.02795">
        <ele>820.90686</ele>
        <time>2021-06-06T07:47:43Z</time>
      </trkpt>
      <trkpt lat="45.75565" lon="3.02795">
        <ele>821.2821</ele>
        <time>2021-06-06T07:47:44Z</time>
      </trkpt>
      <trkpt lat="45.75564" lon="3.02795">
        <ele>821.47485</ele>
        <time>2021-06-06T07:47:45Z</time>
      </trkpt>
      <trkpt lat="45.75562" lon="3.02796">
        <ele>821.4645</ele>
        <time>2021-06-06T07:47:46Z</time>
      </trkpt>
      <trkpt lat="45.75561" lon="3.02796">
        <ele>821.60516</ele>
        <time>2021-06-06T07:47:47Z</time>
      </trkpt>
      <trkpt lat="45.7556" lon="3.02795">
        <ele>821.63116</ele>
        <time>2021-06-06T07:47:48Z</time>
      </trkpt>
      <trkpt lat="45.75559" lon="3.02796">
        <ele>821.7823</ele>
        <time>2021-06-06T07:47:49Z</time>
      </trkpt>
      <trkpt lat="45.75558" lon="3.02796">
        <ele>821.6938</ele>
        <time>2021-06-06T07:47:50Z</time>
      </trkpt>
      <trkpt lat="45.75557" lon="3.02796">
        <ele>821.5791</ele>
        <time>2021-06-06T07:47:51Z</time>
      </trkpt>
      <trkpt lat="45.75555" lon="3.02795">
        <ele>821.7146</ele>
        <time>2021-06-06T07:47:52Z</time>
      </trkpt>
      <trkpt lat="45.75555" lon="3.02795">
        <ele>821.88654</ele>
        <time>2021-06-06T07:47:53Z</time>
      </trkpt>
      <trkpt lat="45.75554" lon="3.02794">
        <ele>821.90216</ele>
        <time>2021-06-06T07:47:54Z</time>
      </trkpt>
      <trkpt lat="45.75553" lon="3.02794">
        <ele>822.01685</ele>
        <time>2021-06-06T07:47:55Z</time>
      </trkpt>
      <trkpt lat="45.75551" lon="3.02795">
        <ele>822.05853</ele>
        <time>2021-06-06T07:47:56Z</time>
      </trkpt>
      <trkpt lat="45.75549" lon="3.02796">
        <ele>821.95953</ele>
        <time>2021-06-06T07:47:57Z</time>
      </trkpt>
      <trkpt lat="45.75548" lon="3.02797">
        <ele>822.24615</ele>
        <time>2021-06-06T07:47:58Z</time>
      </trkpt>
      <trkpt lat="45.75547" lon="3.02797">
        <ele>822.6787</ele>
        <time>2021-06-06T07:47:59Z</time>
      </trkpt>
      <trkpt lat="45.75545" lon="3.02797">
        <ele>822.65784</ele>
        <time>2021-06-06T07:48:00Z</time>
      </trkpt>
      <trkpt lat="45.75542" lon="3.02797">
        <ele>822.5953</ele>
        <time>2021-06-06T07:48:01Z</time>
      </trkpt>
      <trkpt lat="45.75541" lon="3.02797">
        <ele>822.7256</ele>
        <time>2021-06-06T07:48:02Z</time>
      </trkpt>
      <trkpt lat="45.75539" lon="3.02797">
        <ele>822.6683</ele>
        <time>2021-06-06T07:48:03Z</time>
      </trkpt>
      <trkpt lat="45.75539" lon="3.02797">
        <ele>822.7986</ele>
        <time>2021-06-06T07:48:04Z</time>
      </trkpt>
      <trkpt lat="45.75538" lon="3.02797">
        <ele>822.8767</ele>
        <time>2021-06-06T07:48:05Z</time>
      </trkpt>
      <trkpt lat="45.75536" lon="3.02797">
        <ele>822.8246</ele>
        <time>2021-06-06T07:48:06Z</time>
      </trkpt>
      <trkpt lat="45.75534" lon="3.02798">
        <ele>822.9393</ele>
        <time>2021-06-06T07:48:07Z</time>
      </trkpt>
      <trkpt lat="45.75533" lon="3.02798">
        <ele>822.91315</ele>
        <time>2021-06-06T07:48:08Z</time>
      </trkpt>
      <trkpt lat="45.75531" lon="3.02798">
        <ele>823.0174</ele>
        <time>2021-06-06T07:48:09Z</time>
      </trkpt>
      <trkpt lat="45.7553" lon="3.02798">
        <ele>823.25714</ele>
        <time>2021-06-06T07:48:10Z</time>
      </trkpt>
      <trkpt lat="45.75529" lon="3.02799">
        <ele>823.0018</ele>
        <time>2021-06-06T07:48:11Z</time>
      </trkpt>
      <trkpt lat="45.75527" lon="3.02799">
        <ele>823.1008</ele>
        <time>2021-06-06T07:48:12Z</time>
      </trkpt>
      <trkpt lat="45.75526" lon="3.02799">
        <ele>823.20496</ele>
        <time>2021-06-06T07:48:13Z</time>
      </trkpt>
      <trkpt lat="45.75525" lon="3.02799">
        <ele>823.18933</ele>
        <time>2021-06-06T07:48:14Z</time>
      </trkpt>
      <trkpt lat="45.75524" lon="3.02798">
        <ele>823.25195</ele>
        <time>2021-06-06T07:48:15Z</time>
      </trkpt>
      <trkpt lat="45.75523" lon="3.02798">
        <ele>823.2311</ele>
        <time>2021-06-06T07:48:16Z</time>
      </trkpt>
      <trkpt lat="45.75522" lon="3.02798">
        <ele>823.27795</ele>
        <time>2021-06-06T07:48:17Z</time>
      </trkpt>
      <trkpt lat="45.75521" lon="3.02798">
        <ele>823.2623</ele>
        <time>2021-06-06T07:48:18Z</time>
      </trkpt>
      <trkpt lat="45.75518" lon="3.02796">
        <ele>823.18933</ele>
        <time>2021-06-06T07:48:20Z</time>
      </trkpt>
      <trkpt lat="45.75517" lon="3.02795">
        <ele>823.11646</ele>
        <time>2021-06-06T07:48:21Z</time>
      </trkpt>
      <trkpt lat="45.75515" lon="3.02794">
        <ele>823.19977</ele>
        <time>2021-06-06T07:48:22Z</time>
      </trkpt>
      <trkpt lat="45.75515" lon="3.02794">
        <ele>823.1633</ele>
        <time>2021-06-06T07:48:23Z</time>
      </trkpt>
      <trkpt lat="45.75514" lon="3.02794">
        <ele>822.91315</ele>
        <time>2021-06-06T07:48:24Z</time>
      </trkpt>
      <trkpt lat="45.75512" lon="3.02793">
        <ele>823.304</ele>
        <time>2021-06-06T07:48:25Z</time>
      </trkpt>
      <trkpt lat="45.75511" lon="3.02794">
        <ele>823.33527</ele>
        <time>2021-06-06T07:48:26Z</time>
      </trkpt>
      <trkpt lat="45.7551" lon="3.02794">
        <ele>823.19977</ele>
        <time>2021-06-06T07:48:27Z</time>
      </trkpt>
      <trkpt lat="45.75509" lon="3.02795">
        <ele>823.0382</ele>
        <time>2021-06-06T07:48:28Z</time>
      </trkpt>
      <trkpt lat="45.75508" lon="3.02796">
        <ele>823.14246</ele>
        <time>2021-06-06T07:48:29Z</time>
      </trkpt>
      <trkpt lat="45.75506" lon="3.02797">
        <ele>823.304</ele>
        <time>2021-06-06T07:48:30Z</time>
      </trkpt>
      <trkpt lat="45.75505" lon="3.02797">
        <ele>823.2676</ele>
        <time>2021-06-06T07:48:31Z</time>
      </trkpt>
      <trkpt lat="45.75504" lon="3.02797">
        <ele>823.0956</ele>
        <time>2021-06-06T07:48:32Z</time>
      </trkpt>
      <trkpt lat="45.75503" lon="3.02798">
        <ele>823.5125</ele>
        <time>2021-06-06T07:48:33Z</time>
      </trkpt>
      <trkpt lat="45.75502" lon="3.02798">
        <ele>823.5229</ele>
        <time>2021-06-06T07:48:34Z</time>
      </trkpt>
      <trkpt lat="45.75501" lon="3.02798">
        <ele>823.2676</ele>
        <time>2021-06-06T07:48:35Z</time>
      </trkpt>
      <trkpt lat="45.75499" lon="3.02797">
        <ele>823.39264</ele>
        <time>2021-06-06T07:48:36Z</time>
      </trkpt>
      <trkpt lat="45.75499" lon="3.02796">
        <ele>823.5229</ele>
        <time>2021-06-06T07:48:37Z</time>
      </trkpt>
      <trkpt lat="45.75497" lon="3.02795">
        <ele>823.5177</ele>
        <time>2021-06-06T07:48:38Z</time>
      </trkpt>
      <trkpt lat="45.75496" lon="3.02796">
        <ele>823.4187</ele>
        <time>2021-06-06T07:48:39Z</time>
      </trkpt>
      <trkpt lat="45.75494" lon="3.02795">
        <ele>823.7001</ele>
        <time>2021-06-06T07:48:40Z</time>
      </trkpt>
      <trkpt lat="45.75494" lon="3.02795">
        <ele>823.82513</ele>
        <time>2021-06-06T07:48:41Z</time>
      </trkpt>
      <trkpt lat="45.75492" lon="3.02795">
        <ele>823.8981</ele>
        <time>2021-06-06T07:48:42Z</time>
      </trkpt>
      <trkpt lat="45.75491" lon="3.02795">
        <ele>823.8564</ele>
        <time>2021-06-06T07:48:43Z</time>
      </trkpt>
      <trkpt lat="45.75489" lon="3.02795">
        <ele>823.81995</ele>
        <time>2021-06-06T07:48:44Z</time>
      </trkpt>
      <trkpt lat="45.75488" lon="3.02795">
        <ele>823.9919</ele>
        <time>2021-06-06T07:48:45Z</time>
      </trkpt>
      <trkpt lat="45.75487" lon="3.02794">
        <ele>823.9919</ele>
        <time>2021-06-06T07:48:46Z</time>
      </trkpt>
      <trkpt lat="45.75486" lon="3.02794">
        <ele>824.143</ele>
        <time>2021-06-06T07:48:47Z</time>
      </trkpt>
      <trkpt lat="45.75484" lon="3.02795">
        <ele>823.99713</ele>
        <time>2021-06-06T07:48:48Z</time>
      </trkpt>
      <trkpt lat="45.75483" lon="3.02795">
        <ele>824.24725</ele>
        <time>2021-06-06T07:48:49Z</time>
      </trkpt>
      <trkpt lat="45.75483" lon="3.02796">
        <ele>824.2629</ele>
        <time>2021-06-06T07:48:50Z</time>
      </trkpt>
      <trkpt lat="45.75481" lon="3.02795">
        <ele>824.414</ele>
        <time>2021-06-06T07:48:51Z</time>
      </trkpt>
      <trkpt lat="45.7548" lon="3.02795">
        <ele>824.57556</ele>
        <time>2021-06-06T07:48:52Z</time>
      </trkpt>
      <trkpt lat="45.75478" lon="3.02793">
        <ele>824.61206</ele>
        <time>2021-06-06T07:48:53Z</time>
      </trkpt>
      <trkpt lat="45.75476" lon="3.02793">
        <ele>824.7319</ele>
        <time>2021-06-06T07:48:54Z</time>
      </trkpt>
      <trkpt lat="45.75475" lon="3.02792">
        <ele>824.88306</ele>
        <time>2021-06-06T07:48:55Z</time>
      </trkpt>
      <trkpt lat="45.75473" lon="3.02792">
        <ele>824.7528</ele>
        <time>2021-06-06T07:48:56Z</time>
      </trkpt>
      <trkpt lat="45.75473" lon="3.02791">
        <ele>824.87787</ele>
        <time>2021-06-06T07:48:57Z</time>
      </trkpt>
      <trkpt lat="45.75471" lon="3.02791">
        <ele>825.25824</ele>
        <time>2021-06-06T07:48:58Z</time>
      </trkpt>
      <trkpt lat="45.7547" lon="3.0279">
        <ele>825.227</ele>
        <time>2021-06-06T07:48:59Z</time>
      </trkpt>
      <trkpt lat="45.75468" lon="3.02789">
        <ele>825.5032</ele>
        <time>2021-06-06T07:49:00Z</time>
      </trkpt>
      <trkpt lat="45.75466" lon="3.02788">
        <ele>825.5344</ele>
        <time>2021-06-06T07:49:01Z</time>
      </trkpt>
      <trkpt lat="45.75465" lon="3.02788">
        <ele>825.8106</ele>
        <time>2021-06-06T07:49:02Z</time>
      </trkpt>
      <trkpt lat="45.75465" lon="3.02787">
        <ele>825.88885</ele>
        <time>2021-06-06T07:49:03Z</time>
      </trkpt>
      <trkpt lat="45.75464" lon="3.02786">
        <ele>825.8106</ele>
        <time>2021-06-06T07:49:04Z</time>
      </trkpt>
      <trkpt lat="45.75463" lon="3.02785">
        <ele>825.7012</ele>
        <time>2021-06-06T07:49:05Z</time>
      </trkpt>
      <trkpt lat="45.75462" lon="3.02784">
        <ele>825.7117</ele>
        <time>2021-06-06T07:49:06Z</time>
      </trkpt>
      <trkpt lat="45.7546" lon="3.02783">
        <ele>825.75336</ele>
        <time>2021-06-06T07:49:07Z</time>
      </trkpt>
      <trkpt lat="45.75459" lon="3.02782">
        <ele>825.9983</ele>
        <time>2021-06-06T07:49:08Z</time>
      </trkpt>
      <trkpt lat="45.75459" lon="3.02782">
        <ele>826.0035</ele>
        <time>2021-06-06T07:49:09Z</time>
      </trkpt>
      <trkpt lat="45.75458" lon="3.0278">
        <ele>825.88885</ele>
        <time>2021-06-06T07:49:10Z</time>
      </trkpt>
      <trkpt lat="45.75457" lon="3.0278">
        <ele>826.0087</ele>
        <time>2021-06-06T07:49:11Z</time>
      </trkpt>
      <trkpt lat="45.75456" lon="3.0278">
        <ele>826.1286</ele>
        <time>2021-06-06T07:49:12Z</time>
      </trkpt>
      <trkpt lat="45.75454" lon="3.0278">
        <ele>826.0764</ele>
        <time>2021-06-06T07:49:13Z</time>
      </trkpt>
      <trkpt lat="45.75453" lon="3.02782">
        <ele>826.2327</ele>
        <time>2021-06-06T07:49:14Z</time>
      </trkpt>
      <trkpt lat="45.75452" lon="3.02782">
        <ele>826.3266</ele>
        <time>2021-06-06T07:49:15Z</time>
      </trkpt>
      <trkpt lat="45.75452" lon="3.02782">
        <ele>826.3526</ele>
        <time>2021-06-06T07:49:16Z</time>
      </trkpt>
      <trkpt lat="45.75452" lon="3.02781">
        <ele>826.4048</ele>
        <time>2021-06-06T07:49:17Z</time>
      </trkpt>
      <trkpt lat="45.7545" lon="3.02781">
        <ele>826.5663</ele>
        <time>2021-06-06T07:49:18Z</time>
      </trkpt>
      <trkpt lat="45.75448" lon="3.0278">
        <ele>826.61316</ele>
        <time>2021-06-06T07:49:19Z</time>
      </trkpt>
      <trkpt lat="45.75447" lon="3.02779">
        <ele>826.6028</ele>
        <time>2021-06-06T07:49:20Z</time>
      </trkpt>
      <trkpt lat="45.75446" lon="3.02778">
        <ele>826.57153</ele>
        <time>2021-06-06T07:49:21Z</time>
      </trkpt>
      <trkpt lat="45.75445" lon="3.02778">
        <ele>826.8685</ele>
        <time>2021-06-06T07:49:22Z</time>
      </trkpt>
      <trkpt lat="45.75444" lon="3.02777">
        <ele>826.8685</ele>
        <time>2021-06-06T07:49:23Z</time>
      </trkpt>
      <trkpt lat="45.75442" lon="3.02777">
        <ele>826.8998</ele>
        <time>2021-06-06T07:49:24Z</time>
      </trkpt>
      <trkpt lat="45.7544" lon="3.02778">
        <ele>827.05615</ele>
        <time>2021-06-06T07:49:25Z</time>
      </trkpt>
      <trkpt lat="45.75438" lon="3.02779">
        <ele>827.2281</ele>
        <time>2021-06-06T07:49:26Z</time>
      </trkpt>
      <trkpt lat="45.75436" lon="3.02778">
        <ele>827.29065</ele>
        <time>2021-06-06T07:49:27Z</time>
      </trkpt>
      <trkpt lat="45.75434" lon="3.02778">
        <ele>827.33234</ele>
        <time>2021-06-06T07:49:28Z</time>
      </trkpt>
      <trkpt lat="45.75432" lon="3.02776">
        <ele>827.3428</ele>
        <time>2021-06-06T07:49:29Z</time>
      </trkpt>
      <trkpt lat="45.75431" lon="3.02775">
        <ele>827.6607</ele>
        <time>2021-06-06T07:49:30Z</time>
      </trkpt>
      <trkpt lat="45.75429" lon="3.02775">
        <ele>827.7336</ele>
        <time>2021-06-06T07:49:31Z</time>
      </trkpt>
      <trkpt lat="45.75428" lon="3.02774">
        <ele>827.75446</ele>
        <time>2021-06-06T07:49:32Z</time>
      </trkpt>
      <trkpt lat="45.75427" lon="3.02775">
        <ele>827.6815</ele>
        <time>2021-06-06T07:49:33Z</time>
      </trkpt>
      <trkpt lat="45.75425" lon="3.02775">
        <ele>827.9003</ele>
        <time>2021-06-06T07:49:34Z</time>
      </trkpt>
      <trkpt lat="45.75423" lon="3.02775">
        <ele>828.1974</ele>
        <time>2021-06-06T07:49:35Z</time>
      </trkpt>
      <trkpt lat="45.75422" lon="3.02774">
        <ele>828.37463</ele>
        <time>2021-06-06T07:49:36Z</time>
      </trkpt>
      <trkpt lat="45.7542" lon="3.02773">
        <ele>828.5153</ele>
        <time>2021-06-06T07:49:37Z</time>
      </trkpt>
      <trkpt lat="45.75419" lon="3.02773">
        <ele>828.6091</ele>
        <time>2021-06-06T07:49:38Z</time>
      </trkpt>
      <trkpt lat="45.75418" lon="3.02773">
        <ele>828.7915</ele>
        <time>2021-06-06T07:49:39Z</time>
      </trkpt>
      <trkpt lat="45.75418" lon="3.02773">
        <ele>828.7394</ele>
        <time>2021-06-06T07:49:40Z</time>
      </trkpt>
      <trkpt lat="45.75417" lon="3.02773">
        <ele>828.8905</ele>
        <time>2021-06-06T07:49:41Z</time>
      </trkpt>
      <trkpt lat="45.75415" lon="3.02774">
        <ele>829.1146</ele>
        <time>2021-06-06T07:49:42Z</time>
      </trkpt>
      <trkpt lat="45.75414" lon="3.02774">
        <ele>829.297</ele>
        <time>2021-06-06T07:49:43Z</time>
      </trkpt>
      <trkpt lat="45.75414" lon="3.02773">
        <ele>829.40125</ele>
        <time>2021-06-06T07:49:44Z</time>
      </trkpt>
      <trkpt lat="45.75413" lon="3.02773">
        <ele>829.396</ele>
        <time>2021-06-06T07:49:45Z</time>
      </trkpt>
      <trkpt lat="45.75412" lon="3.02773">
        <ele>829.7243</ele>
        <time>2021-06-06T07:49:46Z</time>
      </trkpt>
      <trkpt lat="45.75412" lon="3.02772">
        <ele>829.8181</ele>
        <time>2021-06-06T07:49:47Z</time>
      </trkpt>
      <trkpt lat="45.7541" lon="3.02771">
        <ele>830.1412</ele>
        <time>2021-06-06T07:49:49Z</time>
      </trkpt>
      <trkpt lat="45.75408" lon="3.02771">
        <ele>830.3393</ele>
        <time>2021-06-06T07:49:50Z</time>
      </trkpt>
      <trkpt lat="45.75407" lon="3.02771">
        <ele>830.39136</ele>
        <time>2021-06-06T07:49:51Z</time>
      </trkpt>
      <trkpt lat="45.75407" lon="3.0277">
        <ele>830.3809</ele>
        <time>2021-06-06T07:49:52Z</time>
      </trkpt>
      <trkpt lat="45.75406" lon="3.0277">
        <ele>830.4435</ele>
        <time>2021-06-06T07:49:53Z</time>
      </trkpt>
      <trkpt lat="45.75404" lon="3.0277">
        <ele>830.7666</ele>
        <time>2021-06-06T07:49:54Z</time>
      </trkpt>
      <trkpt lat="45.75403" lon="3.02769">
        <ele>831.03235</ele>
        <time>2021-06-06T07:49:55Z</time>
      </trkpt>
      <trkpt lat="45.75401" lon="3.02769">
        <ele>830.8812</ele>
        <time>2021-06-06T07:49:56Z</time>
      </trkpt>
      <trkpt lat="45.75399" lon="3.02767">
        <ele>830.9802</ele>
        <time>2021-06-06T07:49:57Z</time>
      </trkpt>
      <trkpt lat="45.75397" lon="3.02767">
        <ele>831.22</ele>
        <time>2021-06-06T07:49:58Z</time>
      </trkpt>
      <trkpt lat="45.75394" lon="3.02766">
        <ele>831.2512</ele>
        <time>2021-06-06T07:49:59Z</time>
      </trkpt>
      <trkpt lat="45.75393" lon="3.02767">
        <ele>831.27734</ele>
        <time>2021-06-06T07:50:00Z</time>
      </trkpt>
      <trkpt lat="45.75392" lon="3.02767">
        <ele>831.3867</ele>
        <time>2021-06-06T07:50:01Z</time>
      </trkpt>
      <trkpt lat="45.7539" lon="3.02767">
        <ele>831.4805</ele>
        <time>2021-06-06T07:50:02Z</time>
      </trkpt>
      <trkpt lat="45.7539" lon="3.02768">
        <ele>831.49615</ele>
        <time>2021-06-06T07:50:03Z</time>
      </trkpt>
      <trkpt lat="45.75389" lon="3.02768">
        <ele>831.4857</ele>
        <time>2021-06-06T07:50:04Z</time>
      </trkpt>
      <trkpt lat="45.75388" lon="3.02769">
        <ele>831.543</ele>
        <time>2021-06-06T07:50:05Z</time>
      </trkpt>
      <trkpt lat="45.75388" lon="3.02769">
        <ele>831.8766</ele>
        <time>2021-06-06T07:50:06Z</time>
      </trkpt>
      <trkpt lat="45.75388" lon="3.02769">
        <ele>832.2049</ele>
        <time>2021-06-06T07:50:07Z</time>
      </trkpt>
      <trkpt lat="45.75387" lon="3.02771">
        <ele>832.2101</ele>
        <time>2021-06-06T07:50:08Z</time>
      </trkpt>
      <trkpt lat="45.75386" lon="3.02771">
        <ele>831.9547</ele>
        <time>2021-06-06T07:50:09Z</time>
      </trkpt>
      <trkpt lat="45.75385" lon="3.02771">
        <ele>832.38214</ele>
        <time>2021-06-06T07:50:10Z</time>
      </trkpt>
      <trkpt lat="45.75384" lon="3.02772">
        <ele>832.4811</ele>
        <time>2021-06-06T07:50:11Z</time>
      </trkpt>
      <trkpt lat="45.75382" lon="3.02772">
        <ele>832.5123</ele>
        <time>2021-06-06T07:50:12Z</time>
      </trkpt>
      <trkpt lat="45.75381" lon="3.02772">
        <ele>832.627</ele>
        <time>2021-06-06T07:50:13Z</time>
      </trkpt>
      <trkpt lat="45.7538" lon="3.02773">
        <ele>832.9032</ele>
        <time>2021-06-06T07:50:14Z</time>
      </trkpt>
      <trkpt lat="45.7538" lon="3.02773">
        <ele>833.1325</ele>
        <time>2021-06-06T07:50:15Z</time>
      </trkpt>
      <trkpt lat="45.75378" lon="3.02773">
        <ele>833.0491</ele>
        <time>2021-06-06T07:50:16Z</time>
      </trkpt>
      <trkpt lat="45.75376" lon="3.02774">
        <ele>833.4191</ele>
        <time>2021-06-06T07:50:17Z</time>
      </trkpt>
      <trkpt lat="45.75375" lon="3.02775">
        <ele>833.5807</ele>
        <time>2021-06-06T07:50:18Z</time>
      </trkpt>
      <trkpt lat="45.75373" lon="3.02777">
        <ele>833.71094</ele>
        <time>2021-06-06T07:50:19Z</time>
      </trkpt>
      <trkpt lat="45.75372" lon="3.02778">
        <ele>833.66925</ele>
        <time>2021-06-06T07:50:20Z</time>
      </trkpt>
      <trkpt lat="45.75371" lon="3.02779">
        <ele>833.9299</ele>
        <time>2021-06-06T07:50:21Z</time>
      </trkpt>
      <trkpt lat="45.75371" lon="3.0278">
        <ele>834.0914</ele>
        <time>2021-06-06T07:50:22Z</time>
      </trkpt>
      <trkpt lat="45.7537" lon="3.0278">
        <ele>834.1487</ele>
        <time>2021-06-06T07:50:23Z</time>
      </trkpt>
      <trkpt lat="45.75369" lon="3.0278">
        <ele>834.17474</ele>
        <time>2021-06-06T07:50:24Z</time>
      </trkpt>
      <trkpt lat="45.75368" lon="3.0278">
        <ele>833.94025</ele>
        <time>2021-06-06T07:50:25Z</time>
      </trkpt>
      <trkpt lat="45.75366" lon="3.0278">
        <ele>834.07574</ele>
        <time>2021-06-06T07:50:26Z</time>
      </trkpt>
      <trkpt lat="45.75366" lon="3.02782">
        <ele>834.1695</ele>
        <time>2021-06-06T07:50:27Z</time>
      </trkpt>
      <trkpt lat="45.75364" lon="3.02782">
        <ele>834.3206</ele>
        <time>2021-06-06T07:50:28Z</time>
      </trkpt>
      <trkpt lat="45.75364" lon="3.02784">
        <ele>834.5552</ele>
        <time>2021-06-06T07:50:29Z</time>
      </trkpt>
      <trkpt lat="45.75363" lon="3.02784">
        <ele>834.6907</ele>
        <time>2021-06-06T07:50:30Z</time>
      </trkpt>
      <trkpt lat="45.75362" lon="3.02784">
        <ele>834.67505</ele>
        <time>2021-06-06T07:50:31Z</time>
      </trkpt>
      <trkpt lat="45.75361" lon="3.02785">
        <ele>834.8626</ele>
        <time>2021-06-06T07:50:32Z</time>
      </trkpt>
      <trkpt lat="45.7536" lon="3.02787">
        <ele>835.191</ele>
        <time>2021-06-06T07:50:33Z</time>
      </trkpt>
      <trkpt lat="45.75359" lon="3.02787">
        <ele>835.3265</ele>
        <time>2021-06-06T07:50:34Z</time>
      </trkpt>
      <trkpt lat="45.75358" lon="3.02788">
        <ele>835.5245</ele>
        <time>2021-06-06T07:50:35Z</time>
      </trkpt>
      <trkpt lat="45.75357" lon="3.02788">
        <ele>835.9726</ele>
        <time>2021-06-06T07:50:36Z</time>
      </trkpt>
      <trkpt lat="45.75356" lon="3.02789">
        <ele>835.9935</ele>
        <time>2021-06-06T07:50:37Z</time>
      </trkpt>
      <trkpt lat="45.75355" lon="3.0279">
        <ele>836.2592</ele>
        <time>2021-06-06T07:50:38Z</time>
      </trkpt>
      <trkpt lat="45.75354" lon="3.02792">
        <ele>836.39996</ele>
        <time>2021-06-06T07:50:39Z</time>
      </trkpt>
      <trkpt lat="45.75352" lon="3.02794">
        <ele>836.6501</ele>
        <time>2021-06-06T07:50:40Z</time>
      </trkpt>
      <trkpt lat="45.75351" lon="3.02796">
        <ele>836.697</ele>
        <time>2021-06-06T07:50:41Z</time>
      </trkpt>
      <trkpt lat="45.7535" lon="3.02796">
        <ele>836.90546</ele>
        <time>2021-06-06T07:50:42Z</time>
      </trkpt>
      <trkpt lat="45.75349" lon="3.02797">
        <ele>837.364</ele>
        <time>2021-06-06T07:50:43Z</time>
      </trkpt>
      <trkpt lat="45.75348" lon="3.02799">
        <ele>837.54645</ele>
        <time>2021-06-06T07:50:44Z</time>
      </trkpt>
      <trkpt lat="45.75347" lon="3.028">
        <ele>837.68195</ele>
        <time>2021-06-06T07:50:45Z</time>
      </trkpt>
      <trkpt lat="45.75346" lon="3.02801">
        <ele>837.6194</ele>
        <time>2021-06-06T07:50:46Z</time>
      </trkpt>
      <trkpt lat="45.75345" lon="3.02802">
        <ele>837.8904</ele>
        <time>2021-06-06T07:50:47Z</time>
      </trkpt>
      <trkpt lat="45.75343" lon="3.02802">
        <ele>838.0571</ele>
        <time>2021-06-06T07:50:48Z</time>
      </trkpt>
      <trkpt lat="45.75343" lon="3.02804">
        <ele>838.1145</ele>
        <time>2021-06-06T07:50:49Z</time>
      </trkpt>
      <trkpt lat="45.75342" lon="3.02805">
        <ele>838.4532</ele>
        <time>2021-06-06T07:50:50Z</time>
      </trkpt>
      <trkpt lat="45.75341" lon="3.02806">
        <ele>838.6565</ele>
        <time>2021-06-06T07:50:51Z</time>
      </trkpt>
      <trkpt lat="45.7534" lon="3.02807">
        <ele>838.818</ele>
        <time>2021-06-06T07:50:52Z</time>
      </trkpt>
      <trkpt lat="45.75339" lon="3.02807">
        <ele>839.0838</ele>
        <time>2021-06-06T07:50:53Z</time>
      </trkpt>
      <trkpt lat="45.75338" lon="3.02808">
        <ele>839.15674</ele>
        <time>2021-06-06T07:50:54Z</time>
      </trkpt>
      <trkpt lat="45.75337" lon="3.02809">
        <ele>839.38086</ele>
        <time>2021-06-06T07:50:55Z</time>
      </trkpt>
      <trkpt lat="45.75336" lon="3.0281">
        <ele>839.3704</ele>
        <time>2021-06-06T07:50:56Z</time>
      </trkpt>
      <trkpt lat="45.75335" lon="3.02811">
        <ele>839.17755</ele>
        <time>2021-06-06T07:50:57Z</time>
      </trkpt>
      <trkpt lat="45.75333" lon="3.02812">
        <ele>839.52673</ele>
        <time>2021-06-06T07:50:58Z</time>
      </trkpt>
      <trkpt lat="45.75332" lon="3.02813">
        <ele>839.71954</ele>
        <time>2021-06-06T07:50:59Z</time>
      </trkpt>
      <trkpt lat="45.75332" lon="3.02813">
        <ele>839.96967</ele>
        <time>2021-06-06T07:51:00Z</time>
      </trkpt>
      <trkpt lat="45.75331" lon="3.02814">
        <ele>840.3397</ele>
        <time>2021-06-06T07:51:01Z</time>
      </trkpt>
      <trkpt lat="45.7533" lon="3.02814">
        <ele>840.2928</ele>
        <time>2021-06-06T07:51:02Z</time>
      </trkpt>
      <trkpt lat="45.75329" lon="3.02815">
        <ele>840.49084</ele>
        <time>2021-06-06T07:51:03Z</time>
      </trkpt>
      <trkpt lat="45.75328" lon="3.02815">
        <ele>840.4335</ele>
        <time>2021-06-06T07:51:04Z</time>
      </trkpt>
      <trkpt lat="45.75327" lon="3.02817">
        <ele>840.49084</ele>
        <time>2021-06-06T07:51:05Z</time>
      </trkpt>
      <trkpt lat="45.75326" lon="3.02817">
        <ele>840.68884</ele>
        <time>2021-06-06T07:51:06Z</time>
      </trkpt>
      <trkpt lat="45.75325" lon="3.02819">
        <ele>840.78265</ele>
        <time>2021-06-06T07:51:07Z</time>
      </trkpt>
      <trkpt lat="45.75324" lon="3.0282">
        <ele>841.2152</ele>
        <time>2021-06-06T07:51:08Z</time>
      </trkpt>
      <trkpt lat="45.75322" lon="3.02821">
        <ele>841.38196</ele>
        <time>2021-06-06T07:51:09Z</time>
      </trkpt>
      <trkpt lat="45.75322" lon="3.02821">
        <ele>841.5644</ele>
        <time>2021-06-06T07:51:10Z</time>
      </trkpt>
      <trkpt lat="45.7532" lon="3.02821">
        <ele>841.2673</ele>
        <time>2021-06-06T07:51:11Z</time>
      </trkpt>
      <trkpt lat="45.75319" lon="3.02822">
        <ele>841.2778</ele>
        <time>2021-06-06T07:51:12Z</time>
      </trkpt>
      <trkpt lat="45.75319" lon="3.02823">
        <ele>841.6269</ele>
        <time>2021-06-06T07:51:13Z</time>
      </trkpt>
      <trkpt lat="45.75318" lon="3.02824">
        <ele>841.6842</ele>
        <time>2021-06-06T07:51:14Z</time>
      </trkpt>
      <trkpt lat="45.75317" lon="3.02826">
        <ele>841.6686</ele>
        <time>2021-06-06T07:51:15Z</time>
      </trkpt>
      <trkpt lat="45.75316" lon="3.02827">
        <ele>841.6373</ele>
        <time>2021-06-06T07:51:16Z</time>
      </trkpt>
      <trkpt lat="45.75314" lon="3.02828">
        <ele>841.8406</ele>
        <time>2021-06-06T07:51:17Z</time>
      </trkpt>
      <trkpt lat="45.75313" lon="3.02829">
        <ele>842.15326</ele>
        <time>2021-06-06T07:51:18Z</time>
      </trkpt>
      <trkpt lat="45.75311" lon="3.0283">
        <ele>842.29913</ele>
        <time>2021-06-06T07:51:19Z</time>
      </trkpt>
      <trkpt lat="45.7531" lon="3.02831">
        <ele>842.5389</ele>
        <time>2021-06-06T07:51:20Z</time>
      </trkpt>
      <trkpt lat="45.75309" lon="3.02832">
        <ele>842.6535</ele>
        <time>2021-06-06T07:51:21Z</time>
      </trkpt>
      <trkpt lat="45.75308" lon="3.02833">
        <ele>842.6326</ele>
        <time>2021-06-06T07:51:22Z</time>
      </trkpt>
      <trkpt lat="45.75307" lon="3.02834">
        <ele>842.6118</ele>
        <time>2021-06-06T07:51:23Z</time>
      </trkpt>
      <trkpt lat="45.75305" lon="3.02834">
        <ele>842.52844</ele>
        <time>2021-06-06T07:51:24Z</time>
      </trkpt>
      <trkpt lat="45.75304" lon="3.02834">
        <ele>842.69</ele>
        <time>2021-06-06T07:51:25Z</time>
      </trkpt>
      <trkpt lat="45.75303" lon="3.02834">
        <ele>842.888</ele>
        <time>2021-06-06T07:51:26Z</time>
      </trkpt>
      <trkpt lat="45.75301" lon="3.02834">
        <ele>842.91406</ele>
        <time>2021-06-06T07:51:27Z</time>
      </trkpt>
      <trkpt lat="45.75301" lon="3.02833">
        <ele>843.0235</ele>
        <time>2021-06-06T07:51:28Z</time>
      </trkpt>
      <trkpt lat="45.75299" lon="3.02834">
        <ele>843.28406</ele>
        <time>2021-06-06T07:51:29Z</time>
      </trkpt>
      <trkpt lat="45.75298" lon="3.02835">
        <ele>843.48206</ele>
        <time>2021-06-06T07:51:30Z</time>
      </trkpt>
      <trkpt lat="45.75297" lon="3.02834">
        <ele>843.45605</ele>
        <time>2021-06-06T07:51:31Z</time>
      </trkpt>
      <trkpt lat="45.75296" lon="3.02834">
        <ele>843.503</ele>
        <time>2021-06-06T07:51:32Z</time>
      </trkpt>
      <trkpt lat="45.75295" lon="3.02835">
        <ele>843.55505</ele>
        <time>2021-06-06T07:51:33Z</time>
      </trkpt>
      <trkpt lat="45.75295" lon="3.02837">
        <ele>843.59674</ele>
        <time>2021-06-06T07:51:34Z</time>
      </trkpt>
      <trkpt lat="45.75293" lon="3.02838">
        <ele>843.7374</ele>
        <time>2021-06-06T07:51:35Z</time>
      </trkpt>
      <trkpt lat="45.75291" lon="3.02839">
        <ele>843.96674</ele>
        <time>2021-06-06T07:51:36Z</time>
      </trkpt>
      <trkpt lat="45.7529" lon="3.02839">
        <ele>844.0606</ele>
        <time>2021-06-06T07:51:37Z</time>
      </trkpt>
      <trkpt lat="45.75289" lon="3.0284">
        <ele>844.1491</ele>
        <time>2021-06-06T07:51:38Z</time>
      </trkpt>
      <trkpt lat="45.75288" lon="3.02841">
        <ele>844.22736</ele>
        <time>2021-06-06T07:51:39Z</time>
      </trkpt>
      <trkpt lat="45.75288" lon="3.02842">
        <ele>844.3941</ele>
        <time>2021-06-06T07:51:40Z</time>
      </trkpt>
      <trkpt lat="45.75287" lon="3.02842">
        <ele>844.3941</ele>
        <time>2021-06-06T07:51:41Z</time>
      </trkpt>
      <trkpt lat="45.75285" lon="3.02843">
        <ele>844.38885</ele>
        <time>2021-06-06T07:51:42Z</time>
      </trkpt>
      <trkpt lat="45.75284" lon="3.02843">
        <ele>844.5921</ele>
        <time>2021-06-06T07:51:43Z</time>
      </trkpt>
      <trkpt lat="45.75283" lon="3.02844">
        <ele>844.7641</ele>
        <time>2021-06-06T07:51:44Z</time>
      </trkpt>
      <trkpt lat="45.75282" lon="3.02846">
        <ele>845.04553</ele>
        <time>2021-06-06T07:51:46Z</time>
      </trkpt>
      <trkpt lat="45.7528" lon="3.02847">
        <ele>845.20703</ele>
        <time>2021-06-06T07:51:47Z</time>
      </trkpt>
      <trkpt lat="45.75279" lon="3.02848">
        <ele>845.35815</ele>
        <time>2021-06-06T07:51:48Z</time>
      </trkpt>
      <trkpt lat="45.75277" lon="3.02848">
        <ele>845.3686</ele>
        <time>2021-06-06T07:51:49Z</time>
      </trkpt>
      <trkpt lat="45.75275" lon="3.02849">
        <ele>845.4259</ele>
        <time>2021-06-06T07:51:50Z</time>
      </trkpt>
      <trkpt lat="45.75273" lon="3.02849">
        <ele>845.58746</ele>
        <time>2021-06-06T07:51:51Z</time>
      </trkpt>
      <trkpt lat="45.75272" lon="3.02849">
        <ele>845.65</ele>
        <time>2021-06-06T07:51:52Z</time>
      </trkpt>
      <trkpt lat="45.75271" lon="3.02849">
        <ele>845.848</ele>
        <time>2021-06-06T07:51:53Z</time>
      </trkpt>
      <trkpt lat="45.75269" lon="3.0285">
        <ele>846.09814</ele>
        <time>2021-06-06T07:51:54Z</time>
      </trkpt>
      <trkpt lat="45.75268" lon="3.0285">
        <ele>845.98346</ele>
        <time>2021-06-06T07:51:55Z</time>
      </trkpt>
      <trkpt lat="45.75267" lon="3.02852">
        <ele>846.0721</ele>
        <time>2021-06-06T07:51:56Z</time>
      </trkpt>
      <trkpt lat="45.75265" lon="3.02853">
        <ele>846.22845</ele>
        <time>2021-06-06T07:51:57Z</time>
      </trkpt>
      <trkpt lat="45.75264" lon="3.02854">
        <ele>846.3118</ele>
        <time>2021-06-06T07:51:58Z</time>
      </trkpt>
      <trkpt lat="45.75264" lon="3.02855">
        <ele>846.489</ele>
        <time>2021-06-06T07:51:59Z</time>
      </trkpt>
      <trkpt lat="45.75263" lon="3.02856">
        <ele>846.93713</ele>
        <time>2021-06-06T07:52:00Z</time>
      </trkpt>
      <trkpt lat="45.75261" lon="3.02857">
        <ele>847.1456</ele>
        <time>2021-06-06T07:52:01Z</time>
      </trkpt>
      <trkpt lat="45.7526" lon="3.02858">
        <ele>847.3124</ele>
        <time>2021-06-06T07:52:02Z</time>
      </trkpt>
      <trkpt lat="45.75259" lon="3.02859">
        <ele>847.54175</ele>
        <time>2021-06-06T07:52:03Z</time>
      </trkpt>
      <trkpt lat="45.75258" lon="3.0286">
        <ele>847.5156</ele>
        <time>2021-06-06T07:52:04Z</time>
      </trkpt>
      <trkpt lat="45.75256" lon="3.0286">
        <ele>847.2864</ele>
        <time>2021-06-06T07:52:05Z</time>
      </trkpt>
      <trkpt lat="45.75254" lon="3.02861">
        <ele>847.599</ele>
        <time>2021-06-06T07:52:06Z</time>
      </trkpt>
      <trkpt lat="45.75254" lon="3.02862">
        <ele>847.69806</ele>
        <time>2021-06-06T07:52:07Z</time>
      </trkpt>
      <trkpt lat="45.75253" lon="3.02864">
        <ele>847.80225</ele>
        <time>2021-06-06T07:52:08Z</time>
      </trkpt>
      <trkpt lat="45.75252" lon="3.02864">
        <ele>847.9325</ele>
        <time>2021-06-06T07:52:09Z</time>
      </trkpt>
      <trkpt lat="45.75251" lon="3.02865">
        <ele>847.92206</ele>
        <time>2021-06-06T07:52:10Z</time>
      </trkpt>
      <trkpt lat="45.75251" lon="3.02865">
        <ele>847.8908</ele>
        <time>2021-06-06T07:52:11Z</time>
      </trkpt>
      <trkpt lat="45.7525" lon="3.02866">
        <ele>847.7554</ele>
        <time>2021-06-06T07:52:12Z</time>
      </trkpt>
      <trkpt lat="45.75249" lon="3.02868">
        <ele>847.83875</ele>
        <time>2021-06-06T07:52:13Z</time>
      </trkpt>
      <trkpt lat="45.75248" lon="3.02869">
        <ele>847.797</ele>
        <time>2021-06-06T07:52:14Z</time>
      </trkpt>
      <trkpt lat="45.75247" lon="3.02869">
        <ele>847.8231</ele>
        <time>2021-06-06T07:52:15Z</time>
      </trkpt>
      <trkpt lat="45.75246" lon="3.0287">
        <ele>847.771</ele>
        <time>2021-06-06T07:52:16Z</time>
      </trkpt>
      <trkpt lat="45.75245" lon="3.02871">
        <ele>847.5886</ele>
        <time>2021-06-06T07:52:17Z</time>
      </trkpt>
      <trkpt lat="45.75244" lon="3.02872">
        <ele>847.6772</ele>
        <time>2021-06-06T07:52:18Z</time>
      </trkpt>
      <trkpt lat="45.75243" lon="3.02873">
        <ele>847.797</ele>
        <time>2021-06-06T07:52:19Z</time>
      </trkpt>
      <trkpt lat="45.75242" lon="3.02874">
        <ele>847.8856</ele>
        <time>2021-06-06T07:52:20Z</time>
      </trkpt>
      <trkpt lat="45.75241" lon="3.02876">
        <ele>847.90125</ele>
        <time>2021-06-06T07:52:21Z</time>
      </trkpt>
      <trkpt lat="45.7524" lon="3.02877">
        <ele>847.7189</ele>
        <time>2021-06-06T07:52:22Z</time>
      </trkpt>
      <trkpt lat="45.75238" lon="3.02879">
        <ele>847.72406</ele>
        <time>2021-06-06T07:52:23Z</time>
      </trkpt>
      <trkpt lat="45.75237" lon="3.02881">
        <ele>847.5886</ele>
        <time>2021-06-06T07:52:24Z</time>
      </trkpt>
      <trkpt lat="45.75236" lon="3.02883">
        <ele>847.5521</ele>
        <time>2021-06-06T07:52:25Z</time>
      </trkpt>
      <trkpt lat="45.75235" lon="3.02884">
        <ele>847.3489</ele>
        <time>2021-06-06T07:52:26Z</time>
      </trkpt>
      <trkpt lat="45.75234" lon="3.02885">
        <ele>847.2081</ele>
        <time>2021-06-06T07:52:27Z</time>
      </trkpt>
      <trkpt lat="45.75232" lon="3.02887">
        <ele>847.1196</ele>
        <time>2021-06-06T07:52:28Z</time>
      </trkpt>
      <trkpt lat="45.75232" lon="3.02888">
        <ele>847.13525</ele>
        <time>2021-06-06T07:52:29Z</time>
      </trkpt>
      <trkpt lat="45.75231" lon="3.0289">
        <ele>847.27075</ele>
        <time>2021-06-06T07:52:30Z</time>
      </trkpt>
      <trkpt lat="45.7523" lon="3.02892">
        <ele>847.15607</ele>
        <time>2021-06-06T07:52:31Z</time>
      </trkpt>
      <trkpt lat="45.75229" lon="3.02893">
        <ele>847.14044</ele>
        <time>2021-06-06T07:52:32Z</time>
      </trkpt>
      <trkpt lat="45.75228" lon="3.02894">
        <ele>847.1456</ele>
        <time>2021-06-06T07:52:33Z</time>
      </trkpt>
      <trkpt lat="45.75227" lon="3.02896">
        <ele>847.0935</ele>
        <time>2021-06-06T07:52:34Z</time>
      </trkpt>
      <trkpt lat="45.75226" lon="3.02897">
        <ele>847.1456</ele>
        <time>2021-06-06T07:52:35Z</time>
      </trkpt>
      <trkpt lat="45.75225" lon="3.02899">
        <ele>846.86426</ele>
        <time>2021-06-06T07:52:36Z</time>
      </trkpt>
      <trkpt lat="45.75224" lon="3.029">
        <ele>846.958</ele>
        <time>2021-06-06T07:52:37Z</time>
      </trkpt>
      <trkpt lat="45.75224" lon="3.02902">
        <ele>847.1456</ele>
        <time>2021-06-06T07:52:38Z</time>
      </trkpt>
      <trkpt lat="45.75223" lon="3.02903">
        <ele>847.1717</ele>
        <time>2021-06-06T07:52:39Z</time>
      </trkpt>
      <trkpt lat="45.75222" lon="3.02904">
        <ele>847.46875</ele>
        <time>2021-06-06T07:52:40Z</time>
      </trkpt>
      <trkpt lat="45.75222" lon="3.02906">
        <ele>847.3176</ele>
        <time>2021-06-06T07:52:41Z</time>
      </trkpt>
      <trkpt lat="45.75221" lon="3.02908">
        <ele>847.2342</ele>
        <time>2021-06-06T07:52:42Z</time>
      </trkpt>
      <trkpt lat="45.7522" lon="3.02909">
        <ele>847.2134</ele>
        <time>2021-06-06T07:52:43Z</time>
      </trkpt>
      <trkpt lat="45.75219" lon="3.02911">
        <ele>846.9737</ele>
        <time>2021-06-06T07:52:44Z</time>
      </trkpt>
      <trkpt lat="45.75218" lon="3.02913">
        <ele>846.8538</ele>
        <time>2021-06-06T07:52:45Z</time>
      </trkpt>
      <trkpt lat="45.75217" lon="3.02915">
        <ele>847.0154</ele>
        <time>2021-06-06T07:52:46Z</time>
      </trkpt>
      <trkpt lat="45.75217" lon="3.02917">
        <ele>846.57764</ele>
        <time>2021-06-06T07:52:47Z</time>
      </trkpt>
      <trkpt lat="45.75215" lon="3.0292">
        <ele>846.2441</ele>
        <time>2021-06-06T07:52:49Z</time>
      </trkpt>
      <trkpt lat="45.75214" lon="3.02921">
        <ele>846.1503</ele>
        <time>2021-06-06T07:52:50Z</time>
      </trkpt>
      <trkpt lat="45.75213" lon="3.02921">
        <ele>846.22845</ele>
        <time>2021-06-06T07:52:51Z</time>
      </trkpt>
      <trkpt lat="45.75211" lon="3.02922">
        <ele>846.2441</ele>
        <time>2021-06-06T07:52:52Z</time>
      </trkpt>
      <trkpt lat="45.7521" lon="3.02923">
        <ele>846.10333</ele>
        <time>2021-06-06T07:52:53Z</time>
      </trkpt>
      <trkpt lat="45.75209" lon="3.02923">
        <ele>845.9158</ele>
        <time>2021-06-06T07:52:54Z</time>
      </trkpt>
      <trkpt lat="45.75208" lon="3.02924">
        <ele>845.8637</ele>
        <time>2021-06-06T07:52:55Z</time>
      </trkpt>
      <trkpt lat="45.75207" lon="3.02923">
        <ele>845.8741</ele>
        <time>2021-06-06T07:52:56Z</time>
      </trkpt>
      <trkpt lat="45.75206" lon="3.02923">
        <ele>845.82715</ele>
        <time>2021-06-06T07:52:57Z</time>
      </trkpt>
      <trkpt lat="45.75205" lon="3.02923">
        <ele>845.67084</ele>
        <time>2021-06-06T07:52:58Z</time>
      </trkpt>
      <trkpt lat="45.75204" lon="3.02923">
        <ele>845.5823</ele>
        <time>2021-06-06T07:52:59Z</time>
      </trkpt>
      <trkpt lat="45.75202" lon="3.02922">
        <ele>845.72296</ele>
        <time>2021-06-06T07:53:00Z</time>
      </trkpt>
      <trkpt lat="45.752" lon="3.02921">
        <ele>845.68646</ele>
        <time>2021-06-06T07:53:01Z</time>
      </trkpt>
      <trkpt lat="45.75198" lon="3.02921">
        <ele>845.6135</ele>
        <time>2021-06-06T07:53:02Z</time>
      </trkpt>
      <trkpt lat="45.75197" lon="3.02921">
        <ele>845.75946</ele>
        <time>2021-06-06T07:53:03Z</time>
      </trkpt>
      <trkpt lat="45.75196" lon="3.02921">
        <ele>845.82715</ele>
        <time>2021-06-06T07:53:04Z</time>
      </trkpt>
      <trkpt lat="45.75195" lon="3.02921">
        <ele>845.7177</ele>
        <time>2021-06-06T07:53:05Z</time>
      </trkpt>
      <trkpt lat="45.75193" lon="3.02921">
        <ele>845.74384</ele>
        <time>2021-06-06T07:53:06Z</time>
      </trkpt>
      <trkpt lat="45.75192" lon="3.02921">
        <ele>845.7751</ele>
        <time>2021-06-06T07:53:07Z</time>
      </trkpt>
      <trkpt lat="45.7519" lon="3.0292">
        <ele>845.8167</ele>
        <time>2021-06-06T07:53:08Z</time>
      </trkpt>
      <trkpt lat="45.75189" lon="3.0292">
        <ele>845.87933</ele>
        <time>2021-06-06T07:53:09Z</time>
      </trkpt>
      <trkpt lat="45.75187" lon="3.0292">
        <ele>845.9731</ele>
        <time>2021-06-06T07:53:10Z</time>
      </trkpt>
      <trkpt lat="45.75186" lon="3.0292">
        <ele>846.04083</ele>
        <time>2021-06-06T07:53:11Z</time>
      </trkpt>
      <trkpt lat="45.75184" lon="3.0292">
        <ele>846.03564</ele>
        <time>2021-06-06T07:53:12Z</time>
      </trkpt>
      <trkpt lat="45.75182" lon="3.0292">
        <ele>846.0513</ele>
        <time>2021-06-06T07:53:13Z</time>
      </trkpt>
      <trkpt lat="45.7518" lon="3.02919">
        <ele>846.0461</ele>
        <time>2021-06-06T07:53:14Z</time>
      </trkpt>
      <trkpt lat="45.75178" lon="3.02918">
        <ele>846.11896</ele>
        <time>2021-06-06T07:53:15Z</time>
      </trkpt>
      <trkpt lat="45.75177" lon="3.02918">
        <ele>846.23364</ele>
        <time>2021-06-06T07:53:16Z</time>
      </trkpt>
      <trkpt lat="45.75175" lon="3.02918">
        <ele>846.2024</ele>
        <time>2021-06-06T07:53:17Z</time>
      </trkpt>
      <trkpt lat="45.75174" lon="3.02918">
        <ele>846.291</ele>
        <time>2021-06-06T07:53:18Z</time>
      </trkpt>
      <trkpt lat="45.75172" lon="3.02917">
        <ele>846.2806</ele>
        <time>2021-06-06T07:53:19Z</time>
      </trkpt>
      <trkpt lat="45.75171" lon="3.02917">
        <ele>846.3483</ele>
        <time>2021-06-06T07:53:20Z</time>
      </trkpt>
      <trkpt lat="45.75169" lon="3.02917">
        <ele>846.3431</ele>
        <time>2021-06-06T07:53:21Z</time>
      </trkpt>
      <trkpt lat="45.75168" lon="3.02916">
        <ele>846.5463</ele>
        <time>2021-06-06T07:53:22Z</time>
      </trkpt>
      <trkpt lat="45.75167" lon="3.02916">
        <ele>846.91113</ele>
        <time>2021-06-06T07:53:23Z</time>
      </trkpt>
      <trkpt lat="45.75166" lon="3.02915">
        <ele>846.84863</ele>
        <time>2021-06-06T07:53:24Z</time>
      </trkpt>
      <trkpt lat="45.75165" lon="3.02915">
        <ele>846.89026</ele>
        <time>2021-06-06T07:53:25Z</time>
      </trkpt>
      <trkpt lat="45.75163" lon="3.02914">
        <ele>847.06226</ele>
        <time>2021-06-06T07:53:26Z</time>
      </trkpt>
      <trkpt lat="45.75162" lon="3.02913">
        <ele>847.35925</ele>
        <time>2021-06-06T07:53:27Z</time>
      </trkpt>
      <trkpt lat="45.7516" lon="3.02913">
        <ele>847.599</ele>
        <time>2021-06-06T07:53:28Z</time>
      </trkpt>
      <trkpt lat="45.75159" lon="3.02913">
        <ele>847.56256</ele>
        <time>2021-06-06T07:53:29Z</time>
      </trkpt>
      <trkpt lat="45.75158" lon="3.02913">
        <ele>847.7814</ele>
        <time>2021-06-06T07:53:30Z</time>
      </trkpt>
      <trkpt lat="45.75156" lon="3.02913">
        <ele>847.87</ele>
        <time>2021-06-06T07:53:31Z</time>
      </trkpt>
      <trkpt lat="45.75155" lon="3.02912">
        <ele>848.0159</ele>
        <time>2021-06-06T07:53:32Z</time>
      </trkpt>
      <trkpt lat="45.75153" lon="3.02912">
        <ele>848.1514</ele>
        <time>2021-06-06T07:53:33Z</time>
      </trkpt>
      <trkpt lat="45.75152" lon="3.02913">
        <ele>848.24005</ele>
        <time>2021-06-06T07:53:34Z</time>
      </trkpt>
      <trkpt lat="45.7515" lon="3.02913">
        <ele>848.3912</ele>
        <time>2021-06-06T07:53:35Z</time>
      </trkpt>
      <trkpt lat="45.75149" lon="3.02913">
        <ele>848.5423</ele>
        <time>2021-06-06T07:53:36Z</time>
      </trkpt>
      <trkpt lat="45.75146" lon="3.02913">
        <ele>848.7611</ele>
        <time>2021-06-06T07:53:38Z</time>
      </trkpt>
      <trkpt lat="45.75145" lon="3.02913">
        <ele>849.0112</ele>
        <time>2021-06-06T07:53:39Z</time>
      </trkpt>
      <trkpt lat="45.75144" lon="3.02913">
        <ele>849.2875</ele>
        <time>2021-06-06T07:53:40Z</time>
      </trkpt>
      <trkpt lat="45.75143" lon="3.02912">
        <ele>849.0634</ele>
        <time>2021-06-06T07:53:41Z</time>
      </trkpt>
      <trkpt lat="45.75142" lon="3.02912">
        <ele>849.35004</ele>
        <time>2021-06-06T07:53:42Z</time>
      </trkpt>
      <trkpt lat="45.75141" lon="3.02912">
        <ele>849.6158</ele>
        <time>2021-06-06T07:53:43Z</time>
      </trkpt>
      <trkpt lat="45.7514" lon="3.02911">
        <ele>849.74084</ele>
        <time>2021-06-06T07:53:44Z</time>
      </trkpt>
      <trkpt lat="45.75139" lon="3.0291">
        <ele>849.67834</ele>
        <time>2021-06-06T07:53:45Z</time>
      </trkpt>
      <trkpt lat="45.75138" lon="3.0291">
        <ele>849.5376</ele>
        <time>2021-06-06T07:53:46Z</time>
      </trkpt>
      <trkpt lat="45.75137" lon="3.02909">
        <ele>849.42816</ele>
        <time>2021-06-06T07:53:47Z</time>
      </trkpt>
      <trkpt lat="45.75135" lon="3.02909">
        <ele>849.4907</ele>
        <time>2021-06-06T07:53:48Z</time>
      </trkpt>
      <trkpt lat="45.75134" lon="3.02908">
        <ele>849.3344</ele>
        <time>2021-06-06T07:53:49Z</time>
      </trkpt>
      <trkpt lat="45.75132" lon="3.02907">
        <ele>849.1051</ele>
        <time>2021-06-06T07:53:50Z</time>
      </trkpt>
      <trkpt lat="45.75131" lon="3.02907">
        <ele>849.3291</ele>
        <time>2021-06-06T07:53:51Z</time>
      </trkpt>
      <trkpt lat="45.75129" lon="3.02906">
        <ele>849.54803</ele>
        <time>2021-06-06T07:53:52Z</time>
      </trkpt>
      <trkpt lat="45.75128" lon="3.02905">
        <ele>849.6158</ele>
        <time>2021-06-06T07:53:53Z</time>
      </trkpt>
      <trkpt lat="45.75127" lon="3.02904">
        <ele>849.5324</ele>
        <time>2021-06-06T07:53:54Z</time>
      </trkpt>
      <trkpt lat="45.75126" lon="3.02903">
        <ele>849.6887</ele>
        <time>2021-06-06T07:53:55Z</time>
      </trkpt>
      <trkpt lat="45.75125" lon="3.02902">
        <ele>849.68353</ele>
        <time>2021-06-06T07:53:56Z</time>
      </trkpt>
      <trkpt lat="45.75124" lon="3.02901">
        <ele>849.74603</ele>
        <time>2021-06-06T07:53:57Z</time>
      </trkpt>
      <trkpt lat="45.75122" lon="3.02901">
        <ele>849.83466</ele>
        <time>2021-06-06T07:53:58Z</time>
      </trkpt>
      <trkpt lat="45.7512" lon="3.029">
        <ele>849.67834</ele>
        <time>2021-06-06T07:53:59Z</time>
      </trkpt>
      <trkpt lat="45.75119" lon="3.02899">
        <ele>849.83984</ele>
        <time>2021-06-06T07:54:00Z</time>
      </trkpt>
      <trkpt lat="45.75117" lon="3.02898">
        <ele>850.0379</ele>
        <time>2021-06-06T07:54:01Z</time>
      </trkpt>
      <trkpt lat="45.75116" lon="3.02897">
        <ele>850.06396</ele>
        <time>2021-06-06T07:54:02Z</time>
      </trkpt>
      <trkpt lat="45.75114" lon="3.02896">
        <ele>850.0222</ele>
        <time>2021-06-06T07:54:03Z</time>
      </trkpt>
      <trkpt lat="45.75113" lon="3.02896">
        <ele>849.9493</ele>
        <time>2021-06-06T07:54:04Z</time>
      </trkpt>
      <trkpt lat="45.75111" lon="3.02896">
        <ele>849.7878</ele>
        <time>2021-06-06T07:54:05Z</time>
      </trkpt>
      <trkpt lat="45.7511" lon="3.02895">
        <ele>849.5845</ele>
        <time>2021-06-06T07:54:06Z</time>
      </trkpt>
      <trkpt lat="45.75109" lon="3.02894">
        <ele>849.77216</ele>
        <time>2021-06-06T07:54:07Z</time>
      </trkpt>
      <trkpt lat="45.75108" lon="3.02893">
        <ele>849.8867</ele>
        <time>2021-06-06T07:54:08Z</time>
      </trkpt>
      <trkpt lat="45.75107" lon="3.02893">
        <ele>849.7148</ele>
        <time>2021-06-06T07:54:09Z</time>
      </trkpt>
      <trkpt lat="45.75106" lon="3.02893">
        <ele>849.5376</ele>
        <time>2021-06-06T07:54:10Z</time>
      </trkpt>
      <trkpt lat="45.75106" lon="3.02893">
        <ele>849.3552</ele>
        <time>2021-06-06T07:54:11Z</time>
      </trkpt>
      <trkpt lat="45.75105" lon="3.02892">
        <ele>849.3083</ele>
        <time>2021-06-06T07:54:12Z</time>
      </trkpt>
      <trkpt lat="45.75103" lon="3.02891">
        <ele>849.1259</ele>
        <time>2021-06-06T07:54:13Z</time>
      </trkpt>
      <trkpt lat="45.75102" lon="3.02889">
        <ele>849.0373</ele>
        <time>2021-06-06T07:54:14Z</time>
      </trkpt>
      <trkpt lat="45.75101" lon="3.02888">
        <ele>848.9487</ele>
        <time>2021-06-06T07:54:15Z</time>
      </trkpt>
      <trkpt lat="45.751" lon="3.02887">
        <ele>848.78723</ele>
        <time>2021-06-06T07:54:16Z</time>
      </trkpt>
      <trkpt lat="45.75098" lon="3.02886">
        <ele>848.91223</ele>
        <time>2021-06-06T07:54:17Z</time>
      </trkpt>
      <trkpt lat="45.75097" lon="3.02885">
        <ele>848.8445</ele>
        <time>2021-06-06T07:54:18Z</time>
      </trkpt>
      <trkpt lat="45.75096" lon="3.02884">
        <ele>848.84973</ele>
        <time>2021-06-06T07:54:19Z</time>
      </trkpt>
      <trkpt lat="45.75095" lon="3.02883">
        <ele>848.7924</ele>
        <time>2021-06-06T07:54:20Z</time>
      </trkpt>
      <trkpt lat="45.75094" lon="3.02881">
        <ele>848.80286</ele>
        <time>2021-06-06T07:54:21Z</time>
      </trkpt>
      <trkpt lat="45.75093" lon="3.0288">
        <ele>848.6256</ele>
        <time>2021-06-06T07:54:22Z</time>
      </trkpt>
      <trkpt lat="45.75092" lon="3.02879">
        <ele>848.7663</ele>
        <time>2021-06-06T07:54:23Z</time>
      </trkpt>
      <trkpt lat="45.75091" lon="3.02878">
        <ele>848.67773</ele>
        <time>2021-06-06T07:54:24Z</time>
      </trkpt>
      <trkpt lat="45.7509" lon="3.02876">
        <ele>848.3182</ele>
        <time>2021-06-06T07:54:25Z</time>
      </trkpt>
      <trkpt lat="45.7509" lon="3.02874">
        <ele>848.4224</ele>
        <time>2021-06-06T07:54:26Z</time>
      </trkpt>
      <trkpt lat="45.75089" lon="3.02871">
        <ele>848.13055</ele>
        <time>2021-06-06T07:54:27Z</time>
      </trkpt>
      <trkpt lat="45.75087" lon="3.02869">
        <ele>847.81793</ele>
        <time>2021-06-06T07:54:28Z</time>
      </trkpt>
      <trkpt lat="45.75087" lon="3.02867">
        <ele>847.68243</ele>
        <time>2021-06-06T07:54:29Z</time>
      </trkpt>
      <trkpt lat="45.75086" lon="3.02866">
        <ele>847.8752</ele>
        <time>2021-06-06T07:54:30Z</time>
      </trkpt>
      <trkpt lat="45.75085" lon="3.02864">
        <ele>847.62506</ele>
        <time>2021-06-06T07:54:31Z</time>
      </trkpt>
      <trkpt lat="45.75085" lon="3.02862">
        <ele>847.5208</ele>
        <time>2021-06-06T07:54:32Z</time>
      </trkpt>
      <trkpt lat="45.75084" lon="3.02861">
        <ele>847.5313</ele>
        <time>2021-06-06T07:54:33Z</time>
      </trkpt>
      <trkpt lat="45.75083" lon="3.02859">
        <ele>847.3072</ele>
        <time>2021-06-06T07:54:34Z</time>
      </trkpt>
      <trkpt lat="45.75082" lon="3.02857">
        <ele>846.9893</ele>
        <time>2021-06-06T07:54:35Z</time>
      </trkpt>
      <trkpt lat="45.75081" lon="3.02855">
        <ele>846.859</ele>
        <time>2021-06-06T07:54:36Z</time>
      </trkpt>
      <trkpt lat="45.7508" lon="3.02853">
        <ele>846.72876</ele>
        <time>2021-06-06T07:54:37Z</time>
      </trkpt>
      <trkpt lat="45.75079" lon="3.02851">
        <ele>846.8538</ele>
        <time>2021-06-06T07:54:38Z</time>
      </trkpt>
      <trkpt lat="45.75079" lon="3.02849">
        <ele>846.7235</ele>
        <time>2021-06-06T07:54:39Z</time>
      </trkpt>
      <trkpt lat="45.75079" lon="3.02849">
        <ele>846.55676</ele>
        <time>2021-06-06T07:54:40Z</time>
      </trkpt>
      <trkpt lat="45.75079" lon="3.02847">
        <ele>846.44214</ele>
        <time>2021-06-06T07:54:41Z</time>
      </trkpt>
      <trkpt lat="45.75079" lon="3.02846">
        <ele>846.6089</ele>
        <time>2021-06-06T07:54:42Z</time>
      </trkpt>
      <trkpt lat="45.75079" lon="3.02845">
        <ele>846.3483</ele>
        <time>2021-06-06T07:54:43Z</time>
      </trkpt>
      <trkpt lat="45.75079" lon="3.02843">
        <ele>845.9939</ele>
        <time>2021-06-06T07:54:44Z</time>
      </trkpt>
      <trkpt lat="45.7508" lon="3.02841">
        <ele>846.0513</ele>
        <time>2021-06-06T07:54:45Z</time>
      </trkpt>
      <trkpt lat="45.75081" lon="3.0284">
        <ele>846.1242</ele>
        <time>2021-06-06T07:54:46Z</time>
      </trkpt>
      <trkpt lat="45.75082" lon="3.02839">
        <ele>846.03046</ele>
        <time>2021-06-06T07:54:47Z</time>
      </trkpt>
      <trkpt lat="45.75083" lon="3.02837">
        <ele>845.9314</ele>
        <time>2021-06-06T07:54:48Z</time>
      </trkpt>
      <trkpt lat="45.75084" lon="3.02836">
        <ele>845.6344</ele>
        <time>2021-06-06T07:54:49Z</time>
      </trkpt>
      <trkpt lat="45.75085" lon="3.02835">
        <ele>845.5197</ele>
        <time>2021-06-06T07:54:50Z</time>
      </trkpt>
      <trkpt lat="45.75087" lon="3.02834">
        <ele>845.6135</ele>
        <time>2021-06-06T07:54:51Z</time>
      </trkpt>
      <trkpt lat="45.75089" lon="3.02833">
        <ele>845.5041</ele>
        <time>2021-06-06T07:54:52Z</time>
      </trkpt>
      <trkpt lat="45.75089" lon="3.02832">
        <ele>845.46765</ele>
        <time>2021-06-06T07:54:53Z</time>
      </trkpt>
      <trkpt lat="45.7509" lon="3.02831">
        <ele>845.58746</ele>
        <time>2021-06-06T07:54:54Z</time>
      </trkpt>
      <trkpt lat="45.75092" lon="3.0283">
        <ele>845.577</ele>
        <time>2021-06-06T07:54:55Z</time>
      </trkpt>
      <trkpt lat="45.75094" lon="3.02828">
        <ele>845.2748</ele>
        <time>2021-06-06T07:54:56Z</time>
      </trkpt>
      <trkpt lat="45.75094" lon="3.02827">
        <ele>845.0768</ele>
        <time>2021-06-06T07:54:57Z</time>
      </trkpt>
      <trkpt lat="45.75095" lon="3.02827">
        <ele>845.20703</ele>
        <time>2021-06-06T07:54:58Z</time>
      </trkpt>
      <trkpt lat="45.75097" lon="3.02825">
        <ele>845.4415</ele>
        <time>2021-06-06T07:54:59Z</time>
      </trkpt>
      <trkpt lat="45.75098" lon="3.02824">
        <ele>845.4572</ele>
        <time>2021-06-06T07:55:00Z</time>
      </trkpt>
      <trkpt lat="45.75099" lon="3.02823">
        <ele>845.5093</ele>
        <time>2021-06-06T07:55:01Z</time>
      </trkpt>
      <trkpt lat="45.751" lon="3.02822">
        <ele>845.4624</ele>
        <time>2021-06-06T07:55:02Z</time>
      </trkpt>
      <trkpt lat="45.75101" lon="3.02821">
        <ele>845.2956</ele>
        <time>2021-06-06T07:55:03Z</time>
      </trkpt>
      <trkpt lat="45.75102" lon="3.0282">
        <ele>845.5041</ele>
        <time>2021-06-06T07:55:04Z</time>
      </trkpt>
      <trkpt lat="45.75103" lon="3.02819">
        <ele>845.49365</ele>
        <time>2021-06-06T07:55:05Z</time>
      </trkpt>
      <trkpt lat="45.75105" lon="3.02817">
        <ele>845.3113</ele>
        <time>2021-06-06T07:55:06Z</time>
      </trkpt>
      <trkpt lat="45.75106" lon="3.02817">
        <ele>845.405</ele>
        <time>2021-06-06T07:55:07Z</time>
      </trkpt>
      <trkpt lat="45.75108" lon="3.02816">
        <ele>845.20703</ele>
        <time>2021-06-06T07:55:08Z</time>
      </trkpt>
      <trkpt lat="45.75109" lon="3.02815">
        <ele>845.1601</ele>
        <time>2021-06-06T07:55:09Z</time>
      </trkpt>
      <trkpt lat="45.7511" lon="3.02814">
        <ele>845.12366</ele>
        <time>2021-06-06T07:55:10Z</time>
      </trkpt>
      <trkpt lat="45.75111" lon="3.02812">
        <ele>845.1132</ele>
        <time>2021-06-06T07:55:11Z</time>
      </trkpt>
      <trkpt lat="45.75112" lon="3.02811">
        <ele>845.01416</ele>
        <time>2021-06-06T07:55:12Z</time>
      </trkpt>
      <trkpt lat="45.75113" lon="3.0281">
        <ele>844.8787</ele>
        <time>2021-06-06T07:55:13Z</time>
      </trkpt>
      <trkpt lat="45.75114" lon="3.02809">
        <ele>845.0299</ele>
        <time>2021-06-06T07:55:14Z</time>
      </trkpt>
      <trkpt lat="45.75115" lon="3.02808">
        <ele>844.9152</ele>
        <time>2021-06-06T07:55:15Z</time>
      </trkpt>
      <trkpt lat="45.75116" lon="3.02807">
        <ele>844.8683</ele>
        <time>2021-06-06T07:55:16Z</time>
      </trkpt>
      <trkpt lat="45.75117" lon="3.02806">
        <ele>844.79535</ele>
        <time>2021-06-06T07:55:17Z</time>
      </trkpt>
      <trkpt lat="45.75118" lon="3.02805">
        <ele>844.8058</ele>
        <time>2021-06-06T07:55:18Z</time>
      </trkpt>
      <trkpt lat="45.75119" lon="3.02805">
        <ele>844.88916</ele>
        <time>2021-06-06T07:55:19Z</time>
      </trkpt>
      <trkpt lat="45.7512" lon="3.02805">
        <ele>844.8318</ele>
        <time>2021-06-06T07:55:20Z</time>
      </trkpt>
      <trkpt lat="45.75121" lon="3.02804">
        <ele>844.8839</ele>
        <time>2021-06-06T07:55:21Z</time>
      </trkpt>
      <trkpt lat="45.75123" lon="3.02803">
        <ele>844.9048</ele>
        <time>2021-06-06T07:55:22Z</time>
      </trkpt>
      <trkpt lat="45.75124" lon="3.02802">
        <ele>844.6911</ele>
        <time>2021-06-06T07:55:23Z</time>
      </trkpt>
      <trkpt lat="45.75125" lon="3.02801">
        <ele>844.79016</ele>
        <time>2021-06-06T07:55:24Z</time>
      </trkpt>
      <trkpt lat="45.75127" lon="3.028">
        <ele>844.7276</ele>
        <time>2021-06-06T07:55:25Z</time>
      </trkpt>
      <trkpt lat="45.75128" lon="3.02799">
        <ele>844.7641</ele>
        <time>2021-06-06T07:55:26Z</time>
      </trkpt>
      <trkpt lat="45.75128" lon="3.028">
        <ele>844.99854</ele>
        <time>2021-06-06T07:55:27Z</time>
      </trkpt>
      <trkpt lat="45.75127" lon="3.028">
        <ele>845.04553</ele>
        <time>2021-06-06T07:55:28Z</time>
      </trkpt>
      <trkpt lat="45.75127" lon="3.028">
        <ele>844.7849</ele>
        <time>2021-06-06T07:55:29Z</time>
      </trkpt>
      <trkpt lat="45.75127" lon="3.028">
        <ele>844.7849</ele>
        <time>2021-06-06T07:55:29Z</time>
      </trkpt>
      <trkpt lat="45.75127" lon="3.02802">
        <ele>845.13403</ele>
        <time>2021-06-06T07:55:45Z</time>
      </trkpt>
      <trkpt lat="45.75128" lon="3.02802">
        <ele>844.85785</ele>
        <time>2021-06-06T07:55:46Z</time>
      </trkpt>
      <trkpt lat="45.75129" lon="3.02801">
        <ele>845.12885</ele>
        <time>2021-06-06T07:55:47Z</time>
      </trkpt>
      <trkpt lat="45.75131" lon="3.02802">
        <ele>845.3842</ele>
        <time>2021-06-06T07:55:48Z</time>
      </trkpt>
      <trkpt lat="45.75132" lon="3.02802">
        <ele>845.4311</ele>
        <time>2021-06-06T07:55:49Z</time>
      </trkpt>
      <trkpt lat="45.75134" lon="3.02801">
        <ele>845.06635</ele>
        <time>2021-06-06T07:55:50Z</time>
      </trkpt>
      <trkpt lat="45.75135" lon="3.02801">
        <ele>844.93604</ele>
        <time>2021-06-06T07:55:51Z</time>
      </trkpt>
      <trkpt lat="45.75136" lon="3.02801">
        <ele>845.0976</ele>
        <time>2021-06-06T07:55:52Z</time>
      </trkpt>
      <trkpt lat="45.75138" lon="3.028">
        <ele>845.0559</ele>
        <time>2021-06-06T07:55:53Z</time>
      </trkpt>
      <trkpt lat="45.75139" lon="3.02799">
        <ele>844.9777</ele>
        <time>2021-06-06T07:55:54Z</time>
      </trkpt>
      <trkpt lat="45.75139" lon="3.02799">
        <ele>844.7797</ele>
        <time>2021-06-06T07:55:55Z</time>
      </trkpt>
      <trkpt lat="45.7514" lon="3.02799">
        <ele>844.8266</ele>
        <time>2021-06-06T07:55:56Z</time>
      </trkpt>
      <trkpt lat="45.75141" lon="3.02799">
        <ele>844.71716</ele>
        <time>2021-06-06T07:55:57Z</time>
      </trkpt>
      <trkpt lat="45.75142" lon="3.02799">
        <ele>844.6077</ele>
        <time>2021-06-06T07:55:58Z</time>
      </trkpt>
      <trkpt lat="45.75142" lon="3.02798">
        <ele>844.5452</ele>
        <time>2021-06-06T07:55:59Z</time>
      </trkpt>
      <trkpt lat="45.75142" lon="3.02798">
        <ele>844.7693</ele>
        <time>2021-06-06T07:56:00Z</time>
      </trkpt>
      <trkpt lat="45.75143" lon="3.02798">
        <ele>844.99854</ele>
        <time>2021-06-06T07:56:01Z</time>
      </trkpt>
      <trkpt lat="45.75143" lon="3.02798">
        <ele>845.2904</ele>
        <time>2021-06-06T07:56:02Z</time>
      </trkpt>
      <trkpt lat="45.75143" lon="3.02798">
        <ele>845.4415</ele>
        <time>2021-06-06T07:56:03Z</time>
      </trkpt>
      <trkpt lat="45.75143" lon="3.02798">
        <ele>845.7907</ele>
        <time>2021-06-06T07:56:04Z</time>
      </trkpt>
      <trkpt lat="45.75143" lon="3.02798">
        <ele>845.72296</ele>
        <time>2021-06-06T07:56:05Z</time>
      </trkpt>
      <trkpt lat="45.75143" lon="3.02799">
        <ele>845.5927</ele>
        <time>2021-06-06T07:56:06Z</time>
      </trkpt>
      <trkpt lat="45.75144" lon="3.028">
        <ele>845.8532</ele>
        <time>2021-06-06T07:56:07Z</time>
      </trkpt>
      <trkpt lat="45.75144" lon="3.028">
        <ele>845.6396</ele>
        <time>2021-06-06T07:56:08Z</time>
      </trkpt>
      <trkpt lat="45.75145" lon="3.02799">
        <ele>845.82715</ele>
        <time>2021-06-06T07:56:09Z</time>
      </trkpt>
      <trkpt lat="45.75145" lon="3.02799">
        <ele>845.48846</ele>
        <time>2021-06-06T07:56:10Z</time>
      </trkpt>
      <trkpt lat="45.75145" lon="3.02799">
        <ele>845.48846</ele>
        <time>2021-06-06T07:56:10Z</time>
      </trkpt>
      <trkpt lat="45.75145" lon="3.02799">
        <ele>845.48846</ele>
        <time>2021-06-06T07:56:10Z</time>
      </trkpt>
      <trkpt lat="45.75146" lon="3.02801">
        <ele>845.5249</ele>
        <time>2021-06-06T07:56:19Z</time>
      </trkpt>
      <trkpt lat="45.75147" lon="3.02803">
        <ele>845.7177</ele>
        <time>2021-06-06T07:56:20Z</time>
      </trkpt>
      <trkpt lat="45.75148" lon="3.02803">
        <ele>845.8637</ele>
        <time>2021-06-06T07:56:21Z</time>
      </trkpt>
      <trkpt lat="45.75148" lon="3.02803">
        <ele>845.7334</ele>
        <time>2021-06-06T07:56:22Z</time>
      </trkpt>
      <trkpt lat="45.75148" lon="3.02803">
        <ele>845.5718</ele>
        <time>2021-06-06T07:56:23Z</time>
      </trkpt>
      <trkpt lat="45.75148" lon="3.02804">
        <ele>845.7073</ele>
        <time>2021-06-06T07:56:24Z</time>
      </trkpt>
      <trkpt lat="45.75148" lon="3.02804">
        <ele>845.87933</ele>
        <time>2021-06-06T07:56:25Z</time>
      </trkpt>
      <trkpt lat="45.75148" lon="3.02804">
        <ele>845.87933</ele>
        <time>2021-06-06T07:56:25Z</time>
      </trkpt>
      <trkpt lat="45.75148" lon="3.02804">
        <ele>845.87933</ele>
        <time>2021-06-06T07:56:25Z</time>
      </trkpt>
      <trkpt lat="45.7515" lon="3.02796">
        <ele>845.4415</ele>
        <time>2021-06-06T07:56:51Z</time>
      </trkpt>
      <trkpt lat="45.7515" lon="3.02795">
        <ele>845.80634</ele>
        <time>2021-06-06T07:56:52Z</time>
      </trkpt>
      <trkpt lat="45.7515" lon="3.02795">
        <ele>845.9522</ele>
        <time>2021-06-06T07:56:53Z</time>
      </trkpt>
      <trkpt lat="45.75151" lon="3.02795">
        <ele>845.6396</ele>
        <time>2021-06-06T07:56:54Z</time>
      </trkpt>
      <trkpt lat="45.75151" lon="3.02796">
        <ele>845.5614</ele>
        <time>2021-06-06T07:56:55Z</time>
      </trkpt>
      <trkpt lat="45.75151" lon="3.02796">
        <ele>845.5458</ele>
        <time>2021-06-06T07:56:56Z</time>
      </trkpt>
      <trkpt lat="45.75153" lon="3.02797">
        <ele>845.8011</ele>
        <time>2021-06-06T07:56:57Z</time>
      </trkpt>
      <trkpt lat="45.75152" lon="3.02796">
        <ele>845.82715</ele>
        <time>2021-06-06T07:56:58Z</time>
      </trkpt>
      <trkpt lat="45.75152" lon="3.02796">
        <ele>845.8584</ele>
        <time>2021-06-06T07:56:59Z</time>
      </trkpt>
      <trkpt lat="45.75152" lon="3.02796">
        <ele>845.9887</ele>
        <time>2021-06-06T07:57:00Z</time>
      </trkpt>
      <trkpt lat="45.75152" lon="3.02796">
        <ele>845.9887</ele>
        <time>2021-06-06T07:57:00Z</time>
      </trkpt>
      <trkpt lat="45.75152" lon="3.02796">
        <ele>845.9887</ele>
        <time>2021-06-06T07:57:00Z</time>
      </trkpt>
    </trkseg>
  </trk>
</gpx>